<?xml version="1.0" encoding="UTF-8" standalone="no" ?>
<gpx xmlns="http://www.topografix.com/GPX/1/1" xmlns:xsi="http://www.w3.org/2001/XMLSchema-instance" xsi:schemaLocation="http://www.topografix.com/GPX/1/1 http://www.topografix.com/GPX/1/1/gpx.xsd" version="1.1" creator="VisuGPX - https://www.visugpx.com">
  <metadata>
    <name>Pot_Thur 60</name>
  </metadata>
  <wpt lat="48.87672" lon="-0.388">
    <ele>204.2</ele>
    <name><![CDATA[WP 1]]></name>
  </wpt>
  <wpt lat="48.87672" lon="-0.388">
    <ele>204.2</ele>
    <name><![CDATA[Départ Arrivee]]></name>
  </wpt>
  <trk>
    <name><![CDATA[2019-06-08 14:49]]></name>
    <extensions>
      <line xmlns="http://www.topografix.com/GPX/gpx_style/0/2">
        <color>008800</color>
        <width>4</width>
      </line>
    </extensions>
    <trkseg>
      <trkpt lat="48.90853" lon="-0.46965">
        <ele>48</ele>
        <time>2019-06-08T12:55:08Z</time>
      </trkpt>
      <trkpt lat="48.90853" lon="-0.46965">
        <ele>48</ele>
        <time>2019-06-08T12:55:08Z</time>
      </trkpt>
      <trkpt lat="48.90853" lon="-0.46965">
        <ele>48</ele>
        <time>2019-06-08T12:55:08Z</time>
      </trkpt>
      <trkpt lat="48.90853" lon="-0.46965">
        <ele>48</ele>
        <time>2019-06-08T12:55:08Z</time>
      </trkpt>
      <trkpt lat="48.90853" lon="-0.46965">
        <ele>48</ele>
        <time>2019-06-08T12:55:08Z</time>
      </trkpt>
      <trkpt lat="48.90851" lon="-0.46974">
        <ele>48</ele>
        <time>2019-06-08T12:56:53Z</time>
      </trkpt>
      <trkpt lat="48.9085" lon="-0.46984">
        <ele>49</ele>
        <time>2019-06-08T12:56:57Z</time>
      </trkpt>
      <trkpt lat="48.90854" lon="-0.46994">
        <ele>49</ele>
        <time>2019-06-08T12:56:59Z</time>
      </trkpt>
      <trkpt lat="48.90861" lon="-0.47002">
        <ele>49</ele>
        <time>2019-06-08T12:57:01Z</time>
      </trkpt>
      <trkpt lat="48.90868" lon="-0.47009">
        <ele>48</ele>
        <time>2019-06-08T12:57:03Z</time>
      </trkpt>
      <trkpt lat="48.90874" lon="-0.47017">
        <ele>48</ele>
        <time>2019-06-08T12:57:05Z</time>
      </trkpt>
      <trkpt lat="48.90879" lon="-0.47028">
        <ele>48</ele>
        <time>2019-06-08T12:57:07Z</time>
      </trkpt>
      <trkpt lat="48.90884" lon="-0.47041">
        <ele>47</ele>
        <time>2019-06-08T12:57:09Z</time>
      </trkpt>
      <trkpt lat="48.90888" lon="-0.47056">
        <ele>47</ele>
        <time>2019-06-08T12:57:11Z</time>
      </trkpt>
      <trkpt lat="48.90891" lon="-0.4707">
        <ele>47</ele>
        <time>2019-06-08T12:57:13Z</time>
      </trkpt>
      <trkpt lat="48.90894" lon="-0.47083">
        <ele>46</ele>
        <time>2019-06-08T12:57:15Z</time>
      </trkpt>
      <trkpt lat="48.90896" lon="-0.47098">
        <ele>46</ele>
        <time>2019-06-08T12:57:17Z</time>
      </trkpt>
      <trkpt lat="48.90897" lon="-0.47114">
        <ele>46</ele>
        <time>2019-06-08T12:57:19Z</time>
      </trkpt>
      <trkpt lat="48.90897" lon="-0.4713">
        <ele>45</ele>
        <time>2019-06-08T12:57:21Z</time>
      </trkpt>
      <trkpt lat="48.90893" lon="-0.47147">
        <ele>45</ele>
        <time>2019-06-08T12:57:23Z</time>
      </trkpt>
      <trkpt lat="48.9089" lon="-0.47166">
        <ele>45</ele>
        <time>2019-06-08T12:57:25Z</time>
      </trkpt>
      <trkpt lat="48.90888" lon="-0.47185">
        <ele>43</ele>
        <time>2019-06-08T12:57:27Z</time>
      </trkpt>
      <trkpt lat="48.90887" lon="-0.472">
        <ele>43</ele>
        <time>2019-06-08T12:57:29Z</time>
      </trkpt>
      <trkpt lat="48.90885" lon="-0.47213">
        <ele>43</ele>
        <time>2019-06-08T12:57:31Z</time>
      </trkpt>
      <trkpt lat="48.90884" lon="-0.47225">
        <ele>43</ele>
        <time>2019-06-08T12:57:33Z</time>
      </trkpt>
      <trkpt lat="48.90882" lon="-0.47236">
        <ele>43</ele>
        <time>2019-06-08T12:57:35Z</time>
      </trkpt>
      <trkpt lat="48.90882" lon="-0.47246">
        <ele>43</ele>
        <time>2019-06-08T12:57:37Z</time>
      </trkpt>
      <trkpt lat="48.90882" lon="-0.47256">
        <ele>43</ele>
        <time>2019-06-08T12:57:39Z</time>
      </trkpt>
      <trkpt lat="48.90881" lon="-0.47267">
        <ele>43</ele>
        <time>2019-06-08T12:57:41Z</time>
      </trkpt>
      <trkpt lat="48.90881" lon="-0.47276">
        <ele>43</ele>
        <time>2019-06-08T12:57:43Z</time>
      </trkpt>
      <trkpt lat="48.9088" lon="-0.47285">
        <ele>44</ele>
        <time>2019-06-08T12:57:45Z</time>
      </trkpt>
      <trkpt lat="48.9088" lon="-0.47294">
        <ele>44</ele>
        <time>2019-06-08T12:57:47Z</time>
      </trkpt>
      <trkpt lat="48.9088" lon="-0.47302">
        <ele>44</ele>
        <time>2019-06-08T12:57:51Z</time>
      </trkpt>
      <trkpt lat="48.90877" lon="-0.47311">
        <ele>44</ele>
        <time>2019-06-08T12:58:17Z</time>
      </trkpt>
      <trkpt lat="48.90877" lon="-0.4732">
        <ele>44</ele>
        <time>2019-06-08T12:58:21Z</time>
      </trkpt>
      <trkpt lat="48.90878" lon="-0.47328">
        <ele>44</ele>
        <time>2019-06-08T12:58:25Z</time>
      </trkpt>
      <trkpt lat="48.90881" lon="-0.47336">
        <ele>45</ele>
        <time>2019-06-08T12:58:29Z</time>
      </trkpt>
      <trkpt lat="48.90882" lon="-0.47346">
        <ele>45</ele>
        <time>2019-06-08T12:58:31Z</time>
      </trkpt>
      <trkpt lat="48.90884" lon="-0.4736">
        <ele>45</ele>
        <time>2019-06-08T12:58:33Z</time>
      </trkpt>
      <trkpt lat="48.90886" lon="-0.47374">
        <ele>46</ele>
        <time>2019-06-08T12:58:35Z</time>
      </trkpt>
      <trkpt lat="48.90887" lon="-0.47389">
        <ele>46</ele>
        <time>2019-06-08T12:58:37Z</time>
      </trkpt>
      <trkpt lat="48.90888" lon="-0.47403">
        <ele>45</ele>
        <time>2019-06-08T12:58:39Z</time>
      </trkpt>
      <trkpt lat="48.90892" lon="-0.47413">
        <ele>45</ele>
        <time>2019-06-08T12:58:41Z</time>
      </trkpt>
      <trkpt lat="48.90896" lon="-0.47425">
        <ele>47</ele>
        <time>2019-06-08T12:58:43Z</time>
      </trkpt>
      <trkpt lat="48.90897" lon="-0.47438">
        <ele>48</ele>
        <time>2019-06-08T12:58:45Z</time>
      </trkpt>
      <trkpt lat="48.90896" lon="-0.4745">
        <ele>49</ele>
        <time>2019-06-08T12:58:47Z</time>
      </trkpt>
      <trkpt lat="48.90896" lon="-0.47463">
        <ele>49</ele>
        <time>2019-06-08T12:58:49Z</time>
      </trkpt>
      <trkpt lat="48.90895" lon="-0.47475">
        <ele>50</ele>
        <time>2019-06-08T12:58:51Z</time>
      </trkpt>
      <trkpt lat="48.90897" lon="-0.47487">
        <ele>49</ele>
        <time>2019-06-08T12:58:53Z</time>
      </trkpt>
      <trkpt lat="48.90899" lon="-0.47498">
        <ele>48</ele>
        <time>2019-06-08T12:58:55Z</time>
      </trkpt>
      <trkpt lat="48.90901" lon="-0.4751">
        <ele>53</ele>
        <time>2019-06-08T12:58:57Z</time>
      </trkpt>
      <trkpt lat="48.90903" lon="-0.47523">
        <ele>55</ele>
        <time>2019-06-08T12:58:59Z</time>
      </trkpt>
      <trkpt lat="48.90905" lon="-0.47536">
        <ele>57</ele>
        <time>2019-06-08T12:59:01Z</time>
      </trkpt>
      <trkpt lat="48.90908" lon="-0.47549">
        <ele>58</ele>
        <time>2019-06-08T12:59:03Z</time>
      </trkpt>
      <trkpt lat="48.90912" lon="-0.47562">
        <ele>58</ele>
        <time>2019-06-08T12:59:05Z</time>
      </trkpt>
      <trkpt lat="48.90916" lon="-0.47574">
        <ele>57</ele>
        <time>2019-06-08T12:59:07Z</time>
      </trkpt>
      <trkpt lat="48.90922" lon="-0.47584">
        <ele>57</ele>
        <time>2019-06-08T12:59:09Z</time>
      </trkpt>
      <trkpt lat="48.90929" lon="-0.47593">
        <ele>58</ele>
        <time>2019-06-08T12:59:11Z</time>
      </trkpt>
      <trkpt lat="48.90937" lon="-0.47602">
        <ele>59</ele>
        <time>2019-06-08T12:59:13Z</time>
      </trkpt>
      <trkpt lat="48.90945" lon="-0.47611">
        <ele>59</ele>
        <time>2019-06-08T12:59:15Z</time>
      </trkpt>
      <trkpt lat="48.90953" lon="-0.47618">
        <ele>59</ele>
        <time>2019-06-08T12:59:17Z</time>
      </trkpt>
      <trkpt lat="48.90962" lon="-0.47624">
        <ele>59</ele>
        <time>2019-06-08T12:59:19Z</time>
      </trkpt>
      <trkpt lat="48.90972" lon="-0.47628">
        <ele>59</ele>
        <time>2019-06-08T12:59:21Z</time>
      </trkpt>
      <trkpt lat="48.90981" lon="-0.47631">
        <ele>59</ele>
        <time>2019-06-08T12:59:23Z</time>
      </trkpt>
      <trkpt lat="48.9099" lon="-0.47632">
        <ele>59</ele>
        <time>2019-06-08T12:59:25Z</time>
      </trkpt>
      <trkpt lat="48.91" lon="-0.47631">
        <ele>55</ele>
        <time>2019-06-08T12:59:27Z</time>
      </trkpt>
      <trkpt lat="48.9101" lon="-0.47628">
        <ele>54</ele>
        <time>2019-06-08T12:59:29Z</time>
      </trkpt>
      <trkpt lat="48.91019" lon="-0.47625">
        <ele>54</ele>
        <time>2019-06-08T12:59:31Z</time>
      </trkpt>
      <trkpt lat="48.91027" lon="-0.47623">
        <ele>54</ele>
        <time>2019-06-08T12:59:33Z</time>
      </trkpt>
      <trkpt lat="48.91033" lon="-0.47621">
        <ele>54</ele>
        <time>2019-06-08T12:59:35Z</time>
      </trkpt>
      <trkpt lat="48.91041" lon="-0.4762">
        <ele>54</ele>
        <time>2019-06-08T12:59:37Z</time>
      </trkpt>
      <trkpt lat="48.91049" lon="-0.4762">
        <ele>54</ele>
        <time>2019-06-08T12:59:39Z</time>
      </trkpt>
      <trkpt lat="48.91058" lon="-0.47622">
        <ele>54</ele>
        <time>2019-06-08T12:59:41Z</time>
      </trkpt>
      <trkpt lat="48.91067" lon="-0.47621">
        <ele>54</ele>
        <time>2019-06-08T12:59:43Z</time>
      </trkpt>
      <trkpt lat="48.91075" lon="-0.47621">
        <ele>54</ele>
        <time>2019-06-08T12:59:45Z</time>
      </trkpt>
      <trkpt lat="48.91083" lon="-0.4762">
        <ele>54</ele>
        <time>2019-06-08T12:59:47Z</time>
      </trkpt>
      <trkpt lat="48.91089" lon="-0.4762">
        <ele>56</ele>
        <time>2019-06-08T12:59:49Z</time>
      </trkpt>
      <trkpt lat="48.91096" lon="-0.47622">
        <ele>56</ele>
        <time>2019-06-08T12:59:51Z</time>
      </trkpt>
      <trkpt lat="48.91102" lon="-0.47621">
        <ele>57</ele>
        <time>2019-06-08T12:59:53Z</time>
      </trkpt>
      <trkpt lat="48.91108" lon="-0.4762">
        <ele>56</ele>
        <time>2019-06-08T12:59:55Z</time>
      </trkpt>
      <trkpt lat="48.91115" lon="-0.47619">
        <ele>56</ele>
        <time>2019-06-08T12:59:57Z</time>
      </trkpt>
      <trkpt lat="48.91122" lon="-0.47618">
        <ele>56</ele>
        <time>2019-06-08T12:59:59Z</time>
      </trkpt>
      <trkpt lat="48.91131" lon="-0.47617">
        <ele>56</ele>
        <time>2019-06-08T13:00:01Z</time>
      </trkpt>
      <trkpt lat="48.91139" lon="-0.47616">
        <ele>56</ele>
        <time>2019-06-08T13:00:03Z</time>
      </trkpt>
      <trkpt lat="48.91146" lon="-0.47618">
        <ele>56</ele>
        <time>2019-06-08T13:00:05Z</time>
      </trkpt>
      <trkpt lat="48.91154" lon="-0.47617">
        <ele>56</ele>
        <time>2019-06-08T13:00:07Z</time>
      </trkpt>
      <trkpt lat="48.91161" lon="-0.47618">
        <ele>56</ele>
        <time>2019-06-08T13:00:09Z</time>
      </trkpt>
      <trkpt lat="48.91169" lon="-0.47618">
        <ele>56</ele>
        <time>2019-06-08T13:00:11Z</time>
      </trkpt>
      <trkpt lat="48.91177" lon="-0.47616">
        <ele>56</ele>
        <time>2019-06-08T13:00:13Z</time>
      </trkpt>
      <trkpt lat="48.91185" lon="-0.47615">
        <ele>56</ele>
        <time>2019-06-08T13:00:15Z</time>
      </trkpt>
      <trkpt lat="48.91193" lon="-0.47613">
        <ele>55</ele>
        <time>2019-06-08T13:00:17Z</time>
      </trkpt>
      <trkpt lat="48.91199" lon="-0.47613">
        <ele>55</ele>
        <time>2019-06-08T13:00:19Z</time>
      </trkpt>
      <trkpt lat="48.91206" lon="-0.47616">
        <ele>56</ele>
        <time>2019-06-08T13:00:23Z</time>
      </trkpt>
      <trkpt lat="48.9121" lon="-0.47614">
        <ele>56</ele>
        <time>2019-06-08T13:00:25Z</time>
      </trkpt>
      <trkpt lat="48.91218" lon="-0.47611">
        <ele>55</ele>
        <time>2019-06-08T13:00:27Z</time>
      </trkpt>
      <trkpt lat="48.91225" lon="-0.47611">
        <ele>55</ele>
        <time>2019-06-08T13:00:29Z</time>
      </trkpt>
      <trkpt lat="48.91234" lon="-0.47608">
        <ele>54</ele>
        <time>2019-06-08T13:00:31Z</time>
      </trkpt>
      <trkpt lat="48.91242" lon="-0.47606">
        <ele>53</ele>
        <time>2019-06-08T13:00:33Z</time>
      </trkpt>
      <trkpt lat="48.9125" lon="-0.47606">
        <ele>52</ele>
        <time>2019-06-08T13:00:35Z</time>
      </trkpt>
      <trkpt lat="48.91258" lon="-0.47607">
        <ele>50</ele>
        <time>2019-06-08T13:00:37Z</time>
      </trkpt>
      <trkpt lat="48.91267" lon="-0.47606">
        <ele>50</ele>
        <time>2019-06-08T13:00:39Z</time>
      </trkpt>
      <trkpt lat="48.91276" lon="-0.47604">
        <ele>50</ele>
        <time>2019-06-08T13:00:41Z</time>
      </trkpt>
      <trkpt lat="48.91285" lon="-0.47604">
        <ele>50</ele>
        <time>2019-06-08T13:00:43Z</time>
      </trkpt>
      <trkpt lat="48.91294" lon="-0.47604">
        <ele>50</ele>
        <time>2019-06-08T13:00:45Z</time>
      </trkpt>
      <trkpt lat="48.91302" lon="-0.47604">
        <ele>49</ele>
        <time>2019-06-08T13:00:47Z</time>
      </trkpt>
      <trkpt lat="48.91309" lon="-0.47606">
        <ele>49</ele>
        <time>2019-06-08T13:00:49Z</time>
      </trkpt>
      <trkpt lat="48.91317" lon="-0.47608">
        <ele>48</ele>
        <time>2019-06-08T13:00:51Z</time>
      </trkpt>
      <trkpt lat="48.91325" lon="-0.4761">
        <ele>48</ele>
        <time>2019-06-08T13:00:53Z</time>
      </trkpt>
      <trkpt lat="48.91332" lon="-0.47615">
        <ele>49</ele>
        <time>2019-06-08T13:00:55Z</time>
      </trkpt>
      <trkpt lat="48.9134" lon="-0.47619">
        <ele>48</ele>
        <time>2019-06-08T13:00:57Z</time>
      </trkpt>
      <trkpt lat="48.91349" lon="-0.47621">
        <ele>48</ele>
        <time>2019-06-08T13:00:59Z</time>
      </trkpt>
      <trkpt lat="48.91357" lon="-0.47622">
        <ele>48</ele>
        <time>2019-06-08T13:01:01Z</time>
      </trkpt>
      <trkpt lat="48.91366" lon="-0.47619">
        <ele>48</ele>
        <time>2019-06-08T13:01:03Z</time>
      </trkpt>
      <trkpt lat="48.91378" lon="-0.47616">
        <ele>48</ele>
        <time>2019-06-08T13:01:05Z</time>
      </trkpt>
      <trkpt lat="48.91388" lon="-0.47615">
        <ele>48</ele>
        <time>2019-06-08T13:01:07Z</time>
      </trkpt>
      <trkpt lat="48.91398" lon="-0.47615">
        <ele>48</ele>
        <time>2019-06-08T13:01:09Z</time>
      </trkpt>
      <trkpt lat="48.91408" lon="-0.47613">
        <ele>47</ele>
        <time>2019-06-08T13:01:11Z</time>
      </trkpt>
      <trkpt lat="48.91419" lon="-0.47611">
        <ele>46</ele>
        <time>2019-06-08T13:01:13Z</time>
      </trkpt>
      <trkpt lat="48.9143" lon="-0.47611">
        <ele>47</ele>
        <time>2019-06-08T13:01:15Z</time>
      </trkpt>
      <trkpt lat="48.91441" lon="-0.47614">
        <ele>47</ele>
        <time>2019-06-08T13:01:17Z</time>
      </trkpt>
      <trkpt lat="48.91453" lon="-0.47614">
        <ele>47</ele>
        <time>2019-06-08T13:01:19Z</time>
      </trkpt>
      <trkpt lat="48.91464" lon="-0.47614">
        <ele>47</ele>
        <time>2019-06-08T13:01:21Z</time>
      </trkpt>
      <trkpt lat="48.91477" lon="-0.47616">
        <ele>47</ele>
        <time>2019-06-08T13:01:23Z</time>
      </trkpt>
      <trkpt lat="48.91486" lon="-0.47618">
        <ele>47</ele>
        <time>2019-06-08T13:01:25Z</time>
      </trkpt>
      <trkpt lat="48.91497" lon="-0.47621">
        <ele>47</ele>
        <time>2019-06-08T13:01:27Z</time>
      </trkpt>
      <trkpt lat="48.91508" lon="-0.47625">
        <ele>45</ele>
        <time>2019-06-08T13:01:29Z</time>
      </trkpt>
      <trkpt lat="48.91518" lon="-0.47628">
        <ele>45</ele>
        <time>2019-06-08T13:01:31Z</time>
      </trkpt>
      <trkpt lat="48.91529" lon="-0.4763">
        <ele>45</ele>
        <time>2019-06-08T13:01:33Z</time>
      </trkpt>
      <trkpt lat="48.9154" lon="-0.47632">
        <ele>45</ele>
        <time>2019-06-08T13:01:35Z</time>
      </trkpt>
      <trkpt lat="48.91548" lon="-0.47636">
        <ele>45</ele>
        <time>2019-06-08T13:01:37Z</time>
      </trkpt>
      <trkpt lat="48.91556" lon="-0.47639">
        <ele>45</ele>
        <time>2019-06-08T13:01:39Z</time>
      </trkpt>
      <trkpt lat="48.91565" lon="-0.4764">
        <ele>45</ele>
        <time>2019-06-08T13:01:41Z</time>
      </trkpt>
      <trkpt lat="48.91574" lon="-0.47643">
        <ele>45</ele>
        <time>2019-06-08T13:01:43Z</time>
      </trkpt>
      <trkpt lat="48.91583" lon="-0.47644">
        <ele>46</ele>
        <time>2019-06-08T13:01:45Z</time>
      </trkpt>
      <trkpt lat="48.91591" lon="-0.47645">
        <ele>44</ele>
        <time>2019-06-08T13:01:47Z</time>
      </trkpt>
      <trkpt lat="48.91601" lon="-0.47645">
        <ele>44</ele>
        <time>2019-06-08T13:01:49Z</time>
      </trkpt>
      <trkpt lat="48.91609" lon="-0.47647">
        <ele>43</ele>
        <time>2019-06-08T13:01:51Z</time>
      </trkpt>
      <trkpt lat="48.91619" lon="-0.47647">
        <ele>43</ele>
        <time>2019-06-08T13:01:53Z</time>
      </trkpt>
      <trkpt lat="48.91629" lon="-0.47648">
        <ele>43</ele>
        <time>2019-06-08T13:01:55Z</time>
      </trkpt>
      <trkpt lat="48.9164" lon="-0.47648">
        <ele>43</ele>
        <time>2019-06-08T13:01:57Z</time>
      </trkpt>
      <trkpt lat="48.9165" lon="-0.47649">
        <ele>43</ele>
        <time>2019-06-08T13:01:59Z</time>
      </trkpt>
      <trkpt lat="48.91658" lon="-0.47652">
        <ele>44</ele>
        <time>2019-06-08T13:02:01Z</time>
      </trkpt>
      <trkpt lat="48.91666" lon="-0.47656">
        <ele>44</ele>
        <time>2019-06-08T13:02:03Z</time>
      </trkpt>
      <trkpt lat="48.91672" lon="-0.47659">
        <ele>44</ele>
        <time>2019-06-08T13:02:05Z</time>
      </trkpt>
      <trkpt lat="48.91679" lon="-0.47661">
        <ele>44</ele>
        <time>2019-06-08T13:02:07Z</time>
      </trkpt>
      <trkpt lat="48.91685" lon="-0.47665">
        <ele>43</ele>
        <time>2019-06-08T13:02:09Z</time>
      </trkpt>
      <trkpt lat="48.91691" lon="-0.47667">
        <ele>49</ele>
        <time>2019-06-08T13:02:11Z</time>
      </trkpt>
      <trkpt lat="48.91696" lon="-0.4767">
        <ele>49</ele>
        <time>2019-06-08T13:02:13Z</time>
      </trkpt>
      <trkpt lat="48.91702" lon="-0.47672">
        <ele>50</ele>
        <time>2019-06-08T13:02:15Z</time>
      </trkpt>
      <trkpt lat="48.91709" lon="-0.47673">
        <ele>50</ele>
        <time>2019-06-08T13:02:17Z</time>
      </trkpt>
      <trkpt lat="48.91714" lon="-0.47674">
        <ele>50</ele>
        <time>2019-06-08T13:02:19Z</time>
      </trkpt>
      <trkpt lat="48.91721" lon="-0.47675">
        <ele>50</ele>
        <time>2019-06-08T13:02:21Z</time>
      </trkpt>
      <trkpt lat="48.91728" lon="-0.47675">
        <ele>49</ele>
        <time>2019-06-08T13:02:23Z</time>
      </trkpt>
      <trkpt lat="48.91734" lon="-0.47675">
        <ele>49</ele>
        <time>2019-06-08T13:02:25Z</time>
      </trkpt>
      <trkpt lat="48.91741" lon="-0.47675">
        <ele>48</ele>
        <time>2019-06-08T13:02:27Z</time>
      </trkpt>
      <trkpt lat="48.91747" lon="-0.47675">
        <ele>48</ele>
        <time>2019-06-08T13:02:29Z</time>
      </trkpt>
      <trkpt lat="48.91753" lon="-0.47675">
        <ele>47</ele>
        <time>2019-06-08T13:02:31Z</time>
      </trkpt>
      <trkpt lat="48.9176" lon="-0.47674">
        <ele>48</ele>
        <time>2019-06-08T13:02:33Z</time>
      </trkpt>
      <trkpt lat="48.91766" lon="-0.47675">
        <ele>48</ele>
        <time>2019-06-08T13:02:35Z</time>
      </trkpt>
      <trkpt lat="48.91772" lon="-0.47674">
        <ele>49</ele>
        <time>2019-06-08T13:02:37Z</time>
      </trkpt>
      <trkpt lat="48.91779" lon="-0.47674">
        <ele>49</ele>
        <time>2019-06-08T13:02:39Z</time>
      </trkpt>
      <trkpt lat="48.91786" lon="-0.47673">
        <ele>49</ele>
        <time>2019-06-08T13:02:41Z</time>
      </trkpt>
      <trkpt lat="48.91793" lon="-0.47672">
        <ele>49</ele>
        <time>2019-06-08T13:02:43Z</time>
      </trkpt>
      <trkpt lat="48.918" lon="-0.47672">
        <ele>49</ele>
        <time>2019-06-08T13:02:45Z</time>
      </trkpt>
      <trkpt lat="48.91806" lon="-0.47672">
        <ele>49</ele>
        <time>2019-06-08T13:02:47Z</time>
      </trkpt>
      <trkpt lat="48.91813" lon="-0.47672">
        <ele>48</ele>
        <time>2019-06-08T13:02:49Z</time>
      </trkpt>
      <trkpt lat="48.91819" lon="-0.47671">
        <ele>48</ele>
        <time>2019-06-08T13:02:51Z</time>
      </trkpt>
      <trkpt lat="48.91824" lon="-0.47671">
        <ele>48</ele>
        <time>2019-06-08T13:02:53Z</time>
      </trkpt>
      <trkpt lat="48.91829" lon="-0.47675">
        <ele>47</ele>
        <time>2019-06-08T13:02:55Z</time>
      </trkpt>
      <trkpt lat="48.91836" lon="-0.47681">
        <ele>48</ele>
        <time>2019-06-08T13:02:59Z</time>
      </trkpt>
      <trkpt lat="48.91841" lon="-0.47679">
        <ele>48</ele>
        <time>2019-06-08T13:03:01Z</time>
      </trkpt>
      <trkpt lat="48.91847" lon="-0.47679">
        <ele>48</ele>
        <time>2019-06-08T13:03:03Z</time>
      </trkpt>
      <trkpt lat="48.91854" lon="-0.47678">
        <ele>48</ele>
        <time>2019-06-08T13:03:05Z</time>
      </trkpt>
      <trkpt lat="48.91861" lon="-0.47677">
        <ele>49</ele>
        <time>2019-06-08T13:03:07Z</time>
      </trkpt>
      <trkpt lat="48.91868" lon="-0.47676">
        <ele>49</ele>
        <time>2019-06-08T13:03:09Z</time>
      </trkpt>
      <trkpt lat="48.91875" lon="-0.47672">
        <ele>49</ele>
        <time>2019-06-08T13:03:11Z</time>
      </trkpt>
      <trkpt lat="48.91883" lon="-0.47662">
        <ele>44</ele>
        <time>2019-06-08T13:03:13Z</time>
      </trkpt>
      <trkpt lat="48.91892" lon="-0.47652">
        <ele>44</ele>
        <time>2019-06-08T13:03:15Z</time>
      </trkpt>
      <trkpt lat="48.919" lon="-0.47646">
        <ele>44</ele>
        <time>2019-06-08T13:03:17Z</time>
      </trkpt>
      <trkpt lat="48.91908" lon="-0.47643">
        <ele>44</ele>
        <time>2019-06-08T13:03:19Z</time>
      </trkpt>
      <trkpt lat="48.91916" lon="-0.47639">
        <ele>44</ele>
        <time>2019-06-08T13:03:21Z</time>
      </trkpt>
      <trkpt lat="48.91925" lon="-0.47636">
        <ele>45</ele>
        <time>2019-06-08T13:03:23Z</time>
      </trkpt>
      <trkpt lat="48.91933" lon="-0.47633">
        <ele>45</ele>
        <time>2019-06-08T13:03:25Z</time>
      </trkpt>
      <trkpt lat="48.91942" lon="-0.47629">
        <ele>45</ele>
        <time>2019-06-08T13:03:27Z</time>
      </trkpt>
      <trkpt lat="48.91951" lon="-0.47624">
        <ele>45</ele>
        <time>2019-06-08T13:03:29Z</time>
      </trkpt>
      <trkpt lat="48.9196" lon="-0.47621">
        <ele>45</ele>
        <time>2019-06-08T13:03:31Z</time>
      </trkpt>
      <trkpt lat="48.91969" lon="-0.47618">
        <ele>45</ele>
        <time>2019-06-08T13:03:33Z</time>
      </trkpt>
      <trkpt lat="48.91978" lon="-0.47615">
        <ele>45</ele>
        <time>2019-06-08T13:03:35Z</time>
      </trkpt>
      <trkpt lat="48.91987" lon="-0.47612">
        <ele>45</ele>
        <time>2019-06-08T13:03:37Z</time>
      </trkpt>
      <trkpt lat="48.91995" lon="-0.47608">
        <ele>45</ele>
        <time>2019-06-08T13:03:39Z</time>
      </trkpt>
      <trkpt lat="48.92002" lon="-0.47605">
        <ele>47</ele>
        <time>2019-06-08T13:03:41Z</time>
      </trkpt>
      <trkpt lat="48.9201" lon="-0.47602">
        <ele>47</ele>
        <time>2019-06-08T13:03:43Z</time>
      </trkpt>
      <trkpt lat="48.92017" lon="-0.47599">
        <ele>47</ele>
        <time>2019-06-08T13:03:45Z</time>
      </trkpt>
      <trkpt lat="48.92023" lon="-0.47596">
        <ele>47</ele>
        <time>2019-06-08T13:03:47Z</time>
      </trkpt>
      <trkpt lat="48.9203" lon="-0.47594">
        <ele>48</ele>
        <time>2019-06-08T13:03:49Z</time>
      </trkpt>
      <trkpt lat="48.92037" lon="-0.47591">
        <ele>48</ele>
        <time>2019-06-08T13:03:51Z</time>
      </trkpt>
      <trkpt lat="48.92043" lon="-0.47588">
        <ele>48</ele>
        <time>2019-06-08T13:03:53Z</time>
      </trkpt>
      <trkpt lat="48.9205" lon="-0.47587">
        <ele>48</ele>
        <time>2019-06-08T13:03:55Z</time>
      </trkpt>
      <trkpt lat="48.92058" lon="-0.47585">
        <ele>48</ele>
        <time>2019-06-08T13:03:57Z</time>
      </trkpt>
      <trkpt lat="48.92066" lon="-0.47584">
        <ele>49</ele>
        <time>2019-06-08T13:03:59Z</time>
      </trkpt>
      <trkpt lat="48.92074" lon="-0.47582">
        <ele>48</ele>
        <time>2019-06-08T13:04:01Z</time>
      </trkpt>
      <trkpt lat="48.92082" lon="-0.4758">
        <ele>48</ele>
        <time>2019-06-08T13:04:03Z</time>
      </trkpt>
      <trkpt lat="48.9209" lon="-0.47578">
        <ele>49</ele>
        <time>2019-06-08T13:04:05Z</time>
      </trkpt>
      <trkpt lat="48.92099" lon="-0.47577">
        <ele>49</ele>
        <time>2019-06-08T13:04:07Z</time>
      </trkpt>
      <trkpt lat="48.92108" lon="-0.47575">
        <ele>48</ele>
        <time>2019-06-08T13:04:09Z</time>
      </trkpt>
      <trkpt lat="48.92117" lon="-0.47573">
        <ele>49</ele>
        <time>2019-06-08T13:04:11Z</time>
      </trkpt>
      <trkpt lat="48.92126" lon="-0.47571">
        <ele>49</ele>
        <time>2019-06-08T13:04:13Z</time>
      </trkpt>
      <trkpt lat="48.92133" lon="-0.47568">
        <ele>49</ele>
        <time>2019-06-08T13:04:15Z</time>
      </trkpt>
      <trkpt lat="48.9214" lon="-0.47566">
        <ele>49</ele>
        <time>2019-06-08T13:04:17Z</time>
      </trkpt>
      <trkpt lat="48.92148" lon="-0.47565">
        <ele>49</ele>
        <time>2019-06-08T13:04:19Z</time>
      </trkpt>
      <trkpt lat="48.92155" lon="-0.47563">
        <ele>49</ele>
        <time>2019-06-08T13:04:21Z</time>
      </trkpt>
      <trkpt lat="48.92162" lon="-0.47561">
        <ele>49</ele>
        <time>2019-06-08T13:04:23Z</time>
      </trkpt>
      <trkpt lat="48.9217" lon="-0.47559">
        <ele>50</ele>
        <time>2019-06-08T13:04:25Z</time>
      </trkpt>
      <trkpt lat="48.92177" lon="-0.47558">
        <ele>50</ele>
        <time>2019-06-08T13:04:27Z</time>
      </trkpt>
      <trkpt lat="48.92185" lon="-0.47556">
        <ele>50</ele>
        <time>2019-06-08T13:04:29Z</time>
      </trkpt>
      <trkpt lat="48.92192" lon="-0.47554">
        <ele>50</ele>
        <time>2019-06-08T13:04:31Z</time>
      </trkpt>
      <trkpt lat="48.92199" lon="-0.47553">
        <ele>49</ele>
        <time>2019-06-08T13:04:33Z</time>
      </trkpt>
      <trkpt lat="48.92207" lon="-0.47551">
        <ele>49</ele>
        <time>2019-06-08T13:04:35Z</time>
      </trkpt>
      <trkpt lat="48.92214" lon="-0.47548">
        <ele>49</ele>
        <time>2019-06-08T13:04:37Z</time>
      </trkpt>
      <trkpt lat="48.92221" lon="-0.47546">
        <ele>49</ele>
        <time>2019-06-08T13:04:39Z</time>
      </trkpt>
      <trkpt lat="48.92229" lon="-0.47544">
        <ele>49</ele>
        <time>2019-06-08T13:04:41Z</time>
      </trkpt>
      <trkpt lat="48.92236" lon="-0.47542">
        <ele>49</ele>
        <time>2019-06-08T13:04:43Z</time>
      </trkpt>
      <trkpt lat="48.92242" lon="-0.4754">
        <ele>49</ele>
        <time>2019-06-08T13:04:45Z</time>
      </trkpt>
      <trkpt lat="48.92249" lon="-0.47538">
        <ele>49</ele>
        <time>2019-06-08T13:04:47Z</time>
      </trkpt>
      <trkpt lat="48.92256" lon="-0.47537">
        <ele>50</ele>
        <time>2019-06-08T13:04:49Z</time>
      </trkpt>
      <trkpt lat="48.92262" lon="-0.47538">
        <ele>50</ele>
        <time>2019-06-08T13:04:51Z</time>
      </trkpt>
      <trkpt lat="48.92267" lon="-0.47545">
        <ele>50</ele>
        <time>2019-06-08T13:04:53Z</time>
      </trkpt>
      <trkpt lat="48.9227" lon="-0.47554">
        <ele>50</ele>
        <time>2019-06-08T13:04:55Z</time>
      </trkpt>
      <trkpt lat="48.92272" lon="-0.47565">
        <ele>50</ele>
        <time>2019-06-08T13:04:57Z</time>
      </trkpt>
      <trkpt lat="48.92274" lon="-0.47576">
        <ele>50</ele>
        <time>2019-06-08T13:04:59Z</time>
      </trkpt>
      <trkpt lat="48.92277" lon="-0.47588">
        <ele>51</ele>
        <time>2019-06-08T13:05:01Z</time>
      </trkpt>
      <trkpt lat="48.9228" lon="-0.47599">
        <ele>51</ele>
        <time>2019-06-08T13:05:03Z</time>
      </trkpt>
      <trkpt lat="48.92282" lon="-0.47611">
        <ele>51</ele>
        <time>2019-06-08T13:05:05Z</time>
      </trkpt>
      <trkpt lat="48.92284" lon="-0.47622">
        <ele>51</ele>
        <time>2019-06-08T13:05:07Z</time>
      </trkpt>
      <trkpt lat="48.92286" lon="-0.47633">
        <ele>51</ele>
        <time>2019-06-08T13:05:09Z</time>
      </trkpt>
      <trkpt lat="48.92288" lon="-0.47644">
        <ele>51</ele>
        <time>2019-06-08T13:05:11Z</time>
      </trkpt>
      <trkpt lat="48.9229" lon="-0.47655">
        <ele>51</ele>
        <time>2019-06-08T13:05:13Z</time>
      </trkpt>
      <trkpt lat="48.92292" lon="-0.47665">
        <ele>52</ele>
        <time>2019-06-08T13:05:15Z</time>
      </trkpt>
      <trkpt lat="48.92294" lon="-0.47675">
        <ele>52</ele>
        <time>2019-06-08T13:05:17Z</time>
      </trkpt>
      <trkpt lat="48.92296" lon="-0.47685">
        <ele>53</ele>
        <time>2019-06-08T13:05:19Z</time>
      </trkpt>
      <trkpt lat="48.92298" lon="-0.47695">
        <ele>53</ele>
        <time>2019-06-08T13:05:21Z</time>
      </trkpt>
      <trkpt lat="48.923" lon="-0.47705">
        <ele>53</ele>
        <time>2019-06-08T13:05:23Z</time>
      </trkpt>
      <trkpt lat="48.92303" lon="-0.47715">
        <ele>53</ele>
        <time>2019-06-08T13:05:25Z</time>
      </trkpt>
      <trkpt lat="48.92305" lon="-0.47726">
        <ele>53</ele>
        <time>2019-06-08T13:05:27Z</time>
      </trkpt>
      <trkpt lat="48.92308" lon="-0.47738">
        <ele>53</ele>
        <time>2019-06-08T13:05:29Z</time>
      </trkpt>
      <trkpt lat="48.9231" lon="-0.47749">
        <ele>53</ele>
        <time>2019-06-08T13:05:31Z</time>
      </trkpt>
      <trkpt lat="48.92313" lon="-0.47759">
        <ele>54</ele>
        <time>2019-06-08T13:05:33Z</time>
      </trkpt>
      <trkpt lat="48.92316" lon="-0.47769">
        <ele>54</ele>
        <time>2019-06-08T13:05:35Z</time>
      </trkpt>
      <trkpt lat="48.92318" lon="-0.4778">
        <ele>54</ele>
        <time>2019-06-08T13:05:37Z</time>
      </trkpt>
      <trkpt lat="48.92321" lon="-0.47791">
        <ele>54</ele>
        <time>2019-06-08T13:05:39Z</time>
      </trkpt>
      <trkpt lat="48.92324" lon="-0.47802">
        <ele>54</ele>
        <time>2019-06-08T13:05:41Z</time>
      </trkpt>
      <trkpt lat="48.92328" lon="-0.47813">
        <ele>54</ele>
        <time>2019-06-08T13:05:43Z</time>
      </trkpt>
      <trkpt lat="48.92331" lon="-0.47824">
        <ele>54</ele>
        <time>2019-06-08T13:05:45Z</time>
      </trkpt>
      <trkpt lat="48.92335" lon="-0.47835">
        <ele>54</ele>
        <time>2019-06-08T13:05:47Z</time>
      </trkpt>
      <trkpt lat="48.92339" lon="-0.47845">
        <ele>54</ele>
        <time>2019-06-08T13:05:49Z</time>
      </trkpt>
      <trkpt lat="48.92345" lon="-0.47854">
        <ele>53</ele>
        <time>2019-06-08T13:05:51Z</time>
      </trkpt>
      <trkpt lat="48.92351" lon="-0.47864">
        <ele>53</ele>
        <time>2019-06-08T13:05:53Z</time>
      </trkpt>
      <trkpt lat="48.92356" lon="-0.47874">
        <ele>53</ele>
        <time>2019-06-08T13:05:55Z</time>
      </trkpt>
      <trkpt lat="48.92363" lon="-0.47885">
        <ele>53</ele>
        <time>2019-06-08T13:05:57Z</time>
      </trkpt>
      <trkpt lat="48.92369" lon="-0.47896">
        <ele>53</ele>
        <time>2019-06-08T13:05:59Z</time>
      </trkpt>
      <trkpt lat="48.92374" lon="-0.47907">
        <ele>53</ele>
        <time>2019-06-08T13:06:01Z</time>
      </trkpt>
      <trkpt lat="48.92381" lon="-0.47918">
        <ele>52</ele>
        <time>2019-06-08T13:06:03Z</time>
      </trkpt>
      <trkpt lat="48.92387" lon="-0.47928">
        <ele>51</ele>
        <time>2019-06-08T13:06:05Z</time>
      </trkpt>
      <trkpt lat="48.92393" lon="-0.47938">
        <ele>51</ele>
        <time>2019-06-08T13:06:07Z</time>
      </trkpt>
      <trkpt lat="48.92401" lon="-0.47948">
        <ele>51</ele>
        <time>2019-06-08T13:06:09Z</time>
      </trkpt>
      <trkpt lat="48.92408" lon="-0.47958">
        <ele>51</ele>
        <time>2019-06-08T13:06:11Z</time>
      </trkpt>
      <trkpt lat="48.92415" lon="-0.47967">
        <ele>50</ele>
        <time>2019-06-08T13:06:13Z</time>
      </trkpt>
      <trkpt lat="48.92423" lon="-0.47976">
        <ele>48</ele>
        <time>2019-06-08T13:06:15Z</time>
      </trkpt>
      <trkpt lat="48.9243" lon="-0.47986">
        <ele>48</ele>
        <time>2019-06-08T13:06:17Z</time>
      </trkpt>
      <trkpt lat="48.92437" lon="-0.47995">
        <ele>47</ele>
        <time>2019-06-08T13:06:19Z</time>
      </trkpt>
      <trkpt lat="48.92442" lon="-0.48009">
        <ele>44</ele>
        <time>2019-06-08T13:06:21Z</time>
      </trkpt>
      <trkpt lat="48.92445" lon="-0.48023">
        <ele>43</ele>
        <time>2019-06-08T13:06:23Z</time>
      </trkpt>
      <trkpt lat="48.92443" lon="-0.48039">
        <ele>42</ele>
        <time>2019-06-08T13:06:25Z</time>
      </trkpt>
      <trkpt lat="48.9244" lon="-0.48053">
        <ele>42</ele>
        <time>2019-06-08T13:06:27Z</time>
      </trkpt>
      <trkpt lat="48.92439" lon="-0.48063">
        <ele>42</ele>
        <time>2019-06-08T13:06:29Z</time>
      </trkpt>
      <trkpt lat="48.92438" lon="-0.4807">
        <ele>41</ele>
        <time>2019-06-08T13:06:31Z</time>
      </trkpt>
      <trkpt lat="48.92439" lon="-0.48079">
        <ele>41</ele>
        <time>2019-06-08T13:06:39Z</time>
      </trkpt>
      <trkpt lat="48.92447" lon="-0.48086">
        <ele>40</ele>
        <time>2019-06-08T13:06:43Z</time>
      </trkpt>
      <trkpt lat="48.92455" lon="-0.48088">
        <ele>40</ele>
        <time>2019-06-08T13:06:45Z</time>
      </trkpt>
      <trkpt lat="48.92464" lon="-0.4809">
        <ele>39</ele>
        <time>2019-06-08T13:06:47Z</time>
      </trkpt>
      <trkpt lat="48.92473" lon="-0.48092">
        <ele>39</ele>
        <time>2019-06-08T13:06:49Z</time>
      </trkpt>
      <trkpt lat="48.92482" lon="-0.48093">
        <ele>39</ele>
        <time>2019-06-08T13:06:51Z</time>
      </trkpt>
      <trkpt lat="48.92491" lon="-0.48093">
        <ele>38</ele>
        <time>2019-06-08T13:06:53Z</time>
      </trkpt>
      <trkpt lat="48.925" lon="-0.48092">
        <ele>37</ele>
        <time>2019-06-08T13:06:55Z</time>
      </trkpt>
      <trkpt lat="48.9251" lon="-0.48089">
        <ele>36</ele>
        <time>2019-06-08T13:06:57Z</time>
      </trkpt>
      <trkpt lat="48.92519" lon="-0.48085">
        <ele>36</ele>
        <time>2019-06-08T13:06:59Z</time>
      </trkpt>
      <trkpt lat="48.92528" lon="-0.48078">
        <ele>37</ele>
        <time>2019-06-08T13:07:01Z</time>
      </trkpt>
      <trkpt lat="48.92537" lon="-0.48071">
        <ele>36</ele>
        <time>2019-06-08T13:07:03Z</time>
      </trkpt>
      <trkpt lat="48.92546" lon="-0.48063">
        <ele>36</ele>
        <time>2019-06-08T13:07:05Z</time>
      </trkpt>
      <trkpt lat="48.92555" lon="-0.48057">
        <ele>36</ele>
        <time>2019-06-08T13:07:07Z</time>
      </trkpt>
      <trkpt lat="48.92564" lon="-0.48051">
        <ele>36</ele>
        <time>2019-06-08T13:07:09Z</time>
      </trkpt>
      <trkpt lat="48.92573" lon="-0.48046">
        <ele>36</ele>
        <time>2019-06-08T13:07:11Z</time>
      </trkpt>
      <trkpt lat="48.92582" lon="-0.48042">
        <ele>36</ele>
        <time>2019-06-08T13:07:13Z</time>
      </trkpt>
      <trkpt lat="48.92592" lon="-0.48039">
        <ele>34</ele>
        <time>2019-06-08T13:07:15Z</time>
      </trkpt>
      <trkpt lat="48.92601" lon="-0.48036">
        <ele>34</ele>
        <time>2019-06-08T13:07:17Z</time>
      </trkpt>
      <trkpt lat="48.9261" lon="-0.48034">
        <ele>34</ele>
        <time>2019-06-08T13:07:19Z</time>
      </trkpt>
      <trkpt lat="48.92619" lon="-0.48033">
        <ele>34</ele>
        <time>2019-06-08T13:07:21Z</time>
      </trkpt>
      <trkpt lat="48.92627" lon="-0.48034">
        <ele>34</ele>
        <time>2019-06-08T13:07:23Z</time>
      </trkpt>
      <trkpt lat="48.92636" lon="-0.48033">
        <ele>34</ele>
        <time>2019-06-08T13:07:25Z</time>
      </trkpt>
      <trkpt lat="48.92644" lon="-0.48033">
        <ele>34</ele>
        <time>2019-06-08T13:07:27Z</time>
      </trkpt>
      <trkpt lat="48.92652" lon="-0.48033">
        <ele>34</ele>
        <time>2019-06-08T13:07:29Z</time>
      </trkpt>
      <trkpt lat="48.9266" lon="-0.48034">
        <ele>33</ele>
        <time>2019-06-08T13:07:31Z</time>
      </trkpt>
      <trkpt lat="48.92668" lon="-0.48033">
        <ele>35</ele>
        <time>2019-06-08T13:07:33Z</time>
      </trkpt>
      <trkpt lat="48.92676" lon="-0.48032">
        <ele>35</ele>
        <time>2019-06-08T13:07:35Z</time>
      </trkpt>
      <trkpt lat="48.92684" lon="-0.48032">
        <ele>35</ele>
        <time>2019-06-08T13:07:37Z</time>
      </trkpt>
      <trkpt lat="48.92692" lon="-0.48032">
        <ele>35</ele>
        <time>2019-06-08T13:07:39Z</time>
      </trkpt>
      <trkpt lat="48.927" lon="-0.48031">
        <ele>35</ele>
        <time>2019-06-08T13:07:41Z</time>
      </trkpt>
      <trkpt lat="48.92709" lon="-0.48029">
        <ele>36</ele>
        <time>2019-06-08T13:07:43Z</time>
      </trkpt>
      <trkpt lat="48.92717" lon="-0.48029">
        <ele>36</ele>
        <time>2019-06-08T13:07:45Z</time>
      </trkpt>
      <trkpt lat="48.92725" lon="-0.48029">
        <ele>36</ele>
        <time>2019-06-08T13:07:47Z</time>
      </trkpt>
      <trkpt lat="48.92731" lon="-0.48029">
        <ele>36</ele>
        <time>2019-06-08T13:07:49Z</time>
      </trkpt>
      <trkpt lat="48.92737" lon="-0.48029">
        <ele>36</ele>
        <time>2019-06-08T13:07:51Z</time>
      </trkpt>
      <trkpt lat="48.92743" lon="-0.48025">
        <ele>37</ele>
        <time>2019-06-08T13:07:55Z</time>
      </trkpt>
      <trkpt lat="48.92748" lon="-0.48023">
        <ele>37</ele>
        <time>2019-06-08T13:08:53Z</time>
      </trkpt>
      <trkpt lat="48.92751" lon="-0.48033">
        <ele>43</ele>
        <time>2019-06-08T13:08:57Z</time>
      </trkpt>
      <trkpt lat="48.92751" lon="-0.48043">
        <ele>43</ele>
        <time>2019-06-08T13:08:59Z</time>
      </trkpt>
      <trkpt lat="48.92752" lon="-0.48053">
        <ele>43</ele>
        <time>2019-06-08T13:09:01Z</time>
      </trkpt>
      <trkpt lat="48.92753" lon="-0.48065">
        <ele>42</ele>
        <time>2019-06-08T13:09:03Z</time>
      </trkpt>
      <trkpt lat="48.92753" lon="-0.48077">
        <ele>40</ele>
        <time>2019-06-08T13:09:05Z</time>
      </trkpt>
      <trkpt lat="48.92753" lon="-0.48089">
        <ele>39</ele>
        <time>2019-06-08T13:09:07Z</time>
      </trkpt>
      <trkpt lat="48.92753" lon="-0.48101">
        <ele>41</ele>
        <time>2019-06-08T13:09:09Z</time>
      </trkpt>
      <trkpt lat="48.92753" lon="-0.48112">
        <ele>42</ele>
        <time>2019-06-08T13:09:11Z</time>
      </trkpt>
      <trkpt lat="48.92753" lon="-0.48124">
        <ele>42</ele>
        <time>2019-06-08T13:09:13Z</time>
      </trkpt>
      <trkpt lat="48.92754" lon="-0.48135">
        <ele>42</ele>
        <time>2019-06-08T13:09:15Z</time>
      </trkpt>
      <trkpt lat="48.92754" lon="-0.48147">
        <ele>41</ele>
        <time>2019-06-08T13:09:17Z</time>
      </trkpt>
      <trkpt lat="48.92755" lon="-0.48159">
        <ele>40</ele>
        <time>2019-06-08T13:09:19Z</time>
      </trkpt>
      <trkpt lat="48.92757" lon="-0.48171">
        <ele>39</ele>
        <time>2019-06-08T13:09:21Z</time>
      </trkpt>
      <trkpt lat="48.9276" lon="-0.48179">
        <ele>41</ele>
        <time>2019-06-08T13:09:23Z</time>
      </trkpt>
      <trkpt lat="48.92764" lon="-0.48184">
        <ele>41</ele>
        <time>2019-06-08T13:09:25Z</time>
      </trkpt>
      <trkpt lat="48.9277" lon="-0.4819">
        <ele>42</ele>
        <time>2019-06-08T13:09:29Z</time>
      </trkpt>
      <trkpt lat="48.9277" lon="-0.48182">
        <ele>42</ele>
        <time>2019-06-08T13:09:33Z</time>
      </trkpt>
      <trkpt lat="48.92767" lon="-0.48176">
        <ele>41</ele>
        <time>2019-06-08T13:09:35Z</time>
      </trkpt>
      <trkpt lat="48.92767" lon="-0.48166">
        <ele>41</ele>
        <time>2019-06-08T13:09:37Z</time>
      </trkpt>
      <trkpt lat="48.92767" lon="-0.48154">
        <ele>42</ele>
        <time>2019-06-08T13:09:39Z</time>
      </trkpt>
      <trkpt lat="48.92766" lon="-0.48142">
        <ele>42</ele>
        <time>2019-06-08T13:09:41Z</time>
      </trkpt>
      <trkpt lat="48.92765" lon="-0.48129">
        <ele>43</ele>
        <time>2019-06-08T13:09:43Z</time>
      </trkpt>
      <trkpt lat="48.92764" lon="-0.48115">
        <ele>43</ele>
        <time>2019-06-08T13:09:45Z</time>
      </trkpt>
      <trkpt lat="48.92764" lon="-0.48104">
        <ele>42</ele>
        <time>2019-06-08T13:09:47Z</time>
      </trkpt>
      <trkpt lat="48.92763" lon="-0.48097">
        <ele>42</ele>
        <time>2019-06-08T13:09:49Z</time>
      </trkpt>
      <trkpt lat="48.92766" lon="-0.48091">
        <ele>42</ele>
        <time>2019-06-08T13:10:45Z</time>
      </trkpt>
      <trkpt lat="48.92767" lon="-0.481">
        <ele>42</ele>
        <time>2019-06-08T13:10:55Z</time>
      </trkpt>
      <trkpt lat="48.92768" lon="-0.48109">
        <ele>43</ele>
        <time>2019-06-08T13:10:59Z</time>
      </trkpt>
      <trkpt lat="48.92768" lon="-0.48122">
        <ele>43</ele>
        <time>2019-06-08T13:11:03Z</time>
      </trkpt>
      <trkpt lat="48.92767" lon="-0.4813">
        <ele>43</ele>
        <time>2019-06-08T13:11:05Z</time>
      </trkpt>
      <trkpt lat="48.92767" lon="-0.48137">
        <ele>43</ele>
        <time>2019-06-08T13:11:07Z</time>
      </trkpt>
      <trkpt lat="48.92766" lon="-0.48144">
        <ele>42</ele>
        <time>2019-06-08T13:11:09Z</time>
      </trkpt>
      <trkpt lat="48.92767" lon="-0.48152">
        <ele>42</ele>
        <time>2019-06-08T13:11:11Z</time>
      </trkpt>
      <trkpt lat="48.92767" lon="-0.48158">
        <ele>42</ele>
        <time>2019-06-08T13:11:13Z</time>
      </trkpt>
      <trkpt lat="48.92768" lon="-0.48171">
        <ele>41</ele>
        <time>2019-06-08T13:11:17Z</time>
      </trkpt>
      <trkpt lat="48.92768" lon="-0.48179">
        <ele>41</ele>
        <time>2019-06-08T13:11:21Z</time>
      </trkpt>
      <trkpt lat="48.9277" lon="-0.48187">
        <ele>42</ele>
        <time>2019-06-08T13:11:23Z</time>
      </trkpt>
      <trkpt lat="48.92773" lon="-0.48195">
        <ele>42</ele>
        <time>2019-06-08T13:11:25Z</time>
      </trkpt>
      <trkpt lat="48.92779" lon="-0.48202">
        <ele>43</ele>
        <time>2019-06-08T13:11:27Z</time>
      </trkpt>
      <trkpt lat="48.92782" lon="-0.48211">
        <ele>43</ele>
        <time>2019-06-08T13:11:29Z</time>
      </trkpt>
      <trkpt lat="48.92785" lon="-0.48221">
        <ele>43</ele>
        <time>2019-06-08T13:11:31Z</time>
      </trkpt>
      <trkpt lat="48.92786" lon="-0.48232">
        <ele>43</ele>
        <time>2019-06-08T13:11:33Z</time>
      </trkpt>
      <trkpt lat="48.92787" lon="-0.48245">
        <ele>42</ele>
        <time>2019-06-08T13:11:35Z</time>
      </trkpt>
      <trkpt lat="48.92787" lon="-0.48257">
        <ele>41</ele>
        <time>2019-06-08T13:11:37Z</time>
      </trkpt>
      <trkpt lat="48.92789" lon="-0.48269">
        <ele>42</ele>
        <time>2019-06-08T13:11:39Z</time>
      </trkpt>
      <trkpt lat="48.92791" lon="-0.48281">
        <ele>42</ele>
        <time>2019-06-08T13:11:41Z</time>
      </trkpt>
      <trkpt lat="48.92794" lon="-0.48291">
        <ele>42</ele>
        <time>2019-06-08T13:11:43Z</time>
      </trkpt>
      <trkpt lat="48.92797" lon="-0.48299">
        <ele>42</ele>
        <time>2019-06-08T13:11:45Z</time>
      </trkpt>
      <trkpt lat="48.928" lon="-0.48307">
        <ele>42</ele>
        <time>2019-06-08T13:11:47Z</time>
      </trkpt>
      <trkpt lat="48.92805" lon="-0.48311">
        <ele>43</ele>
        <time>2019-06-08T13:11:49Z</time>
      </trkpt>
      <trkpt lat="48.92809" lon="-0.48308">
        <ele>43</ele>
        <time>2019-06-08T13:11:51Z</time>
      </trkpt>
      <trkpt lat="48.92811" lon="-0.48295">
        <ele>43</ele>
        <time>2019-06-08T13:11:55Z</time>
      </trkpt>
      <trkpt lat="48.9281" lon="-0.48287">
        <ele>43</ele>
        <time>2019-06-08T13:11:57Z</time>
      </trkpt>
      <trkpt lat="48.9281" lon="-0.48277">
        <ele>44</ele>
        <time>2019-06-08T13:11:59Z</time>
      </trkpt>
      <trkpt lat="48.92809" lon="-0.48267">
        <ele>44</ele>
        <time>2019-06-08T13:12:01Z</time>
      </trkpt>
      <trkpt lat="48.92809" lon="-0.48256">
        <ele>44</ele>
        <time>2019-06-08T13:12:03Z</time>
      </trkpt>
      <trkpt lat="48.92808" lon="-0.48245">
        <ele>45</ele>
        <time>2019-06-08T13:12:05Z</time>
      </trkpt>
      <trkpt lat="48.92808" lon="-0.48235">
        <ele>45</ele>
        <time>2019-06-08T13:12:07Z</time>
      </trkpt>
      <trkpt lat="48.92808" lon="-0.48224">
        <ele>45</ele>
        <time>2019-06-08T13:12:09Z</time>
      </trkpt>
      <trkpt lat="48.92808" lon="-0.48212">
        <ele>45</ele>
        <time>2019-06-08T13:12:11Z</time>
      </trkpt>
      <trkpt lat="48.92808" lon="-0.48199">
        <ele>45</ele>
        <time>2019-06-08T13:12:13Z</time>
      </trkpt>
      <trkpt lat="48.9281" lon="-0.48186">
        <ele>46</ele>
        <time>2019-06-08T13:12:15Z</time>
      </trkpt>
      <trkpt lat="48.92811" lon="-0.48175">
        <ele>46</ele>
        <time>2019-06-08T13:12:17Z</time>
      </trkpt>
      <trkpt lat="48.92814" lon="-0.48164">
        <ele>47</ele>
        <time>2019-06-08T13:12:19Z</time>
      </trkpt>
      <trkpt lat="48.92816" lon="-0.48154">
        <ele>47</ele>
        <time>2019-06-08T13:12:21Z</time>
      </trkpt>
      <trkpt lat="48.92818" lon="-0.48143">
        <ele>47</ele>
        <time>2019-06-08T13:12:23Z</time>
      </trkpt>
      <trkpt lat="48.9282" lon="-0.48133">
        <ele>47</ele>
        <time>2019-06-08T13:12:25Z</time>
      </trkpt>
      <trkpt lat="48.92823" lon="-0.48126">
        <ele>47</ele>
        <time>2019-06-08T13:12:27Z</time>
      </trkpt>
      <trkpt lat="48.9283" lon="-0.48122">
        <ele>47</ele>
        <time>2019-06-08T13:12:31Z</time>
      </trkpt>
      <trkpt lat="48.92836" lon="-0.48119">
        <ele>58</ele>
        <time>2019-06-08T13:12:35Z</time>
      </trkpt>
      <trkpt lat="48.92842" lon="-0.48116">
        <ele>58</ele>
        <time>2019-06-08T13:12:39Z</time>
      </trkpt>
      <trkpt lat="48.92848" lon="-0.48114">
        <ele>58</ele>
        <time>2019-06-08T13:12:43Z</time>
      </trkpt>
      <trkpt lat="48.92854" lon="-0.48111">
        <ele>59</ele>
        <time>2019-06-08T13:12:47Z</time>
      </trkpt>
      <trkpt lat="48.9286" lon="-0.48109">
        <ele>60</ele>
        <time>2019-06-08T13:12:51Z</time>
      </trkpt>
      <trkpt lat="48.92865" lon="-0.48107">
        <ele>60</ele>
        <time>2019-06-08T13:12:55Z</time>
      </trkpt>
      <trkpt lat="48.92869" lon="-0.48101">
        <ele>61</ele>
        <time>2019-06-08T13:12:59Z</time>
      </trkpt>
      <trkpt lat="48.92873" lon="-0.48096">
        <ele>62</ele>
        <time>2019-06-08T13:13:03Z</time>
      </trkpt>
      <trkpt lat="48.92878" lon="-0.4809">
        <ele>63</ele>
        <time>2019-06-08T13:13:07Z</time>
      </trkpt>
      <trkpt lat="48.92883" lon="-0.48084">
        <ele>64</ele>
        <time>2019-06-08T13:13:11Z</time>
      </trkpt>
      <trkpt lat="48.92887" lon="-0.48079">
        <ele>67</ele>
        <time>2019-06-08T13:13:15Z</time>
      </trkpt>
      <trkpt lat="48.92892" lon="-0.48076">
        <ele>68</ele>
        <time>2019-06-08T13:13:19Z</time>
      </trkpt>
      <trkpt lat="48.92897" lon="-0.48073">
        <ele>69</ele>
        <time>2019-06-08T13:13:23Z</time>
      </trkpt>
      <trkpt lat="48.92901" lon="-0.48065">
        <ele>69</ele>
        <time>2019-06-08T13:13:29Z</time>
      </trkpt>
      <trkpt lat="48.92906" lon="-0.48058">
        <ele>69</ele>
        <time>2019-06-08T13:13:33Z</time>
      </trkpt>
      <trkpt lat="48.92911" lon="-0.48053">
        <ele>69</ele>
        <time>2019-06-08T13:13:37Z</time>
      </trkpt>
      <trkpt lat="48.92915" lon="-0.48047">
        <ele>69</ele>
        <time>2019-06-08T13:13:41Z</time>
      </trkpt>
      <trkpt lat="48.92921" lon="-0.4804">
        <ele>86</ele>
        <time>2019-06-08T13:13:45Z</time>
      </trkpt>
      <trkpt lat="48.92924" lon="-0.48031">
        <ele>86</ele>
        <time>2019-06-08T13:13:51Z</time>
      </trkpt>
      <trkpt lat="48.92928" lon="-0.48026">
        <ele>86</ele>
        <time>2019-06-08T13:13:55Z</time>
      </trkpt>
      <trkpt lat="48.9293" lon="-0.48016">
        <ele>85</ele>
        <time>2019-06-08T13:14:03Z</time>
      </trkpt>
      <trkpt lat="48.92934" lon="-0.48009">
        <ele>85</ele>
        <time>2019-06-08T13:14:07Z</time>
      </trkpt>
      <trkpt lat="48.92938" lon="-0.48001">
        <ele>86</ele>
        <time>2019-06-08T13:14:13Z</time>
      </trkpt>
      <trkpt lat="48.92941" lon="-0.47994">
        <ele>90</ele>
        <time>2019-06-08T13:14:17Z</time>
      </trkpt>
      <trkpt lat="48.92944" lon="-0.47984">
        <ele>92</ele>
        <time>2019-06-08T13:14:21Z</time>
      </trkpt>
      <trkpt lat="48.92947" lon="-0.47976">
        <ele>93</ele>
        <time>2019-06-08T13:14:25Z</time>
      </trkpt>
      <trkpt lat="48.92947" lon="-0.47968">
        <ele>94</ele>
        <time>2019-06-08T13:14:29Z</time>
      </trkpt>
      <trkpt lat="48.92949" lon="-0.4796">
        <ele>95</ele>
        <time>2019-06-08T13:14:33Z</time>
      </trkpt>
      <trkpt lat="48.92951" lon="-0.47952">
        <ele>96</ele>
        <time>2019-06-08T13:14:37Z</time>
      </trkpt>
      <trkpt lat="48.92953" lon="-0.47945">
        <ele>96</ele>
        <time>2019-06-08T13:14:41Z</time>
      </trkpt>
      <trkpt lat="48.92955" lon="-0.47938">
        <ele>97</ele>
        <time>2019-06-08T13:14:45Z</time>
      </trkpt>
      <trkpt lat="48.92958" lon="-0.47929">
        <ele>97</ele>
        <time>2019-06-08T13:14:49Z</time>
      </trkpt>
      <trkpt lat="48.9296" lon="-0.47923">
        <ele>98</ele>
        <time>2019-06-08T13:14:53Z</time>
      </trkpt>
      <trkpt lat="48.92963" lon="-0.47916">
        <ele>105</ele>
        <time>2019-06-08T13:14:57Z</time>
      </trkpt>
      <trkpt lat="48.92966" lon="-0.47907">
        <ele>105</ele>
        <time>2019-06-08T13:15:03Z</time>
      </trkpt>
      <trkpt lat="48.9297" lon="-0.47898">
        <ele>106</ele>
        <time>2019-06-08T13:15:09Z</time>
      </trkpt>
      <trkpt lat="48.92971" lon="-0.4789">
        <ele>107</ele>
        <time>2019-06-08T13:15:13Z</time>
      </trkpt>
      <trkpt lat="48.92971" lon="-0.47882">
        <ele>107</ele>
        <time>2019-06-08T13:15:19Z</time>
      </trkpt>
      <trkpt lat="48.92975" lon="-0.47873">
        <ele>108</ele>
        <time>2019-06-08T13:15:25Z</time>
      </trkpt>
      <trkpt lat="48.92981" lon="-0.47865">
        <ele>109</ele>
        <time>2019-06-08T13:15:31Z</time>
      </trkpt>
      <trkpt lat="48.92983" lon="-0.4786">
        <ele>109</ele>
        <time>2019-06-08T13:15:43Z</time>
      </trkpt>
      <trkpt lat="48.92987" lon="-0.47852">
        <ele>110</ele>
        <time>2019-06-08T13:15:51Z</time>
      </trkpt>
      <trkpt lat="48.92991" lon="-0.47845">
        <ele>111</ele>
        <time>2019-06-08T13:16:03Z</time>
      </trkpt>
      <trkpt lat="48.92997" lon="-0.4784">
        <ele>113</ele>
        <time>2019-06-08T13:16:17Z</time>
      </trkpt>
      <trkpt lat="48.93002" lon="-0.47837">
        <ele>117</ele>
        <time>2019-06-08T13:16:21Z</time>
      </trkpt>
      <trkpt lat="48.93006" lon="-0.47833">
        <ele>117</ele>
        <time>2019-06-08T13:16:29Z</time>
      </trkpt>
      <trkpt lat="48.9301" lon="-0.47829">
        <ele>120</ele>
        <time>2019-06-08T13:16:35Z</time>
      </trkpt>
      <trkpt lat="48.93015" lon="-0.47823">
        <ele>122</ele>
        <time>2019-06-08T13:16:43Z</time>
      </trkpt>
      <trkpt lat="48.93018" lon="-0.47818">
        <ele>123</ele>
        <time>2019-06-08T13:16:51Z</time>
      </trkpt>
      <trkpt lat="48.93021" lon="-0.47813">
        <ele>125</ele>
        <time>2019-06-08T13:17:03Z</time>
      </trkpt>
      <trkpt lat="48.93026" lon="-0.47812">
        <ele>125</ele>
        <time>2019-06-08T13:17:59Z</time>
      </trkpt>
      <trkpt lat="48.93021" lon="-0.47814">
        <ele>124</ele>
        <time>2019-06-08T13:19:45Z</time>
      </trkpt>
      <trkpt lat="48.93026" lon="-0.47812">
        <ele>125</ele>
        <time>2019-06-08T13:20:01Z</time>
      </trkpt>
      <trkpt lat="48.93029" lon="-0.47804">
        <ele>126</ele>
        <time>2019-06-08T13:20:15Z</time>
      </trkpt>
      <trkpt lat="48.93034" lon="-0.47799">
        <ele>127</ele>
        <time>2019-06-08T13:20:27Z</time>
      </trkpt>
      <trkpt lat="48.93037" lon="-0.47791">
        <ele>128</ele>
        <time>2019-06-08T13:20:41Z</time>
      </trkpt>
      <trkpt lat="48.9304" lon="-0.47784">
        <ele>128</ele>
        <time>2019-06-08T13:20:49Z</time>
      </trkpt>
      <trkpt lat="48.9304" lon="-0.47777">
        <ele>128</ele>
        <time>2019-06-08T13:21:01Z</time>
      </trkpt>
      <trkpt lat="48.93043" lon="-0.4777">
        <ele>128</ele>
        <time>2019-06-08T13:21:11Z</time>
      </trkpt>
      <trkpt lat="48.93046" lon="-0.47765">
        <ele>129</ele>
        <time>2019-06-08T13:21:37Z</time>
      </trkpt>
      <trkpt lat="48.93049" lon="-0.47755">
        <ele>129</ele>
        <time>2019-06-08T13:21:47Z</time>
      </trkpt>
      <trkpt lat="48.93054" lon="-0.47748">
        <ele>135</ele>
        <time>2019-06-08T13:21:51Z</time>
      </trkpt>
      <trkpt lat="48.93058" lon="-0.47743">
        <ele>135</ele>
        <time>2019-06-08T13:21:55Z</time>
      </trkpt>
      <trkpt lat="48.93061" lon="-0.47736">
        <ele>135</ele>
        <time>2019-06-08T13:21:59Z</time>
      </trkpt>
      <trkpt lat="48.93066" lon="-0.47728">
        <ele>135</ele>
        <time>2019-06-08T13:22:05Z</time>
      </trkpt>
      <trkpt lat="48.9307" lon="-0.47721">
        <ele>136</ele>
        <time>2019-06-08T13:22:11Z</time>
      </trkpt>
      <trkpt lat="48.9307" lon="-0.47713">
        <ele>137</ele>
        <time>2019-06-08T13:22:17Z</time>
      </trkpt>
      <trkpt lat="48.93072" lon="-0.47706">
        <ele>138</ele>
        <time>2019-06-08T13:22:25Z</time>
      </trkpt>
      <trkpt lat="48.93076" lon="-0.47704">
        <ele>138</ele>
        <time>2019-06-08T13:22:31Z</time>
      </trkpt>
      <trkpt lat="48.93075" lon="-0.47698">
        <ele>139</ele>
        <time>2019-06-08T13:22:45Z</time>
      </trkpt>
      <trkpt lat="48.93076" lon="-0.47691">
        <ele>139</ele>
        <time>2019-06-08T13:22:59Z</time>
      </trkpt>
      <trkpt lat="48.93077" lon="-0.47683">
        <ele>140</ele>
        <time>2019-06-08T13:23:13Z</time>
      </trkpt>
      <trkpt lat="48.93076" lon="-0.47676">
        <ele>140</ele>
        <time>2019-06-08T13:23:23Z</time>
      </trkpt>
      <trkpt lat="48.93077" lon="-0.47669">
        <ele>141</ele>
        <time>2019-06-08T13:23:39Z</time>
      </trkpt>
      <trkpt lat="48.93078" lon="-0.47662">
        <ele>144</ele>
        <time>2019-06-08T13:23:51Z</time>
      </trkpt>
      <trkpt lat="48.93081" lon="-0.47655">
        <ele>145</ele>
        <time>2019-06-08T13:24:01Z</time>
      </trkpt>
      <trkpt lat="48.93083" lon="-0.47646">
        <ele>147</ele>
        <time>2019-06-08T13:24:13Z</time>
      </trkpt>
      <trkpt lat="48.93083" lon="-0.47639">
        <ele>149</ele>
        <time>2019-06-08T13:24:23Z</time>
      </trkpt>
      <trkpt lat="48.93083" lon="-0.47631">
        <ele>150</ele>
        <time>2019-06-08T13:24:33Z</time>
      </trkpt>
      <trkpt lat="48.9308" lon="-0.47624">
        <ele>151</ele>
        <time>2019-06-08T13:24:45Z</time>
      </trkpt>
      <trkpt lat="48.93075" lon="-0.47621">
        <ele>151</ele>
        <time>2019-06-08T13:25:11Z</time>
      </trkpt>
      <trkpt lat="48.9307" lon="-0.47619">
        <ele>152</ele>
        <time>2019-06-08T13:25:15Z</time>
      </trkpt>
      <trkpt lat="48.93065" lon="-0.47619">
        <ele>152</ele>
        <time>2019-06-08T13:25:19Z</time>
      </trkpt>
      <trkpt lat="48.93059" lon="-0.4762">
        <ele>152</ele>
        <time>2019-06-08T13:25:23Z</time>
      </trkpt>
      <trkpt lat="48.93053" lon="-0.47619">
        <ele>152</ele>
        <time>2019-06-08T13:25:27Z</time>
      </trkpt>
      <trkpt lat="48.93048" lon="-0.47617">
        <ele>152</ele>
        <time>2019-06-08T13:25:29Z</time>
      </trkpt>
      <trkpt lat="48.93042" lon="-0.47619">
        <ele>152</ele>
        <time>2019-06-08T13:25:35Z</time>
      </trkpt>
      <trkpt lat="48.93037" lon="-0.4762">
        <ele>152</ele>
        <time>2019-06-08T13:25:39Z</time>
      </trkpt>
      <trkpt lat="48.93031" lon="-0.47622">
        <ele>153</ele>
        <time>2019-06-08T13:25:43Z</time>
      </trkpt>
      <trkpt lat="48.93026" lon="-0.47622">
        <ele>153</ele>
        <time>2019-06-08T13:25:47Z</time>
      </trkpt>
      <trkpt lat="48.9302" lon="-0.47622">
        <ele>153</ele>
        <time>2019-06-08T13:25:53Z</time>
      </trkpt>
      <trkpt lat="48.93014" lon="-0.47621">
        <ele>153</ele>
        <time>2019-06-08T13:25:57Z</time>
      </trkpt>
      <trkpt lat="48.93008" lon="-0.47623">
        <ele>153</ele>
        <time>2019-06-08T13:26:05Z</time>
      </trkpt>
      <trkpt lat="48.93003" lon="-0.47626">
        <ele>153</ele>
        <time>2019-06-08T13:26:11Z</time>
      </trkpt>
      <trkpt lat="48.92998" lon="-0.47626">
        <ele>147</ele>
        <time>2019-06-08T13:26:13Z</time>
      </trkpt>
      <trkpt lat="48.92993" lon="-0.47622">
        <ele>146</ele>
        <time>2019-06-08T13:26:19Z</time>
      </trkpt>
      <trkpt lat="48.92989" lon="-0.47619">
        <ele>146</ele>
        <time>2019-06-08T13:26:59Z</time>
      </trkpt>
      <trkpt lat="48.92995" lon="-0.47614">
        <ele>147</ele>
        <time>2019-06-08T13:29:45Z</time>
      </trkpt>
      <trkpt lat="48.92998" lon="-0.47608">
        <ele>148</ele>
        <time>2019-06-08T13:29:47Z</time>
      </trkpt>
      <trkpt lat="48.93005" lon="-0.476">
        <ele>155</ele>
        <time>2019-06-08T13:29:49Z</time>
      </trkpt>
      <trkpt lat="48.93011" lon="-0.47592">
        <ele>156</ele>
        <time>2019-06-08T13:29:51Z</time>
      </trkpt>
      <trkpt lat="48.93019" lon="-0.47584">
        <ele>155</ele>
        <time>2019-06-08T13:29:53Z</time>
      </trkpt>
      <trkpt lat="48.93027" lon="-0.4758">
        <ele>159</ele>
        <time>2019-06-08T13:29:55Z</time>
      </trkpt>
      <trkpt lat="48.93033" lon="-0.47576">
        <ele>159</ele>
        <time>2019-06-08T13:29:57Z</time>
      </trkpt>
      <trkpt lat="48.93033" lon="-0.47568">
        <ele>159</ele>
        <time>2019-06-08T13:30:01Z</time>
      </trkpt>
      <trkpt lat="48.9303" lon="-0.4756">
        <ele>159</ele>
        <time>2019-06-08T13:30:05Z</time>
      </trkpt>
      <trkpt lat="48.93034" lon="-0.47554">
        <ele>159</ele>
        <time>2019-06-08T13:30:09Z</time>
      </trkpt>
      <trkpt lat="48.93037" lon="-0.47547">
        <ele>159</ele>
        <time>2019-06-08T13:30:19Z</time>
      </trkpt>
      <trkpt lat="48.93039" lon="-0.47541">
        <ele>160</ele>
        <time>2019-06-08T13:30:25Z</time>
      </trkpt>
      <trkpt lat="48.93041" lon="-0.47535">
        <ele>160</ele>
        <time>2019-06-08T13:30:35Z</time>
      </trkpt>
      <trkpt lat="48.93045" lon="-0.47529">
        <ele>160</ele>
        <time>2019-06-08T13:31:05Z</time>
      </trkpt>
      <trkpt lat="48.93048" lon="-0.47524">
        <ele>161</ele>
        <time>2019-06-08T13:31:15Z</time>
      </trkpt>
      <trkpt lat="48.93053" lon="-0.4752">
        <ele>162</ele>
        <time>2019-06-08T13:31:27Z</time>
      </trkpt>
      <trkpt lat="48.93057" lon="-0.47514">
        <ele>163</ele>
        <time>2019-06-08T13:31:35Z</time>
      </trkpt>
      <trkpt lat="48.9306" lon="-0.47509">
        <ele>164</ele>
        <time>2019-06-08T13:31:49Z</time>
      </trkpt>
      <trkpt lat="48.93063" lon="-0.47504">
        <ele>165</ele>
        <time>2019-06-08T13:32:03Z</time>
      </trkpt>
      <trkpt lat="48.93068" lon="-0.475">
        <ele>169</ele>
        <time>2019-06-08T13:32:11Z</time>
      </trkpt>
      <trkpt lat="48.93072" lon="-0.47497">
        <ele>170</ele>
        <time>2019-06-08T13:32:21Z</time>
      </trkpt>
      <trkpt lat="48.93076" lon="-0.47493">
        <ele>170</ele>
        <time>2019-06-08T13:32:33Z</time>
      </trkpt>
      <trkpt lat="48.93081" lon="-0.47488">
        <ele>170</ele>
        <time>2019-06-08T13:32:37Z</time>
      </trkpt>
      <trkpt lat="48.93084" lon="-0.47483">
        <ele>178</ele>
        <time>2019-06-08T13:32:45Z</time>
      </trkpt>
      <trkpt lat="48.93091" lon="-0.4748">
        <ele>179</ele>
        <time>2019-06-08T13:32:53Z</time>
      </trkpt>
      <trkpt lat="48.93095" lon="-0.47478">
        <ele>179</ele>
        <time>2019-06-08T13:32:57Z</time>
      </trkpt>
      <trkpt lat="48.931" lon="-0.47473">
        <ele>180</ele>
        <time>2019-06-08T13:33:01Z</time>
      </trkpt>
      <trkpt lat="48.93105" lon="-0.4747">
        <ele>181</ele>
        <time>2019-06-08T13:33:05Z</time>
      </trkpt>
      <trkpt lat="48.9311" lon="-0.47467">
        <ele>182</ele>
        <time>2019-06-08T13:33:11Z</time>
      </trkpt>
      <trkpt lat="48.93114" lon="-0.47465">
        <ele>182</ele>
        <time>2019-06-08T13:33:17Z</time>
      </trkpt>
      <trkpt lat="48.93118" lon="-0.4746">
        <ele>183</ele>
        <time>2019-06-08T13:33:27Z</time>
      </trkpt>
      <trkpt lat="48.93121" lon="-0.47454">
        <ele>183</ele>
        <time>2019-06-08T13:33:37Z</time>
      </trkpt>
      <trkpt lat="48.93123" lon="-0.47448">
        <ele>184</ele>
        <time>2019-06-08T13:33:49Z</time>
      </trkpt>
      <trkpt lat="48.93125" lon="-0.4744">
        <ele>184</ele>
        <time>2019-06-08T13:33:59Z</time>
      </trkpt>
      <trkpt lat="48.93127" lon="-0.47432">
        <ele>185</ele>
        <time>2019-06-08T13:34:09Z</time>
      </trkpt>
      <trkpt lat="48.9313" lon="-0.47425">
        <ele>185</ele>
        <time>2019-06-08T13:34:17Z</time>
      </trkpt>
      <trkpt lat="48.93133" lon="-0.47418">
        <ele>186</ele>
        <time>2019-06-08T13:34:27Z</time>
      </trkpt>
      <trkpt lat="48.93135" lon="-0.4741">
        <ele>192</ele>
        <time>2019-06-08T13:34:35Z</time>
      </trkpt>
      <trkpt lat="48.93138" lon="-0.47404">
        <ele>192</ele>
        <time>2019-06-08T13:34:43Z</time>
      </trkpt>
      <trkpt lat="48.93136" lon="-0.47398">
        <ele>192</ele>
        <time>2019-06-08T13:34:53Z</time>
      </trkpt>
      <trkpt lat="48.93132" lon="-0.47393">
        <ele>192</ele>
        <time>2019-06-08T13:35:07Z</time>
      </trkpt>
      <trkpt lat="48.93127" lon="-0.47387">
        <ele>192</ele>
        <time>2019-06-08T13:35:13Z</time>
      </trkpt>
      <trkpt lat="48.93122" lon="-0.47382">
        <ele>193</ele>
        <time>2019-06-08T13:35:19Z</time>
      </trkpt>
      <trkpt lat="48.93118" lon="-0.47378">
        <ele>193</ele>
        <time>2019-06-08T13:35:23Z</time>
      </trkpt>
      <trkpt lat="48.93114" lon="-0.47373">
        <ele>193</ele>
        <time>2019-06-08T13:35:27Z</time>
      </trkpt>
      <trkpt lat="48.93108" lon="-0.47367">
        <ele>193</ele>
        <time>2019-06-08T13:35:33Z</time>
      </trkpt>
      <trkpt lat="48.93104" lon="-0.47362">
        <ele>193</ele>
        <time>2019-06-08T13:35:37Z</time>
      </trkpt>
      <trkpt lat="48.93101" lon="-0.47357">
        <ele>193</ele>
        <time>2019-06-08T13:35:41Z</time>
      </trkpt>
      <trkpt lat="48.93096" lon="-0.47351">
        <ele>193</ele>
        <time>2019-06-08T13:35:47Z</time>
      </trkpt>
      <trkpt lat="48.93091" lon="-0.47346">
        <ele>193</ele>
        <time>2019-06-08T13:35:53Z</time>
      </trkpt>
      <trkpt lat="48.93087" lon="-0.4734">
        <ele>194</ele>
        <time>2019-06-08T13:37:47Z</time>
      </trkpt>
      <trkpt lat="48.93082" lon="-0.47338">
        <ele>190</ele>
        <time>2019-06-08T13:37:51Z</time>
      </trkpt>
      <trkpt lat="48.93079" lon="-0.47332">
        <ele>192</ele>
        <time>2019-06-08T13:37:55Z</time>
      </trkpt>
      <trkpt lat="48.93076" lon="-0.47327">
        <ele>190</ele>
        <time>2019-06-08T13:37:59Z</time>
      </trkpt>
      <trkpt lat="48.93071" lon="-0.4732">
        <ele>187</ele>
        <time>2019-06-08T13:38:05Z</time>
      </trkpt>
      <trkpt lat="48.9307" lon="-0.47312">
        <ele>186</ele>
        <time>2019-06-08T13:38:11Z</time>
      </trkpt>
      <trkpt lat="48.93066" lon="-0.47307">
        <ele>185</ele>
        <time>2019-06-08T13:38:15Z</time>
      </trkpt>
      <trkpt lat="48.93065" lon="-0.47298">
        <ele>185</ele>
        <time>2019-06-08T13:38:21Z</time>
      </trkpt>
      <trkpt lat="48.93065" lon="-0.47289">
        <ele>186</ele>
        <time>2019-06-08T13:38:25Z</time>
      </trkpt>
      <trkpt lat="48.93064" lon="-0.47282">
        <ele>186</ele>
        <time>2019-06-08T13:38:29Z</time>
      </trkpt>
      <trkpt lat="48.93064" lon="-0.47275">
        <ele>188</ele>
        <time>2019-06-08T13:38:33Z</time>
      </trkpt>
      <trkpt lat="48.93064" lon="-0.47267">
        <ele>189</ele>
        <time>2019-06-08T13:38:37Z</time>
      </trkpt>
      <trkpt lat="48.93063" lon="-0.4726">
        <ele>190</ele>
        <time>2019-06-08T13:38:41Z</time>
      </trkpt>
      <trkpt lat="48.93064" lon="-0.47252">
        <ele>191</ele>
        <time>2019-06-08T13:38:45Z</time>
      </trkpt>
      <trkpt lat="48.93063" lon="-0.47244">
        <ele>196</ele>
        <time>2019-06-08T13:38:49Z</time>
      </trkpt>
      <trkpt lat="48.93064" lon="-0.47237">
        <ele>196</ele>
        <time>2019-06-08T13:38:53Z</time>
      </trkpt>
      <trkpt lat="48.93064" lon="-0.47229">
        <ele>195</ele>
        <time>2019-06-08T13:38:57Z</time>
      </trkpt>
      <trkpt lat="48.93064" lon="-0.47221">
        <ele>195</ele>
        <time>2019-06-08T13:39:01Z</time>
      </trkpt>
      <trkpt lat="48.93064" lon="-0.4721">
        <ele>195</ele>
        <time>2019-06-08T13:39:07Z</time>
      </trkpt>
      <trkpt lat="48.93065" lon="-0.47201">
        <ele>195</ele>
        <time>2019-06-08T13:39:11Z</time>
      </trkpt>
      <trkpt lat="48.93064" lon="-0.47191">
        <ele>196</ele>
        <time>2019-06-08T13:39:15Z</time>
      </trkpt>
      <trkpt lat="48.93065" lon="-0.4718">
        <ele>198</ele>
        <time>2019-06-08T13:39:19Z</time>
      </trkpt>
      <trkpt lat="48.93065" lon="-0.47167">
        <ele>199</ele>
        <time>2019-06-08T13:39:23Z</time>
      </trkpt>
      <trkpt lat="48.93065" lon="-0.47155">
        <ele>204</ele>
        <time>2019-06-08T13:39:27Z</time>
      </trkpt>
      <trkpt lat="48.93066" lon="-0.47149">
        <ele>204</ele>
        <time>2019-06-08T13:39:29Z</time>
      </trkpt>
      <trkpt lat="48.93065" lon="-0.47142">
        <ele>204</ele>
        <time>2019-06-08T13:39:31Z</time>
      </trkpt>
      <trkpt lat="48.93065" lon="-0.47129">
        <ele>204</ele>
        <time>2019-06-08T13:39:35Z</time>
      </trkpt>
      <trkpt lat="48.93065" lon="-0.47117">
        <ele>205</ele>
        <time>2019-06-08T13:39:39Z</time>
      </trkpt>
      <trkpt lat="48.93065" lon="-0.47105">
        <ele>207</ele>
        <time>2019-06-08T13:39:43Z</time>
      </trkpt>
      <trkpt lat="48.93065" lon="-0.47095">
        <ele>208</ele>
        <time>2019-06-08T13:39:47Z</time>
      </trkpt>
      <trkpt lat="48.93064" lon="-0.47085">
        <ele>209</ele>
        <time>2019-06-08T13:39:51Z</time>
      </trkpt>
      <trkpt lat="48.93065" lon="-0.47076">
        <ele>214</ele>
        <time>2019-06-08T13:39:55Z</time>
      </trkpt>
      <trkpt lat="48.93067" lon="-0.47068">
        <ele>214</ele>
        <time>2019-06-08T13:39:59Z</time>
      </trkpt>
      <trkpt lat="48.93071" lon="-0.47064">
        <ele>214</ele>
        <time>2019-06-08T13:41:19Z</time>
      </trkpt>
      <trkpt lat="48.93075" lon="-0.47056">
        <ele>215</ele>
        <time>2019-06-08T13:41:23Z</time>
      </trkpt>
      <trkpt lat="48.93079" lon="-0.47047">
        <ele>215</ele>
        <time>2019-06-08T13:41:27Z</time>
      </trkpt>
      <trkpt lat="48.93083" lon="-0.47036">
        <ele>216</ele>
        <time>2019-06-08T13:41:31Z</time>
      </trkpt>
      <trkpt lat="48.93087" lon="-0.47026">
        <ele>221</ele>
        <time>2019-06-08T13:41:35Z</time>
      </trkpt>
      <trkpt lat="48.93089" lon="-0.47017">
        <ele>221</ele>
        <time>2019-06-08T13:41:39Z</time>
      </trkpt>
      <trkpt lat="48.93092" lon="-0.47007">
        <ele>221</ele>
        <time>2019-06-08T13:41:43Z</time>
      </trkpt>
      <trkpt lat="48.93097" lon="-0.46998">
        <ele>222</ele>
        <time>2019-06-08T13:41:47Z</time>
      </trkpt>
      <trkpt lat="48.931" lon="-0.46988">
        <ele>222</ele>
        <time>2019-06-08T13:41:51Z</time>
      </trkpt>
      <trkpt lat="48.93103" lon="-0.4698">
        <ele>222</ele>
        <time>2019-06-08T13:41:55Z</time>
      </trkpt>
      <trkpt lat="48.93106" lon="-0.46976">
        <ele>223</ele>
        <time>2019-06-08T13:43:15Z</time>
      </trkpt>
      <trkpt lat="48.93111" lon="-0.46964">
        <ele>223</ele>
        <time>2019-06-08T13:43:19Z</time>
      </trkpt>
      <trkpt lat="48.93114" lon="-0.46956">
        <ele>223</ele>
        <time>2019-06-08T13:43:21Z</time>
      </trkpt>
      <trkpt lat="48.93117" lon="-0.46947">
        <ele>223</ele>
        <time>2019-06-08T13:43:23Z</time>
      </trkpt>
      <trkpt lat="48.93119" lon="-0.46938">
        <ele>223</ele>
        <time>2019-06-08T13:43:25Z</time>
      </trkpt>
      <trkpt lat="48.93123" lon="-0.4693">
        <ele>223</ele>
        <time>2019-06-08T13:43:27Z</time>
      </trkpt>
      <trkpt lat="48.93126" lon="-0.46921">
        <ele>223</ele>
        <time>2019-06-08T13:43:29Z</time>
      </trkpt>
      <trkpt lat="48.93129" lon="-0.4691">
        <ele>224</ele>
        <time>2019-06-08T13:43:31Z</time>
      </trkpt>
      <trkpt lat="48.93133" lon="-0.469">
        <ele>225</ele>
        <time>2019-06-08T13:43:33Z</time>
      </trkpt>
      <trkpt lat="48.93138" lon="-0.46889">
        <ele>225</ele>
        <time>2019-06-08T13:43:35Z</time>
      </trkpt>
      <trkpt lat="48.93142" lon="-0.4688">
        <ele>225</ele>
        <time>2019-06-08T13:43:37Z</time>
      </trkpt>
      <trkpt lat="48.93145" lon="-0.46869">
        <ele>225</ele>
        <time>2019-06-08T13:43:39Z</time>
      </trkpt>
      <trkpt lat="48.93149" lon="-0.46859">
        <ele>226</ele>
        <time>2019-06-08T13:43:41Z</time>
      </trkpt>
      <trkpt lat="48.93152" lon="-0.46848">
        <ele>226</ele>
        <time>2019-06-08T13:43:43Z</time>
      </trkpt>
      <trkpt lat="48.93156" lon="-0.46839">
        <ele>227</ele>
        <time>2019-06-08T13:43:45Z</time>
      </trkpt>
      <trkpt lat="48.93159" lon="-0.46828">
        <ele>228</ele>
        <time>2019-06-08T13:43:47Z</time>
      </trkpt>
      <trkpt lat="48.93163" lon="-0.46818">
        <ele>228</ele>
        <time>2019-06-08T13:43:49Z</time>
      </trkpt>
      <trkpt lat="48.93166" lon="-0.46808">
        <ele>228</ele>
        <time>2019-06-08T13:43:51Z</time>
      </trkpt>
      <trkpt lat="48.93171" lon="-0.46798">
        <ele>227</ele>
        <time>2019-06-08T13:43:53Z</time>
      </trkpt>
      <trkpt lat="48.93174" lon="-0.46788">
        <ele>227</ele>
        <time>2019-06-08T13:43:55Z</time>
      </trkpt>
      <trkpt lat="48.93177" lon="-0.46778">
        <ele>227</ele>
        <time>2019-06-08T13:43:57Z</time>
      </trkpt>
      <trkpt lat="48.93176" lon="-0.46771">
        <ele>227</ele>
        <time>2019-06-08T13:43:59Z</time>
      </trkpt>
      <trkpt lat="48.93172" lon="-0.46765">
        <ele>227</ele>
        <time>2019-06-08T13:44:11Z</time>
      </trkpt>
      <trkpt lat="48.93169" lon="-0.46758">
        <ele>228</ele>
        <time>2019-06-08T13:44:27Z</time>
      </trkpt>
      <trkpt lat="48.93163" lon="-0.46749">
        <ele>228</ele>
        <time>2019-06-08T13:44:31Z</time>
      </trkpt>
      <trkpt lat="48.9316" lon="-0.46743">
        <ele>228</ele>
        <time>2019-06-08T13:44:33Z</time>
      </trkpt>
      <trkpt lat="48.93156" lon="-0.46737">
        <ele>228</ele>
        <time>2019-06-08T13:44:35Z</time>
      </trkpt>
      <trkpt lat="48.93152" lon="-0.46732">
        <ele>228</ele>
        <time>2019-06-08T13:44:37Z</time>
      </trkpt>
      <trkpt lat="48.93148" lon="-0.46727">
        <ele>228</ele>
        <time>2019-06-08T13:44:39Z</time>
      </trkpt>
      <trkpt lat="48.93144" lon="-0.46722">
        <ele>228</ele>
        <time>2019-06-08T13:44:41Z</time>
      </trkpt>
      <trkpt lat="48.93139" lon="-0.46717">
        <ele>228</ele>
        <time>2019-06-08T13:44:43Z</time>
      </trkpt>
      <trkpt lat="48.93135" lon="-0.4671">
        <ele>228</ele>
        <time>2019-06-08T13:44:45Z</time>
      </trkpt>
      <trkpt lat="48.93131" lon="-0.46704">
        <ele>228</ele>
        <time>2019-06-08T13:44:47Z</time>
      </trkpt>
      <trkpt lat="48.93127" lon="-0.46698">
        <ele>228</ele>
        <time>2019-06-08T13:44:49Z</time>
      </trkpt>
      <trkpt lat="48.93122" lon="-0.46693">
        <ele>228</ele>
        <time>2019-06-08T13:44:51Z</time>
      </trkpt>
      <trkpt lat="48.93117" lon="-0.46687">
        <ele>228</ele>
        <time>2019-06-08T13:44:53Z</time>
      </trkpt>
      <trkpt lat="48.93114" lon="-0.46681">
        <ele>229</ele>
        <time>2019-06-08T13:44:55Z</time>
      </trkpt>
      <trkpt lat="48.9311" lon="-0.46675">
        <ele>229</ele>
        <time>2019-06-08T13:44:57Z</time>
      </trkpt>
      <trkpt lat="48.93106" lon="-0.4667">
        <ele>229</ele>
        <time>2019-06-08T13:44:59Z</time>
      </trkpt>
      <trkpt lat="48.93102" lon="-0.46666">
        <ele>229</ele>
        <time>2019-06-08T13:45:01Z</time>
      </trkpt>
      <trkpt lat="48.93098" lon="-0.46661">
        <ele>229</ele>
        <time>2019-06-08T13:45:03Z</time>
      </trkpt>
      <trkpt lat="48.93094" lon="-0.46655">
        <ele>229</ele>
        <time>2019-06-08T13:45:05Z</time>
      </trkpt>
      <trkpt lat="48.93089" lon="-0.4665">
        <ele>229</ele>
        <time>2019-06-08T13:45:07Z</time>
      </trkpt>
      <trkpt lat="48.93085" lon="-0.46645">
        <ele>229</ele>
        <time>2019-06-08T13:45:09Z</time>
      </trkpt>
      <trkpt lat="48.93081" lon="-0.46639">
        <ele>231</ele>
        <time>2019-06-08T13:45:11Z</time>
      </trkpt>
      <trkpt lat="48.93077" lon="-0.46633">
        <ele>231</ele>
        <time>2019-06-08T13:45:13Z</time>
      </trkpt>
      <trkpt lat="48.93073" lon="-0.46629">
        <ele>231</ele>
        <time>2019-06-08T13:45:15Z</time>
      </trkpt>
      <trkpt lat="48.9307" lon="-0.46624">
        <ele>231</ele>
        <time>2019-06-08T13:45:17Z</time>
      </trkpt>
      <trkpt lat="48.93066" lon="-0.4662">
        <ele>231</ele>
        <time>2019-06-08T13:45:19Z</time>
      </trkpt>
      <trkpt lat="48.93062" lon="-0.46615">
        <ele>231</ele>
        <time>2019-06-08T13:45:21Z</time>
      </trkpt>
      <trkpt lat="48.93055" lon="-0.46606">
        <ele>231</ele>
        <time>2019-06-08T13:45:25Z</time>
      </trkpt>
      <trkpt lat="48.93051" lon="-0.466">
        <ele>231</ele>
        <time>2019-06-08T13:45:27Z</time>
      </trkpt>
      <trkpt lat="48.93047" lon="-0.46595">
        <ele>231</ele>
        <time>2019-06-08T13:45:29Z</time>
      </trkpt>
      <trkpt lat="48.93043" lon="-0.4659">
        <ele>231</ele>
        <time>2019-06-08T13:45:31Z</time>
      </trkpt>
      <trkpt lat="48.93039" lon="-0.46585">
        <ele>232</ele>
        <time>2019-06-08T13:45:33Z</time>
      </trkpt>
      <trkpt lat="48.93035" lon="-0.46581">
        <ele>231</ele>
        <time>2019-06-08T13:45:35Z</time>
      </trkpt>
      <trkpt lat="48.93031" lon="-0.46576">
        <ele>231</ele>
        <time>2019-06-08T13:45:37Z</time>
      </trkpt>
      <trkpt lat="48.93026" lon="-0.4657">
        <ele>231</ele>
        <time>2019-06-08T13:45:39Z</time>
      </trkpt>
      <trkpt lat="48.93022" lon="-0.46565">
        <ele>231</ele>
        <time>2019-06-08T13:45:41Z</time>
      </trkpt>
      <trkpt lat="48.93017" lon="-0.46558">
        <ele>231</ele>
        <time>2019-06-08T13:45:43Z</time>
      </trkpt>
      <trkpt lat="48.93013" lon="-0.46552">
        <ele>231</ele>
        <time>2019-06-08T13:45:45Z</time>
      </trkpt>
      <trkpt lat="48.93009" lon="-0.46546">
        <ele>231</ele>
        <time>2019-06-08T13:45:47Z</time>
      </trkpt>
      <trkpt lat="48.93005" lon="-0.46539">
        <ele>231</ele>
        <time>2019-06-08T13:45:49Z</time>
      </trkpt>
      <trkpt lat="48.93001" lon="-0.46532">
        <ele>231</ele>
        <time>2019-06-08T13:45:51Z</time>
      </trkpt>
      <trkpt lat="48.92995" lon="-0.46525">
        <ele>232</ele>
        <time>2019-06-08T13:45:53Z</time>
      </trkpt>
      <trkpt lat="48.92989" lon="-0.46519">
        <ele>232</ele>
        <time>2019-06-08T13:45:55Z</time>
      </trkpt>
      <trkpt lat="48.92985" lon="-0.46511">
        <ele>232</ele>
        <time>2019-06-08T13:45:57Z</time>
      </trkpt>
      <trkpt lat="48.92979" lon="-0.46505">
        <ele>232</ele>
        <time>2019-06-08T13:45:59Z</time>
      </trkpt>
      <trkpt lat="48.92974" lon="-0.46497">
        <ele>232</ele>
        <time>2019-06-08T13:46:01Z</time>
      </trkpt>
      <trkpt lat="48.9297" lon="-0.46489">
        <ele>232</ele>
        <time>2019-06-08T13:46:03Z</time>
      </trkpt>
      <trkpt lat="48.92966" lon="-0.46482">
        <ele>233</ele>
        <time>2019-06-08T13:46:05Z</time>
      </trkpt>
      <trkpt lat="48.92962" lon="-0.46475">
        <ele>233</ele>
        <time>2019-06-08T13:46:07Z</time>
      </trkpt>
      <trkpt lat="48.92957" lon="-0.4647">
        <ele>233</ele>
        <time>2019-06-08T13:46:09Z</time>
      </trkpt>
      <trkpt lat="48.92952" lon="-0.46464">
        <ele>233</ele>
        <time>2019-06-08T13:46:11Z</time>
      </trkpt>
      <trkpt lat="48.92946" lon="-0.4646">
        <ele>233</ele>
        <time>2019-06-08T13:46:13Z</time>
      </trkpt>
      <trkpt lat="48.9294" lon="-0.46458">
        <ele>233</ele>
        <time>2019-06-08T13:46:15Z</time>
      </trkpt>
      <trkpt lat="48.92935" lon="-0.46455">
        <ele>233</ele>
        <time>2019-06-08T13:46:17Z</time>
      </trkpt>
      <trkpt lat="48.92929" lon="-0.4645">
        <ele>233</ele>
        <time>2019-06-08T13:46:19Z</time>
      </trkpt>
      <trkpt lat="48.92923" lon="-0.46447">
        <ele>234</ele>
        <time>2019-06-08T13:46:21Z</time>
      </trkpt>
      <trkpt lat="48.92917" lon="-0.46444">
        <ele>234</ele>
        <time>2019-06-08T13:46:23Z</time>
      </trkpt>
      <trkpt lat="48.92912" lon="-0.46441">
        <ele>235</ele>
        <time>2019-06-08T13:46:25Z</time>
      </trkpt>
      <trkpt lat="48.92907" lon="-0.46439">
        <ele>235</ele>
        <time>2019-06-08T13:46:27Z</time>
      </trkpt>
      <trkpt lat="48.92902" lon="-0.46435">
        <ele>235</ele>
        <time>2019-06-08T13:46:29Z</time>
      </trkpt>
      <trkpt lat="48.92896" lon="-0.46431">
        <ele>235</ele>
        <time>2019-06-08T13:46:31Z</time>
      </trkpt>
      <trkpt lat="48.92889" lon="-0.46426">
        <ele>234</ele>
        <time>2019-06-08T13:46:33Z</time>
      </trkpt>
      <trkpt lat="48.92883" lon="-0.4642">
        <ele>234</ele>
        <time>2019-06-08T13:46:35Z</time>
      </trkpt>
      <trkpt lat="48.92877" lon="-0.46415">
        <ele>233</ele>
        <time>2019-06-08T13:46:37Z</time>
      </trkpt>
      <trkpt lat="48.92872" lon="-0.46409">
        <ele>233</ele>
        <time>2019-06-08T13:46:39Z</time>
      </trkpt>
      <trkpt lat="48.92866" lon="-0.46403">
        <ele>233</ele>
        <time>2019-06-08T13:46:41Z</time>
      </trkpt>
      <trkpt lat="48.92859" lon="-0.46397">
        <ele>233</ele>
        <time>2019-06-08T13:46:43Z</time>
      </trkpt>
      <trkpt lat="48.92853" lon="-0.46391">
        <ele>233</ele>
        <time>2019-06-08T13:46:45Z</time>
      </trkpt>
      <trkpt lat="48.92845" lon="-0.46384">
        <ele>233</ele>
        <time>2019-06-08T13:46:47Z</time>
      </trkpt>
      <trkpt lat="48.92837" lon="-0.46376">
        <ele>233</ele>
        <time>2019-06-08T13:46:49Z</time>
      </trkpt>
      <trkpt lat="48.92828" lon="-0.46366">
        <ele>233</ele>
        <time>2019-06-08T13:46:51Z</time>
      </trkpt>
      <trkpt lat="48.9282" lon="-0.46356">
        <ele>233</ele>
        <time>2019-06-08T13:46:53Z</time>
      </trkpt>
      <trkpt lat="48.92812" lon="-0.46347">
        <ele>233</ele>
        <time>2019-06-08T13:46:55Z</time>
      </trkpt>
      <trkpt lat="48.92804" lon="-0.46338">
        <ele>233</ele>
        <time>2019-06-08T13:46:57Z</time>
      </trkpt>
      <trkpt lat="48.92797" lon="-0.46328">
        <ele>233</ele>
        <time>2019-06-08T13:46:59Z</time>
      </trkpt>
      <trkpt lat="48.92789" lon="-0.46318">
        <ele>232</ele>
        <time>2019-06-08T13:47:01Z</time>
      </trkpt>
      <trkpt lat="48.92782" lon="-0.46308">
        <ele>232</ele>
        <time>2019-06-08T13:47:03Z</time>
      </trkpt>
      <trkpt lat="48.92776" lon="-0.46299">
        <ele>232</ele>
        <time>2019-06-08T13:47:05Z</time>
      </trkpt>
      <trkpt lat="48.92775" lon="-0.46291">
        <ele>232</ele>
        <time>2019-06-08T13:47:07Z</time>
      </trkpt>
      <trkpt lat="48.92771" lon="-0.46286">
        <ele>232</ele>
        <time>2019-06-08T13:47:09Z</time>
      </trkpt>
      <trkpt lat="48.92768" lon="-0.46281">
        <ele>232</ele>
        <time>2019-06-08T13:47:11Z</time>
      </trkpt>
      <trkpt lat="48.92764" lon="-0.46274">
        <ele>232</ele>
        <time>2019-06-08T13:47:13Z</time>
      </trkpt>
      <trkpt lat="48.9276" lon="-0.46266">
        <ele>233</ele>
        <time>2019-06-08T13:47:15Z</time>
      </trkpt>
      <trkpt lat="48.92755" lon="-0.46256">
        <ele>233</ele>
        <time>2019-06-08T13:47:17Z</time>
      </trkpt>
      <trkpt lat="48.92751" lon="-0.46247">
        <ele>233</ele>
        <time>2019-06-08T13:47:19Z</time>
      </trkpt>
      <trkpt lat="48.92748" lon="-0.46237">
        <ele>233</ele>
        <time>2019-06-08T13:47:21Z</time>
      </trkpt>
      <trkpt lat="48.92743" lon="-0.46229">
        <ele>233</ele>
        <time>2019-06-08T13:47:23Z</time>
      </trkpt>
      <trkpt lat="48.92739" lon="-0.46219">
        <ele>233</ele>
        <time>2019-06-08T13:47:25Z</time>
      </trkpt>
      <trkpt lat="48.92734" lon="-0.4621">
        <ele>233</ele>
        <time>2019-06-08T13:47:27Z</time>
      </trkpt>
      <trkpt lat="48.9273" lon="-0.462">
        <ele>233</ele>
        <time>2019-06-08T13:47:29Z</time>
      </trkpt>
      <trkpt lat="48.92724" lon="-0.46189">
        <ele>233</ele>
        <time>2019-06-08T13:47:31Z</time>
      </trkpt>
      <trkpt lat="48.92719" lon="-0.46178">
        <ele>233</ele>
        <time>2019-06-08T13:47:33Z</time>
      </trkpt>
      <trkpt lat="48.92714" lon="-0.46166">
        <ele>233</ele>
        <time>2019-06-08T13:47:35Z</time>
      </trkpt>
      <trkpt lat="48.92709" lon="-0.46155">
        <ele>233</ele>
        <time>2019-06-08T13:47:37Z</time>
      </trkpt>
      <trkpt lat="48.92704" lon="-0.46145">
        <ele>233</ele>
        <time>2019-06-08T13:47:39Z</time>
      </trkpt>
      <trkpt lat="48.92699" lon="-0.46137">
        <ele>233</ele>
        <time>2019-06-08T13:47:41Z</time>
      </trkpt>
      <trkpt lat="48.92695" lon="-0.46127">
        <ele>233</ele>
        <time>2019-06-08T13:47:43Z</time>
      </trkpt>
      <trkpt lat="48.9269" lon="-0.46117">
        <ele>233</ele>
        <time>2019-06-08T13:47:45Z</time>
      </trkpt>
      <trkpt lat="48.92685" lon="-0.46106">
        <ele>234</ele>
        <time>2019-06-08T13:47:47Z</time>
      </trkpt>
      <trkpt lat="48.92681" lon="-0.46095">
        <ele>234</ele>
        <time>2019-06-08T13:47:49Z</time>
      </trkpt>
      <trkpt lat="48.92677" lon="-0.46084">
        <ele>235</ele>
        <time>2019-06-08T13:47:51Z</time>
      </trkpt>
      <trkpt lat="48.92673" lon="-0.46073">
        <ele>234</ele>
        <time>2019-06-08T13:47:53Z</time>
      </trkpt>
      <trkpt lat="48.92669" lon="-0.46062">
        <ele>234</ele>
        <time>2019-06-08T13:47:55Z</time>
      </trkpt>
      <trkpt lat="48.92664" lon="-0.46053">
        <ele>237</ele>
        <time>2019-06-08T13:47:57Z</time>
      </trkpt>
      <trkpt lat="48.92661" lon="-0.46043">
        <ele>236</ele>
        <time>2019-06-08T13:47:59Z</time>
      </trkpt>
      <trkpt lat="48.92656" lon="-0.46034">
        <ele>236</ele>
        <time>2019-06-08T13:48:01Z</time>
      </trkpt>
      <trkpt lat="48.92652" lon="-0.46024">
        <ele>236</ele>
        <time>2019-06-08T13:48:03Z</time>
      </trkpt>
      <trkpt lat="48.92648" lon="-0.46015">
        <ele>236</ele>
        <time>2019-06-08T13:48:05Z</time>
      </trkpt>
      <trkpt lat="48.92645" lon="-0.46006">
        <ele>236</ele>
        <time>2019-06-08T13:48:07Z</time>
      </trkpt>
      <trkpt lat="48.92641" lon="-0.45999">
        <ele>235</ele>
        <time>2019-06-08T13:48:09Z</time>
      </trkpt>
      <trkpt lat="48.92638" lon="-0.45991">
        <ele>235</ele>
        <time>2019-06-08T13:48:11Z</time>
      </trkpt>
      <trkpt lat="48.92635" lon="-0.45983">
        <ele>235</ele>
        <time>2019-06-08T13:48:13Z</time>
      </trkpt>
      <trkpt lat="48.92632" lon="-0.45976">
        <ele>235</ele>
        <time>2019-06-08T13:48:15Z</time>
      </trkpt>
      <trkpt lat="48.92629" lon="-0.45969">
        <ele>235</ele>
        <time>2019-06-08T13:48:17Z</time>
      </trkpt>
      <trkpt lat="48.92626" lon="-0.45965">
        <ele>236</ele>
        <time>2019-06-08T13:48:19Z</time>
      </trkpt>
      <trkpt lat="48.92625" lon="-0.45954">
        <ele>235</ele>
        <time>2019-06-08T13:48:23Z</time>
      </trkpt>
      <trkpt lat="48.92628" lon="-0.45947">
        <ele>235</ele>
        <time>2019-06-08T13:48:25Z</time>
      </trkpt>
      <trkpt lat="48.92633" lon="-0.45936">
        <ele>235</ele>
        <time>2019-06-08T13:48:27Z</time>
      </trkpt>
      <trkpt lat="48.92641" lon="-0.45925">
        <ele>234</ele>
        <time>2019-06-08T13:48:29Z</time>
      </trkpt>
      <trkpt lat="48.92648" lon="-0.45913">
        <ele>233</ele>
        <time>2019-06-08T13:48:31Z</time>
      </trkpt>
      <trkpt lat="48.92655" lon="-0.45903">
        <ele>233</ele>
        <time>2019-06-08T13:48:33Z</time>
      </trkpt>
      <trkpt lat="48.92661" lon="-0.45892">
        <ele>233</ele>
        <time>2019-06-08T13:48:35Z</time>
      </trkpt>
      <trkpt lat="48.92667" lon="-0.45882">
        <ele>228</ele>
        <time>2019-06-08T13:48:37Z</time>
      </trkpt>
      <trkpt lat="48.92674" lon="-0.45872">
        <ele>228</ele>
        <time>2019-06-08T13:48:39Z</time>
      </trkpt>
      <trkpt lat="48.9268" lon="-0.45863">
        <ele>228</ele>
        <time>2019-06-08T13:48:41Z</time>
      </trkpt>
      <trkpt lat="48.92684" lon="-0.45853">
        <ele>228</ele>
        <time>2019-06-08T13:48:43Z</time>
      </trkpt>
      <trkpt lat="48.92689" lon="-0.45843">
        <ele>228</ele>
        <time>2019-06-08T13:48:45Z</time>
      </trkpt>
      <trkpt lat="48.92694" lon="-0.45833">
        <ele>228</ele>
        <time>2019-06-08T13:48:47Z</time>
      </trkpt>
      <trkpt lat="48.92698" lon="-0.45825">
        <ele>226</ele>
        <time>2019-06-08T13:48:49Z</time>
      </trkpt>
      <trkpt lat="48.92703" lon="-0.45818">
        <ele>225</ele>
        <time>2019-06-08T13:48:51Z</time>
      </trkpt>
      <trkpt lat="48.92707" lon="-0.45812">
        <ele>225</ele>
        <time>2019-06-08T13:48:53Z</time>
      </trkpt>
      <trkpt lat="48.92711" lon="-0.45804">
        <ele>225</ele>
        <time>2019-06-08T13:48:55Z</time>
      </trkpt>
      <trkpt lat="48.92717" lon="-0.45794">
        <ele>224</ele>
        <time>2019-06-08T13:48:59Z</time>
      </trkpt>
      <trkpt lat="48.92719" lon="-0.45785">
        <ele>224</ele>
        <time>2019-06-08T13:49:03Z</time>
      </trkpt>
      <trkpt lat="48.92722" lon="-0.4578">
        <ele>224</ele>
        <time>2019-06-08T13:49:07Z</time>
      </trkpt>
      <trkpt lat="48.92725" lon="-0.45773">
        <ele>223</ele>
        <time>2019-06-08T13:49:25Z</time>
      </trkpt>
      <trkpt lat="48.92724" lon="-0.45766">
        <ele>223</ele>
        <time>2019-06-08T13:49:27Z</time>
      </trkpt>
      <trkpt lat="48.9272" lon="-0.45759">
        <ele>223</ele>
        <time>2019-06-08T13:49:29Z</time>
      </trkpt>
      <trkpt lat="48.92717" lon="-0.4575">
        <ele>224</ele>
        <time>2019-06-08T13:49:31Z</time>
      </trkpt>
      <trkpt lat="48.92713" lon="-0.4574">
        <ele>222</ele>
        <time>2019-06-08T13:49:33Z</time>
      </trkpt>
      <trkpt lat="48.9271" lon="-0.45729">
        <ele>222</ele>
        <time>2019-06-08T13:49:35Z</time>
      </trkpt>
      <trkpt lat="48.92707" lon="-0.45717">
        <ele>222</ele>
        <time>2019-06-08T13:49:37Z</time>
      </trkpt>
      <trkpt lat="48.92704" lon="-0.45704">
        <ele>222</ele>
        <time>2019-06-08T13:49:39Z</time>
      </trkpt>
      <trkpt lat="48.92701" lon="-0.45691">
        <ele>222</ele>
        <time>2019-06-08T13:49:41Z</time>
      </trkpt>
      <trkpt lat="48.92698" lon="-0.45679">
        <ele>222</ele>
        <time>2019-06-08T13:49:43Z</time>
      </trkpt>
      <trkpt lat="48.92695" lon="-0.45666">
        <ele>220</ele>
        <time>2019-06-08T13:49:45Z</time>
      </trkpt>
      <trkpt lat="48.92693" lon="-0.45654">
        <ele>220</ele>
        <time>2019-06-08T13:49:47Z</time>
      </trkpt>
      <trkpt lat="48.92689" lon="-0.45642">
        <ele>219</ele>
        <time>2019-06-08T13:49:49Z</time>
      </trkpt>
      <trkpt lat="48.92686" lon="-0.45629">
        <ele>219</ele>
        <time>2019-06-08T13:49:51Z</time>
      </trkpt>
      <trkpt lat="48.92682" lon="-0.45616">
        <ele>219</ele>
        <time>2019-06-08T13:49:53Z</time>
      </trkpt>
      <trkpt lat="48.92678" lon="-0.45604">
        <ele>219</ele>
        <time>2019-06-08T13:49:55Z</time>
      </trkpt>
      <trkpt lat="48.92674" lon="-0.45591">
        <ele>220</ele>
        <time>2019-06-08T13:49:57Z</time>
      </trkpt>
      <trkpt lat="48.9267" lon="-0.45579">
        <ele>219</ele>
        <time>2019-06-08T13:49:59Z</time>
      </trkpt>
      <trkpt lat="48.92666" lon="-0.45567">
        <ele>222</ele>
        <time>2019-06-08T13:50:01Z</time>
      </trkpt>
      <trkpt lat="48.92661" lon="-0.45557">
        <ele>222</ele>
        <time>2019-06-08T13:50:03Z</time>
      </trkpt>
      <trkpt lat="48.92655" lon="-0.45547">
        <ele>222</ele>
        <time>2019-06-08T13:50:05Z</time>
      </trkpt>
      <trkpt lat="48.9265" lon="-0.45536">
        <ele>221</ele>
        <time>2019-06-08T13:50:07Z</time>
      </trkpt>
      <trkpt lat="48.92645" lon="-0.45524">
        <ele>221</ele>
        <time>2019-06-08T13:50:09Z</time>
      </trkpt>
      <trkpt lat="48.92639" lon="-0.45513">
        <ele>221</ele>
        <time>2019-06-08T13:50:11Z</time>
      </trkpt>
      <trkpt lat="48.92634" lon="-0.45502">
        <ele>221</ele>
        <time>2019-06-08T13:50:13Z</time>
      </trkpt>
      <trkpt lat="48.92627" lon="-0.45492">
        <ele>220</ele>
        <time>2019-06-08T13:50:15Z</time>
      </trkpt>
      <trkpt lat="48.92621" lon="-0.45483">
        <ele>221</ele>
        <time>2019-06-08T13:50:17Z</time>
      </trkpt>
      <trkpt lat="48.92615" lon="-0.45474">
        <ele>221</ele>
        <time>2019-06-08T13:50:19Z</time>
      </trkpt>
      <trkpt lat="48.92608" lon="-0.45465">
        <ele>221</ele>
        <time>2019-06-08T13:50:21Z</time>
      </trkpt>
      <trkpt lat="48.92602" lon="-0.45455">
        <ele>221</ele>
        <time>2019-06-08T13:50:23Z</time>
      </trkpt>
      <trkpt lat="48.92596" lon="-0.45448">
        <ele>222</ele>
        <time>2019-06-08T13:50:25Z</time>
      </trkpt>
      <trkpt lat="48.9259" lon="-0.4544">
        <ele>222</ele>
        <time>2019-06-08T13:50:27Z</time>
      </trkpt>
      <trkpt lat="48.92584" lon="-0.45432">
        <ele>222</ele>
        <time>2019-06-08T13:50:29Z</time>
      </trkpt>
      <trkpt lat="48.9258" lon="-0.45426">
        <ele>224</ele>
        <time>2019-06-08T13:50:31Z</time>
      </trkpt>
      <trkpt lat="48.92575" lon="-0.45419">
        <ele>224</ele>
        <time>2019-06-08T13:50:33Z</time>
      </trkpt>
      <trkpt lat="48.92571" lon="-0.45413">
        <ele>224</ele>
        <time>2019-06-08T13:50:35Z</time>
      </trkpt>
      <trkpt lat="48.92568" lon="-0.45406">
        <ele>225</ele>
        <time>2019-06-08T13:50:37Z</time>
      </trkpt>
      <trkpt lat="48.92565" lon="-0.45399">
        <ele>225</ele>
        <time>2019-06-08T13:50:39Z</time>
      </trkpt>
      <trkpt lat="48.92561" lon="-0.45392">
        <ele>225</ele>
        <time>2019-06-08T13:50:41Z</time>
      </trkpt>
      <trkpt lat="48.92558" lon="-0.45385">
        <ele>226</ele>
        <time>2019-06-08T13:50:43Z</time>
      </trkpt>
      <trkpt lat="48.92555" lon="-0.45378">
        <ele>226</ele>
        <time>2019-06-08T13:50:45Z</time>
      </trkpt>
      <trkpt lat="48.92552" lon="-0.45371">
        <ele>226</ele>
        <time>2019-06-08T13:50:47Z</time>
      </trkpt>
      <trkpt lat="48.92549" lon="-0.45364">
        <ele>226</ele>
        <time>2019-06-08T13:50:49Z</time>
      </trkpt>
      <trkpt lat="48.92545" lon="-0.45357">
        <ele>226</ele>
        <time>2019-06-08T13:50:51Z</time>
      </trkpt>
      <trkpt lat="48.92542" lon="-0.4535">
        <ele>226</ele>
        <time>2019-06-08T13:50:53Z</time>
      </trkpt>
      <trkpt lat="48.92539" lon="-0.45342">
        <ele>227</ele>
        <time>2019-06-08T13:50:55Z</time>
      </trkpt>
      <trkpt lat="48.92536" lon="-0.45335">
        <ele>227</ele>
        <time>2019-06-08T13:50:57Z</time>
      </trkpt>
      <trkpt lat="48.92534" lon="-0.45327">
        <ele>228</ele>
        <time>2019-06-08T13:50:59Z</time>
      </trkpt>
      <trkpt lat="48.92533" lon="-0.4532">
        <ele>228</ele>
        <time>2019-06-08T13:51:01Z</time>
      </trkpt>
      <trkpt lat="48.92531" lon="-0.45313">
        <ele>228</ele>
        <time>2019-06-08T13:51:03Z</time>
      </trkpt>
      <trkpt lat="48.92529" lon="-0.45305">
        <ele>229</ele>
        <time>2019-06-08T13:51:05Z</time>
      </trkpt>
      <trkpt lat="48.92528" lon="-0.45297">
        <ele>229</ele>
        <time>2019-06-08T13:51:07Z</time>
      </trkpt>
      <trkpt lat="48.92526" lon="-0.45289">
        <ele>229</ele>
        <time>2019-06-08T13:51:09Z</time>
      </trkpt>
      <trkpt lat="48.92525" lon="-0.45282">
        <ele>229</ele>
        <time>2019-06-08T13:51:11Z</time>
      </trkpt>
      <trkpt lat="48.92523" lon="-0.45275">
        <ele>229</ele>
        <time>2019-06-08T13:51:13Z</time>
      </trkpt>
      <trkpt lat="48.92522" lon="-0.45268">
        <ele>229</ele>
        <time>2019-06-08T13:51:15Z</time>
      </trkpt>
      <trkpt lat="48.92521" lon="-0.45261">
        <ele>230</ele>
        <time>2019-06-08T13:51:17Z</time>
      </trkpt>
      <trkpt lat="48.92519" lon="-0.45253">
        <ele>230</ele>
        <time>2019-06-08T13:51:19Z</time>
      </trkpt>
      <trkpt lat="48.92518" lon="-0.45245">
        <ele>232</ele>
        <time>2019-06-08T13:51:21Z</time>
      </trkpt>
      <trkpt lat="48.92517" lon="-0.45237">
        <ele>232</ele>
        <time>2019-06-08T13:51:23Z</time>
      </trkpt>
      <trkpt lat="48.92517" lon="-0.45229">
        <ele>232</ele>
        <time>2019-06-08T13:51:25Z</time>
      </trkpt>
      <trkpt lat="48.92516" lon="-0.45222">
        <ele>232</ele>
        <time>2019-06-08T13:51:27Z</time>
      </trkpt>
      <trkpt lat="48.92515" lon="-0.45214">
        <ele>232</ele>
        <time>2019-06-08T13:51:29Z</time>
      </trkpt>
      <trkpt lat="48.92514" lon="-0.45206">
        <ele>233</ele>
        <time>2019-06-08T13:51:31Z</time>
      </trkpt>
      <trkpt lat="48.92513" lon="-0.45199">
        <ele>233</ele>
        <time>2019-06-08T13:51:33Z</time>
      </trkpt>
      <trkpt lat="48.92514" lon="-0.4519">
        <ele>233</ele>
        <time>2019-06-08T13:51:35Z</time>
      </trkpt>
      <trkpt lat="48.92514" lon="-0.45182">
        <ele>234</ele>
        <time>2019-06-08T13:51:37Z</time>
      </trkpt>
      <trkpt lat="48.92513" lon="-0.45173">
        <ele>234</ele>
        <time>2019-06-08T13:51:39Z</time>
      </trkpt>
      <trkpt lat="48.92513" lon="-0.45165">
        <ele>236</ele>
        <time>2019-06-08T13:51:41Z</time>
      </trkpt>
      <trkpt lat="48.92513" lon="-0.45156">
        <ele>236</ele>
        <time>2019-06-08T13:51:43Z</time>
      </trkpt>
      <trkpt lat="48.92513" lon="-0.45148">
        <ele>236</ele>
        <time>2019-06-08T13:51:45Z</time>
      </trkpt>
      <trkpt lat="48.92514" lon="-0.45139">
        <ele>236</ele>
        <time>2019-06-08T13:51:47Z</time>
      </trkpt>
      <trkpt lat="48.92515" lon="-0.45129">
        <ele>236</ele>
        <time>2019-06-08T13:51:49Z</time>
      </trkpt>
      <trkpt lat="48.92517" lon="-0.45119">
        <ele>237</ele>
        <time>2019-06-08T13:51:51Z</time>
      </trkpt>
      <trkpt lat="48.9252" lon="-0.4511">
        <ele>237</ele>
        <time>2019-06-08T13:51:53Z</time>
      </trkpt>
      <trkpt lat="48.92523" lon="-0.45101">
        <ele>237</ele>
        <time>2019-06-08T13:51:55Z</time>
      </trkpt>
      <trkpt lat="48.92526" lon="-0.45091">
        <ele>237</ele>
        <time>2019-06-08T13:51:57Z</time>
      </trkpt>
      <trkpt lat="48.92529" lon="-0.45081">
        <ele>239</ele>
        <time>2019-06-08T13:51:59Z</time>
      </trkpt>
      <trkpt lat="48.92532" lon="-0.45072">
        <ele>239</ele>
        <time>2019-06-08T13:52:01Z</time>
      </trkpt>
      <trkpt lat="48.92535" lon="-0.45062">
        <ele>239</ele>
        <time>2019-06-08T13:52:03Z</time>
      </trkpt>
      <trkpt lat="48.92537" lon="-0.45051">
        <ele>239</ele>
        <time>2019-06-08T13:52:05Z</time>
      </trkpt>
      <trkpt lat="48.92539" lon="-0.45041">
        <ele>239</ele>
        <time>2019-06-08T13:52:07Z</time>
      </trkpt>
      <trkpt lat="48.92541" lon="-0.4503">
        <ele>239</ele>
        <time>2019-06-08T13:52:09Z</time>
      </trkpt>
      <trkpt lat="48.92541" lon="-0.4502">
        <ele>239</ele>
        <time>2019-06-08T13:52:11Z</time>
      </trkpt>
      <trkpt lat="48.92541" lon="-0.45009">
        <ele>240</ele>
        <time>2019-06-08T13:52:13Z</time>
      </trkpt>
      <trkpt lat="48.92542" lon="-0.44999">
        <ele>240</ele>
        <time>2019-06-08T13:52:15Z</time>
      </trkpt>
      <trkpt lat="48.92541" lon="-0.44989">
        <ele>240</ele>
        <time>2019-06-08T13:52:17Z</time>
      </trkpt>
      <trkpt lat="48.92539" lon="-0.44978">
        <ele>240</ele>
        <time>2019-06-08T13:52:19Z</time>
      </trkpt>
      <trkpt lat="48.92538" lon="-0.44969">
        <ele>240</ele>
        <time>2019-06-08T13:52:21Z</time>
      </trkpt>
      <trkpt lat="48.92537" lon="-0.4496">
        <ele>240</ele>
        <time>2019-06-08T13:52:23Z</time>
      </trkpt>
      <trkpt lat="48.92536" lon="-0.44952">
        <ele>240</ele>
        <time>2019-06-08T13:52:25Z</time>
      </trkpt>
      <trkpt lat="48.92534" lon="-0.44941">
        <ele>240</ele>
        <time>2019-06-08T13:52:29Z</time>
      </trkpt>
      <trkpt lat="48.92535" lon="-0.44933">
        <ele>240</ele>
        <time>2019-06-08T13:52:35Z</time>
      </trkpt>
      <trkpt lat="48.92542" lon="-0.44929">
        <ele>240</ele>
        <time>2019-06-08T13:53:11Z</time>
      </trkpt>
      <trkpt lat="48.92545" lon="-0.44917">
        <ele>240</ele>
        <time>2019-06-08T13:53:15Z</time>
      </trkpt>
      <trkpt lat="48.92546" lon="-0.44909">
        <ele>240</ele>
        <time>2019-06-08T13:53:17Z</time>
      </trkpt>
      <trkpt lat="48.92548" lon="-0.449">
        <ele>240</ele>
        <time>2019-06-08T13:53:19Z</time>
      </trkpt>
      <trkpt lat="48.9255" lon="-0.44892">
        <ele>239</ele>
        <time>2019-06-08T13:53:21Z</time>
      </trkpt>
      <trkpt lat="48.92552" lon="-0.44884">
        <ele>239</ele>
        <time>2019-06-08T13:53:23Z</time>
      </trkpt>
      <trkpt lat="48.92553" lon="-0.44875">
        <ele>239</ele>
        <time>2019-06-08T13:53:25Z</time>
      </trkpt>
      <trkpt lat="48.92555" lon="-0.44866">
        <ele>239</ele>
        <time>2019-06-08T13:53:27Z</time>
      </trkpt>
      <trkpt lat="48.92557" lon="-0.44856">
        <ele>239</ele>
        <time>2019-06-08T13:53:29Z</time>
      </trkpt>
      <trkpt lat="48.9256" lon="-0.44844">
        <ele>239</ele>
        <time>2019-06-08T13:53:31Z</time>
      </trkpt>
      <trkpt lat="48.92562" lon="-0.4483">
        <ele>239</ele>
        <time>2019-06-08T13:53:33Z</time>
      </trkpt>
      <trkpt lat="48.92563" lon="-0.44815">
        <ele>239</ele>
        <time>2019-06-08T13:53:35Z</time>
      </trkpt>
      <trkpt lat="48.92566" lon="-0.44801">
        <ele>239</ele>
        <time>2019-06-08T13:53:37Z</time>
      </trkpt>
      <trkpt lat="48.9257" lon="-0.44786">
        <ele>239</ele>
        <time>2019-06-08T13:53:39Z</time>
      </trkpt>
      <trkpt lat="48.92573" lon="-0.44771">
        <ele>239</ele>
        <time>2019-06-08T13:53:41Z</time>
      </trkpt>
      <trkpt lat="48.92575" lon="-0.44755">
        <ele>238</ele>
        <time>2019-06-08T13:53:43Z</time>
      </trkpt>
      <trkpt lat="48.92578" lon="-0.44738">
        <ele>238</ele>
        <time>2019-06-08T13:53:45Z</time>
      </trkpt>
      <trkpt lat="48.92581" lon="-0.44721">
        <ele>239</ele>
        <time>2019-06-08T13:53:47Z</time>
      </trkpt>
      <trkpt lat="48.92585" lon="-0.44705">
        <ele>234</ele>
        <time>2019-06-08T13:53:49Z</time>
      </trkpt>
      <trkpt lat="48.92588" lon="-0.44689">
        <ele>234</ele>
        <time>2019-06-08T13:53:51Z</time>
      </trkpt>
      <trkpt lat="48.92593" lon="-0.44672">
        <ele>235</ele>
        <time>2019-06-08T13:53:53Z</time>
      </trkpt>
      <trkpt lat="48.92598" lon="-0.44651">
        <ele>234</ele>
        <time>2019-06-08T13:53:55Z</time>
      </trkpt>
      <trkpt lat="48.926" lon="-0.44631">
        <ele>234</ele>
        <time>2019-06-08T13:53:57Z</time>
      </trkpt>
      <trkpt lat="48.92601" lon="-0.44609">
        <ele>234</ele>
        <time>2019-06-08T13:53:59Z</time>
      </trkpt>
      <trkpt lat="48.92607" lon="-0.4459">
        <ele>234</ele>
        <time>2019-06-08T13:54:01Z</time>
      </trkpt>
      <trkpt lat="48.92618" lon="-0.44578">
        <ele>235</ele>
        <time>2019-06-08T13:54:03Z</time>
      </trkpt>
      <trkpt lat="48.92627" lon="-0.44572">
        <ele>235</ele>
        <time>2019-06-08T13:54:05Z</time>
      </trkpt>
      <trkpt lat="48.92633" lon="-0.44566">
        <ele>235</ele>
        <time>2019-06-08T13:54:07Z</time>
      </trkpt>
      <trkpt lat="48.92638" lon="-0.44561">
        <ele>235</ele>
        <time>2019-06-08T13:54:09Z</time>
      </trkpt>
      <trkpt lat="48.92643" lon="-0.44554">
        <ele>235</ele>
        <time>2019-06-08T13:54:13Z</time>
      </trkpt>
      <trkpt lat="48.92647" lon="-0.44549">
        <ele>235</ele>
        <time>2019-06-08T13:54:17Z</time>
      </trkpt>
      <trkpt lat="48.9265" lon="-0.44555">
        <ele>235</ele>
        <time>2019-06-08T13:55:23Z</time>
      </trkpt>
      <trkpt lat="48.92656" lon="-0.44563">
        <ele>235</ele>
        <time>2019-06-08T13:55:27Z</time>
      </trkpt>
      <trkpt lat="48.9266" lon="-0.44567">
        <ele>235</ele>
        <time>2019-06-08T13:55:29Z</time>
      </trkpt>
      <trkpt lat="48.92665" lon="-0.44571">
        <ele>235</ele>
        <time>2019-06-08T13:55:31Z</time>
      </trkpt>
      <trkpt lat="48.92669" lon="-0.44576">
        <ele>235</ele>
        <time>2019-06-08T13:55:33Z</time>
      </trkpt>
      <trkpt lat="48.92674" lon="-0.44578">
        <ele>235</ele>
        <time>2019-06-08T13:55:35Z</time>
      </trkpt>
      <trkpt lat="48.9268" lon="-0.44579">
        <ele>235</ele>
        <time>2019-06-08T13:55:37Z</time>
      </trkpt>
      <trkpt lat="48.92686" lon="-0.44578">
        <ele>235</ele>
        <time>2019-06-08T13:55:39Z</time>
      </trkpt>
      <trkpt lat="48.92693" lon="-0.44576">
        <ele>235</ele>
        <time>2019-06-08T13:55:41Z</time>
      </trkpt>
      <trkpt lat="48.92698" lon="-0.44575">
        <ele>236</ele>
        <time>2019-06-08T13:55:43Z</time>
      </trkpt>
      <trkpt lat="48.92703" lon="-0.44572">
        <ele>236</ele>
        <time>2019-06-08T13:55:45Z</time>
      </trkpt>
      <trkpt lat="48.92709" lon="-0.4457">
        <ele>236</ele>
        <time>2019-06-08T13:55:47Z</time>
      </trkpt>
      <trkpt lat="48.92715" lon="-0.44565">
        <ele>236</ele>
        <time>2019-06-08T13:55:49Z</time>
      </trkpt>
      <trkpt lat="48.9272" lon="-0.44559">
        <ele>236</ele>
        <time>2019-06-08T13:55:51Z</time>
      </trkpt>
      <trkpt lat="48.92726" lon="-0.44552">
        <ele>236</ele>
        <time>2019-06-08T13:55:53Z</time>
      </trkpt>
      <trkpt lat="48.9273" lon="-0.44547">
        <ele>236</ele>
        <time>2019-06-08T13:55:55Z</time>
      </trkpt>
      <trkpt lat="48.92735" lon="-0.44543">
        <ele>237</ele>
        <time>2019-06-08T13:55:57Z</time>
      </trkpt>
      <trkpt lat="48.92739" lon="-0.44538">
        <ele>237</ele>
        <time>2019-06-08T13:55:59Z</time>
      </trkpt>
      <trkpt lat="48.92743" lon="-0.44532">
        <ele>237</ele>
        <time>2019-06-08T13:56:01Z</time>
      </trkpt>
      <trkpt lat="48.92747" lon="-0.44527">
        <ele>237</ele>
        <time>2019-06-08T13:56:03Z</time>
      </trkpt>
      <trkpt lat="48.92752" lon="-0.44522">
        <ele>239</ele>
        <time>2019-06-08T13:56:05Z</time>
      </trkpt>
      <trkpt lat="48.92754" lon="-0.44516">
        <ele>240</ele>
        <time>2019-06-08T13:56:07Z</time>
      </trkpt>
      <trkpt lat="48.92758" lon="-0.4451">
        <ele>240</ele>
        <time>2019-06-08T13:56:09Z</time>
      </trkpt>
      <trkpt lat="48.92762" lon="-0.44504">
        <ele>240</ele>
        <time>2019-06-08T13:56:11Z</time>
      </trkpt>
      <trkpt lat="48.92766" lon="-0.44498">
        <ele>242</ele>
        <time>2019-06-08T13:56:13Z</time>
      </trkpt>
      <trkpt lat="48.92771" lon="-0.44492">
        <ele>242</ele>
        <time>2019-06-08T13:56:15Z</time>
      </trkpt>
      <trkpt lat="48.92775" lon="-0.44485">
        <ele>242</ele>
        <time>2019-06-08T13:56:17Z</time>
      </trkpt>
      <trkpt lat="48.92779" lon="-0.44479">
        <ele>243</ele>
        <time>2019-06-08T13:56:19Z</time>
      </trkpt>
      <trkpt lat="48.92785" lon="-0.44473">
        <ele>243</ele>
        <time>2019-06-08T13:56:21Z</time>
      </trkpt>
      <trkpt lat="48.92789" lon="-0.44467">
        <ele>243</ele>
        <time>2019-06-08T13:56:23Z</time>
      </trkpt>
      <trkpt lat="48.92794" lon="-0.44461">
        <ele>244</ele>
        <time>2019-06-08T13:56:25Z</time>
      </trkpt>
      <trkpt lat="48.92797" lon="-0.44456">
        <ele>244</ele>
        <time>2019-06-08T13:56:27Z</time>
      </trkpt>
      <trkpt lat="48.92803" lon="-0.44449">
        <ele>244</ele>
        <time>2019-06-08T13:56:31Z</time>
      </trkpt>
      <trkpt lat="48.92807" lon="-0.44443">
        <ele>244</ele>
        <time>2019-06-08T13:56:35Z</time>
      </trkpt>
      <trkpt lat="48.92815" lon="-0.44435">
        <ele>245</ele>
        <time>2019-06-08T13:56:39Z</time>
      </trkpt>
      <trkpt lat="48.92821" lon="-0.44428">
        <ele>245</ele>
        <time>2019-06-08T13:56:43Z</time>
      </trkpt>
      <trkpt lat="48.92826" lon="-0.44424">
        <ele>246</ele>
        <time>2019-06-08T13:56:45Z</time>
      </trkpt>
      <trkpt lat="48.92832" lon="-0.44418">
        <ele>247</ele>
        <time>2019-06-08T13:56:49Z</time>
      </trkpt>
      <trkpt lat="48.92836" lon="-0.44414">
        <ele>248</ele>
        <time>2019-06-08T13:56:51Z</time>
      </trkpt>
      <trkpt lat="48.92841" lon="-0.44411">
        <ele>249</ele>
        <time>2019-06-08T13:56:53Z</time>
      </trkpt>
      <trkpt lat="48.92847" lon="-0.44406">
        <ele>250</ele>
        <time>2019-06-08T13:56:57Z</time>
      </trkpt>
      <trkpt lat="48.92853" lon="-0.444">
        <ele>250</ele>
        <time>2019-06-08T13:57:01Z</time>
      </trkpt>
      <trkpt lat="48.92858" lon="-0.44393">
        <ele>251</ele>
        <time>2019-06-08T13:57:05Z</time>
      </trkpt>
      <trkpt lat="48.92864" lon="-0.44389">
        <ele>251</ele>
        <time>2019-06-08T13:57:09Z</time>
      </trkpt>
      <trkpt lat="48.92868" lon="-0.44381">
        <ele>252</ele>
        <time>2019-06-08T13:57:13Z</time>
      </trkpt>
      <trkpt lat="48.92873" lon="-0.44376">
        <ele>252</ele>
        <time>2019-06-08T13:57:17Z</time>
      </trkpt>
      <trkpt lat="48.92878" lon="-0.44371">
        <ele>252</ele>
        <time>2019-06-08T13:57:21Z</time>
      </trkpt>
      <trkpt lat="48.92882" lon="-0.44364">
        <ele>253</ele>
        <time>2019-06-08T13:57:25Z</time>
      </trkpt>
      <trkpt lat="48.92885" lon="-0.44358">
        <ele>253</ele>
        <time>2019-06-08T13:57:29Z</time>
      </trkpt>
      <trkpt lat="48.9289" lon="-0.4435">
        <ele>254</ele>
        <time>2019-06-08T13:57:33Z</time>
      </trkpt>
      <trkpt lat="48.92895" lon="-0.44341">
        <ele>254</ele>
        <time>2019-06-08T13:57:37Z</time>
      </trkpt>
      <trkpt lat="48.929" lon="-0.44332">
        <ele>256</ele>
        <time>2019-06-08T13:57:41Z</time>
      </trkpt>
      <trkpt lat="48.92904" lon="-0.44323">
        <ele>257</ele>
        <time>2019-06-08T13:57:45Z</time>
      </trkpt>
      <trkpt lat="48.92908" lon="-0.44315">
        <ele>257</ele>
        <time>2019-06-08T13:57:49Z</time>
      </trkpt>
      <trkpt lat="48.92912" lon="-0.44305">
        <ele>257</ele>
        <time>2019-06-08T13:57:53Z</time>
      </trkpt>
      <trkpt lat="48.92916" lon="-0.44297">
        <ele>257</ele>
        <time>2019-06-08T13:57:57Z</time>
      </trkpt>
      <trkpt lat="48.9292" lon="-0.4429">
        <ele>261</ele>
        <time>2019-06-08T13:58:01Z</time>
      </trkpt>
      <trkpt lat="48.92924" lon="-0.44284">
        <ele>261</ele>
        <time>2019-06-08T13:58:05Z</time>
      </trkpt>
      <trkpt lat="48.92928" lon="-0.44276">
        <ele>261</ele>
        <time>2019-06-08T13:58:09Z</time>
      </trkpt>
      <trkpt lat="48.92932" lon="-0.44268">
        <ele>261</ele>
        <time>2019-06-08T13:58:13Z</time>
      </trkpt>
      <trkpt lat="48.92936" lon="-0.44261">
        <ele>261</ele>
        <time>2019-06-08T13:58:17Z</time>
      </trkpt>
      <trkpt lat="48.92942" lon="-0.44255">
        <ele>261</ele>
        <time>2019-06-08T13:58:41Z</time>
      </trkpt>
      <trkpt lat="48.92948" lon="-0.44246">
        <ele>262</ele>
        <time>2019-06-08T13:58:45Z</time>
      </trkpt>
      <trkpt lat="48.92955" lon="-0.44236">
        <ele>262</ele>
        <time>2019-06-08T13:58:49Z</time>
      </trkpt>
      <trkpt lat="48.92958" lon="-0.44231">
        <ele>262</ele>
        <time>2019-06-08T13:58:51Z</time>
      </trkpt>
      <trkpt lat="48.92962" lon="-0.44227">
        <ele>262</ele>
        <time>2019-06-08T13:58:53Z</time>
      </trkpt>
      <trkpt lat="48.92965" lon="-0.44222">
        <ele>262</ele>
        <time>2019-06-08T13:58:55Z</time>
      </trkpt>
      <trkpt lat="48.92972" lon="-0.44214">
        <ele>263</ele>
        <time>2019-06-08T13:58:59Z</time>
      </trkpt>
      <trkpt lat="48.92979" lon="-0.44206">
        <ele>263</ele>
        <time>2019-06-08T13:59:03Z</time>
      </trkpt>
      <trkpt lat="48.92984" lon="-0.44201">
        <ele>263</ele>
        <time>2019-06-08T13:59:05Z</time>
      </trkpt>
      <trkpt lat="48.92988" lon="-0.44195">
        <ele>263</ele>
        <time>2019-06-08T13:59:07Z</time>
      </trkpt>
      <trkpt lat="48.92993" lon="-0.4419">
        <ele>263</ele>
        <time>2019-06-08T13:59:09Z</time>
      </trkpt>
      <trkpt lat="48.92998" lon="-0.44185">
        <ele>263</ele>
        <time>2019-06-08T13:59:11Z</time>
      </trkpt>
      <trkpt lat="48.93002" lon="-0.4418">
        <ele>264</ele>
        <time>2019-06-08T13:59:13Z</time>
      </trkpt>
      <trkpt lat="48.93007" lon="-0.44173">
        <ele>264</ele>
        <time>2019-06-08T13:59:15Z</time>
      </trkpt>
      <trkpt lat="48.93011" lon="-0.44166">
        <ele>263</ele>
        <time>2019-06-08T13:59:17Z</time>
      </trkpt>
      <trkpt lat="48.93014" lon="-0.44161">
        <ele>263</ele>
        <time>2019-06-08T14:00:07Z</time>
      </trkpt>
      <trkpt lat="48.93018" lon="-0.44156">
        <ele>262</ele>
        <time>2019-06-08T14:03:01Z</time>
      </trkpt>
      <trkpt lat="48.9302" lon="-0.4415">
        <ele>262</ele>
        <time>2019-06-08T14:03:03Z</time>
      </trkpt>
      <trkpt lat="48.93023" lon="-0.44144">
        <ele>262</ele>
        <time>2019-06-08T14:03:05Z</time>
      </trkpt>
      <trkpt lat="48.93025" lon="-0.44136">
        <ele>261</ele>
        <time>2019-06-08T14:03:07Z</time>
      </trkpt>
      <trkpt lat="48.93028" lon="-0.44128">
        <ele>261</ele>
        <time>2019-06-08T14:03:09Z</time>
      </trkpt>
      <trkpt lat="48.93031" lon="-0.4412">
        <ele>261</ele>
        <time>2019-06-08T14:03:11Z</time>
      </trkpt>
      <trkpt lat="48.93032" lon="-0.44112">
        <ele>261</ele>
        <time>2019-06-08T14:03:13Z</time>
      </trkpt>
      <trkpt lat="48.93033" lon="-0.44104">
        <ele>261</ele>
        <time>2019-06-08T14:03:15Z</time>
      </trkpt>
      <trkpt lat="48.93035" lon="-0.44094">
        <ele>261</ele>
        <time>2019-06-08T14:03:19Z</time>
      </trkpt>
      <trkpt lat="48.93033" lon="-0.441">
        <ele>261</ele>
        <time>2019-06-08T14:04:11Z</time>
      </trkpt>
      <trkpt lat="48.93029" lon="-0.44099">
        <ele>261</ele>
        <time>2019-06-08T14:04:39Z</time>
      </trkpt>
      <trkpt lat="48.93031" lon="-0.44105">
        <ele>261</ele>
        <time>2019-06-08T14:05:17Z</time>
      </trkpt>
      <trkpt lat="48.93028" lon="-0.44114">
        <ele>261</ele>
        <time>2019-06-08T14:05:49Z</time>
      </trkpt>
      <trkpt lat="48.93026" lon="-0.44123">
        <ele>261</ele>
        <time>2019-06-08T14:05:53Z</time>
      </trkpt>
      <trkpt lat="48.93022" lon="-0.44133">
        <ele>261</ele>
        <time>2019-06-08T14:05:57Z</time>
      </trkpt>
      <trkpt lat="48.93021" lon="-0.4414">
        <ele>262</ele>
        <time>2019-06-08T14:05:59Z</time>
      </trkpt>
      <trkpt lat="48.93019" lon="-0.44146">
        <ele>262</ele>
        <time>2019-06-08T14:06:01Z</time>
      </trkpt>
      <trkpt lat="48.93016" lon="-0.44154">
        <ele>262</ele>
        <time>2019-06-08T14:06:03Z</time>
      </trkpt>
      <trkpt lat="48.93013" lon="-0.4416">
        <ele>263</ele>
        <time>2019-06-08T14:06:05Z</time>
      </trkpt>
      <trkpt lat="48.9301" lon="-0.44166">
        <ele>263</ele>
        <time>2019-06-08T14:06:07Z</time>
      </trkpt>
      <trkpt lat="48.93007" lon="-0.44172">
        <ele>264</ele>
        <time>2019-06-08T14:06:09Z</time>
      </trkpt>
      <trkpt lat="48.93004" lon="-0.44178">
        <ele>264</ele>
        <time>2019-06-08T14:06:11Z</time>
      </trkpt>
      <trkpt lat="48.93" lon="-0.44183">
        <ele>264</ele>
        <time>2019-06-08T14:06:13Z</time>
      </trkpt>
      <trkpt lat="48.92997" lon="-0.44188">
        <ele>263</ele>
        <time>2019-06-08T14:06:15Z</time>
      </trkpt>
      <trkpt lat="48.92991" lon="-0.44196">
        <ele>263</ele>
        <time>2019-06-08T14:06:19Z</time>
      </trkpt>
      <trkpt lat="48.92985" lon="-0.44204">
        <ele>263</ele>
        <time>2019-06-08T14:06:23Z</time>
      </trkpt>
      <trkpt lat="48.92979" lon="-0.44212">
        <ele>263</ele>
        <time>2019-06-08T14:06:27Z</time>
      </trkpt>
      <trkpt lat="48.92972" lon="-0.44222">
        <ele>263</ele>
        <time>2019-06-08T14:06:31Z</time>
      </trkpt>
      <trkpt lat="48.92968" lon="-0.44228">
        <ele>262</ele>
        <time>2019-06-08T14:06:33Z</time>
      </trkpt>
      <trkpt lat="48.92964" lon="-0.44234">
        <ele>262</ele>
        <time>2019-06-08T14:06:35Z</time>
      </trkpt>
      <trkpt lat="48.9296" lon="-0.44239">
        <ele>262</ele>
        <time>2019-06-08T14:06:37Z</time>
      </trkpt>
      <trkpt lat="48.92955" lon="-0.44244">
        <ele>262</ele>
        <time>2019-06-08T14:06:39Z</time>
      </trkpt>
      <trkpt lat="48.92951" lon="-0.4425">
        <ele>262</ele>
        <time>2019-06-08T14:06:41Z</time>
      </trkpt>
      <trkpt lat="48.92947" lon="-0.44255">
        <ele>261</ele>
        <time>2019-06-08T14:06:43Z</time>
      </trkpt>
      <trkpt lat="48.92942" lon="-0.44264">
        <ele>261</ele>
        <time>2019-06-08T14:06:47Z</time>
      </trkpt>
      <trkpt lat="48.92936" lon="-0.44272">
        <ele>261</ele>
        <time>2019-06-08T14:06:51Z</time>
      </trkpt>
      <trkpt lat="48.92932" lon="-0.44279">
        <ele>261</ele>
        <time>2019-06-08T14:06:55Z</time>
      </trkpt>
      <trkpt lat="48.92926" lon="-0.44286">
        <ele>261</ele>
        <time>2019-06-08T14:07:27Z</time>
      </trkpt>
      <trkpt lat="48.92922" lon="-0.4429">
        <ele>261</ele>
        <time>2019-06-08T14:07:29Z</time>
      </trkpt>
      <trkpt lat="48.92917" lon="-0.44294">
        <ele>261</ele>
        <time>2019-06-08T14:07:31Z</time>
      </trkpt>
      <trkpt lat="48.92912" lon="-0.44304">
        <ele>257</ele>
        <time>2019-06-08T14:07:33Z</time>
      </trkpt>
      <trkpt lat="48.92907" lon="-0.44315">
        <ele>257</ele>
        <time>2019-06-08T14:07:35Z</time>
      </trkpt>
      <trkpt lat="48.92901" lon="-0.44327">
        <ele>257</ele>
        <time>2019-06-08T14:07:37Z</time>
      </trkpt>
      <trkpt lat="48.92894" lon="-0.44341">
        <ele>254</ele>
        <time>2019-06-08T14:07:39Z</time>
      </trkpt>
      <trkpt lat="48.92886" lon="-0.44355">
        <ele>253</ele>
        <time>2019-06-08T14:07:41Z</time>
      </trkpt>
      <trkpt lat="48.92878" lon="-0.44368">
        <ele>253</ele>
        <time>2019-06-08T14:07:43Z</time>
      </trkpt>
      <trkpt lat="48.92871" lon="-0.44379">
        <ele>252</ele>
        <time>2019-06-08T14:07:45Z</time>
      </trkpt>
      <trkpt lat="48.92861" lon="-0.4439">
        <ele>251</ele>
        <time>2019-06-08T14:07:47Z</time>
      </trkpt>
      <trkpt lat="48.9285" lon="-0.44403">
        <ele>250</ele>
        <time>2019-06-08T14:07:49Z</time>
      </trkpt>
      <trkpt lat="48.92838" lon="-0.44413">
        <ele>248</ele>
        <time>2019-06-08T14:07:51Z</time>
      </trkpt>
      <trkpt lat="48.92825" lon="-0.44424">
        <ele>246</ele>
        <time>2019-06-08T14:07:53Z</time>
      </trkpt>
      <trkpt lat="48.92813" lon="-0.44438">
        <ele>245</ele>
        <time>2019-06-08T14:07:55Z</time>
      </trkpt>
      <trkpt lat="48.92801" lon="-0.44453">
        <ele>244</ele>
        <time>2019-06-08T14:07:57Z</time>
      </trkpt>
      <trkpt lat="48.9279" lon="-0.44468">
        <ele>243</ele>
        <time>2019-06-08T14:07:59Z</time>
      </trkpt>
      <trkpt lat="48.92779" lon="-0.44483">
        <ele>243</ele>
        <time>2019-06-08T14:08:01Z</time>
      </trkpt>
      <trkpt lat="48.9277" lon="-0.44499">
        <ele>242</ele>
        <time>2019-06-08T14:08:03Z</time>
      </trkpt>
      <trkpt lat="48.92758" lon="-0.44515">
        <ele>240</ele>
        <time>2019-06-08T14:08:05Z</time>
      </trkpt>
      <trkpt lat="48.92746" lon="-0.44531">
        <ele>237</ele>
        <time>2019-06-08T14:08:07Z</time>
      </trkpt>
      <trkpt lat="48.92732" lon="-0.44548">
        <ele>236</ele>
        <time>2019-06-08T14:08:09Z</time>
      </trkpt>
      <trkpt lat="48.92719" lon="-0.44562">
        <ele>236</ele>
        <time>2019-06-08T14:08:11Z</time>
      </trkpt>
      <trkpt lat="48.92709" lon="-0.44571">
        <ele>236</ele>
        <time>2019-06-08T14:08:13Z</time>
      </trkpt>
      <trkpt lat="48.92698" lon="-0.44572">
        <ele>236</ele>
        <time>2019-06-08T14:08:15Z</time>
      </trkpt>
      <trkpt lat="48.92688" lon="-0.44575">
        <ele>235</ele>
        <time>2019-06-08T14:08:17Z</time>
      </trkpt>
      <trkpt lat="48.92676" lon="-0.44576">
        <ele>235</ele>
        <time>2019-06-08T14:08:19Z</time>
      </trkpt>
      <trkpt lat="48.92668" lon="-0.44573">
        <ele>235</ele>
        <time>2019-06-08T14:08:21Z</time>
      </trkpt>
      <trkpt lat="48.92661" lon="-0.44566">
        <ele>235</ele>
        <time>2019-06-08T14:08:23Z</time>
      </trkpt>
      <trkpt lat="48.92656" lon="-0.44558">
        <ele>235</ele>
        <time>2019-06-08T14:08:25Z</time>
      </trkpt>
      <trkpt lat="48.9265" lon="-0.44553">
        <ele>235</ele>
        <time>2019-06-08T14:08:27Z</time>
      </trkpt>
      <trkpt lat="48.92644" lon="-0.44553">
        <ele>235</ele>
        <time>2019-06-08T14:08:29Z</time>
      </trkpt>
      <trkpt lat="48.92639" lon="-0.44559">
        <ele>235</ele>
        <time>2019-06-08T14:08:31Z</time>
      </trkpt>
      <trkpt lat="48.92631" lon="-0.44569">
        <ele>235</ele>
        <time>2019-06-08T14:08:33Z</time>
      </trkpt>
      <trkpt lat="48.92622" lon="-0.44577">
        <ele>235</ele>
        <time>2019-06-08T14:08:35Z</time>
      </trkpt>
      <trkpt lat="48.92615" lon="-0.44582">
        <ele>235</ele>
        <time>2019-06-08T14:08:37Z</time>
      </trkpt>
      <trkpt lat="48.92609" lon="-0.44588">
        <ele>234</ele>
        <time>2019-06-08T14:08:39Z</time>
      </trkpt>
      <trkpt lat="48.92611" lon="-0.44579">
        <ele>235</ele>
        <time>2019-06-08T14:09:23Z</time>
      </trkpt>
      <trkpt lat="48.92611" lon="-0.44569">
        <ele>235</ele>
        <time>2019-06-08T14:09:27Z</time>
      </trkpt>
      <trkpt lat="48.92604" lon="-0.44563">
        <ele>235</ele>
        <time>2019-06-08T14:09:31Z</time>
      </trkpt>
      <trkpt lat="48.92598" lon="-0.44554">
        <ele>235</ele>
        <time>2019-06-08T14:09:35Z</time>
      </trkpt>
      <trkpt lat="48.92593" lon="-0.44544">
        <ele>235</ele>
        <time>2019-06-08T14:09:39Z</time>
      </trkpt>
      <trkpt lat="48.92589" lon="-0.44534">
        <ele>235</ele>
        <time>2019-06-08T14:09:43Z</time>
      </trkpt>
      <trkpt lat="48.92585" lon="-0.44524">
        <ele>236</ele>
        <time>2019-06-08T14:09:47Z</time>
      </trkpt>
      <trkpt lat="48.92579" lon="-0.44514">
        <ele>238</ele>
        <time>2019-06-08T14:09:51Z</time>
      </trkpt>
      <trkpt lat="48.92574" lon="-0.44507">
        <ele>237</ele>
        <time>2019-06-08T14:09:55Z</time>
      </trkpt>
      <trkpt lat="48.92568" lon="-0.44501">
        <ele>238</ele>
        <time>2019-06-08T14:09:59Z</time>
      </trkpt>
      <trkpt lat="48.92562" lon="-0.44494">
        <ele>239</ele>
        <time>2019-06-08T14:10:03Z</time>
      </trkpt>
      <trkpt lat="48.92557" lon="-0.4449">
        <ele>239</ele>
        <time>2019-06-08T14:10:07Z</time>
      </trkpt>
      <trkpt lat="48.92551" lon="-0.44486">
        <ele>240</ele>
        <time>2019-06-08T14:10:11Z</time>
      </trkpt>
      <trkpt lat="48.92546" lon="-0.44482">
        <ele>240</ele>
        <time>2019-06-08T14:10:15Z</time>
      </trkpt>
      <trkpt lat="48.9254" lon="-0.44481">
        <ele>240</ele>
        <time>2019-06-08T14:10:19Z</time>
      </trkpt>
      <trkpt lat="48.92536" lon="-0.44477">
        <ele>241</ele>
        <time>2019-06-08T14:10:23Z</time>
      </trkpt>
      <trkpt lat="48.9253" lon="-0.44474">
        <ele>241</ele>
        <time>2019-06-08T14:10:27Z</time>
      </trkpt>
      <trkpt lat="48.92525" lon="-0.4447">
        <ele>241</ele>
        <time>2019-06-08T14:10:31Z</time>
      </trkpt>
      <trkpt lat="48.92518" lon="-0.44467">
        <ele>241</ele>
        <time>2019-06-08T14:10:35Z</time>
      </trkpt>
      <trkpt lat="48.92512" lon="-0.44463">
        <ele>241</ele>
        <time>2019-06-08T14:10:39Z</time>
      </trkpt>
      <trkpt lat="48.92506" lon="-0.44455">
        <ele>241</ele>
        <time>2019-06-08T14:10:43Z</time>
      </trkpt>
      <trkpt lat="48.92502" lon="-0.4445">
        <ele>241</ele>
        <time>2019-06-08T14:10:47Z</time>
      </trkpt>
      <trkpt lat="48.92498" lon="-0.44442">
        <ele>244</ele>
        <time>2019-06-08T14:10:51Z</time>
      </trkpt>
      <trkpt lat="48.92492" lon="-0.44437">
        <ele>244</ele>
        <time>2019-06-08T14:10:55Z</time>
      </trkpt>
      <trkpt lat="48.92484" lon="-0.44431">
        <ele>244</ele>
        <time>2019-06-08T14:10:59Z</time>
      </trkpt>
      <trkpt lat="48.9248" lon="-0.44428">
        <ele>244</ele>
        <time>2019-06-08T14:11:01Z</time>
      </trkpt>
      <trkpt lat="48.92472" lon="-0.44422">
        <ele>244</ele>
        <time>2019-06-08T14:11:05Z</time>
      </trkpt>
      <trkpt lat="48.92465" lon="-0.44419">
        <ele>245</ele>
        <time>2019-06-08T14:11:09Z</time>
      </trkpt>
      <trkpt lat="48.9246" lon="-0.4441">
        <ele>245</ele>
        <time>2019-06-08T14:11:13Z</time>
      </trkpt>
      <trkpt lat="48.92459" lon="-0.44402">
        <ele>245</ele>
        <time>2019-06-08T14:11:15Z</time>
      </trkpt>
      <trkpt lat="48.92457" lon="-0.44393">
        <ele>245</ele>
        <time>2019-06-08T14:11:19Z</time>
      </trkpt>
      <trkpt lat="48.92456" lon="-0.44385">
        <ele>245</ele>
        <time>2019-06-08T14:12:29Z</time>
      </trkpt>
      <trkpt lat="48.92455" lon="-0.44374">
        <ele>246</ele>
        <time>2019-06-08T14:12:33Z</time>
      </trkpt>
      <trkpt lat="48.92454" lon="-0.44361">
        <ele>246</ele>
        <time>2019-06-08T14:12:37Z</time>
      </trkpt>
      <trkpt lat="48.92452" lon="-0.44348">
        <ele>246</ele>
        <time>2019-06-08T14:12:41Z</time>
      </trkpt>
      <trkpt lat="48.92451" lon="-0.44341">
        <ele>246</ele>
        <time>2019-06-08T14:12:43Z</time>
      </trkpt>
      <trkpt lat="48.92449" lon="-0.44334">
        <ele>246</ele>
        <time>2019-06-08T14:12:45Z</time>
      </trkpt>
      <trkpt lat="48.92448" lon="-0.44324">
        <ele>247</ele>
        <time>2019-06-08T14:12:47Z</time>
      </trkpt>
      <trkpt lat="48.92447" lon="-0.44312">
        <ele>248</ele>
        <time>2019-06-08T14:12:49Z</time>
      </trkpt>
      <trkpt lat="48.92447" lon="-0.44299">
        <ele>248</ele>
        <time>2019-06-08T14:12:51Z</time>
      </trkpt>
      <trkpt lat="48.92445" lon="-0.44289">
        <ele>248</ele>
        <time>2019-06-08T14:12:53Z</time>
      </trkpt>
      <trkpt lat="48.92443" lon="-0.44279">
        <ele>248</ele>
        <time>2019-06-08T14:12:55Z</time>
      </trkpt>
      <trkpt lat="48.92442" lon="-0.44271">
        <ele>248</ele>
        <time>2019-06-08T14:12:57Z</time>
      </trkpt>
      <trkpt lat="48.9244" lon="-0.44261">
        <ele>248</ele>
        <time>2019-06-08T14:12:59Z</time>
      </trkpt>
      <trkpt lat="48.92439" lon="-0.44253">
        <ele>248</ele>
        <time>2019-06-08T14:13:01Z</time>
      </trkpt>
      <trkpt lat="48.92437" lon="-0.44244">
        <ele>248</ele>
        <time>2019-06-08T14:13:03Z</time>
      </trkpt>
      <trkpt lat="48.92435" lon="-0.44237">
        <ele>248</ele>
        <time>2019-06-08T14:13:05Z</time>
      </trkpt>
      <trkpt lat="48.92433" lon="-0.44229">
        <ele>248</ele>
        <time>2019-06-08T14:13:07Z</time>
      </trkpt>
      <trkpt lat="48.92431" lon="-0.44221">
        <ele>248</ele>
        <time>2019-06-08T14:13:09Z</time>
      </trkpt>
      <trkpt lat="48.92429" lon="-0.44213">
        <ele>248</ele>
        <time>2019-06-08T14:13:11Z</time>
      </trkpt>
      <trkpt lat="48.92427" lon="-0.44204">
        <ele>248</ele>
        <time>2019-06-08T14:13:13Z</time>
      </trkpt>
      <trkpt lat="48.92425" lon="-0.44196">
        <ele>248</ele>
        <time>2019-06-08T14:13:15Z</time>
      </trkpt>
      <trkpt lat="48.92423" lon="-0.44187">
        <ele>248</ele>
        <time>2019-06-08T14:13:17Z</time>
      </trkpt>
      <trkpt lat="48.9242" lon="-0.44178">
        <ele>248</ele>
        <time>2019-06-08T14:13:19Z</time>
      </trkpt>
      <trkpt lat="48.92417" lon="-0.4417">
        <ele>248</ele>
        <time>2019-06-08T14:13:21Z</time>
      </trkpt>
      <trkpt lat="48.92415" lon="-0.44163">
        <ele>248</ele>
        <time>2019-06-08T14:13:23Z</time>
      </trkpt>
      <trkpt lat="48.92413" lon="-0.44153">
        <ele>249</ele>
        <time>2019-06-08T14:13:25Z</time>
      </trkpt>
      <trkpt lat="48.9241" lon="-0.44144">
        <ele>249</ele>
        <time>2019-06-08T14:13:27Z</time>
      </trkpt>
      <trkpt lat="48.92407" lon="-0.44134">
        <ele>249</ele>
        <time>2019-06-08T14:13:29Z</time>
      </trkpt>
      <trkpt lat="48.92404" lon="-0.44123">
        <ele>249</ele>
        <time>2019-06-08T14:13:31Z</time>
      </trkpt>
      <trkpt lat="48.924" lon="-0.44114">
        <ele>249</ele>
        <time>2019-06-08T14:13:33Z</time>
      </trkpt>
      <trkpt lat="48.92395" lon="-0.44106">
        <ele>249</ele>
        <time>2019-06-08T14:13:35Z</time>
      </trkpt>
      <trkpt lat="48.92393" lon="-0.44098">
        <ele>249</ele>
        <time>2019-06-08T14:13:37Z</time>
      </trkpt>
      <trkpt lat="48.92391" lon="-0.44088">
        <ele>249</ele>
        <time>2019-06-08T14:13:39Z</time>
      </trkpt>
      <trkpt lat="48.92388" lon="-0.44079">
        <ele>248</ele>
        <time>2019-06-08T14:13:41Z</time>
      </trkpt>
      <trkpt lat="48.92386" lon="-0.4407">
        <ele>248</ele>
        <time>2019-06-08T14:13:43Z</time>
      </trkpt>
      <trkpt lat="48.92383" lon="-0.44061">
        <ele>248</ele>
        <time>2019-06-08T14:13:45Z</time>
      </trkpt>
      <trkpt lat="48.9238" lon="-0.44052">
        <ele>248</ele>
        <time>2019-06-08T14:13:47Z</time>
      </trkpt>
      <trkpt lat="48.92377" lon="-0.44044">
        <ele>248</ele>
        <time>2019-06-08T14:13:49Z</time>
      </trkpt>
      <trkpt lat="48.92374" lon="-0.44035">
        <ele>248</ele>
        <time>2019-06-08T14:13:51Z</time>
      </trkpt>
      <trkpt lat="48.92371" lon="-0.44026">
        <ele>249</ele>
        <time>2019-06-08T14:13:53Z</time>
      </trkpt>
      <trkpt lat="48.92368" lon="-0.44017">
        <ele>249</ele>
        <time>2019-06-08T14:13:55Z</time>
      </trkpt>
      <trkpt lat="48.92365" lon="-0.44008">
        <ele>249</ele>
        <time>2019-06-08T14:13:57Z</time>
      </trkpt>
      <trkpt lat="48.92362" lon="-0.43998">
        <ele>248</ele>
        <time>2019-06-08T14:13:59Z</time>
      </trkpt>
      <trkpt lat="48.92359" lon="-0.43989">
        <ele>248</ele>
        <time>2019-06-08T14:14:01Z</time>
      </trkpt>
      <trkpt lat="48.92357" lon="-0.43979">
        <ele>248</ele>
        <time>2019-06-08T14:14:03Z</time>
      </trkpt>
      <trkpt lat="48.92354" lon="-0.4397">
        <ele>248</ele>
        <time>2019-06-08T14:14:05Z</time>
      </trkpt>
      <trkpt lat="48.9235" lon="-0.43961">
        <ele>247</ele>
        <time>2019-06-08T14:14:07Z</time>
      </trkpt>
      <trkpt lat="48.92347" lon="-0.43952">
        <ele>247</ele>
        <time>2019-06-08T14:14:09Z</time>
      </trkpt>
      <trkpt lat="48.92344" lon="-0.43943">
        <ele>247</ele>
        <time>2019-06-08T14:14:11Z</time>
      </trkpt>
      <trkpt lat="48.92341" lon="-0.43936">
        <ele>247</ele>
        <time>2019-06-08T14:14:13Z</time>
      </trkpt>
      <trkpt lat="48.9234" lon="-0.43929">
        <ele>248</ele>
        <time>2019-06-08T14:14:15Z</time>
      </trkpt>
      <trkpt lat="48.92338" lon="-0.43922">
        <ele>248</ele>
        <time>2019-06-08T14:14:17Z</time>
      </trkpt>
      <trkpt lat="48.92335" lon="-0.43913">
        <ele>247</ele>
        <time>2019-06-08T14:14:19Z</time>
      </trkpt>
      <trkpt lat="48.92332" lon="-0.43901">
        <ele>249</ele>
        <time>2019-06-08T14:14:21Z</time>
      </trkpt>
      <trkpt lat="48.92328" lon="-0.43887">
        <ele>249</ele>
        <time>2019-06-08T14:14:23Z</time>
      </trkpt>
      <trkpt lat="48.92325" lon="-0.43872">
        <ele>248</ele>
        <time>2019-06-08T14:14:25Z</time>
      </trkpt>
      <trkpt lat="48.92321" lon="-0.43857">
        <ele>248</ele>
        <time>2019-06-08T14:14:27Z</time>
      </trkpt>
      <trkpt lat="48.92319" lon="-0.43841">
        <ele>247</ele>
        <time>2019-06-08T14:14:29Z</time>
      </trkpt>
      <trkpt lat="48.92317" lon="-0.43824">
        <ele>246</ele>
        <time>2019-06-08T14:14:31Z</time>
      </trkpt>
      <trkpt lat="48.92314" lon="-0.4381">
        <ele>247</ele>
        <time>2019-06-08T14:14:33Z</time>
      </trkpt>
      <trkpt lat="48.92313" lon="-0.43793">
        <ele>247</ele>
        <time>2019-06-08T14:14:35Z</time>
      </trkpt>
      <trkpt lat="48.9231" lon="-0.43778">
        <ele>247</ele>
        <time>2019-06-08T14:14:37Z</time>
      </trkpt>
      <trkpt lat="48.92307" lon="-0.43763">
        <ele>246</ele>
        <time>2019-06-08T14:14:39Z</time>
      </trkpt>
      <trkpt lat="48.92305" lon="-0.43748">
        <ele>246</ele>
        <time>2019-06-08T14:14:41Z</time>
      </trkpt>
      <trkpt lat="48.92303" lon="-0.43733">
        <ele>246</ele>
        <time>2019-06-08T14:14:43Z</time>
      </trkpt>
      <trkpt lat="48.923" lon="-0.43719">
        <ele>246</ele>
        <time>2019-06-08T14:14:45Z</time>
      </trkpt>
      <trkpt lat="48.92298" lon="-0.43703">
        <ele>246</ele>
        <time>2019-06-08T14:14:47Z</time>
      </trkpt>
      <trkpt lat="48.92295" lon="-0.43687">
        <ele>246</ele>
        <time>2019-06-08T14:14:49Z</time>
      </trkpt>
      <trkpt lat="48.92291" lon="-0.43671">
        <ele>246</ele>
        <time>2019-06-08T14:14:51Z</time>
      </trkpt>
      <trkpt lat="48.92286" lon="-0.43653">
        <ele>244</ele>
        <time>2019-06-08T14:14:53Z</time>
      </trkpt>
      <trkpt lat="48.92282" lon="-0.43636">
        <ele>244</ele>
        <time>2019-06-08T14:14:55Z</time>
      </trkpt>
      <trkpt lat="48.92279" lon="-0.4362">
        <ele>244</ele>
        <time>2019-06-08T14:14:57Z</time>
      </trkpt>
      <trkpt lat="48.92275" lon="-0.43606">
        <ele>244</ele>
        <time>2019-06-08T14:14:59Z</time>
      </trkpt>
      <trkpt lat="48.92273" lon="-0.43594">
        <ele>244</ele>
        <time>2019-06-08T14:15:01Z</time>
      </trkpt>
      <trkpt lat="48.92271" lon="-0.43585">
        <ele>244</ele>
        <time>2019-06-08T14:15:03Z</time>
      </trkpt>
      <trkpt lat="48.9227" lon="-0.43573">
        <ele>242</ele>
        <time>2019-06-08T14:15:07Z</time>
      </trkpt>
      <trkpt lat="48.92272" lon="-0.43564">
        <ele>241</ele>
        <time>2019-06-08T14:15:09Z</time>
      </trkpt>
      <trkpt lat="48.92277" lon="-0.43556">
        <ele>241</ele>
        <time>2019-06-08T14:15:11Z</time>
      </trkpt>
      <trkpt lat="48.92283" lon="-0.43551">
        <ele>240</ele>
        <time>2019-06-08T14:15:13Z</time>
      </trkpt>
      <trkpt lat="48.9229" lon="-0.43545">
        <ele>240</ele>
        <time>2019-06-08T14:15:15Z</time>
      </trkpt>
      <trkpt lat="48.92298" lon="-0.43538">
        <ele>240</ele>
        <time>2019-06-08T14:15:17Z</time>
      </trkpt>
      <trkpt lat="48.92308" lon="-0.43531">
        <ele>239</ele>
        <time>2019-06-08T14:15:19Z</time>
      </trkpt>
      <trkpt lat="48.92318" lon="-0.43526">
        <ele>239</ele>
        <time>2019-06-08T14:15:21Z</time>
      </trkpt>
      <trkpt lat="48.92329" lon="-0.43519">
        <ele>238</ele>
        <time>2019-06-08T14:15:23Z</time>
      </trkpt>
      <trkpt lat="48.9234" lon="-0.43513">
        <ele>236</ele>
        <time>2019-06-08T14:15:25Z</time>
      </trkpt>
      <trkpt lat="48.92351" lon="-0.43506">
        <ele>235</ele>
        <time>2019-06-08T14:15:27Z</time>
      </trkpt>
      <trkpt lat="48.92362" lon="-0.43499">
        <ele>233</ele>
        <time>2019-06-08T14:15:29Z</time>
      </trkpt>
      <trkpt lat="48.92374" lon="-0.43492">
        <ele>233</ele>
        <time>2019-06-08T14:15:31Z</time>
      </trkpt>
      <trkpt lat="48.92386" lon="-0.43485">
        <ele>232</ele>
        <time>2019-06-08T14:15:33Z</time>
      </trkpt>
      <trkpt lat="48.92397" lon="-0.43477">
        <ele>232</ele>
        <time>2019-06-08T14:15:35Z</time>
      </trkpt>
      <trkpt lat="48.9241" lon="-0.43468">
        <ele>232</ele>
        <time>2019-06-08T14:15:37Z</time>
      </trkpt>
      <trkpt lat="48.92425" lon="-0.43457">
        <ele>229</ele>
        <time>2019-06-08T14:15:39Z</time>
      </trkpt>
      <trkpt lat="48.92439" lon="-0.43444">
        <ele>228</ele>
        <time>2019-06-08T14:15:41Z</time>
      </trkpt>
      <trkpt lat="48.92453" lon="-0.4343">
        <ele>228</ele>
        <time>2019-06-08T14:15:43Z</time>
      </trkpt>
      <trkpt lat="48.92464" lon="-0.43412">
        <ele>225</ele>
        <time>2019-06-08T14:15:45Z</time>
      </trkpt>
      <trkpt lat="48.92475" lon="-0.43393">
        <ele>225</ele>
        <time>2019-06-08T14:15:47Z</time>
      </trkpt>
      <trkpt lat="48.92481" lon="-0.43374">
        <ele>224</ele>
        <time>2019-06-08T14:15:49Z</time>
      </trkpt>
      <trkpt lat="48.92487" lon="-0.43351">
        <ele>223</ele>
        <time>2019-06-08T14:15:51Z</time>
      </trkpt>
      <trkpt lat="48.9249" lon="-0.43329">
        <ele>221</ele>
        <time>2019-06-08T14:15:53Z</time>
      </trkpt>
      <trkpt lat="48.92492" lon="-0.43307">
        <ele>221</ele>
        <time>2019-06-08T14:15:55Z</time>
      </trkpt>
      <trkpt lat="48.92496" lon="-0.43289">
        <ele>220</ele>
        <time>2019-06-08T14:15:57Z</time>
      </trkpt>
      <trkpt lat="48.92505" lon="-0.43275">
        <ele>216</ele>
        <time>2019-06-08T14:15:59Z</time>
      </trkpt>
      <trkpt lat="48.92516" lon="-0.43265">
        <ele>215</ele>
        <time>2019-06-08T14:16:01Z</time>
      </trkpt>
      <trkpt lat="48.92526" lon="-0.43251">
        <ele>215</ele>
        <time>2019-06-08T14:16:03Z</time>
      </trkpt>
      <trkpt lat="48.92531" lon="-0.43237">
        <ele>214</ele>
        <time>2019-06-08T14:16:05Z</time>
      </trkpt>
      <trkpt lat="48.92532" lon="-0.43228">
        <ele>214</ele>
        <time>2019-06-08T14:16:07Z</time>
      </trkpt>
      <trkpt lat="48.92532" lon="-0.4322">
        <ele>213</ele>
        <time>2019-06-08T14:16:09Z</time>
      </trkpt>
      <trkpt lat="48.92533" lon="-0.43209">
        <ele>213</ele>
        <time>2019-06-08T14:16:11Z</time>
      </trkpt>
      <trkpt lat="48.92532" lon="-0.43197">
        <ele>213</ele>
        <time>2019-06-08T14:16:13Z</time>
      </trkpt>
      <trkpt lat="48.92533" lon="-0.43185">
        <ele>213</ele>
        <time>2019-06-08T14:16:15Z</time>
      </trkpt>
      <trkpt lat="48.92536" lon="-0.43175">
        <ele>213</ele>
        <time>2019-06-08T14:16:19Z</time>
      </trkpt>
      <trkpt lat="48.92539" lon="-0.43168">
        <ele>213</ele>
        <time>2019-06-08T14:16:25Z</time>
      </trkpt>
      <trkpt lat="48.92542" lon="-0.43164">
        <ele>215</ele>
        <time>2019-06-08T14:16:57Z</time>
      </trkpt>
      <trkpt lat="48.92547" lon="-0.43162">
        <ele>215</ele>
        <time>2019-06-08T14:16:59Z</time>
      </trkpt>
      <trkpt lat="48.92552" lon="-0.43161">
        <ele>215</ele>
        <time>2019-06-08T14:17:01Z</time>
      </trkpt>
      <trkpt lat="48.92558" lon="-0.43162">
        <ele>215</ele>
        <time>2019-06-08T14:17:03Z</time>
      </trkpt>
      <trkpt lat="48.92565" lon="-0.43166">
        <ele>214</ele>
        <time>2019-06-08T14:17:07Z</time>
      </trkpt>
      <trkpt lat="48.92573" lon="-0.43168">
        <ele>213</ele>
        <time>2019-06-08T14:17:11Z</time>
      </trkpt>
      <trkpt lat="48.92581" lon="-0.4317">
        <ele>213</ele>
        <time>2019-06-08T14:17:15Z</time>
      </trkpt>
      <trkpt lat="48.92587" lon="-0.43173">
        <ele>212</ele>
        <time>2019-06-08T14:17:19Z</time>
      </trkpt>
      <trkpt lat="48.92592" lon="-0.43171">
        <ele>212</ele>
        <time>2019-06-08T14:17:21Z</time>
      </trkpt>
      <trkpt lat="48.926" lon="-0.43168">
        <ele>212</ele>
        <time>2019-06-08T14:17:25Z</time>
      </trkpt>
      <trkpt lat="48.92604" lon="-0.43164">
        <ele>214</ele>
        <time>2019-06-08T14:17:27Z</time>
      </trkpt>
      <trkpt lat="48.92609" lon="-0.43153">
        <ele>215</ele>
        <time>2019-06-08T14:17:31Z</time>
      </trkpt>
      <trkpt lat="48.92612" lon="-0.43144">
        <ele>215</ele>
        <time>2019-06-08T14:17:35Z</time>
      </trkpt>
      <trkpt lat="48.92615" lon="-0.43134">
        <ele>216</ele>
        <time>2019-06-08T14:17:39Z</time>
      </trkpt>
      <trkpt lat="48.92618" lon="-0.43124">
        <ele>216</ele>
        <time>2019-06-08T14:17:43Z</time>
      </trkpt>
      <trkpt lat="48.92621" lon="-0.43113">
        <ele>216</ele>
        <time>2019-06-08T14:17:47Z</time>
      </trkpt>
      <trkpt lat="48.92622" lon="-0.43102">
        <ele>217</ele>
        <time>2019-06-08T14:17:51Z</time>
      </trkpt>
      <trkpt lat="48.92622" lon="-0.43092">
        <ele>217</ele>
        <time>2019-06-08T14:17:55Z</time>
      </trkpt>
      <trkpt lat="48.92621" lon="-0.43083">
        <ele>221</ele>
        <time>2019-06-08T14:17:59Z</time>
      </trkpt>
      <trkpt lat="48.92622" lon="-0.43076">
        <ele>221</ele>
        <time>2019-06-08T14:18:03Z</time>
      </trkpt>
      <trkpt lat="48.92618" lon="-0.43072">
        <ele>221</ele>
        <time>2019-06-08T14:18:13Z</time>
      </trkpt>
      <trkpt lat="48.92611" lon="-0.43073">
        <ele>221</ele>
        <time>2019-06-08T14:19:03Z</time>
      </trkpt>
      <trkpt lat="48.92602" lon="-0.43075">
        <ele>221</ele>
        <time>2019-06-08T14:19:07Z</time>
      </trkpt>
      <trkpt lat="48.92596" lon="-0.43076">
        <ele>220</ele>
        <time>2019-06-08T14:19:09Z</time>
      </trkpt>
      <trkpt lat="48.92589" lon="-0.43076">
        <ele>220</ele>
        <time>2019-06-08T14:19:11Z</time>
      </trkpt>
      <trkpt lat="48.92584" lon="-0.43076">
        <ele>220</ele>
        <time>2019-06-08T14:19:13Z</time>
      </trkpt>
      <trkpt lat="48.92579" lon="-0.43074">
        <ele>219</ele>
        <time>2019-06-08T14:19:15Z</time>
      </trkpt>
      <trkpt lat="48.92575" lon="-0.43069">
        <ele>219</ele>
        <time>2019-06-08T14:19:17Z</time>
      </trkpt>
      <trkpt lat="48.92573" lon="-0.43061">
        <ele>220</ele>
        <time>2019-06-08T14:19:19Z</time>
      </trkpt>
      <trkpt lat="48.92575" lon="-0.43053">
        <ele>220</ele>
        <time>2019-06-08T14:19:21Z</time>
      </trkpt>
      <trkpt lat="48.92576" lon="-0.43046">
        <ele>220</ele>
        <time>2019-06-08T14:19:23Z</time>
      </trkpt>
      <trkpt lat="48.92577" lon="-0.43038">
        <ele>221</ele>
        <time>2019-06-08T14:19:25Z</time>
      </trkpt>
      <trkpt lat="48.92576" lon="-0.4303">
        <ele>221</ele>
        <time>2019-06-08T14:19:27Z</time>
      </trkpt>
      <trkpt lat="48.92571" lon="-0.43026">
        <ele>221</ele>
        <time>2019-06-08T14:19:29Z</time>
      </trkpt>
      <trkpt lat="48.92565" lon="-0.43022">
        <ele>221</ele>
        <time>2019-06-08T14:19:31Z</time>
      </trkpt>
      <trkpt lat="48.9256" lon="-0.43018">
        <ele>221</ele>
        <time>2019-06-08T14:19:33Z</time>
      </trkpt>
      <trkpt lat="48.92554" lon="-0.43012">
        <ele>221</ele>
        <time>2019-06-08T14:19:35Z</time>
      </trkpt>
      <trkpt lat="48.92548" lon="-0.43006">
        <ele>221</ele>
        <time>2019-06-08T14:19:37Z</time>
      </trkpt>
      <trkpt lat="48.92542" lon="-0.43">
        <ele>224</ele>
        <time>2019-06-08T14:19:39Z</time>
      </trkpt>
      <trkpt lat="48.92536" lon="-0.42993">
        <ele>224</ele>
        <time>2019-06-08T14:19:41Z</time>
      </trkpt>
      <trkpt lat="48.92528" lon="-0.42986">
        <ele>224</ele>
        <time>2019-06-08T14:19:43Z</time>
      </trkpt>
      <trkpt lat="48.9252" lon="-0.42979">
        <ele>223</ele>
        <time>2019-06-08T14:19:45Z</time>
      </trkpt>
      <trkpt lat="48.92513" lon="-0.4297">
        <ele>224</ele>
        <time>2019-06-08T14:19:47Z</time>
      </trkpt>
      <trkpt lat="48.92505" lon="-0.42964">
        <ele>224</ele>
        <time>2019-06-08T14:19:49Z</time>
      </trkpt>
      <trkpt lat="48.92497" lon="-0.42957">
        <ele>222</ele>
        <time>2019-06-08T14:19:51Z</time>
      </trkpt>
      <trkpt lat="48.9249" lon="-0.4295">
        <ele>222</ele>
        <time>2019-06-08T14:19:53Z</time>
      </trkpt>
      <trkpt lat="48.92482" lon="-0.42943">
        <ele>222</ele>
        <time>2019-06-08T14:19:55Z</time>
      </trkpt>
      <trkpt lat="48.92475" lon="-0.42937">
        <ele>223</ele>
        <time>2019-06-08T14:19:57Z</time>
      </trkpt>
      <trkpt lat="48.92468" lon="-0.42932">
        <ele>222</ele>
        <time>2019-06-08T14:19:59Z</time>
      </trkpt>
      <trkpt lat="48.92461" lon="-0.42925">
        <ele>222</ele>
        <time>2019-06-08T14:20:01Z</time>
      </trkpt>
      <trkpt lat="48.92453" lon="-0.42921">
        <ele>222</ele>
        <time>2019-06-08T14:20:03Z</time>
      </trkpt>
      <trkpt lat="48.92447" lon="-0.42916">
        <ele>226</ele>
        <time>2019-06-08T14:20:05Z</time>
      </trkpt>
      <trkpt lat="48.92442" lon="-0.42912">
        <ele>226</ele>
        <time>2019-06-08T14:20:07Z</time>
      </trkpt>
      <trkpt lat="48.92436" lon="-0.42907">
        <ele>226</ele>
        <time>2019-06-08T14:20:09Z</time>
      </trkpt>
      <trkpt lat="48.92429" lon="-0.42902">
        <ele>226</ele>
        <time>2019-06-08T14:20:11Z</time>
      </trkpt>
      <trkpt lat="48.92422" lon="-0.42897">
        <ele>226</ele>
        <time>2019-06-08T14:20:13Z</time>
      </trkpt>
      <trkpt lat="48.92416" lon="-0.42892">
        <ele>225</ele>
        <time>2019-06-08T14:20:15Z</time>
      </trkpt>
      <trkpt lat="48.92411" lon="-0.42888">
        <ele>226</ele>
        <time>2019-06-08T14:20:17Z</time>
      </trkpt>
      <trkpt lat="48.92405" lon="-0.42884">
        <ele>226</ele>
        <time>2019-06-08T14:20:19Z</time>
      </trkpt>
      <trkpt lat="48.924" lon="-0.42879">
        <ele>226</ele>
        <time>2019-06-08T14:20:21Z</time>
      </trkpt>
      <trkpt lat="48.92394" lon="-0.42875">
        <ele>226</ele>
        <time>2019-06-08T14:20:23Z</time>
      </trkpt>
      <trkpt lat="48.92389" lon="-0.42872">
        <ele>226</ele>
        <time>2019-06-08T14:20:25Z</time>
      </trkpt>
      <trkpt lat="48.92383" lon="-0.42868">
        <ele>226</ele>
        <time>2019-06-08T14:20:27Z</time>
      </trkpt>
      <trkpt lat="48.92377" lon="-0.42864">
        <ele>226</ele>
        <time>2019-06-08T14:20:29Z</time>
      </trkpt>
      <trkpt lat="48.92372" lon="-0.4286">
        <ele>227</ele>
        <time>2019-06-08T14:20:31Z</time>
      </trkpt>
      <trkpt lat="48.92366" lon="-0.42855">
        <ele>227</ele>
        <time>2019-06-08T14:20:33Z</time>
      </trkpt>
      <trkpt lat="48.92361" lon="-0.42851">
        <ele>227</ele>
        <time>2019-06-08T14:20:35Z</time>
      </trkpt>
      <trkpt lat="48.92356" lon="-0.42846">
        <ele>227</ele>
        <time>2019-06-08T14:20:37Z</time>
      </trkpt>
      <trkpt lat="48.92351" lon="-0.42841">
        <ele>227</ele>
        <time>2019-06-08T14:20:39Z</time>
      </trkpt>
      <trkpt lat="48.92346" lon="-0.42836">
        <ele>227</ele>
        <time>2019-06-08T14:20:41Z</time>
      </trkpt>
      <trkpt lat="48.92341" lon="-0.42831">
        <ele>229</ele>
        <time>2019-06-08T14:20:43Z</time>
      </trkpt>
      <trkpt lat="48.92336" lon="-0.42824">
        <ele>229</ele>
        <time>2019-06-08T14:20:45Z</time>
      </trkpt>
      <trkpt lat="48.92331" lon="-0.42818">
        <ele>228</ele>
        <time>2019-06-08T14:20:47Z</time>
      </trkpt>
      <trkpt lat="48.92326" lon="-0.42812">
        <ele>228</ele>
        <time>2019-06-08T14:20:49Z</time>
      </trkpt>
      <trkpt lat="48.92322" lon="-0.42805">
        <ele>229</ele>
        <time>2019-06-08T14:20:51Z</time>
      </trkpt>
      <trkpt lat="48.92317" lon="-0.42798">
        <ele>229</ele>
        <time>2019-06-08T14:20:53Z</time>
      </trkpt>
      <trkpt lat="48.92313" lon="-0.4279">
        <ele>229</ele>
        <time>2019-06-08T14:20:55Z</time>
      </trkpt>
      <trkpt lat="48.92308" lon="-0.42782">
        <ele>229</ele>
        <time>2019-06-08T14:20:57Z</time>
      </trkpt>
      <trkpt lat="48.92303" lon="-0.42773">
        <ele>229</ele>
        <time>2019-06-08T14:20:59Z</time>
      </trkpt>
      <trkpt lat="48.92299" lon="-0.42763">
        <ele>229</ele>
        <time>2019-06-08T14:21:01Z</time>
      </trkpt>
      <trkpt lat="48.92294" lon="-0.42753">
        <ele>229</ele>
        <time>2019-06-08T14:21:03Z</time>
      </trkpt>
      <trkpt lat="48.92289" lon="-0.42744">
        <ele>231</ele>
        <time>2019-06-08T14:21:05Z</time>
      </trkpt>
      <trkpt lat="48.92285" lon="-0.42734">
        <ele>231</ele>
        <time>2019-06-08T14:21:07Z</time>
      </trkpt>
      <trkpt lat="48.9228" lon="-0.42724">
        <ele>231</ele>
        <time>2019-06-08T14:21:09Z</time>
      </trkpt>
      <trkpt lat="48.92275" lon="-0.42715">
        <ele>232</ele>
        <time>2019-06-08T14:21:11Z</time>
      </trkpt>
      <trkpt lat="48.92271" lon="-0.42706">
        <ele>232</ele>
        <time>2019-06-08T14:21:13Z</time>
      </trkpt>
      <trkpt lat="48.92266" lon="-0.42697">
        <ele>232</ele>
        <time>2019-06-08T14:21:15Z</time>
      </trkpt>
      <trkpt lat="48.92261" lon="-0.42689">
        <ele>232</ele>
        <time>2019-06-08T14:21:17Z</time>
      </trkpt>
      <trkpt lat="48.92256" lon="-0.42682">
        <ele>232</ele>
        <time>2019-06-08T14:21:19Z</time>
      </trkpt>
      <trkpt lat="48.92251" lon="-0.42676">
        <ele>232</ele>
        <time>2019-06-08T14:21:21Z</time>
      </trkpt>
      <trkpt lat="48.92247" lon="-0.42671">
        <ele>232</ele>
        <time>2019-06-08T14:21:23Z</time>
      </trkpt>
      <trkpt lat="48.92241" lon="-0.42664">
        <ele>232</ele>
        <time>2019-06-08T14:21:27Z</time>
      </trkpt>
      <trkpt lat="48.9224" lon="-0.42655">
        <ele>232</ele>
        <time>2019-06-08T14:22:05Z</time>
      </trkpt>
      <trkpt lat="48.92246" lon="-0.42651">
        <ele>233</ele>
        <time>2019-06-08T14:22:09Z</time>
      </trkpt>
      <trkpt lat="48.92252" lon="-0.42646">
        <ele>234</ele>
        <time>2019-06-08T14:22:13Z</time>
      </trkpt>
      <trkpt lat="48.92259" lon="-0.4264">
        <ele>235</ele>
        <time>2019-06-08T14:22:17Z</time>
      </trkpt>
      <trkpt lat="48.92263" lon="-0.42637">
        <ele>235</ele>
        <time>2019-06-08T14:22:19Z</time>
      </trkpt>
      <trkpt lat="48.9227" lon="-0.42631">
        <ele>236</ele>
        <time>2019-06-08T14:22:23Z</time>
      </trkpt>
      <trkpt lat="48.92276" lon="-0.42622">
        <ele>236</ele>
        <time>2019-06-08T14:22:27Z</time>
      </trkpt>
      <trkpt lat="48.92279" lon="-0.42616">
        <ele>236</ele>
        <time>2019-06-08T14:22:29Z</time>
      </trkpt>
      <trkpt lat="48.92281" lon="-0.4261">
        <ele>236</ele>
        <time>2019-06-08T14:22:31Z</time>
      </trkpt>
      <trkpt lat="48.92288" lon="-0.42602">
        <ele>237</ele>
        <time>2019-06-08T14:22:35Z</time>
      </trkpt>
      <trkpt lat="48.92293" lon="-0.42593">
        <ele>237</ele>
        <time>2019-06-08T14:22:39Z</time>
      </trkpt>
      <trkpt lat="48.92297" lon="-0.42586">
        <ele>237</ele>
        <time>2019-06-08T14:22:43Z</time>
      </trkpt>
      <trkpt lat="48.92302" lon="-0.42578">
        <ele>241</ele>
        <time>2019-06-08T14:22:47Z</time>
      </trkpt>
      <trkpt lat="48.92306" lon="-0.4257">
        <ele>241</ele>
        <time>2019-06-08T14:22:51Z</time>
      </trkpt>
      <trkpt lat="48.9231" lon="-0.42563">
        <ele>241</ele>
        <time>2019-06-08T14:22:55Z</time>
      </trkpt>
      <trkpt lat="48.92315" lon="-0.42555">
        <ele>241</ele>
        <time>2019-06-08T14:22:59Z</time>
      </trkpt>
      <trkpt lat="48.92318" lon="-0.42548">
        <ele>242</ele>
        <time>2019-06-08T14:23:03Z</time>
      </trkpt>
      <trkpt lat="48.92321" lon="-0.42543">
        <ele>242</ele>
        <time>2019-06-08T14:23:07Z</time>
      </trkpt>
      <trkpt lat="48.92325" lon="-0.42536">
        <ele>242</ele>
        <time>2019-06-08T14:23:13Z</time>
      </trkpt>
      <trkpt lat="48.92325" lon="-0.42527">
        <ele>243</ele>
        <time>2019-06-08T14:23:41Z</time>
      </trkpt>
      <trkpt lat="48.92321" lon="-0.42518">
        <ele>244</ele>
        <time>2019-06-08T14:23:45Z</time>
      </trkpt>
      <trkpt lat="48.92317" lon="-0.42514">
        <ele>244</ele>
        <time>2019-06-08T14:23:47Z</time>
      </trkpt>
      <trkpt lat="48.92311" lon="-0.42502">
        <ele>244</ele>
        <time>2019-06-08T14:23:51Z</time>
      </trkpt>
      <trkpt lat="48.92307" lon="-0.42496">
        <ele>247</ele>
        <time>2019-06-08T14:23:53Z</time>
      </trkpt>
      <trkpt lat="48.92303" lon="-0.42489">
        <ele>247</ele>
        <time>2019-06-08T14:23:55Z</time>
      </trkpt>
      <trkpt lat="48.92299" lon="-0.42481">
        <ele>247</ele>
        <time>2019-06-08T14:23:57Z</time>
      </trkpt>
      <trkpt lat="48.92294" lon="-0.42476">
        <ele>246</ele>
        <time>2019-06-08T14:23:59Z</time>
      </trkpt>
      <trkpt lat="48.92288" lon="-0.42471">
        <ele>246</ele>
        <time>2019-06-08T14:24:01Z</time>
      </trkpt>
      <trkpt lat="48.92283" lon="-0.42466">
        <ele>246</ele>
        <time>2019-06-08T14:24:03Z</time>
      </trkpt>
      <trkpt lat="48.92277" lon="-0.42461">
        <ele>246</ele>
        <time>2019-06-08T14:24:05Z</time>
      </trkpt>
      <trkpt lat="48.92273" lon="-0.42457">
        <ele>247</ele>
        <time>2019-06-08T14:24:07Z</time>
      </trkpt>
      <trkpt lat="48.92268" lon="-0.42454">
        <ele>247</ele>
        <time>2019-06-08T14:24:09Z</time>
      </trkpt>
      <trkpt lat="48.92263" lon="-0.42451">
        <ele>247</ele>
        <time>2019-06-08T14:24:11Z</time>
      </trkpt>
      <trkpt lat="48.92258" lon="-0.42448">
        <ele>247</ele>
        <time>2019-06-08T14:24:13Z</time>
      </trkpt>
      <trkpt lat="48.92253" lon="-0.42443">
        <ele>247</ele>
        <time>2019-06-08T14:24:17Z</time>
      </trkpt>
      <trkpt lat="48.92248" lon="-0.42438">
        <ele>245</ele>
        <time>2019-06-08T14:24:39Z</time>
      </trkpt>
      <trkpt lat="48.92244" lon="-0.42433">
        <ele>246</ele>
        <time>2019-06-08T14:24:41Z</time>
      </trkpt>
      <trkpt lat="48.92239" lon="-0.42428">
        <ele>246</ele>
        <time>2019-06-08T14:24:43Z</time>
      </trkpt>
      <trkpt lat="48.92236" lon="-0.42423">
        <ele>246</ele>
        <time>2019-06-08T14:24:45Z</time>
      </trkpt>
      <trkpt lat="48.92231" lon="-0.42417">
        <ele>246</ele>
        <time>2019-06-08T14:24:47Z</time>
      </trkpt>
      <trkpt lat="48.92226" lon="-0.42411">
        <ele>249</ele>
        <time>2019-06-08T14:24:49Z</time>
      </trkpt>
      <trkpt lat="48.92222" lon="-0.42405">
        <ele>249</ele>
        <time>2019-06-08T14:24:51Z</time>
      </trkpt>
      <trkpt lat="48.92218" lon="-0.424">
        <ele>249</ele>
        <time>2019-06-08T14:24:53Z</time>
      </trkpt>
      <trkpt lat="48.92213" lon="-0.42394">
        <ele>249</ele>
        <time>2019-06-08T14:24:55Z</time>
      </trkpt>
      <trkpt lat="48.9221" lon="-0.42388">
        <ele>249</ele>
        <time>2019-06-08T14:24:57Z</time>
      </trkpt>
      <trkpt lat="48.92207" lon="-0.42381">
        <ele>249</ele>
        <time>2019-06-08T14:24:59Z</time>
      </trkpt>
      <trkpt lat="48.92203" lon="-0.42375">
        <ele>250</ele>
        <time>2019-06-08T14:25:01Z</time>
      </trkpt>
      <trkpt lat="48.92201" lon="-0.4237">
        <ele>250</ele>
        <time>2019-06-08T14:25:03Z</time>
      </trkpt>
      <trkpt lat="48.92197" lon="-0.42363">
        <ele>250</ele>
        <time>2019-06-08T14:25:05Z</time>
      </trkpt>
      <trkpt lat="48.92193" lon="-0.42359">
        <ele>250</ele>
        <time>2019-06-08T14:25:07Z</time>
      </trkpt>
      <trkpt lat="48.92189" lon="-0.42355">
        <ele>250</ele>
        <time>2019-06-08T14:25:09Z</time>
      </trkpt>
      <trkpt lat="48.92183" lon="-0.42354">
        <ele>250</ele>
        <time>2019-06-08T14:25:11Z</time>
      </trkpt>
      <trkpt lat="48.92178" lon="-0.42351">
        <ele>250</ele>
        <time>2019-06-08T14:25:13Z</time>
      </trkpt>
      <trkpt lat="48.92174" lon="-0.42347">
        <ele>250</ele>
        <time>2019-06-08T14:25:15Z</time>
      </trkpt>
      <trkpt lat="48.92171" lon="-0.42342">
        <ele>251</ele>
        <time>2019-06-08T14:25:21Z</time>
      </trkpt>
      <trkpt lat="48.92166" lon="-0.42336">
        <ele>251</ele>
        <time>2019-06-08T14:27:43Z</time>
      </trkpt>
      <trkpt lat="48.92164" lon="-0.42325">
        <ele>252</ele>
        <time>2019-06-08T14:27:47Z</time>
      </trkpt>
      <trkpt lat="48.92162" lon="-0.42313">
        <ele>254</ele>
        <time>2019-06-08T14:27:51Z</time>
      </trkpt>
      <trkpt lat="48.9216" lon="-0.42302">
        <ele>254</ele>
        <time>2019-06-08T14:27:55Z</time>
      </trkpt>
      <trkpt lat="48.92159" lon="-0.42291">
        <ele>255</ele>
        <time>2019-06-08T14:27:59Z</time>
      </trkpt>
      <trkpt lat="48.92157" lon="-0.42277">
        <ele>256</ele>
        <time>2019-06-08T14:28:03Z</time>
      </trkpt>
      <trkpt lat="48.92156" lon="-0.42265">
        <ele>257</ele>
        <time>2019-06-08T14:28:07Z</time>
      </trkpt>
      <trkpt lat="48.92154" lon="-0.42254">
        <ele>257</ele>
        <time>2019-06-08T14:28:11Z</time>
      </trkpt>
      <trkpt lat="48.92152" lon="-0.42243">
        <ele>260</ele>
        <time>2019-06-08T14:28:15Z</time>
      </trkpt>
      <trkpt lat="48.9215" lon="-0.42231">
        <ele>261</ele>
        <time>2019-06-08T14:28:19Z</time>
      </trkpt>
      <trkpt lat="48.92149" lon="-0.42219">
        <ele>262</ele>
        <time>2019-06-08T14:28:23Z</time>
      </trkpt>
      <trkpt lat="48.92148" lon="-0.42209">
        <ele>262</ele>
        <time>2019-06-08T14:28:27Z</time>
      </trkpt>
      <trkpt lat="48.92149" lon="-0.42198">
        <ele>263</ele>
        <time>2019-06-08T14:28:31Z</time>
      </trkpt>
      <trkpt lat="48.9215" lon="-0.42187">
        <ele>263</ele>
        <time>2019-06-08T14:28:35Z</time>
      </trkpt>
      <trkpt lat="48.9215" lon="-0.42176">
        <ele>263</ele>
        <time>2019-06-08T14:28:39Z</time>
      </trkpt>
      <trkpt lat="48.92151" lon="-0.42166">
        <ele>266</ele>
        <time>2019-06-08T14:28:43Z</time>
      </trkpt>
      <trkpt lat="48.92151" lon="-0.42156">
        <ele>267</ele>
        <time>2019-06-08T14:28:47Z</time>
      </trkpt>
      <trkpt lat="48.92152" lon="-0.42146">
        <ele>267</ele>
        <time>2019-06-08T14:28:51Z</time>
      </trkpt>
      <trkpt lat="48.92154" lon="-0.42137">
        <ele>268</ele>
        <time>2019-06-08T14:28:55Z</time>
      </trkpt>
      <trkpt lat="48.92155" lon="-0.42128">
        <ele>269</ele>
        <time>2019-06-08T14:28:59Z</time>
      </trkpt>
      <trkpt lat="48.92155" lon="-0.42119">
        <ele>269</ele>
        <time>2019-06-08T14:29:03Z</time>
      </trkpt>
      <trkpt lat="48.92155" lon="-0.4211">
        <ele>270</ele>
        <time>2019-06-08T14:29:07Z</time>
      </trkpt>
      <trkpt lat="48.92156" lon="-0.42102">
        <ele>270</ele>
        <time>2019-06-08T14:29:11Z</time>
      </trkpt>
      <trkpt lat="48.92156" lon="-0.42092">
        <ele>271</ele>
        <time>2019-06-08T14:29:15Z</time>
      </trkpt>
      <trkpt lat="48.92156" lon="-0.42083">
        <ele>273</ele>
        <time>2019-06-08T14:29:19Z</time>
      </trkpt>
      <trkpt lat="48.92157" lon="-0.42075">
        <ele>273</ele>
        <time>2019-06-08T14:29:23Z</time>
      </trkpt>
      <trkpt lat="48.92157" lon="-0.42067">
        <ele>274</ele>
        <time>2019-06-08T14:29:27Z</time>
      </trkpt>
      <trkpt lat="48.92157" lon="-0.42057">
        <ele>274</ele>
        <time>2019-06-08T14:29:31Z</time>
      </trkpt>
      <trkpt lat="48.92157" lon="-0.42049">
        <ele>275</ele>
        <time>2019-06-08T14:29:35Z</time>
      </trkpt>
      <trkpt lat="48.92157" lon="-0.42041">
        <ele>275</ele>
        <time>2019-06-08T14:29:39Z</time>
      </trkpt>
      <trkpt lat="48.92157" lon="-0.42033">
        <ele>275</ele>
        <time>2019-06-08T14:29:43Z</time>
      </trkpt>
      <trkpt lat="48.92156" lon="-0.42026">
        <ele>275</ele>
        <time>2019-06-08T14:29:47Z</time>
      </trkpt>
      <trkpt lat="48.92155" lon="-0.42017">
        <ele>276</ele>
        <time>2019-06-08T14:29:51Z</time>
      </trkpt>
      <trkpt lat="48.92157" lon="-0.42008">
        <ele>276</ele>
        <time>2019-06-08T14:29:55Z</time>
      </trkpt>
      <trkpt lat="48.92157" lon="-0.41998">
        <ele>278</ele>
        <time>2019-06-08T14:29:59Z</time>
      </trkpt>
      <trkpt lat="48.92157" lon="-0.41989">
        <ele>278</ele>
        <time>2019-06-08T14:30:03Z</time>
      </trkpt>
      <trkpt lat="48.92157" lon="-0.4198">
        <ele>279</ele>
        <time>2019-06-08T14:30:07Z</time>
      </trkpt>
      <trkpt lat="48.92157" lon="-0.4197">
        <ele>279</ele>
        <time>2019-06-08T14:30:11Z</time>
      </trkpt>
      <trkpt lat="48.92158" lon="-0.41961">
        <ele>279</ele>
        <time>2019-06-08T14:30:15Z</time>
      </trkpt>
      <trkpt lat="48.92158" lon="-0.41951">
        <ele>280</ele>
        <time>2019-06-08T14:30:19Z</time>
      </trkpt>
      <trkpt lat="48.92159" lon="-0.4194">
        <ele>280</ele>
        <time>2019-06-08T14:30:23Z</time>
      </trkpt>
      <trkpt lat="48.92159" lon="-0.41929">
        <ele>280</ele>
        <time>2019-06-08T14:30:27Z</time>
      </trkpt>
      <trkpt lat="48.92159" lon="-0.41916">
        <ele>282</ele>
        <time>2019-06-08T14:30:31Z</time>
      </trkpt>
      <trkpt lat="48.92159" lon="-0.41903">
        <ele>282</ele>
        <time>2019-06-08T14:30:35Z</time>
      </trkpt>
      <trkpt lat="48.92159" lon="-0.4189">
        <ele>283</ele>
        <time>2019-06-08T14:30:39Z</time>
      </trkpt>
      <trkpt lat="48.92158" lon="-0.41883">
        <ele>283</ele>
        <time>2019-06-08T14:30:41Z</time>
      </trkpt>
      <trkpt lat="48.92157" lon="-0.41875">
        <ele>283</ele>
        <time>2019-06-08T14:30:43Z</time>
      </trkpt>
      <trkpt lat="48.92158" lon="-0.41867">
        <ele>283</ele>
        <time>2019-06-08T14:30:45Z</time>
      </trkpt>
      <trkpt lat="48.92156" lon="-0.4186">
        <ele>284</ele>
        <time>2019-06-08T14:30:47Z</time>
      </trkpt>
      <trkpt lat="48.92155" lon="-0.41847">
        <ele>284</ele>
        <time>2019-06-08T14:30:51Z</time>
      </trkpt>
      <trkpt lat="48.92155" lon="-0.41835">
        <ele>284</ele>
        <time>2019-06-08T14:30:55Z</time>
      </trkpt>
      <trkpt lat="48.92154" lon="-0.41828">
        <ele>286</ele>
        <time>2019-06-08T14:30:57Z</time>
      </trkpt>
      <trkpt lat="48.92152" lon="-0.41816">
        <ele>286</ele>
        <time>2019-06-08T14:31:01Z</time>
      </trkpt>
      <trkpt lat="48.92151" lon="-0.41803">
        <ele>287</ele>
        <time>2019-06-08T14:31:05Z</time>
      </trkpt>
      <trkpt lat="48.92149" lon="-0.4179">
        <ele>287</ele>
        <time>2019-06-08T14:31:09Z</time>
      </trkpt>
      <trkpt lat="48.92149" lon="-0.41783">
        <ele>287</ele>
        <time>2019-06-08T14:31:11Z</time>
      </trkpt>
      <trkpt lat="48.92149" lon="-0.4177">
        <ele>288</ele>
        <time>2019-06-08T14:31:15Z</time>
      </trkpt>
      <trkpt lat="48.92148" lon="-0.41763">
        <ele>288</ele>
        <time>2019-06-08T14:31:17Z</time>
      </trkpt>
      <trkpt lat="48.92148" lon="-0.41756">
        <ele>288</ele>
        <time>2019-06-08T14:31:19Z</time>
      </trkpt>
      <trkpt lat="48.92148" lon="-0.41748">
        <ele>290</ele>
        <time>2019-06-08T14:31:21Z</time>
      </trkpt>
      <trkpt lat="48.92147" lon="-0.41741">
        <ele>290</ele>
        <time>2019-06-08T14:31:23Z</time>
      </trkpt>
      <trkpt lat="48.92146" lon="-0.41734">
        <ele>290</ele>
        <time>2019-06-08T14:31:25Z</time>
      </trkpt>
      <trkpt lat="48.92146" lon="-0.41727">
        <ele>290</ele>
        <time>2019-06-08T14:31:27Z</time>
      </trkpt>
      <trkpt lat="48.92145" lon="-0.4172">
        <ele>290</ele>
        <time>2019-06-08T14:31:29Z</time>
      </trkpt>
      <trkpt lat="48.92144" lon="-0.41712">
        <ele>290</ele>
        <time>2019-06-08T14:31:31Z</time>
      </trkpt>
      <trkpt lat="48.92143" lon="-0.41705">
        <ele>290</ele>
        <time>2019-06-08T14:31:33Z</time>
      </trkpt>
      <trkpt lat="48.92143" lon="-0.41698">
        <ele>291</ele>
        <time>2019-06-08T14:31:35Z</time>
      </trkpt>
      <trkpt lat="48.92143" lon="-0.4169">
        <ele>291</ele>
        <time>2019-06-08T14:31:37Z</time>
      </trkpt>
      <trkpt lat="48.92143" lon="-0.41681">
        <ele>291</ele>
        <time>2019-06-08T14:31:39Z</time>
      </trkpt>
      <trkpt lat="48.92143" lon="-0.41673">
        <ele>291</ele>
        <time>2019-06-08T14:31:41Z</time>
      </trkpt>
      <trkpt lat="48.92142" lon="-0.41665">
        <ele>292</ele>
        <time>2019-06-08T14:31:43Z</time>
      </trkpt>
      <trkpt lat="48.92141" lon="-0.41658">
        <ele>292</ele>
        <time>2019-06-08T14:31:45Z</time>
      </trkpt>
      <trkpt lat="48.92139" lon="-0.41651">
        <ele>292</ele>
        <time>2019-06-08T14:31:47Z</time>
      </trkpt>
      <trkpt lat="48.92138" lon="-0.41643">
        <ele>292</ele>
        <time>2019-06-08T14:31:49Z</time>
      </trkpt>
      <trkpt lat="48.92138" lon="-0.41636">
        <ele>292</ele>
        <time>2019-06-08T14:31:51Z</time>
      </trkpt>
      <trkpt lat="48.92138" lon="-0.41629">
        <ele>292</ele>
        <time>2019-06-08T14:31:53Z</time>
      </trkpt>
      <trkpt lat="48.92137" lon="-0.41621">
        <ele>293</ele>
        <time>2019-06-08T14:31:55Z</time>
      </trkpt>
      <trkpt lat="48.92136" lon="-0.41614">
        <ele>293</ele>
        <time>2019-06-08T14:31:57Z</time>
      </trkpt>
      <trkpt lat="48.92136" lon="-0.41607">
        <ele>293</ele>
        <time>2019-06-08T14:31:59Z</time>
      </trkpt>
      <trkpt lat="48.92135" lon="-0.41599">
        <ele>293</ele>
        <time>2019-06-08T14:32:01Z</time>
      </trkpt>
      <trkpt lat="48.92134" lon="-0.41591">
        <ele>293</ele>
        <time>2019-06-08T14:32:03Z</time>
      </trkpt>
      <trkpt lat="48.92134" lon="-0.41583">
        <ele>294</ele>
        <time>2019-06-08T14:32:05Z</time>
      </trkpt>
      <trkpt lat="48.92133" lon="-0.41576">
        <ele>294</ele>
        <time>2019-06-08T14:32:07Z</time>
      </trkpt>
      <trkpt lat="48.92132" lon="-0.41567">
        <ele>294</ele>
        <time>2019-06-08T14:32:09Z</time>
      </trkpt>
      <trkpt lat="48.92131" lon="-0.41558">
        <ele>294</ele>
        <time>2019-06-08T14:32:11Z</time>
      </trkpt>
      <trkpt lat="48.9213" lon="-0.41549">
        <ele>294</ele>
        <time>2019-06-08T14:32:13Z</time>
      </trkpt>
      <trkpt lat="48.92129" lon="-0.4154">
        <ele>294</ele>
        <time>2019-06-08T14:32:15Z</time>
      </trkpt>
      <trkpt lat="48.92129" lon="-0.41531">
        <ele>294</ele>
        <time>2019-06-08T14:32:17Z</time>
      </trkpt>
      <trkpt lat="48.92129" lon="-0.41523">
        <ele>294</ele>
        <time>2019-06-08T14:32:19Z</time>
      </trkpt>
      <trkpt lat="48.92129" lon="-0.41515">
        <ele>294</ele>
        <time>2019-06-08T14:32:21Z</time>
      </trkpt>
      <trkpt lat="48.92128" lon="-0.41506">
        <ele>294</ele>
        <time>2019-06-08T14:32:23Z</time>
      </trkpt>
      <trkpt lat="48.92127" lon="-0.41497">
        <ele>295</ele>
        <time>2019-06-08T14:32:25Z</time>
      </trkpt>
      <trkpt lat="48.9213" lon="-0.41487">
        <ele>295</ele>
        <time>2019-06-08T14:32:27Z</time>
      </trkpt>
      <trkpt lat="48.9213" lon="-0.41478">
        <ele>295</ele>
        <time>2019-06-08T14:32:29Z</time>
      </trkpt>
      <trkpt lat="48.9213" lon="-0.41469">
        <ele>295</ele>
        <time>2019-06-08T14:32:31Z</time>
      </trkpt>
      <trkpt lat="48.92129" lon="-0.41457">
        <ele>295</ele>
        <time>2019-06-08T14:32:33Z</time>
      </trkpt>
      <trkpt lat="48.92128" lon="-0.41445">
        <ele>295</ele>
        <time>2019-06-08T14:32:35Z</time>
      </trkpt>
      <trkpt lat="48.92127" lon="-0.41431">
        <ele>295</ele>
        <time>2019-06-08T14:32:37Z</time>
      </trkpt>
      <trkpt lat="48.92127" lon="-0.41418">
        <ele>296</ele>
        <time>2019-06-08T14:32:39Z</time>
      </trkpt>
      <trkpt lat="48.92127" lon="-0.41405">
        <ele>297</ele>
        <time>2019-06-08T14:32:41Z</time>
      </trkpt>
      <trkpt lat="48.92126" lon="-0.41391">
        <ele>297</ele>
        <time>2019-06-08T14:32:43Z</time>
      </trkpt>
      <trkpt lat="48.92126" lon="-0.41378">
        <ele>297</ele>
        <time>2019-06-08T14:32:45Z</time>
      </trkpt>
      <trkpt lat="48.92126" lon="-0.41364">
        <ele>297</ele>
        <time>2019-06-08T14:32:47Z</time>
      </trkpt>
      <trkpt lat="48.92125" lon="-0.41353">
        <ele>298</ele>
        <time>2019-06-08T14:32:49Z</time>
      </trkpt>
      <trkpt lat="48.92126" lon="-0.41339">
        <ele>298</ele>
        <time>2019-06-08T14:32:51Z</time>
      </trkpt>
      <trkpt lat="48.92125" lon="-0.41326">
        <ele>299</ele>
        <time>2019-06-08T14:32:53Z</time>
      </trkpt>
      <trkpt lat="48.92125" lon="-0.41315">
        <ele>300</ele>
        <time>2019-06-08T14:32:55Z</time>
      </trkpt>
      <trkpt lat="48.92124" lon="-0.41303">
        <ele>300</ele>
        <time>2019-06-08T14:32:57Z</time>
      </trkpt>
      <trkpt lat="48.92124" lon="-0.41293">
        <ele>300</ele>
        <time>2019-06-08T14:32:59Z</time>
      </trkpt>
      <trkpt lat="48.92123" lon="-0.41282">
        <ele>300</ele>
        <time>2019-06-08T14:33:01Z</time>
      </trkpt>
      <trkpt lat="48.92121" lon="-0.41272">
        <ele>300</ele>
        <time>2019-06-08T14:33:03Z</time>
      </trkpt>
      <trkpt lat="48.9212" lon="-0.41262">
        <ele>300</ele>
        <time>2019-06-08T14:33:05Z</time>
      </trkpt>
      <trkpt lat="48.92118" lon="-0.41252">
        <ele>300</ele>
        <time>2019-06-08T14:33:07Z</time>
      </trkpt>
      <trkpt lat="48.92116" lon="-0.41242">
        <ele>301</ele>
        <time>2019-06-08T14:33:09Z</time>
      </trkpt>
      <trkpt lat="48.92114" lon="-0.41232">
        <ele>301</ele>
        <time>2019-06-08T14:33:11Z</time>
      </trkpt>
      <trkpt lat="48.92111" lon="-0.41222">
        <ele>301</ele>
        <time>2019-06-08T14:33:13Z</time>
      </trkpt>
      <trkpt lat="48.92108" lon="-0.41212">
        <ele>301</ele>
        <time>2019-06-08T14:33:15Z</time>
      </trkpt>
      <trkpt lat="48.92104" lon="-0.41203">
        <ele>301</ele>
        <time>2019-06-08T14:33:17Z</time>
      </trkpt>
      <trkpt lat="48.921" lon="-0.41191">
        <ele>301</ele>
        <time>2019-06-08T14:33:19Z</time>
      </trkpt>
      <trkpt lat="48.92097" lon="-0.41179">
        <ele>301</ele>
        <time>2019-06-08T14:33:21Z</time>
      </trkpt>
      <trkpt lat="48.92092" lon="-0.41168">
        <ele>301</ele>
        <time>2019-06-08T14:33:23Z</time>
      </trkpt>
      <trkpt lat="48.92089" lon="-0.41155">
        <ele>301</ele>
        <time>2019-06-08T14:33:25Z</time>
      </trkpt>
      <trkpt lat="48.92086" lon="-0.41141">
        <ele>301</ele>
        <time>2019-06-08T14:33:27Z</time>
      </trkpt>
      <trkpt lat="48.92081" lon="-0.41127">
        <ele>297</ele>
        <time>2019-06-08T14:33:29Z</time>
      </trkpt>
      <trkpt lat="48.92078" lon="-0.41115">
        <ele>297</ele>
        <time>2019-06-08T14:33:31Z</time>
      </trkpt>
      <trkpt lat="48.92074" lon="-0.41102">
        <ele>297</ele>
        <time>2019-06-08T14:33:33Z</time>
      </trkpt>
      <trkpt lat="48.92071" lon="-0.41088">
        <ele>298</ele>
        <time>2019-06-08T14:33:35Z</time>
      </trkpt>
      <trkpt lat="48.92068" lon="-0.41076">
        <ele>297</ele>
        <time>2019-06-08T14:33:37Z</time>
      </trkpt>
      <trkpt lat="48.92065" lon="-0.41064">
        <ele>297</ele>
        <time>2019-06-08T14:33:39Z</time>
      </trkpt>
      <trkpt lat="48.92063" lon="-0.41055">
        <ele>296</ele>
        <time>2019-06-08T14:33:41Z</time>
      </trkpt>
      <trkpt lat="48.92061" lon="-0.41045">
        <ele>296</ele>
        <time>2019-06-08T14:33:45Z</time>
      </trkpt>
      <trkpt lat="48.92059" lon="-0.41037">
        <ele>296</ele>
        <time>2019-06-08T14:33:51Z</time>
      </trkpt>
      <trkpt lat="48.92058" lon="-0.41028">
        <ele>296</ele>
        <time>2019-06-08T14:38:03Z</time>
      </trkpt>
      <trkpt lat="48.92063" lon="-0.41021">
        <ele>296</ele>
        <time>2019-06-08T14:38:07Z</time>
      </trkpt>
      <trkpt lat="48.9207" lon="-0.41016">
        <ele>297</ele>
        <time>2019-06-08T14:38:11Z</time>
      </trkpt>
      <trkpt lat="48.92077" lon="-0.41011">
        <ele>298</ele>
        <time>2019-06-08T14:38:15Z</time>
      </trkpt>
      <trkpt lat="48.92085" lon="-0.41004">
        <ele>299</ele>
        <time>2019-06-08T14:38:19Z</time>
      </trkpt>
      <trkpt lat="48.9209" lon="-0.41">
        <ele>299</ele>
        <time>2019-06-08T14:38:21Z</time>
      </trkpt>
      <trkpt lat="48.92096" lon="-0.40998">
        <ele>299</ele>
        <time>2019-06-08T14:38:23Z</time>
      </trkpt>
      <trkpt lat="48.921" lon="-0.40993">
        <ele>299</ele>
        <time>2019-06-08T14:38:25Z</time>
      </trkpt>
      <trkpt lat="48.92105" lon="-0.4099">
        <ele>299</ele>
        <time>2019-06-08T14:38:27Z</time>
      </trkpt>
      <trkpt lat="48.9211" lon="-0.40987">
        <ele>299</ele>
        <time>2019-06-08T14:38:29Z</time>
      </trkpt>
      <trkpt lat="48.92115" lon="-0.40983">
        <ele>299</ele>
        <time>2019-06-08T14:38:33Z</time>
      </trkpt>
      <trkpt lat="48.92119" lon="-0.40979">
        <ele>299</ele>
        <time>2019-06-08T14:38:39Z</time>
      </trkpt>
      <trkpt lat="48.92124" lon="-0.40981">
        <ele>299</ele>
        <time>2019-06-08T14:39:55Z</time>
      </trkpt>
      <trkpt lat="48.92127" lon="-0.40989">
        <ele>299</ele>
        <time>2019-06-08T14:39:59Z</time>
      </trkpt>
      <trkpt lat="48.9213" lon="-0.40999">
        <ele>299</ele>
        <time>2019-06-08T14:40:03Z</time>
      </trkpt>
      <trkpt lat="48.92133" lon="-0.41006">
        <ele>300</ele>
        <time>2019-06-08T14:40:07Z</time>
      </trkpt>
      <trkpt lat="48.92136" lon="-0.41013">
        <ele>300</ele>
        <time>2019-06-08T14:40:11Z</time>
      </trkpt>
      <trkpt lat="48.92134" lon="-0.41002">
        <ele>300</ele>
        <time>2019-06-08T14:40:37Z</time>
      </trkpt>
      <trkpt lat="48.92129" lon="-0.40993">
        <ele>299</ele>
        <time>2019-06-08T14:40:41Z</time>
      </trkpt>
      <trkpt lat="48.92124" lon="-0.40988">
        <ele>299</ele>
        <time>2019-06-08T14:40:45Z</time>
      </trkpt>
      <trkpt lat="48.92123" lon="-0.40981">
        <ele>299</ele>
        <time>2019-06-08T14:41:01Z</time>
      </trkpt>
      <trkpt lat="48.92126" lon="-0.40974">
        <ele>299</ele>
        <time>2019-06-08T14:41:05Z</time>
      </trkpt>
      <trkpt lat="48.9213" lon="-0.4097">
        <ele>299</ele>
        <time>2019-06-08T14:41:09Z</time>
      </trkpt>
      <trkpt lat="48.92136" lon="-0.40962">
        <ele>299</ele>
        <time>2019-06-08T14:41:13Z</time>
      </trkpt>
      <trkpt lat="48.92143" lon="-0.40954">
        <ele>299</ele>
        <time>2019-06-08T14:41:17Z</time>
      </trkpt>
      <trkpt lat="48.9215" lon="-0.40945">
        <ele>299</ele>
        <time>2019-06-08T14:41:21Z</time>
      </trkpt>
      <trkpt lat="48.92153" lon="-0.4094">
        <ele>299</ele>
        <time>2019-06-08T14:41:23Z</time>
      </trkpt>
      <trkpt lat="48.92158" lon="-0.40934">
        <ele>299</ele>
        <time>2019-06-08T14:41:25Z</time>
      </trkpt>
      <trkpt lat="48.92162" lon="-0.40926">
        <ele>299</ele>
        <time>2019-06-08T14:41:27Z</time>
      </trkpt>
      <trkpt lat="48.92165" lon="-0.4092">
        <ele>299</ele>
        <time>2019-06-08T14:41:29Z</time>
      </trkpt>
      <trkpt lat="48.9217" lon="-0.40911">
        <ele>298</ele>
        <time>2019-06-08T14:41:31Z</time>
      </trkpt>
      <trkpt lat="48.92175" lon="-0.40903">
        <ele>297</ele>
        <time>2019-06-08T14:41:33Z</time>
      </trkpt>
      <trkpt lat="48.92179" lon="-0.40896">
        <ele>296</ele>
        <time>2019-06-08T14:41:35Z</time>
      </trkpt>
      <trkpt lat="48.92185" lon="-0.40887">
        <ele>296</ele>
        <time>2019-06-08T14:41:39Z</time>
      </trkpt>
      <trkpt lat="48.92188" lon="-0.40881">
        <ele>295</ele>
        <time>2019-06-08T14:41:41Z</time>
      </trkpt>
      <trkpt lat="48.92194" lon="-0.40869">
        <ele>295</ele>
        <time>2019-06-08T14:41:45Z</time>
      </trkpt>
      <trkpt lat="48.92198" lon="-0.4086">
        <ele>294</ele>
        <time>2019-06-08T14:41:49Z</time>
      </trkpt>
      <trkpt lat="48.92204" lon="-0.40852">
        <ele>294</ele>
        <time>2019-06-08T14:41:53Z</time>
      </trkpt>
      <trkpt lat="48.92208" lon="-0.40847">
        <ele>294</ele>
        <time>2019-06-08T14:41:55Z</time>
      </trkpt>
      <trkpt lat="48.92211" lon="-0.40841">
        <ele>294</ele>
        <time>2019-06-08T14:41:57Z</time>
      </trkpt>
      <trkpt lat="48.92215" lon="-0.40832">
        <ele>291</ele>
        <time>2019-06-08T14:42:01Z</time>
      </trkpt>
      <trkpt lat="48.92218" lon="-0.40821">
        <ele>291</ele>
        <time>2019-06-08T14:42:05Z</time>
      </trkpt>
      <trkpt lat="48.9222" lon="-0.40814">
        <ele>291</ele>
        <time>2019-06-08T14:42:07Z</time>
      </trkpt>
      <trkpt lat="48.92221" lon="-0.40806">
        <ele>291</ele>
        <time>2019-06-08T14:42:09Z</time>
      </trkpt>
      <trkpt lat="48.92222" lon="-0.40798">
        <ele>290</ele>
        <time>2019-06-08T14:42:11Z</time>
      </trkpt>
      <trkpt lat="48.92224" lon="-0.40791">
        <ele>290</ele>
        <time>2019-06-08T14:42:13Z</time>
      </trkpt>
      <trkpt lat="48.92228" lon="-0.40782">
        <ele>290</ele>
        <time>2019-06-08T14:42:15Z</time>
      </trkpt>
      <trkpt lat="48.92231" lon="-0.40772">
        <ele>289</ele>
        <time>2019-06-08T14:42:17Z</time>
      </trkpt>
      <trkpt lat="48.92235" lon="-0.40762">
        <ele>289</ele>
        <time>2019-06-08T14:42:19Z</time>
      </trkpt>
      <trkpt lat="48.92239" lon="-0.40754">
        <ele>288</ele>
        <time>2019-06-08T14:42:21Z</time>
      </trkpt>
      <trkpt lat="48.9224" lon="-0.40746">
        <ele>287</ele>
        <time>2019-06-08T14:42:23Z</time>
      </trkpt>
      <trkpt lat="48.92243" lon="-0.40739">
        <ele>287</ele>
        <time>2019-06-08T14:42:25Z</time>
      </trkpt>
      <trkpt lat="48.92247" lon="-0.40733">
        <ele>287</ele>
        <time>2019-06-08T14:42:29Z</time>
      </trkpt>
      <trkpt lat="48.9225" lon="-0.40728">
        <ele>283</ele>
        <time>2019-06-08T14:42:35Z</time>
      </trkpt>
      <trkpt lat="48.92259" lon="-0.40726">
        <ele>283</ele>
        <time>2019-06-08T14:43:09Z</time>
      </trkpt>
      <trkpt lat="48.92264" lon="-0.40728">
        <ele>283</ele>
        <time>2019-06-08T14:43:11Z</time>
      </trkpt>
      <trkpt lat="48.9227" lon="-0.40729">
        <ele>282</ele>
        <time>2019-06-08T14:43:13Z</time>
      </trkpt>
      <trkpt lat="48.92276" lon="-0.40731">
        <ele>282</ele>
        <time>2019-06-08T14:43:15Z</time>
      </trkpt>
      <trkpt lat="48.92283" lon="-0.40731">
        <ele>281</ele>
        <time>2019-06-08T14:43:17Z</time>
      </trkpt>
      <trkpt lat="48.92289" lon="-0.40733">
        <ele>281</ele>
        <time>2019-06-08T14:43:19Z</time>
      </trkpt>
      <trkpt lat="48.92296" lon="-0.40735">
        <ele>280</ele>
        <time>2019-06-08T14:43:21Z</time>
      </trkpt>
      <trkpt lat="48.92302" lon="-0.40735">
        <ele>280</ele>
        <time>2019-06-08T14:43:23Z</time>
      </trkpt>
      <trkpt lat="48.92308" lon="-0.40735">
        <ele>279</ele>
        <time>2019-06-08T14:43:25Z</time>
      </trkpt>
      <trkpt lat="48.92315" lon="-0.40737">
        <ele>278</ele>
        <time>2019-06-08T14:43:27Z</time>
      </trkpt>
      <trkpt lat="48.92322" lon="-0.40737">
        <ele>277</ele>
        <time>2019-06-08T14:43:29Z</time>
      </trkpt>
      <trkpt lat="48.92328" lon="-0.40737">
        <ele>276</ele>
        <time>2019-06-08T14:43:31Z</time>
      </trkpt>
      <trkpt lat="48.92335" lon="-0.40736">
        <ele>274</ele>
        <time>2019-06-08T14:43:33Z</time>
      </trkpt>
      <trkpt lat="48.92339" lon="-0.40737">
        <ele>274</ele>
        <time>2019-06-08T14:43:35Z</time>
      </trkpt>
      <trkpt lat="48.92345" lon="-0.40738">
        <ele>274</ele>
        <time>2019-06-08T14:43:39Z</time>
      </trkpt>
      <trkpt lat="48.9235" lon="-0.40738">
        <ele>274</ele>
        <time>2019-06-08T14:43:43Z</time>
      </trkpt>
      <trkpt lat="48.92357" lon="-0.4074">
        <ele>273</ele>
        <time>2019-06-08T14:43:49Z</time>
      </trkpt>
      <trkpt lat="48.92363" lon="-0.40741">
        <ele>273</ele>
        <time>2019-06-08T14:43:53Z</time>
      </trkpt>
      <trkpt lat="48.92371" lon="-0.40741">
        <ele>273</ele>
        <time>2019-06-08T14:43:57Z</time>
      </trkpt>
      <trkpt lat="48.92376" lon="-0.40744">
        <ele>273</ele>
        <time>2019-06-08T14:44:01Z</time>
      </trkpt>
      <trkpt lat="48.92381" lon="-0.40744">
        <ele>273</ele>
        <time>2019-06-08T14:44:07Z</time>
      </trkpt>
      <trkpt lat="48.92388" lon="-0.40744">
        <ele>272</ele>
        <time>2019-06-08T14:44:11Z</time>
      </trkpt>
      <trkpt lat="48.92396" lon="-0.40742">
        <ele>272</ele>
        <time>2019-06-08T14:44:15Z</time>
      </trkpt>
      <trkpt lat="48.92401" lon="-0.40743">
        <ele>271</ele>
        <time>2019-06-08T14:44:17Z</time>
      </trkpt>
      <trkpt lat="48.92408" lon="-0.40745">
        <ele>270</ele>
        <time>2019-06-08T14:44:21Z</time>
      </trkpt>
      <trkpt lat="48.92413" lon="-0.40748">
        <ele>269</ele>
        <time>2019-06-08T14:44:25Z</time>
      </trkpt>
      <trkpt lat="48.92417" lon="-0.40751">
        <ele>268</ele>
        <time>2019-06-08T14:44:29Z</time>
      </trkpt>
      <trkpt lat="48.92423" lon="-0.40759">
        <ele>265</ele>
        <time>2019-06-08T14:44:33Z</time>
      </trkpt>
      <trkpt lat="48.92427" lon="-0.40767">
        <ele>263</ele>
        <time>2019-06-08T14:44:37Z</time>
      </trkpt>
      <trkpt lat="48.9243" lon="-0.40776">
        <ele>262</ele>
        <time>2019-06-08T14:44:41Z</time>
      </trkpt>
      <trkpt lat="48.92436" lon="-0.40783">
        <ele>261</ele>
        <time>2019-06-08T14:44:45Z</time>
      </trkpt>
      <trkpt lat="48.9244" lon="-0.4079">
        <ele>260</ele>
        <time>2019-06-08T14:44:49Z</time>
      </trkpt>
      <trkpt lat="48.92446" lon="-0.40793">
        <ele>260</ele>
        <time>2019-06-08T14:44:53Z</time>
      </trkpt>
      <trkpt lat="48.92452" lon="-0.40796">
        <ele>260</ele>
        <time>2019-06-08T14:44:59Z</time>
      </trkpt>
      <trkpt lat="48.9246" lon="-0.40797">
        <ele>260</ele>
        <time>2019-06-08T14:45:03Z</time>
      </trkpt>
      <trkpt lat="48.92464" lon="-0.40798">
        <ele>259</ele>
        <time>2019-06-08T14:45:07Z</time>
      </trkpt>
      <trkpt lat="48.92469" lon="-0.40801">
        <ele>259</ele>
        <time>2019-06-08T14:45:11Z</time>
      </trkpt>
      <trkpt lat="48.92476" lon="-0.40804">
        <ele>259</ele>
        <time>2019-06-08T14:45:15Z</time>
      </trkpt>
      <trkpt lat="48.92481" lon="-0.40809">
        <ele>258</ele>
        <time>2019-06-08T14:45:19Z</time>
      </trkpt>
      <trkpt lat="48.92484" lon="-0.40813">
        <ele>258</ele>
        <time>2019-06-08T14:45:23Z</time>
      </trkpt>
      <trkpt lat="48.9249" lon="-0.40815">
        <ele>257</ele>
        <time>2019-06-08T14:45:27Z</time>
      </trkpt>
      <trkpt lat="48.92497" lon="-0.40819">
        <ele>256</ele>
        <time>2019-06-08T14:45:31Z</time>
      </trkpt>
      <trkpt lat="48.92504" lon="-0.40819">
        <ele>255</ele>
        <time>2019-06-08T14:45:35Z</time>
      </trkpt>
      <trkpt lat="48.92509" lon="-0.40822">
        <ele>255</ele>
        <time>2019-06-08T14:45:39Z</time>
      </trkpt>
      <trkpt lat="48.92517" lon="-0.40823">
        <ele>255</ele>
        <time>2019-06-08T14:45:43Z</time>
      </trkpt>
      <trkpt lat="48.92523" lon="-0.40826">
        <ele>256</ele>
        <time>2019-06-08T14:45:47Z</time>
      </trkpt>
      <trkpt lat="48.92527" lon="-0.4083">
        <ele>256</ele>
        <time>2019-06-08T14:45:55Z</time>
      </trkpt>
      <trkpt lat="48.92532" lon="-0.4083">
        <ele>256</ele>
        <time>2019-06-08T14:46:25Z</time>
      </trkpt>
      <trkpt lat="48.92539" lon="-0.40828">
        <ele>256</ele>
        <time>2019-06-08T14:46:31Z</time>
      </trkpt>
      <trkpt lat="48.92543" lon="-0.40826">
        <ele>256</ele>
        <time>2019-06-08T14:46:33Z</time>
      </trkpt>
      <trkpt lat="48.92551" lon="-0.40826">
        <ele>256</ele>
        <time>2019-06-08T14:46:37Z</time>
      </trkpt>
      <trkpt lat="48.92559" lon="-0.40828">
        <ele>255</ele>
        <time>2019-06-08T14:46:41Z</time>
      </trkpt>
      <trkpt lat="48.92566" lon="-0.40831">
        <ele>255</ele>
        <time>2019-06-08T14:46:43Z</time>
      </trkpt>
      <trkpt lat="48.92573" lon="-0.40834">
        <ele>250</ele>
        <time>2019-06-08T14:46:45Z</time>
      </trkpt>
      <trkpt lat="48.92579" lon="-0.40838">
        <ele>251</ele>
        <time>2019-06-08T14:46:47Z</time>
      </trkpt>
      <trkpt lat="48.92585" lon="-0.40838">
        <ele>251</ele>
        <time>2019-06-08T14:46:49Z</time>
      </trkpt>
      <trkpt lat="48.92594" lon="-0.40841">
        <ele>250</ele>
        <time>2019-06-08T14:46:51Z</time>
      </trkpt>
      <trkpt lat="48.92602" lon="-0.40841">
        <ele>249</ele>
        <time>2019-06-08T14:46:53Z</time>
      </trkpt>
      <trkpt lat="48.92612" lon="-0.40841">
        <ele>249</ele>
        <time>2019-06-08T14:46:55Z</time>
      </trkpt>
      <trkpt lat="48.92621" lon="-0.40841">
        <ele>249</ele>
        <time>2019-06-08T14:46:57Z</time>
      </trkpt>
      <trkpt lat="48.9263" lon="-0.40841">
        <ele>249</ele>
        <time>2019-06-08T14:46:59Z</time>
      </trkpt>
      <trkpt lat="48.92639" lon="-0.40842">
        <ele>249</ele>
        <time>2019-06-08T14:47:01Z</time>
      </trkpt>
      <trkpt lat="48.92646" lon="-0.40846">
        <ele>249</ele>
        <time>2019-06-08T14:47:05Z</time>
      </trkpt>
      <trkpt lat="48.9265" lon="-0.40849">
        <ele>249</ele>
        <time>2019-06-08T14:47:09Z</time>
      </trkpt>
      <trkpt lat="48.92655" lon="-0.40853">
        <ele>249</ele>
        <time>2019-06-08T14:47:13Z</time>
      </trkpt>
      <trkpt lat="48.92662" lon="-0.40855">
        <ele>249</ele>
        <time>2019-06-08T14:47:19Z</time>
      </trkpt>
      <trkpt lat="48.92668" lon="-0.40856">
        <ele>250</ele>
        <time>2019-06-08T14:47:23Z</time>
      </trkpt>
      <trkpt lat="48.92675" lon="-0.4086">
        <ele>250</ele>
        <time>2019-06-08T14:47:27Z</time>
      </trkpt>
      <trkpt lat="48.9268" lon="-0.40861">
        <ele>250</ele>
        <time>2019-06-08T14:47:31Z</time>
      </trkpt>
      <trkpt lat="48.92686" lon="-0.40864">
        <ele>250</ele>
        <time>2019-06-08T14:47:35Z</time>
      </trkpt>
      <trkpt lat="48.92693" lon="-0.40872">
        <ele>249</ele>
        <time>2019-06-08T14:47:39Z</time>
      </trkpt>
      <trkpt lat="48.92699" lon="-0.40878">
        <ele>249</ele>
        <time>2019-06-08T14:47:41Z</time>
      </trkpt>
      <trkpt lat="48.92707" lon="-0.40882">
        <ele>249</ele>
        <time>2019-06-08T14:47:43Z</time>
      </trkpt>
      <trkpt lat="48.92713" lon="-0.40884">
        <ele>249</ele>
        <time>2019-06-08T14:47:45Z</time>
      </trkpt>
      <trkpt lat="48.92718" lon="-0.4089">
        <ele>249</ele>
        <time>2019-06-08T14:47:47Z</time>
      </trkpt>
      <trkpt lat="48.92723" lon="-0.40895">
        <ele>249</ele>
        <time>2019-06-08T14:47:49Z</time>
      </trkpt>
      <trkpt lat="48.92729" lon="-0.409">
        <ele>248</ele>
        <time>2019-06-08T14:47:51Z</time>
      </trkpt>
      <trkpt lat="48.92734" lon="-0.40904">
        <ele>248</ele>
        <time>2019-06-08T14:47:53Z</time>
      </trkpt>
      <trkpt lat="48.92738" lon="-0.40909">
        <ele>248</ele>
        <time>2019-06-08T14:47:55Z</time>
      </trkpt>
      <trkpt lat="48.92743" lon="-0.40911">
        <ele>248</ele>
        <time>2019-06-08T14:47:57Z</time>
      </trkpt>
      <trkpt lat="48.92747" lon="-0.40915">
        <ele>247</ele>
        <time>2019-06-08T14:47:59Z</time>
      </trkpt>
      <trkpt lat="48.92754" lon="-0.40921">
        <ele>246</ele>
        <time>2019-06-08T14:48:03Z</time>
      </trkpt>
      <trkpt lat="48.9276" lon="-0.40919">
        <ele>245</ele>
        <time>2019-06-08T14:48:05Z</time>
      </trkpt>
      <trkpt lat="48.92764" lon="-0.4092">
        <ele>244</ele>
        <time>2019-06-08T14:48:07Z</time>
      </trkpt>
      <trkpt lat="48.92771" lon="-0.40919">
        <ele>244</ele>
        <time>2019-06-08T14:48:09Z</time>
      </trkpt>
      <trkpt lat="48.92778" lon="-0.40919">
        <ele>243</ele>
        <time>2019-06-08T14:48:11Z</time>
      </trkpt>
      <trkpt lat="48.92782" lon="-0.40922">
        <ele>243</ele>
        <time>2019-06-08T14:48:13Z</time>
      </trkpt>
      <trkpt lat="48.92788" lon="-0.40922">
        <ele>243</ele>
        <time>2019-06-08T14:48:15Z</time>
      </trkpt>
      <trkpt lat="48.92795" lon="-0.40921">
        <ele>242</ele>
        <time>2019-06-08T14:48:17Z</time>
      </trkpt>
      <trkpt lat="48.92799" lon="-0.40922">
        <ele>242</ele>
        <time>2019-06-08T14:48:19Z</time>
      </trkpt>
      <trkpt lat="48.92805" lon="-0.40923">
        <ele>242</ele>
        <time>2019-06-08T14:48:23Z</time>
      </trkpt>
      <trkpt lat="48.92816" lon="-0.40923">
        <ele>242</ele>
        <time>2019-06-08T14:48:27Z</time>
      </trkpt>
      <trkpt lat="48.92824" lon="-0.40929">
        <ele>242</ele>
        <time>2019-06-08T14:48:31Z</time>
      </trkpt>
      <trkpt lat="48.92833" lon="-0.40932">
        <ele>242</ele>
        <time>2019-06-08T14:48:35Z</time>
      </trkpt>
      <trkpt lat="48.92839" lon="-0.40934">
        <ele>242</ele>
        <time>2019-06-08T14:48:37Z</time>
      </trkpt>
      <trkpt lat="48.92845" lon="-0.40938">
        <ele>242</ele>
        <time>2019-06-08T14:48:39Z</time>
      </trkpt>
      <trkpt lat="48.9285" lon="-0.40945">
        <ele>241</ele>
        <time>2019-06-08T14:48:41Z</time>
      </trkpt>
      <trkpt lat="48.92856" lon="-0.40947">
        <ele>241</ele>
        <time>2019-06-08T14:48:43Z</time>
      </trkpt>
      <trkpt lat="48.92861" lon="-0.40949">
        <ele>241</ele>
        <time>2019-06-08T14:48:45Z</time>
      </trkpt>
      <trkpt lat="48.92868" lon="-0.40951">
        <ele>241</ele>
        <time>2019-06-08T14:48:47Z</time>
      </trkpt>
      <trkpt lat="48.92874" lon="-0.40954">
        <ele>241</ele>
        <time>2019-06-08T14:48:49Z</time>
      </trkpt>
      <trkpt lat="48.92879" lon="-0.40957">
        <ele>241</ele>
        <time>2019-06-08T14:48:51Z</time>
      </trkpt>
      <trkpt lat="48.92883" lon="-0.4096">
        <ele>241</ele>
        <time>2019-06-08T14:48:53Z</time>
      </trkpt>
      <trkpt lat="48.92887" lon="-0.40962">
        <ele>241</ele>
        <time>2019-06-08T14:48:55Z</time>
      </trkpt>
      <trkpt lat="48.92895" lon="-0.40966">
        <ele>241</ele>
        <time>2019-06-08T14:48:59Z</time>
      </trkpt>
      <trkpt lat="48.92899" lon="-0.4097">
        <ele>241</ele>
        <time>2019-06-08T14:49:01Z</time>
      </trkpt>
      <trkpt lat="48.92908" lon="-0.40977">
        <ele>240</ele>
        <time>2019-06-08T14:49:05Z</time>
      </trkpt>
      <trkpt lat="48.92917" lon="-0.40982">
        <ele>242</ele>
        <time>2019-06-08T14:49:07Z</time>
      </trkpt>
      <trkpt lat="48.92924" lon="-0.40986">
        <ele>241</ele>
        <time>2019-06-08T14:49:09Z</time>
      </trkpt>
      <trkpt lat="48.92933" lon="-0.40991">
        <ele>242</ele>
        <time>2019-06-08T14:49:11Z</time>
      </trkpt>
      <trkpt lat="48.92939" lon="-0.40993">
        <ele>242</ele>
        <time>2019-06-08T14:49:13Z</time>
      </trkpt>
      <trkpt lat="48.92943" lon="-0.40996">
        <ele>242</ele>
        <time>2019-06-08T14:49:15Z</time>
      </trkpt>
      <trkpt lat="48.9295" lon="-0.41001">
        <ele>239</ele>
        <time>2019-06-08T14:49:17Z</time>
      </trkpt>
      <trkpt lat="48.92957" lon="-0.41004">
        <ele>239</ele>
        <time>2019-06-08T14:49:19Z</time>
      </trkpt>
      <trkpt lat="48.92965" lon="-0.41008">
        <ele>239</ele>
        <time>2019-06-08T14:49:21Z</time>
      </trkpt>
      <trkpt lat="48.92971" lon="-0.41014">
        <ele>239</ele>
        <time>2019-06-08T14:49:23Z</time>
      </trkpt>
      <trkpt lat="48.92977" lon="-0.41018">
        <ele>239</ele>
        <time>2019-06-08T14:49:25Z</time>
      </trkpt>
      <trkpt lat="48.92983" lon="-0.4102">
        <ele>240</ele>
        <time>2019-06-08T14:49:27Z</time>
      </trkpt>
      <trkpt lat="48.92988" lon="-0.41023">
        <ele>240</ele>
        <time>2019-06-08T14:49:29Z</time>
      </trkpt>
      <trkpt lat="48.92994" lon="-0.41026">
        <ele>240</ele>
        <time>2019-06-08T14:49:31Z</time>
      </trkpt>
      <trkpt lat="48.93" lon="-0.41029">
        <ele>239</ele>
        <time>2019-06-08T14:49:33Z</time>
      </trkpt>
      <trkpt lat="48.93006" lon="-0.41031">
        <ele>243</ele>
        <time>2019-06-08T14:49:35Z</time>
      </trkpt>
      <trkpt lat="48.93011" lon="-0.41031">
        <ele>243</ele>
        <time>2019-06-08T14:49:37Z</time>
      </trkpt>
      <trkpt lat="48.93018" lon="-0.41032">
        <ele>243</ele>
        <time>2019-06-08T14:49:39Z</time>
      </trkpt>
      <trkpt lat="48.93024" lon="-0.41035">
        <ele>243</ele>
        <time>2019-06-08T14:49:41Z</time>
      </trkpt>
      <trkpt lat="48.93031" lon="-0.41037">
        <ele>243</ele>
        <time>2019-06-08T14:49:43Z</time>
      </trkpt>
      <trkpt lat="48.93039" lon="-0.4104">
        <ele>243</ele>
        <time>2019-06-08T14:49:45Z</time>
      </trkpt>
      <trkpt lat="48.93043" lon="-0.41043">
        <ele>243</ele>
        <time>2019-06-08T14:49:47Z</time>
      </trkpt>
      <trkpt lat="48.93049" lon="-0.41044">
        <ele>243</ele>
        <time>2019-06-08T14:49:49Z</time>
      </trkpt>
      <trkpt lat="48.93054" lon="-0.41044">
        <ele>244</ele>
        <time>2019-06-08T14:49:51Z</time>
      </trkpt>
      <trkpt lat="48.9306" lon="-0.41043">
        <ele>244</ele>
        <time>2019-06-08T14:49:53Z</time>
      </trkpt>
      <trkpt lat="48.93065" lon="-0.41045">
        <ele>244</ele>
        <time>2019-06-08T14:49:55Z</time>
      </trkpt>
      <trkpt lat="48.93072" lon="-0.41045">
        <ele>244</ele>
        <time>2019-06-08T14:49:57Z</time>
      </trkpt>
      <trkpt lat="48.93078" lon="-0.41047">
        <ele>244</ele>
        <time>2019-06-08T14:49:59Z</time>
      </trkpt>
      <trkpt lat="48.93088" lon="-0.41049">
        <ele>249</ele>
        <time>2019-06-08T14:50:03Z</time>
      </trkpt>
      <trkpt lat="48.93093" lon="-0.4105">
        <ele>249</ele>
        <time>2019-06-08T14:50:05Z</time>
      </trkpt>
      <trkpt lat="48.93102" lon="-0.41053">
        <ele>249</ele>
        <time>2019-06-08T14:50:09Z</time>
      </trkpt>
      <trkpt lat="48.93108" lon="-0.41056">
        <ele>249</ele>
        <time>2019-06-08T14:50:11Z</time>
      </trkpt>
      <trkpt lat="48.93117" lon="-0.41065">
        <ele>249</ele>
        <time>2019-06-08T14:50:15Z</time>
      </trkpt>
      <trkpt lat="48.93121" lon="-0.4107">
        <ele>250</ele>
        <time>2019-06-08T14:50:17Z</time>
      </trkpt>
      <trkpt lat="48.93126" lon="-0.41077">
        <ele>250</ele>
        <time>2019-06-08T14:50:21Z</time>
      </trkpt>
      <trkpt lat="48.93134" lon="-0.41084">
        <ele>244</ele>
        <time>2019-06-08T14:50:25Z</time>
      </trkpt>
      <trkpt lat="48.9314" lon="-0.41089">
        <ele>245</ele>
        <time>2019-06-08T14:50:27Z</time>
      </trkpt>
      <trkpt lat="48.93146" lon="-0.41092">
        <ele>246</ele>
        <time>2019-06-08T14:50:29Z</time>
      </trkpt>
      <trkpt lat="48.93152" lon="-0.41096">
        <ele>247</ele>
        <time>2019-06-08T14:50:31Z</time>
      </trkpt>
      <trkpt lat="48.93155" lon="-0.41102">
        <ele>246</ele>
        <time>2019-06-08T14:50:33Z</time>
      </trkpt>
      <trkpt lat="48.93159" lon="-0.41108">
        <ele>245</ele>
        <time>2019-06-08T14:50:35Z</time>
      </trkpt>
      <trkpt lat="48.93163" lon="-0.41115">
        <ele>244</ele>
        <time>2019-06-08T14:50:37Z</time>
      </trkpt>
      <trkpt lat="48.93167" lon="-0.41121">
        <ele>249</ele>
        <time>2019-06-08T14:50:39Z</time>
      </trkpt>
      <trkpt lat="48.93172" lon="-0.41128">
        <ele>248</ele>
        <time>2019-06-08T14:50:41Z</time>
      </trkpt>
      <trkpt lat="48.93177" lon="-0.41132">
        <ele>248</ele>
        <time>2019-06-08T14:50:43Z</time>
      </trkpt>
      <trkpt lat="48.93181" lon="-0.41135">
        <ele>248</ele>
        <time>2019-06-08T14:50:45Z</time>
      </trkpt>
      <trkpt lat="48.93188" lon="-0.41138">
        <ele>248</ele>
        <time>2019-06-08T14:50:47Z</time>
      </trkpt>
      <trkpt lat="48.93192" lon="-0.41142">
        <ele>248</ele>
        <time>2019-06-08T14:50:49Z</time>
      </trkpt>
      <trkpt lat="48.93197" lon="-0.41144">
        <ele>248</ele>
        <time>2019-06-08T14:50:51Z</time>
      </trkpt>
      <trkpt lat="48.93201" lon="-0.41148">
        <ele>248</ele>
        <time>2019-06-08T14:50:53Z</time>
      </trkpt>
      <trkpt lat="48.93206" lon="-0.41152">
        <ele>248</ele>
        <time>2019-06-08T14:50:55Z</time>
      </trkpt>
      <trkpt lat="48.93211" lon="-0.41152">
        <ele>249</ele>
        <time>2019-06-08T14:50:57Z</time>
      </trkpt>
      <trkpt lat="48.9322" lon="-0.41157">
        <ele>249</ele>
        <time>2019-06-08T14:51:01Z</time>
      </trkpt>
      <trkpt lat="48.93225" lon="-0.41161">
        <ele>249</ele>
        <time>2019-06-08T14:51:03Z</time>
      </trkpt>
      <trkpt lat="48.9323" lon="-0.41162">
        <ele>249</ele>
        <time>2019-06-08T14:51:05Z</time>
      </trkpt>
      <trkpt lat="48.93239" lon="-0.41162">
        <ele>250</ele>
        <time>2019-06-08T14:51:09Z</time>
      </trkpt>
      <trkpt lat="48.93246" lon="-0.41164">
        <ele>250</ele>
        <time>2019-06-08T14:51:13Z</time>
      </trkpt>
      <trkpt lat="48.93251" lon="-0.41165">
        <ele>250</ele>
        <time>2019-06-08T14:51:15Z</time>
      </trkpt>
      <trkpt lat="48.93258" lon="-0.41165">
        <ele>252</ele>
        <time>2019-06-08T14:51:19Z</time>
      </trkpt>
      <trkpt lat="48.93263" lon="-0.41167">
        <ele>250</ele>
        <time>2019-06-08T14:51:21Z</time>
      </trkpt>
      <trkpt lat="48.93267" lon="-0.4117">
        <ele>250</ele>
        <time>2019-06-08T14:51:23Z</time>
      </trkpt>
      <trkpt lat="48.93273" lon="-0.41174">
        <ele>250</ele>
        <time>2019-06-08T14:51:25Z</time>
      </trkpt>
      <trkpt lat="48.93278" lon="-0.41176">
        <ele>250</ele>
        <time>2019-06-08T14:51:27Z</time>
      </trkpt>
      <trkpt lat="48.93285" lon="-0.41181">
        <ele>250</ele>
        <time>2019-06-08T14:51:31Z</time>
      </trkpt>
      <trkpt lat="48.93293" lon="-0.41187">
        <ele>250</ele>
        <time>2019-06-08T14:51:35Z</time>
      </trkpt>
      <trkpt lat="48.93298" lon="-0.41191">
        <ele>251</ele>
        <time>2019-06-08T14:51:37Z</time>
      </trkpt>
      <trkpt lat="48.93303" lon="-0.41196">
        <ele>251</ele>
        <time>2019-06-08T14:51:39Z</time>
      </trkpt>
      <trkpt lat="48.93306" lon="-0.41201">
        <ele>251</ele>
        <time>2019-06-08T14:51:41Z</time>
      </trkpt>
      <trkpt lat="48.93311" lon="-0.41209">
        <ele>251</ele>
        <time>2019-06-08T14:51:45Z</time>
      </trkpt>
      <trkpt lat="48.93317" lon="-0.41216">
        <ele>251</ele>
        <time>2019-06-08T14:51:49Z</time>
      </trkpt>
      <trkpt lat="48.93326" lon="-0.41222">
        <ele>251</ele>
        <time>2019-06-08T14:51:53Z</time>
      </trkpt>
      <trkpt lat="48.93332" lon="-0.41228">
        <ele>251</ele>
        <time>2019-06-08T14:51:57Z</time>
      </trkpt>
      <trkpt lat="48.93337" lon="-0.41231">
        <ele>254</ele>
        <time>2019-06-08T14:51:59Z</time>
      </trkpt>
      <trkpt lat="48.93342" lon="-0.41233">
        <ele>254</ele>
        <time>2019-06-08T14:52:01Z</time>
      </trkpt>
      <trkpt lat="48.93347" lon="-0.41236">
        <ele>254</ele>
        <time>2019-06-08T14:52:03Z</time>
      </trkpt>
      <trkpt lat="48.93352" lon="-0.41245">
        <ele>254</ele>
        <time>2019-06-08T14:52:05Z</time>
      </trkpt>
      <trkpt lat="48.93358" lon="-0.41252">
        <ele>251</ele>
        <time>2019-06-08T14:52:07Z</time>
      </trkpt>
      <trkpt lat="48.93364" lon="-0.41259">
        <ele>251</ele>
        <time>2019-06-08T14:52:09Z</time>
      </trkpt>
      <trkpt lat="48.9337" lon="-0.41264">
        <ele>251</ele>
        <time>2019-06-08T14:52:11Z</time>
      </trkpt>
      <trkpt lat="48.93376" lon="-0.41268">
        <ele>251</ele>
        <time>2019-06-08T14:52:13Z</time>
      </trkpt>
      <trkpt lat="48.93383" lon="-0.41273">
        <ele>252</ele>
        <time>2019-06-08T14:52:15Z</time>
      </trkpt>
      <trkpt lat="48.93391" lon="-0.41277">
        <ele>252</ele>
        <time>2019-06-08T14:52:17Z</time>
      </trkpt>
      <trkpt lat="48.93396" lon="-0.41283">
        <ele>251</ele>
        <time>2019-06-08T14:52:19Z</time>
      </trkpt>
      <trkpt lat="48.93403" lon="-0.41289">
        <ele>251</ele>
        <time>2019-06-08T14:52:21Z</time>
      </trkpt>
      <trkpt lat="48.93408" lon="-0.41296">
        <ele>251</ele>
        <time>2019-06-08T14:52:23Z</time>
      </trkpt>
      <trkpt lat="48.93415" lon="-0.413">
        <ele>251</ele>
        <time>2019-06-08T14:52:25Z</time>
      </trkpt>
      <trkpt lat="48.93421" lon="-0.41307">
        <ele>253</ele>
        <time>2019-06-08T14:52:27Z</time>
      </trkpt>
      <trkpt lat="48.93427" lon="-0.41312">
        <ele>253</ele>
        <time>2019-06-08T14:52:29Z</time>
      </trkpt>
      <trkpt lat="48.93433" lon="-0.41317">
        <ele>253</ele>
        <time>2019-06-08T14:52:31Z</time>
      </trkpt>
      <trkpt lat="48.93439" lon="-0.41321">
        <ele>253</ele>
        <time>2019-06-08T14:52:33Z</time>
      </trkpt>
      <trkpt lat="48.93445" lon="-0.41324">
        <ele>254</ele>
        <time>2019-06-08T14:52:35Z</time>
      </trkpt>
      <trkpt lat="48.93452" lon="-0.41326">
        <ele>254</ele>
        <time>2019-06-08T14:52:37Z</time>
      </trkpt>
      <trkpt lat="48.93458" lon="-0.41327">
        <ele>255</ele>
        <time>2019-06-08T14:52:39Z</time>
      </trkpt>
      <trkpt lat="48.93464" lon="-0.41328">
        <ele>255</ele>
        <time>2019-06-08T14:52:41Z</time>
      </trkpt>
      <trkpt lat="48.9347" lon="-0.4133">
        <ele>255</ele>
        <time>2019-06-08T14:52:43Z</time>
      </trkpt>
      <trkpt lat="48.93476" lon="-0.41331">
        <ele>255</ele>
        <time>2019-06-08T14:52:45Z</time>
      </trkpt>
      <trkpt lat="48.93481" lon="-0.41331">
        <ele>255</ele>
        <time>2019-06-08T14:52:47Z</time>
      </trkpt>
      <trkpt lat="48.93485" lon="-0.41333">
        <ele>255</ele>
        <time>2019-06-08T14:52:49Z</time>
      </trkpt>
      <trkpt lat="48.93491" lon="-0.41336">
        <ele>253</ele>
        <time>2019-06-08T14:52:51Z</time>
      </trkpt>
      <trkpt lat="48.93496" lon="-0.41337">
        <ele>254</ele>
        <time>2019-06-08T14:52:53Z</time>
      </trkpt>
      <trkpt lat="48.93502" lon="-0.41339">
        <ele>255</ele>
        <time>2019-06-08T14:52:55Z</time>
      </trkpt>
      <trkpt lat="48.9351" lon="-0.41342">
        <ele>254</ele>
        <time>2019-06-08T14:52:57Z</time>
      </trkpt>
      <trkpt lat="48.93517" lon="-0.41346">
        <ele>254</ele>
        <time>2019-06-08T14:52:59Z</time>
      </trkpt>
      <trkpt lat="48.93524" lon="-0.4135">
        <ele>254</ele>
        <time>2019-06-08T14:53:01Z</time>
      </trkpt>
      <trkpt lat="48.93531" lon="-0.41358">
        <ele>254</ele>
        <time>2019-06-08T14:53:03Z</time>
      </trkpt>
      <trkpt lat="48.9354" lon="-0.41366">
        <ele>254</ele>
        <time>2019-06-08T14:53:05Z</time>
      </trkpt>
      <trkpt lat="48.93549" lon="-0.41371">
        <ele>254</ele>
        <time>2019-06-08T14:53:07Z</time>
      </trkpt>
      <trkpt lat="48.93557" lon="-0.41376">
        <ele>254</ele>
        <time>2019-06-08T14:53:09Z</time>
      </trkpt>
      <trkpt lat="48.93564" lon="-0.41382">
        <ele>254</ele>
        <time>2019-06-08T14:53:11Z</time>
      </trkpt>
      <trkpt lat="48.93571" lon="-0.41387">
        <ele>254</ele>
        <time>2019-06-08T14:53:13Z</time>
      </trkpt>
      <trkpt lat="48.93578" lon="-0.41391">
        <ele>254</ele>
        <time>2019-06-08T14:53:15Z</time>
      </trkpt>
      <trkpt lat="48.93584" lon="-0.41396">
        <ele>255</ele>
        <time>2019-06-08T14:53:17Z</time>
      </trkpt>
      <trkpt lat="48.93592" lon="-0.41399">
        <ele>255</ele>
        <time>2019-06-08T14:53:19Z</time>
      </trkpt>
      <trkpt lat="48.93598" lon="-0.41406">
        <ele>255</ele>
        <time>2019-06-08T14:53:21Z</time>
      </trkpt>
      <trkpt lat="48.93605" lon="-0.41412">
        <ele>256</ele>
        <time>2019-06-08T14:53:23Z</time>
      </trkpt>
      <trkpt lat="48.93612" lon="-0.41415">
        <ele>256</ele>
        <time>2019-06-08T14:53:25Z</time>
      </trkpt>
      <trkpt lat="48.93617" lon="-0.4142">
        <ele>253</ele>
        <time>2019-06-08T14:53:27Z</time>
      </trkpt>
      <trkpt lat="48.93623" lon="-0.41423">
        <ele>254</ele>
        <time>2019-06-08T14:53:29Z</time>
      </trkpt>
      <trkpt lat="48.93627" lon="-0.41425">
        <ele>254</ele>
        <time>2019-06-08T14:53:31Z</time>
      </trkpt>
      <trkpt lat="48.93633" lon="-0.41426">
        <ele>254</ele>
        <time>2019-06-08T14:53:33Z</time>
      </trkpt>
      <trkpt lat="48.93638" lon="-0.41435">
        <ele>254</ele>
        <time>2019-06-08T14:53:37Z</time>
      </trkpt>
      <trkpt lat="48.93642" lon="-0.41441">
        <ele>254</ele>
        <time>2019-06-08T14:53:41Z</time>
      </trkpt>
      <trkpt lat="48.93649" lon="-0.41448">
        <ele>254</ele>
        <time>2019-06-08T14:53:45Z</time>
      </trkpt>
      <trkpt lat="48.93653" lon="-0.41451">
        <ele>254</ele>
        <time>2019-06-08T14:53:47Z</time>
      </trkpt>
      <trkpt lat="48.93658" lon="-0.41454">
        <ele>254</ele>
        <time>2019-06-08T14:53:49Z</time>
      </trkpt>
      <trkpt lat="48.93665" lon="-0.41459">
        <ele>254</ele>
        <time>2019-06-08T14:53:53Z</time>
      </trkpt>
      <trkpt lat="48.93671" lon="-0.41458">
        <ele>255</ele>
        <time>2019-06-08T14:53:57Z</time>
      </trkpt>
      <trkpt lat="48.93678" lon="-0.41456">
        <ele>255</ele>
        <time>2019-06-08T14:54:01Z</time>
      </trkpt>
      <trkpt lat="48.93684" lon="-0.41455">
        <ele>255</ele>
        <time>2019-06-08T14:54:11Z</time>
      </trkpt>
      <trkpt lat="48.93688" lon="-0.41451">
        <ele>256</ele>
        <time>2019-06-08T14:54:17Z</time>
      </trkpt>
      <trkpt lat="48.93691" lon="-0.41445">
        <ele>256</ele>
        <time>2019-06-08T14:54:21Z</time>
      </trkpt>
      <trkpt lat="48.93691" lon="-0.41455">
        <ele>255</ele>
        <time>2019-06-08T14:59:11Z</time>
      </trkpt>
      <trkpt lat="48.9369" lon="-0.41462">
        <ele>255</ele>
        <time>2019-06-08T14:59:13Z</time>
      </trkpt>
      <trkpt lat="48.9369" lon="-0.41469">
        <ele>255</ele>
        <time>2019-06-08T14:59:15Z</time>
      </trkpt>
      <trkpt lat="48.93691" lon="-0.41478">
        <ele>255</ele>
        <time>2019-06-08T14:59:17Z</time>
      </trkpt>
      <trkpt lat="48.93692" lon="-0.41487">
        <ele>255</ele>
        <time>2019-06-08T14:59:19Z</time>
      </trkpt>
      <trkpt lat="48.93695" lon="-0.41496">
        <ele>254</ele>
        <time>2019-06-08T14:59:21Z</time>
      </trkpt>
      <trkpt lat="48.93697" lon="-0.41505">
        <ele>252</ele>
        <time>2019-06-08T14:59:23Z</time>
      </trkpt>
      <trkpt lat="48.93698" lon="-0.41514">
        <ele>252</ele>
        <time>2019-06-08T14:59:25Z</time>
      </trkpt>
      <trkpt lat="48.93701" lon="-0.41523">
        <ele>252</ele>
        <time>2019-06-08T14:59:27Z</time>
      </trkpt>
      <trkpt lat="48.93702" lon="-0.41531">
        <ele>251</ele>
        <time>2019-06-08T14:59:29Z</time>
      </trkpt>
      <trkpt lat="48.93702" lon="-0.4154">
        <ele>251</ele>
        <time>2019-06-08T14:59:31Z</time>
      </trkpt>
      <trkpt lat="48.93702" lon="-0.41547">
        <ele>251</ele>
        <time>2019-06-08T14:59:33Z</time>
      </trkpt>
      <trkpt lat="48.93703" lon="-0.41558">
        <ele>251</ele>
        <time>2019-06-08T14:59:37Z</time>
      </trkpt>
      <trkpt lat="48.93703" lon="-0.41551">
        <ele>251</ele>
        <time>2019-06-08T15:12:37Z</time>
      </trkpt>
      <trkpt lat="48.93703" lon="-0.41543">
        <ele>251</ele>
        <time>2019-06-08T15:12:45Z</time>
      </trkpt>
      <trkpt lat="48.93702" lon="-0.41536">
        <ele>251</ele>
        <time>2019-06-08T15:12:49Z</time>
      </trkpt>
      <trkpt lat="48.937" lon="-0.41524">
        <ele>252</ele>
        <time>2019-06-08T15:12:53Z</time>
      </trkpt>
      <trkpt lat="48.93698" lon="-0.41513">
        <ele>252</ele>
        <time>2019-06-08T15:12:57Z</time>
      </trkpt>
      <trkpt lat="48.93696" lon="-0.41501">
        <ele>252</ele>
        <time>2019-06-08T15:13:01Z</time>
      </trkpt>
      <trkpt lat="48.93694" lon="-0.41489">
        <ele>255</ele>
        <time>2019-06-08T15:13:05Z</time>
      </trkpt>
      <trkpt lat="48.93693" lon="-0.41482">
        <ele>255</ele>
        <time>2019-06-08T15:13:07Z</time>
      </trkpt>
      <trkpt lat="48.93692" lon="-0.4147">
        <ele>255</ele>
        <time>2019-06-08T15:13:11Z</time>
      </trkpt>
      <trkpt lat="48.9369" lon="-0.41463">
        <ele>255</ele>
        <time>2019-06-08T15:13:13Z</time>
      </trkpt>
      <trkpt lat="48.93689" lon="-0.41455">
        <ele>255</ele>
        <time>2019-06-08T15:13:15Z</time>
      </trkpt>
      <trkpt lat="48.93687" lon="-0.41448">
        <ele>256</ele>
        <time>2019-06-08T15:13:17Z</time>
      </trkpt>
      <trkpt lat="48.93686" lon="-0.41441">
        <ele>256</ele>
        <time>2019-06-08T15:13:19Z</time>
      </trkpt>
      <trkpt lat="48.93683" lon="-0.41432">
        <ele>256</ele>
        <time>2019-06-08T15:13:23Z</time>
      </trkpt>
      <trkpt lat="48.93681" lon="-0.41423">
        <ele>257</ele>
        <time>2019-06-08T15:13:27Z</time>
      </trkpt>
      <trkpt lat="48.9368" lon="-0.41412">
        <ele>258</ele>
        <time>2019-06-08T15:13:31Z</time>
      </trkpt>
      <trkpt lat="48.9368" lon="-0.41403">
        <ele>258</ele>
        <time>2019-06-08T15:13:33Z</time>
      </trkpt>
      <trkpt lat="48.93677" lon="-0.41397">
        <ele>258</ele>
        <time>2019-06-08T15:13:35Z</time>
      </trkpt>
      <trkpt lat="48.93673" lon="-0.41389">
        <ele>258</ele>
        <time>2019-06-08T15:13:37Z</time>
      </trkpt>
      <trkpt lat="48.93671" lon="-0.41382">
        <ele>258</ele>
        <time>2019-06-08T15:13:39Z</time>
      </trkpt>
      <trkpt lat="48.93671" lon="-0.41374">
        <ele>258</ele>
        <time>2019-06-08T15:13:41Z</time>
      </trkpt>
      <trkpt lat="48.9367" lon="-0.41366">
        <ele>258</ele>
        <time>2019-06-08T15:13:43Z</time>
      </trkpt>
      <trkpt lat="48.93669" lon="-0.41359">
        <ele>258</ele>
        <time>2019-06-08T15:13:45Z</time>
      </trkpt>
      <trkpt lat="48.93668" lon="-0.41352">
        <ele>258</ele>
        <time>2019-06-08T15:13:47Z</time>
      </trkpt>
      <trkpt lat="48.93665" lon="-0.41345">
        <ele>258</ele>
        <time>2019-06-08T15:13:49Z</time>
      </trkpt>
      <trkpt lat="48.93663" lon="-0.41337">
        <ele>259</ele>
        <time>2019-06-08T15:13:51Z</time>
      </trkpt>
      <trkpt lat="48.93663" lon="-0.41329">
        <ele>259</ele>
        <time>2019-06-08T15:13:53Z</time>
      </trkpt>
      <trkpt lat="48.93662" lon="-0.4132">
        <ele>259</ele>
        <time>2019-06-08T15:13:55Z</time>
      </trkpt>
      <trkpt lat="48.93661" lon="-0.41312">
        <ele>260</ele>
        <time>2019-06-08T15:13:57Z</time>
      </trkpt>
      <trkpt lat="48.9366" lon="-0.41304">
        <ele>260</ele>
        <time>2019-06-08T15:13:59Z</time>
      </trkpt>
      <trkpt lat="48.93659" lon="-0.41295">
        <ele>260</ele>
        <time>2019-06-08T15:14:01Z</time>
      </trkpt>
      <trkpt lat="48.93657" lon="-0.41286">
        <ele>260</ele>
        <time>2019-06-08T15:14:03Z</time>
      </trkpt>
      <trkpt lat="48.93655" lon="-0.41273">
        <ele>260</ele>
        <time>2019-06-08T15:14:05Z</time>
      </trkpt>
      <trkpt lat="48.93652" lon="-0.41261">
        <ele>260</ele>
        <time>2019-06-08T15:14:07Z</time>
      </trkpt>
      <trkpt lat="48.93649" lon="-0.4125">
        <ele>260</ele>
        <time>2019-06-08T15:14:09Z</time>
      </trkpt>
      <trkpt lat="48.93647" lon="-0.4124">
        <ele>262</ele>
        <time>2019-06-08T15:14:11Z</time>
      </trkpt>
      <trkpt lat="48.93646" lon="-0.41231">
        <ele>262</ele>
        <time>2019-06-08T15:14:13Z</time>
      </trkpt>
      <trkpt lat="48.93645" lon="-0.41222">
        <ele>262</ele>
        <time>2019-06-08T15:14:15Z</time>
      </trkpt>
      <trkpt lat="48.93643" lon="-0.41214">
        <ele>262</ele>
        <time>2019-06-08T15:14:17Z</time>
      </trkpt>
      <trkpt lat="48.93641" lon="-0.41206">
        <ele>262</ele>
        <time>2019-06-08T15:14:19Z</time>
      </trkpt>
      <trkpt lat="48.9364" lon="-0.41197">
        <ele>263</ele>
        <time>2019-06-08T15:14:21Z</time>
      </trkpt>
      <trkpt lat="48.93639" lon="-0.41188">
        <ele>263</ele>
        <time>2019-06-08T15:14:23Z</time>
      </trkpt>
      <trkpt lat="48.93637" lon="-0.41179">
        <ele>263</ele>
        <time>2019-06-08T15:14:25Z</time>
      </trkpt>
      <trkpt lat="48.93636" lon="-0.4117">
        <ele>263</ele>
        <time>2019-06-08T15:14:27Z</time>
      </trkpt>
      <trkpt lat="48.93634" lon="-0.41161">
        <ele>264</ele>
        <time>2019-06-08T15:14:29Z</time>
      </trkpt>
      <trkpt lat="48.93633" lon="-0.41151">
        <ele>264</ele>
        <time>2019-06-08T15:14:31Z</time>
      </trkpt>
      <trkpt lat="48.93632" lon="-0.41142">
        <ele>264</ele>
        <time>2019-06-08T15:14:33Z</time>
      </trkpt>
      <trkpt lat="48.9363" lon="-0.41133">
        <ele>265</ele>
        <time>2019-06-08T15:14:35Z</time>
      </trkpt>
      <trkpt lat="48.93628" lon="-0.41124">
        <ele>265</ele>
        <time>2019-06-08T15:14:37Z</time>
      </trkpt>
      <trkpt lat="48.93627" lon="-0.41114">
        <ele>265</ele>
        <time>2019-06-08T15:14:39Z</time>
      </trkpt>
      <trkpt lat="48.93625" lon="-0.41105">
        <ele>265</ele>
        <time>2019-06-08T15:14:41Z</time>
      </trkpt>
      <trkpt lat="48.93623" lon="-0.41095">
        <ele>265</ele>
        <time>2019-06-08T15:14:43Z</time>
      </trkpt>
      <trkpt lat="48.93622" lon="-0.41086">
        <ele>265</ele>
        <time>2019-06-08T15:14:45Z</time>
      </trkpt>
      <trkpt lat="48.9362" lon="-0.41076">
        <ele>266</ele>
        <time>2019-06-08T15:14:47Z</time>
      </trkpt>
      <trkpt lat="48.93619" lon="-0.41067">
        <ele>266</ele>
        <time>2019-06-08T15:14:49Z</time>
      </trkpt>
      <trkpt lat="48.93617" lon="-0.41057">
        <ele>266</ele>
        <time>2019-06-08T15:14:51Z</time>
      </trkpt>
      <trkpt lat="48.93615" lon="-0.41047">
        <ele>266</ele>
        <time>2019-06-08T15:14:53Z</time>
      </trkpt>
      <trkpt lat="48.93614" lon="-0.41038">
        <ele>266</ele>
        <time>2019-06-08T15:14:55Z</time>
      </trkpt>
      <trkpt lat="48.93613" lon="-0.41029">
        <ele>266</ele>
        <time>2019-06-08T15:14:57Z</time>
      </trkpt>
      <trkpt lat="48.93612" lon="-0.4102">
        <ele>267</ele>
        <time>2019-06-08T15:14:59Z</time>
      </trkpt>
      <trkpt lat="48.93611" lon="-0.41012">
        <ele>267</ele>
        <time>2019-06-08T15:15:01Z</time>
      </trkpt>
      <trkpt lat="48.93611" lon="-0.41004">
        <ele>267</ele>
        <time>2019-06-08T15:15:03Z</time>
      </trkpt>
      <trkpt lat="48.93607" lon="-0.40994">
        <ele>267</ele>
        <time>2019-06-08T15:15:07Z</time>
      </trkpt>
      <trkpt lat="48.93603" lon="-0.4099">
        <ele>267</ele>
        <time>2019-06-08T15:16:23Z</time>
      </trkpt>
      <trkpt lat="48.93602" lon="-0.40983">
        <ele>267</ele>
        <time>2019-06-08T15:16:27Z</time>
      </trkpt>
      <trkpt lat="48.93603" lon="-0.40975">
        <ele>267</ele>
        <time>2019-06-08T15:16:31Z</time>
      </trkpt>
      <trkpt lat="48.93601" lon="-0.40965">
        <ele>267</ele>
        <time>2019-06-08T15:16:37Z</time>
      </trkpt>
      <trkpt lat="48.93604" lon="-0.40959">
        <ele>267</ele>
        <time>2019-06-08T15:16:59Z</time>
      </trkpt>
      <trkpt lat="48.93601" lon="-0.40954">
        <ele>267</ele>
        <time>2019-06-08T15:17:35Z</time>
      </trkpt>
      <trkpt lat="48.93598" lon="-0.40947">
        <ele>267</ele>
        <time>2019-06-08T15:17:41Z</time>
      </trkpt>
      <trkpt lat="48.93598" lon="-0.40938">
        <ele>268</ele>
        <time>2019-06-08T15:17:45Z</time>
      </trkpt>
      <trkpt lat="48.93596" lon="-0.40928">
        <ele>268</ele>
        <time>2019-06-08T15:17:49Z</time>
      </trkpt>
      <trkpt lat="48.93594" lon="-0.4092">
        <ele>269</ele>
        <time>2019-06-08T15:17:51Z</time>
      </trkpt>
      <trkpt lat="48.93593" lon="-0.4091">
        <ele>268</ele>
        <time>2019-06-08T15:17:53Z</time>
      </trkpt>
      <trkpt lat="48.93593" lon="-0.40898">
        <ele>268</ele>
        <time>2019-06-08T15:17:55Z</time>
      </trkpt>
      <trkpt lat="48.93591" lon="-0.40885">
        <ele>267</ele>
        <time>2019-06-08T15:17:57Z</time>
      </trkpt>
      <trkpt lat="48.93587" lon="-0.40875">
        <ele>267</ele>
        <time>2019-06-08T15:17:59Z</time>
      </trkpt>
      <trkpt lat="48.93583" lon="-0.40864">
        <ele>269</ele>
        <time>2019-06-08T15:18:01Z</time>
      </trkpt>
      <trkpt lat="48.93579" lon="-0.40854">
        <ele>268</ele>
        <time>2019-06-08T15:18:03Z</time>
      </trkpt>
      <trkpt lat="48.93576" lon="-0.40843">
        <ele>268</ele>
        <time>2019-06-08T15:18:05Z</time>
      </trkpt>
      <trkpt lat="48.93574" lon="-0.4083">
        <ele>268</ele>
        <time>2019-06-08T15:18:07Z</time>
      </trkpt>
      <trkpt lat="48.93575" lon="-0.40817">
        <ele>267</ele>
        <time>2019-06-08T15:18:09Z</time>
      </trkpt>
      <trkpt lat="48.93573" lon="-0.40804">
        <ele>267</ele>
        <time>2019-06-08T15:18:11Z</time>
      </trkpt>
      <trkpt lat="48.93572" lon="-0.40789">
        <ele>266</ele>
        <time>2019-06-08T15:18:13Z</time>
      </trkpt>
      <trkpt lat="48.9357" lon="-0.40777">
        <ele>266</ele>
        <time>2019-06-08T15:18:15Z</time>
      </trkpt>
      <trkpt lat="48.93571" lon="-0.40766">
        <ele>266</ele>
        <time>2019-06-08T15:18:17Z</time>
      </trkpt>
      <trkpt lat="48.9357" lon="-0.40758">
        <ele>266</ele>
        <time>2019-06-08T15:18:19Z</time>
      </trkpt>
      <trkpt lat="48.93566" lon="-0.40749">
        <ele>265</ele>
        <time>2019-06-08T15:18:21Z</time>
      </trkpt>
      <trkpt lat="48.93563" lon="-0.4074">
        <ele>265</ele>
        <time>2019-06-08T15:18:23Z</time>
      </trkpt>
      <trkpt lat="48.93561" lon="-0.4073">
        <ele>265</ele>
        <time>2019-06-08T15:18:25Z</time>
      </trkpt>
      <trkpt lat="48.93558" lon="-0.40718">
        <ele>264</ele>
        <time>2019-06-08T15:18:27Z</time>
      </trkpt>
      <trkpt lat="48.93556" lon="-0.40706">
        <ele>264</ele>
        <time>2019-06-08T15:18:29Z</time>
      </trkpt>
      <trkpt lat="48.93555" lon="-0.40693">
        <ele>264</ele>
        <time>2019-06-08T15:18:31Z</time>
      </trkpt>
      <trkpt lat="48.93553" lon="-0.4068">
        <ele>264</ele>
        <time>2019-06-08T15:18:33Z</time>
      </trkpt>
      <trkpt lat="48.93551" lon="-0.40668">
        <ele>264</ele>
        <time>2019-06-08T15:18:35Z</time>
      </trkpt>
      <trkpt lat="48.93549" lon="-0.40654">
        <ele>265</ele>
        <time>2019-06-08T15:18:37Z</time>
      </trkpt>
      <trkpt lat="48.93547" lon="-0.4064">
        <ele>265</ele>
        <time>2019-06-08T15:18:39Z</time>
      </trkpt>
      <trkpt lat="48.93545" lon="-0.40628">
        <ele>265</ele>
        <time>2019-06-08T15:18:41Z</time>
      </trkpt>
      <trkpt lat="48.93544" lon="-0.40612">
        <ele>265</ele>
        <time>2019-06-08T15:18:43Z</time>
      </trkpt>
      <trkpt lat="48.93541" lon="-0.40598">
        <ele>266</ele>
        <time>2019-06-08T15:18:45Z</time>
      </trkpt>
      <trkpt lat="48.93541" lon="-0.40583">
        <ele>267</ele>
        <time>2019-06-08T15:18:47Z</time>
      </trkpt>
      <trkpt lat="48.93539" lon="-0.40569">
        <ele>267</ele>
        <time>2019-06-08T15:18:49Z</time>
      </trkpt>
      <trkpt lat="48.93535" lon="-0.40558">
        <ele>267</ele>
        <time>2019-06-08T15:18:51Z</time>
      </trkpt>
      <trkpt lat="48.93529" lon="-0.40546">
        <ele>267</ele>
        <time>2019-06-08T15:18:53Z</time>
      </trkpt>
      <trkpt lat="48.93526" lon="-0.40531">
        <ele>267</ele>
        <time>2019-06-08T15:18:55Z</time>
      </trkpt>
      <trkpt lat="48.93525" lon="-0.40514">
        <ele>268</ele>
        <time>2019-06-08T15:18:57Z</time>
      </trkpt>
      <trkpt lat="48.93522" lon="-0.40501">
        <ele>268</ele>
        <time>2019-06-08T15:18:59Z</time>
      </trkpt>
      <trkpt lat="48.9352" lon="-0.40485">
        <ele>268</ele>
        <time>2019-06-08T15:19:01Z</time>
      </trkpt>
      <trkpt lat="48.93519" lon="-0.40472">
        <ele>268</ele>
        <time>2019-06-08T15:19:03Z</time>
      </trkpt>
      <trkpt lat="48.93518" lon="-0.40457">
        <ele>268</ele>
        <time>2019-06-08T15:19:05Z</time>
      </trkpt>
      <trkpt lat="48.93515" lon="-0.40441">
        <ele>268</ele>
        <time>2019-06-08T15:19:07Z</time>
      </trkpt>
      <trkpt lat="48.93512" lon="-0.40426">
        <ele>269</ele>
        <time>2019-06-08T15:19:09Z</time>
      </trkpt>
      <trkpt lat="48.93511" lon="-0.40413">
        <ele>269</ele>
        <time>2019-06-08T15:19:11Z</time>
      </trkpt>
      <trkpt lat="48.93509" lon="-0.40397">
        <ele>268</ele>
        <time>2019-06-08T15:19:13Z</time>
      </trkpt>
      <trkpt lat="48.93505" lon="-0.40384">
        <ele>268</ele>
        <time>2019-06-08T15:19:15Z</time>
      </trkpt>
      <trkpt lat="48.93502" lon="-0.4037">
        <ele>268</ele>
        <time>2019-06-08T15:19:17Z</time>
      </trkpt>
      <trkpt lat="48.93498" lon="-0.40358">
        <ele>270</ele>
        <time>2019-06-08T15:19:19Z</time>
      </trkpt>
      <trkpt lat="48.93497" lon="-0.40343">
        <ele>269</ele>
        <time>2019-06-08T15:19:21Z</time>
      </trkpt>
      <trkpt lat="48.93494" lon="-0.40331">
        <ele>268</ele>
        <time>2019-06-08T15:19:23Z</time>
      </trkpt>
      <trkpt lat="48.93492" lon="-0.40315">
        <ele>268</ele>
        <time>2019-06-08T15:19:25Z</time>
      </trkpt>
      <trkpt lat="48.93489" lon="-0.40301">
        <ele>267</ele>
        <time>2019-06-08T15:19:27Z</time>
      </trkpt>
      <trkpt lat="48.93487" lon="-0.40286">
        <ele>267</ele>
        <time>2019-06-08T15:19:29Z</time>
      </trkpt>
      <trkpt lat="48.93484" lon="-0.4027">
        <ele>266</ele>
        <time>2019-06-08T15:19:31Z</time>
      </trkpt>
      <trkpt lat="48.93481" lon="-0.40254">
        <ele>266</ele>
        <time>2019-06-08T15:19:33Z</time>
      </trkpt>
      <trkpt lat="48.93479" lon="-0.40238">
        <ele>263</ele>
        <time>2019-06-08T15:19:35Z</time>
      </trkpt>
      <trkpt lat="48.93475" lon="-0.40223">
        <ele>263</ele>
        <time>2019-06-08T15:19:37Z</time>
      </trkpt>
      <trkpt lat="48.93471" lon="-0.4021">
        <ele>262</ele>
        <time>2019-06-08T15:19:39Z</time>
      </trkpt>
      <trkpt lat="48.93469" lon="-0.40195">
        <ele>262</ele>
        <time>2019-06-08T15:19:41Z</time>
      </trkpt>
      <trkpt lat="48.93466" lon="-0.40182">
        <ele>262</ele>
        <time>2019-06-08T15:19:43Z</time>
      </trkpt>
      <trkpt lat="48.93466" lon="-0.40168">
        <ele>261</ele>
        <time>2019-06-08T15:19:45Z</time>
      </trkpt>
      <trkpt lat="48.93462" lon="-0.40157">
        <ele>259</ele>
        <time>2019-06-08T15:19:47Z</time>
      </trkpt>
      <trkpt lat="48.93456" lon="-0.40151">
        <ele>259</ele>
        <time>2019-06-08T15:19:49Z</time>
      </trkpt>
      <trkpt lat="48.93449" lon="-0.40143">
        <ele>259</ele>
        <time>2019-06-08T15:19:51Z</time>
      </trkpt>
      <trkpt lat="48.93442" lon="-0.40138">
        <ele>259</ele>
        <time>2019-06-08T15:19:53Z</time>
      </trkpt>
      <trkpt lat="48.93435" lon="-0.40133">
        <ele>259</ele>
        <time>2019-06-08T15:19:55Z</time>
      </trkpt>
      <trkpt lat="48.93428" lon="-0.4013">
        <ele>259</ele>
        <time>2019-06-08T15:19:57Z</time>
      </trkpt>
      <trkpt lat="48.93421" lon="-0.40127">
        <ele>259</ele>
        <time>2019-06-08T15:19:59Z</time>
      </trkpt>
      <trkpt lat="48.93415" lon="-0.40124">
        <ele>261</ele>
        <time>2019-06-08T15:20:01Z</time>
      </trkpt>
      <trkpt lat="48.93407" lon="-0.40121">
        <ele>261</ele>
        <time>2019-06-08T15:20:03Z</time>
      </trkpt>
      <trkpt lat="48.934" lon="-0.40117">
        <ele>261</ele>
        <time>2019-06-08T15:20:05Z</time>
      </trkpt>
      <trkpt lat="48.93394" lon="-0.40112">
        <ele>261</ele>
        <time>2019-06-08T15:20:07Z</time>
      </trkpt>
      <trkpt lat="48.93387" lon="-0.40108">
        <ele>261</ele>
        <time>2019-06-08T15:20:09Z</time>
      </trkpt>
      <trkpt lat="48.93381" lon="-0.40102">
        <ele>261</ele>
        <time>2019-06-08T15:20:11Z</time>
      </trkpt>
      <trkpt lat="48.93374" lon="-0.40096">
        <ele>261</ele>
        <time>2019-06-08T15:20:13Z</time>
      </trkpt>
      <trkpt lat="48.93368" lon="-0.40092">
        <ele>261</ele>
        <time>2019-06-08T15:20:15Z</time>
      </trkpt>
      <trkpt lat="48.93362" lon="-0.40085">
        <ele>261</ele>
        <time>2019-06-08T15:20:17Z</time>
      </trkpt>
      <trkpt lat="48.93355" lon="-0.40081">
        <ele>260</ele>
        <time>2019-06-08T15:20:19Z</time>
      </trkpt>
      <trkpt lat="48.93349" lon="-0.40074">
        <ele>261</ele>
        <time>2019-06-08T15:20:21Z</time>
      </trkpt>
      <trkpt lat="48.93343" lon="-0.40068">
        <ele>261</ele>
        <time>2019-06-08T15:20:23Z</time>
      </trkpt>
      <trkpt lat="48.93338" lon="-0.40063">
        <ele>260</ele>
        <time>2019-06-08T15:20:25Z</time>
      </trkpt>
      <trkpt lat="48.93331" lon="-0.40058">
        <ele>262</ele>
        <time>2019-06-08T15:20:27Z</time>
      </trkpt>
      <trkpt lat="48.93322" lon="-0.40052">
        <ele>262</ele>
        <time>2019-06-08T15:20:31Z</time>
      </trkpt>
      <trkpt lat="48.93317" lon="-0.40051">
        <ele>262</ele>
        <time>2019-06-08T15:20:33Z</time>
      </trkpt>
      <trkpt lat="48.93313" lon="-0.40047">
        <ele>262</ele>
        <time>2019-06-08T15:20:35Z</time>
      </trkpt>
      <trkpt lat="48.93307" lon="-0.40042">
        <ele>262</ele>
        <time>2019-06-08T15:20:37Z</time>
      </trkpt>
      <trkpt lat="48.93303" lon="-0.40038">
        <ele>262</ele>
        <time>2019-06-08T15:20:39Z</time>
      </trkpt>
      <trkpt lat="48.93298" lon="-0.40033">
        <ele>262</ele>
        <time>2019-06-08T15:20:41Z</time>
      </trkpt>
      <trkpt lat="48.93294" lon="-0.40028">
        <ele>262</ele>
        <time>2019-06-08T15:20:43Z</time>
      </trkpt>
      <trkpt lat="48.9329" lon="-0.40023">
        <ele>263</ele>
        <time>2019-06-08T15:20:45Z</time>
      </trkpt>
      <trkpt lat="48.93284" lon="-0.40019">
        <ele>263</ele>
        <time>2019-06-08T15:20:47Z</time>
      </trkpt>
      <trkpt lat="48.93278" lon="-0.40016">
        <ele>263</ele>
        <time>2019-06-08T15:20:49Z</time>
      </trkpt>
      <trkpt lat="48.93273" lon="-0.4001">
        <ele>263</ele>
        <time>2019-06-08T15:20:51Z</time>
      </trkpt>
      <trkpt lat="48.93268" lon="-0.40004">
        <ele>263</ele>
        <time>2019-06-08T15:20:55Z</time>
      </trkpt>
      <trkpt lat="48.9326" lon="-0.39995">
        <ele>262</ele>
        <time>2019-06-08T15:20:59Z</time>
      </trkpt>
      <trkpt lat="48.93254" lon="-0.3999">
        <ele>262</ele>
        <time>2019-06-08T15:21:01Z</time>
      </trkpt>
      <trkpt lat="48.93251" lon="-0.39986">
        <ele>262</ele>
        <time>2019-06-08T15:21:03Z</time>
      </trkpt>
      <trkpt lat="48.93244" lon="-0.39982">
        <ele>264</ele>
        <time>2019-06-08T15:21:05Z</time>
      </trkpt>
      <trkpt lat="48.93238" lon="-0.39977">
        <ele>264</ele>
        <time>2019-06-08T15:21:07Z</time>
      </trkpt>
      <trkpt lat="48.93231" lon="-0.39972">
        <ele>264</ele>
        <time>2019-06-08T15:21:09Z</time>
      </trkpt>
      <trkpt lat="48.93227" lon="-0.39967">
        <ele>264</ele>
        <time>2019-06-08T15:21:11Z</time>
      </trkpt>
      <trkpt lat="48.9322" lon="-0.39963">
        <ele>264</ele>
        <time>2019-06-08T15:21:13Z</time>
      </trkpt>
      <trkpt lat="48.93213" lon="-0.39959">
        <ele>264</ele>
        <time>2019-06-08T15:21:15Z</time>
      </trkpt>
      <trkpt lat="48.93207" lon="-0.39956">
        <ele>264</ele>
        <time>2019-06-08T15:21:17Z</time>
      </trkpt>
      <trkpt lat="48.93202" lon="-0.39949">
        <ele>264</ele>
        <time>2019-06-08T15:21:19Z</time>
      </trkpt>
      <trkpt lat="48.93195" lon="-0.3994">
        <ele>264</ele>
        <time>2019-06-08T15:21:23Z</time>
      </trkpt>
      <trkpt lat="48.93188" lon="-0.39936">
        <ele>264</ele>
        <time>2019-06-08T15:21:25Z</time>
      </trkpt>
      <trkpt lat="48.93181" lon="-0.3993">
        <ele>265</ele>
        <time>2019-06-08T15:21:27Z</time>
      </trkpt>
      <trkpt lat="48.93174" lon="-0.39925">
        <ele>265</ele>
        <time>2019-06-08T15:21:29Z</time>
      </trkpt>
      <trkpt lat="48.93169" lon="-0.39922">
        <ele>265</ele>
        <time>2019-06-08T15:21:31Z</time>
      </trkpt>
      <trkpt lat="48.93163" lon="-0.39916">
        <ele>265</ele>
        <time>2019-06-08T15:21:33Z</time>
      </trkpt>
      <trkpt lat="48.93156" lon="-0.3991">
        <ele>266</ele>
        <time>2019-06-08T15:21:35Z</time>
      </trkpt>
      <trkpt lat="48.93151" lon="-0.39906">
        <ele>266</ele>
        <time>2019-06-08T15:21:37Z</time>
      </trkpt>
      <trkpt lat="48.93144" lon="-0.39903">
        <ele>266</ele>
        <time>2019-06-08T15:21:41Z</time>
      </trkpt>
      <trkpt lat="48.93139" lon="-0.39898">
        <ele>266</ele>
        <time>2019-06-08T15:21:45Z</time>
      </trkpt>
      <trkpt lat="48.93132" lon="-0.3989">
        <ele>266</ele>
        <time>2019-06-08T15:21:49Z</time>
      </trkpt>
      <trkpt lat="48.93126" lon="-0.39888">
        <ele>267</ele>
        <time>2019-06-08T15:21:51Z</time>
      </trkpt>
      <trkpt lat="48.9312" lon="-0.39886">
        <ele>267</ele>
        <time>2019-06-08T15:21:53Z</time>
      </trkpt>
      <trkpt lat="48.93115" lon="-0.39882">
        <ele>267</ele>
        <time>2019-06-08T15:21:55Z</time>
      </trkpt>
      <trkpt lat="48.93111" lon="-0.39877">
        <ele>267</ele>
        <time>2019-06-08T15:21:57Z</time>
      </trkpt>
      <trkpt lat="48.93105" lon="-0.39872">
        <ele>267</ele>
        <time>2019-06-08T15:21:59Z</time>
      </trkpt>
      <trkpt lat="48.93097" lon="-0.39867">
        <ele>267</ele>
        <time>2019-06-08T15:22:01Z</time>
      </trkpt>
      <trkpt lat="48.93091" lon="-0.39861">
        <ele>267</ele>
        <time>2019-06-08T15:22:03Z</time>
      </trkpt>
      <trkpt lat="48.93084" lon="-0.39855">
        <ele>267</ele>
        <time>2019-06-08T15:22:05Z</time>
      </trkpt>
      <trkpt lat="48.93077" lon="-0.3985">
        <ele>269</ele>
        <time>2019-06-08T15:22:07Z</time>
      </trkpt>
      <trkpt lat="48.9307" lon="-0.39843">
        <ele>269</ele>
        <time>2019-06-08T15:22:09Z</time>
      </trkpt>
      <trkpt lat="48.93064" lon="-0.39834">
        <ele>269</ele>
        <time>2019-06-08T15:22:11Z</time>
      </trkpt>
      <trkpt lat="48.93058" lon="-0.39828">
        <ele>269</ele>
        <time>2019-06-08T15:22:13Z</time>
      </trkpt>
      <trkpt lat="48.9305" lon="-0.39825">
        <ele>269</ele>
        <time>2019-06-08T15:22:15Z</time>
      </trkpt>
      <trkpt lat="48.93045" lon="-0.39819">
        <ele>269</ele>
        <time>2019-06-08T15:22:17Z</time>
      </trkpt>
      <trkpt lat="48.93038" lon="-0.39815">
        <ele>269</ele>
        <time>2019-06-08T15:22:19Z</time>
      </trkpt>
      <trkpt lat="48.93031" lon="-0.39808">
        <ele>269</ele>
        <time>2019-06-08T15:22:21Z</time>
      </trkpt>
      <trkpt lat="48.93023" lon="-0.39802">
        <ele>269</ele>
        <time>2019-06-08T15:22:23Z</time>
      </trkpt>
      <trkpt lat="48.93016" lon="-0.398">
        <ele>269</ele>
        <time>2019-06-08T15:22:25Z</time>
      </trkpt>
      <trkpt lat="48.9301" lon="-0.39792">
        <ele>269</ele>
        <time>2019-06-08T15:22:27Z</time>
      </trkpt>
      <trkpt lat="48.93001" lon="-0.39786">
        <ele>269</ele>
        <time>2019-06-08T15:22:29Z</time>
      </trkpt>
      <trkpt lat="48.92993" lon="-0.3978">
        <ele>269</ele>
        <time>2019-06-08T15:22:31Z</time>
      </trkpt>
      <trkpt lat="48.92986" lon="-0.39772">
        <ele>269</ele>
        <time>2019-06-08T15:22:33Z</time>
      </trkpt>
      <trkpt lat="48.92982" lon="-0.39766">
        <ele>269</ele>
        <time>2019-06-08T15:22:35Z</time>
      </trkpt>
      <trkpt lat="48.92976" lon="-0.39762">
        <ele>269</ele>
        <time>2019-06-08T15:22:37Z</time>
      </trkpt>
      <trkpt lat="48.92971" lon="-0.39756">
        <ele>269</ele>
        <time>2019-06-08T15:22:39Z</time>
      </trkpt>
      <trkpt lat="48.92967" lon="-0.3975">
        <ele>269</ele>
        <time>2019-06-08T15:22:43Z</time>
      </trkpt>
      <trkpt lat="48.92962" lon="-0.39748">
        <ele>268</ele>
        <time>2019-06-08T15:22:47Z</time>
      </trkpt>
      <trkpt lat="48.92957" lon="-0.39745">
        <ele>268</ele>
        <time>2019-06-08T15:22:57Z</time>
      </trkpt>
      <trkpt lat="48.92952" lon="-0.39743">
        <ele>268</ele>
        <time>2019-06-08T15:23:05Z</time>
      </trkpt>
      <trkpt lat="48.92947" lon="-0.3974">
        <ele>268</ele>
        <time>2019-06-08T15:23:09Z</time>
      </trkpt>
      <trkpt lat="48.92943" lon="-0.39734">
        <ele>268</ele>
        <time>2019-06-08T15:23:15Z</time>
      </trkpt>
      <trkpt lat="48.92936" lon="-0.39731">
        <ele>268</ele>
        <time>2019-06-08T15:23:19Z</time>
      </trkpt>
      <trkpt lat="48.9293" lon="-0.39724">
        <ele>268</ele>
        <time>2019-06-08T15:23:23Z</time>
      </trkpt>
      <trkpt lat="48.92922" lon="-0.39715">
        <ele>268</ele>
        <time>2019-06-08T15:23:27Z</time>
      </trkpt>
      <trkpt lat="48.92916" lon="-0.39711">
        <ele>268</ele>
        <time>2019-06-08T15:23:29Z</time>
      </trkpt>
      <trkpt lat="48.92911" lon="-0.39707">
        <ele>268</ele>
        <time>2019-06-08T15:23:31Z</time>
      </trkpt>
      <trkpt lat="48.92905" lon="-0.39703">
        <ele>268</ele>
        <time>2019-06-08T15:23:35Z</time>
      </trkpt>
      <trkpt lat="48.92902" lon="-0.39696">
        <ele>267</ele>
        <time>2019-06-08T15:23:39Z</time>
      </trkpt>
      <trkpt lat="48.92898" lon="-0.3969">
        <ele>267</ele>
        <time>2019-06-08T15:23:43Z</time>
      </trkpt>
      <trkpt lat="48.92894" lon="-0.39686">
        <ele>267</ele>
        <time>2019-06-08T15:23:47Z</time>
      </trkpt>
      <trkpt lat="48.92888" lon="-0.39682">
        <ele>267</ele>
        <time>2019-06-08T15:23:51Z</time>
      </trkpt>
      <trkpt lat="48.92883" lon="-0.39679">
        <ele>267</ele>
        <time>2019-06-08T15:23:53Z</time>
      </trkpt>
      <trkpt lat="48.92879" lon="-0.39676">
        <ele>267</ele>
        <time>2019-06-08T15:23:55Z</time>
      </trkpt>
      <trkpt lat="48.92873" lon="-0.39672">
        <ele>267</ele>
        <time>2019-06-08T15:23:57Z</time>
      </trkpt>
      <trkpt lat="48.92868" lon="-0.39668">
        <ele>267</ele>
        <time>2019-06-08T15:23:59Z</time>
      </trkpt>
      <trkpt lat="48.92861" lon="-0.39665">
        <ele>265</ele>
        <time>2019-06-08T15:24:01Z</time>
      </trkpt>
      <trkpt lat="48.92855" lon="-0.39661">
        <ele>265</ele>
        <time>2019-06-08T15:24:03Z</time>
      </trkpt>
      <trkpt lat="48.92853" lon="-0.39656">
        <ele>265</ele>
        <time>2019-06-08T15:24:23Z</time>
      </trkpt>
      <trkpt lat="48.92849" lon="-0.39651">
        <ele>265</ele>
        <time>2019-06-08T15:24:43Z</time>
      </trkpt>
      <trkpt lat="48.92845" lon="-0.39647">
        <ele>265</ele>
        <time>2019-06-08T15:24:45Z</time>
      </trkpt>
      <trkpt lat="48.92837" lon="-0.39641">
        <ele>265</ele>
        <time>2019-06-08T15:24:49Z</time>
      </trkpt>
      <trkpt lat="48.92832" lon="-0.39636">
        <ele>263</ele>
        <time>2019-06-08T15:24:51Z</time>
      </trkpt>
      <trkpt lat="48.92827" lon="-0.39633">
        <ele>263</ele>
        <time>2019-06-08T15:24:53Z</time>
      </trkpt>
      <trkpt lat="48.92823" lon="-0.39629">
        <ele>263</ele>
        <time>2019-06-08T15:24:55Z</time>
      </trkpt>
      <trkpt lat="48.92817" lon="-0.39624">
        <ele>263</ele>
        <time>2019-06-08T15:24:57Z</time>
      </trkpt>
      <trkpt lat="48.92811" lon="-0.39621">
        <ele>263</ele>
        <time>2019-06-08T15:24:59Z</time>
      </trkpt>
      <trkpt lat="48.92806" lon="-0.39618">
        <ele>263</ele>
        <time>2019-06-08T15:25:01Z</time>
      </trkpt>
      <trkpt lat="48.92801" lon="-0.39614">
        <ele>263</ele>
        <time>2019-06-08T15:25:03Z</time>
      </trkpt>
      <trkpt lat="48.92795" lon="-0.3961">
        <ele>263</ele>
        <time>2019-06-08T15:25:05Z</time>
      </trkpt>
      <trkpt lat="48.92788" lon="-0.39606">
        <ele>263</ele>
        <time>2019-06-08T15:25:07Z</time>
      </trkpt>
      <trkpt lat="48.9278" lon="-0.39602">
        <ele>262</ele>
        <time>2019-06-08T15:25:09Z</time>
      </trkpt>
      <trkpt lat="48.92775" lon="-0.39598">
        <ele>262</ele>
        <time>2019-06-08T15:25:11Z</time>
      </trkpt>
      <trkpt lat="48.92771" lon="-0.39594">
        <ele>262</ele>
        <time>2019-06-08T15:25:13Z</time>
      </trkpt>
      <trkpt lat="48.92767" lon="-0.39589">
        <ele>262</ele>
        <time>2019-06-08T15:25:15Z</time>
      </trkpt>
      <trkpt lat="48.9276" lon="-0.39583">
        <ele>261</ele>
        <time>2019-06-08T15:25:19Z</time>
      </trkpt>
      <trkpt lat="48.92754" lon="-0.39581">
        <ele>261</ele>
        <time>2019-06-08T15:25:21Z</time>
      </trkpt>
      <trkpt lat="48.9275" lon="-0.39576">
        <ele>261</ele>
        <time>2019-06-08T15:25:25Z</time>
      </trkpt>
      <trkpt lat="48.92746" lon="-0.39571">
        <ele>260</ele>
        <time>2019-06-08T15:25:33Z</time>
      </trkpt>
      <trkpt lat="48.92741" lon="-0.39568">
        <ele>260</ele>
        <time>2019-06-08T15:25:41Z</time>
      </trkpt>
      <trkpt lat="48.92737" lon="-0.39564">
        <ele>260</ele>
        <time>2019-06-08T15:27:59Z</time>
      </trkpt>
      <trkpt lat="48.9273" lon="-0.39557">
        <ele>260</ele>
        <time>2019-06-08T15:28:03Z</time>
      </trkpt>
      <trkpt lat="48.92724" lon="-0.39551">
        <ele>260</ele>
        <time>2019-06-08T15:28:07Z</time>
      </trkpt>
      <trkpt lat="48.92717" lon="-0.39543">
        <ele>260</ele>
        <time>2019-06-08T15:28:11Z</time>
      </trkpt>
      <trkpt lat="48.9271" lon="-0.39535">
        <ele>260</ele>
        <time>2019-06-08T15:28:15Z</time>
      </trkpt>
      <trkpt lat="48.92705" lon="-0.39532">
        <ele>260</ele>
        <time>2019-06-08T15:28:17Z</time>
      </trkpt>
      <trkpt lat="48.927" lon="-0.39528">
        <ele>260</ele>
        <time>2019-06-08T15:28:19Z</time>
      </trkpt>
      <trkpt lat="48.92695" lon="-0.39525">
        <ele>260</ele>
        <time>2019-06-08T15:28:21Z</time>
      </trkpt>
      <trkpt lat="48.92689" lon="-0.3952">
        <ele>260</ele>
        <time>2019-06-08T15:28:23Z</time>
      </trkpt>
      <trkpt lat="48.92684" lon="-0.39515">
        <ele>260</ele>
        <time>2019-06-08T15:28:25Z</time>
      </trkpt>
      <trkpt lat="48.92679" lon="-0.3951">
        <ele>260</ele>
        <time>2019-06-08T15:28:27Z</time>
      </trkpt>
      <trkpt lat="48.92675" lon="-0.39507">
        <ele>260</ele>
        <time>2019-06-08T15:28:29Z</time>
      </trkpt>
      <trkpt lat="48.92669" lon="-0.39501">
        <ele>260</ele>
        <time>2019-06-08T15:28:31Z</time>
      </trkpt>
      <trkpt lat="48.92662" lon="-0.39495">
        <ele>260</ele>
        <time>2019-06-08T15:28:33Z</time>
      </trkpt>
      <trkpt lat="48.92655" lon="-0.3949">
        <ele>259</ele>
        <time>2019-06-08T15:28:35Z</time>
      </trkpt>
      <trkpt lat="48.92646" lon="-0.39482">
        <ele>259</ele>
        <time>2019-06-08T15:28:37Z</time>
      </trkpt>
      <trkpt lat="48.92638" lon="-0.39476">
        <ele>258</ele>
        <time>2019-06-08T15:28:39Z</time>
      </trkpt>
      <trkpt lat="48.9263" lon="-0.39471">
        <ele>258</ele>
        <time>2019-06-08T15:28:41Z</time>
      </trkpt>
      <trkpt lat="48.92622" lon="-0.39463">
        <ele>258</ele>
        <time>2019-06-08T15:28:43Z</time>
      </trkpt>
      <trkpt lat="48.92614" lon="-0.39457">
        <ele>258</ele>
        <time>2019-06-08T15:28:45Z</time>
      </trkpt>
      <trkpt lat="48.92608" lon="-0.3945">
        <ele>258</ele>
        <time>2019-06-08T15:28:47Z</time>
      </trkpt>
      <trkpt lat="48.926" lon="-0.39443">
        <ele>257</ele>
        <time>2019-06-08T15:28:49Z</time>
      </trkpt>
      <trkpt lat="48.92592" lon="-0.39438">
        <ele>257</ele>
        <time>2019-06-08T15:28:51Z</time>
      </trkpt>
      <trkpt lat="48.92584" lon="-0.39431">
        <ele>257</ele>
        <time>2019-06-08T15:28:53Z</time>
      </trkpt>
      <trkpt lat="48.92577" lon="-0.39423">
        <ele>256</ele>
        <time>2019-06-08T15:28:55Z</time>
      </trkpt>
      <trkpt lat="48.92569" lon="-0.39414">
        <ele>255</ele>
        <time>2019-06-08T15:28:57Z</time>
      </trkpt>
      <trkpt lat="48.92561" lon="-0.39404">
        <ele>254</ele>
        <time>2019-06-08T15:28:59Z</time>
      </trkpt>
      <trkpt lat="48.92552" lon="-0.39396">
        <ele>254</ele>
        <time>2019-06-08T15:29:01Z</time>
      </trkpt>
      <trkpt lat="48.92545" lon="-0.39386">
        <ele>254</ele>
        <time>2019-06-08T15:29:03Z</time>
      </trkpt>
      <trkpt lat="48.92539" lon="-0.39378">
        <ele>254</ele>
        <time>2019-06-08T15:29:05Z</time>
      </trkpt>
      <trkpt lat="48.92533" lon="-0.39368">
        <ele>253</ele>
        <time>2019-06-08T15:29:07Z</time>
      </trkpt>
      <trkpt lat="48.92526" lon="-0.39357">
        <ele>253</ele>
        <time>2019-06-08T15:29:09Z</time>
      </trkpt>
      <trkpt lat="48.9252" lon="-0.39345">
        <ele>253</ele>
        <time>2019-06-08T15:29:11Z</time>
      </trkpt>
      <trkpt lat="48.92516" lon="-0.39333">
        <ele>251</ele>
        <time>2019-06-08T15:29:13Z</time>
      </trkpt>
      <trkpt lat="48.92511" lon="-0.39319">
        <ele>251</ele>
        <time>2019-06-08T15:29:15Z</time>
      </trkpt>
      <trkpt lat="48.92506" lon="-0.39305">
        <ele>250</ele>
        <time>2019-06-08T15:29:17Z</time>
      </trkpt>
      <trkpt lat="48.92502" lon="-0.39291">
        <ele>250</ele>
        <time>2019-06-08T15:29:19Z</time>
      </trkpt>
      <trkpt lat="48.925" lon="-0.39274">
        <ele>250</ele>
        <time>2019-06-08T15:29:21Z</time>
      </trkpt>
      <trkpt lat="48.92499" lon="-0.39257">
        <ele>250</ele>
        <time>2019-06-08T15:29:23Z</time>
      </trkpt>
      <trkpt lat="48.92494" lon="-0.39243">
        <ele>249</ele>
        <time>2019-06-08T15:29:25Z</time>
      </trkpt>
      <trkpt lat="48.92487" lon="-0.39232">
        <ele>249</ele>
        <time>2019-06-08T15:29:27Z</time>
      </trkpt>
      <trkpt lat="48.92478" lon="-0.39224">
        <ele>248</ele>
        <time>2019-06-08T15:29:29Z</time>
      </trkpt>
      <trkpt lat="48.92471" lon="-0.39215">
        <ele>248</ele>
        <time>2019-06-08T15:29:31Z</time>
      </trkpt>
      <trkpt lat="48.92463" lon="-0.39206">
        <ele>248</ele>
        <time>2019-06-08T15:29:33Z</time>
      </trkpt>
      <trkpt lat="48.92454" lon="-0.39198">
        <ele>248</ele>
        <time>2019-06-08T15:29:35Z</time>
      </trkpt>
      <trkpt lat="48.92445" lon="-0.39192">
        <ele>248</ele>
        <time>2019-06-08T15:29:37Z</time>
      </trkpt>
      <trkpt lat="48.92435" lon="-0.39187">
        <ele>248</ele>
        <time>2019-06-08T15:29:39Z</time>
      </trkpt>
      <trkpt lat="48.92425" lon="-0.39183">
        <ele>248</ele>
        <time>2019-06-08T15:29:41Z</time>
      </trkpt>
      <trkpt lat="48.92416" lon="-0.39179">
        <ele>248</ele>
        <time>2019-06-08T15:29:43Z</time>
      </trkpt>
      <trkpt lat="48.92407" lon="-0.39172">
        <ele>248</ele>
        <time>2019-06-08T15:29:45Z</time>
      </trkpt>
      <trkpt lat="48.92398" lon="-0.39162">
        <ele>246</ele>
        <time>2019-06-08T15:29:47Z</time>
      </trkpt>
      <trkpt lat="48.92387" lon="-0.39153">
        <ele>246</ele>
        <time>2019-06-08T15:29:49Z</time>
      </trkpt>
      <trkpt lat="48.92376" lon="-0.39145">
        <ele>245</ele>
        <time>2019-06-08T15:29:51Z</time>
      </trkpt>
      <trkpt lat="48.92366" lon="-0.39142">
        <ele>245</ele>
        <time>2019-06-08T15:29:53Z</time>
      </trkpt>
      <trkpt lat="48.92355" lon="-0.39142">
        <ele>245</ele>
        <time>2019-06-08T15:29:55Z</time>
      </trkpt>
      <trkpt lat="48.92342" lon="-0.3914">
        <ele>245</ele>
        <time>2019-06-08T15:29:57Z</time>
      </trkpt>
      <trkpt lat="48.92329" lon="-0.39138">
        <ele>246</ele>
        <time>2019-06-08T15:29:59Z</time>
      </trkpt>
      <trkpt lat="48.92315" lon="-0.3913">
        <ele>246</ele>
        <time>2019-06-08T15:30:01Z</time>
      </trkpt>
      <trkpt lat="48.923" lon="-0.39122">
        <ele>246</ele>
        <time>2019-06-08T15:30:03Z</time>
      </trkpt>
      <trkpt lat="48.92287" lon="-0.39118">
        <ele>246</ele>
        <time>2019-06-08T15:30:05Z</time>
      </trkpt>
      <trkpt lat="48.92276" lon="-0.39114">
        <ele>247</ele>
        <time>2019-06-08T15:30:07Z</time>
      </trkpt>
      <trkpt lat="48.92269" lon="-0.39109">
        <ele>247</ele>
        <time>2019-06-08T15:30:09Z</time>
      </trkpt>
      <trkpt lat="48.92264" lon="-0.39101">
        <ele>247</ele>
        <time>2019-06-08T15:30:11Z</time>
      </trkpt>
      <trkpt lat="48.92262" lon="-0.39092">
        <ele>247</ele>
        <time>2019-06-08T15:30:13Z</time>
      </trkpt>
      <trkpt lat="48.92261" lon="-0.39082">
        <ele>247</ele>
        <time>2019-06-08T15:30:15Z</time>
      </trkpt>
      <trkpt lat="48.92261" lon="-0.39071">
        <ele>246</ele>
        <time>2019-06-08T15:30:17Z</time>
      </trkpt>
      <trkpt lat="48.92262" lon="-0.39058">
        <ele>245</ele>
        <time>2019-06-08T15:30:19Z</time>
      </trkpt>
      <trkpt lat="48.92264" lon="-0.39047">
        <ele>245</ele>
        <time>2019-06-08T15:30:21Z</time>
      </trkpt>
      <trkpt lat="48.92264" lon="-0.39033">
        <ele>245</ele>
        <time>2019-06-08T15:30:23Z</time>
      </trkpt>
      <trkpt lat="48.92266" lon="-0.39017">
        <ele>245</ele>
        <time>2019-06-08T15:30:25Z</time>
      </trkpt>
      <trkpt lat="48.92264" lon="-0.39002">
        <ele>246</ele>
        <time>2019-06-08T15:30:27Z</time>
      </trkpt>
      <trkpt lat="48.92258" lon="-0.3899">
        <ele>245</ele>
        <time>2019-06-08T15:30:29Z</time>
      </trkpt>
      <trkpt lat="48.92251" lon="-0.38983">
        <ele>245</ele>
        <time>2019-06-08T15:30:31Z</time>
      </trkpt>
      <trkpt lat="48.92245" lon="-0.38976">
        <ele>249</ele>
        <time>2019-06-08T15:30:33Z</time>
      </trkpt>
      <trkpt lat="48.92239" lon="-0.38971">
        <ele>249</ele>
        <time>2019-06-08T15:30:35Z</time>
      </trkpt>
      <trkpt lat="48.92234" lon="-0.38967">
        <ele>249</ele>
        <time>2019-06-08T15:30:37Z</time>
      </trkpt>
      <trkpt lat="48.92228" lon="-0.38963">
        <ele>250</ele>
        <time>2019-06-08T15:30:41Z</time>
      </trkpt>
      <trkpt lat="48.92224" lon="-0.38961">
        <ele>250</ele>
        <time>2019-06-08T15:31:23Z</time>
      </trkpt>
      <trkpt lat="48.92219" lon="-0.38969">
        <ele>250</ele>
        <time>2019-06-08T15:31:29Z</time>
      </trkpt>
      <trkpt lat="48.92215" lon="-0.38982">
        <ele>250</ele>
        <time>2019-06-08T15:31:33Z</time>
      </trkpt>
      <trkpt lat="48.92213" lon="-0.3899">
        <ele>250</ele>
        <time>2019-06-08T15:31:35Z</time>
      </trkpt>
      <trkpt lat="48.92211" lon="-0.38999">
        <ele>250</ele>
        <time>2019-06-08T15:31:37Z</time>
      </trkpt>
      <trkpt lat="48.92208" lon="-0.39008">
        <ele>251</ele>
        <time>2019-06-08T15:31:39Z</time>
      </trkpt>
      <trkpt lat="48.92205" lon="-0.39018">
        <ele>251</ele>
        <time>2019-06-08T15:31:41Z</time>
      </trkpt>
      <trkpt lat="48.92203" lon="-0.39026">
        <ele>251</ele>
        <time>2019-06-08T15:31:43Z</time>
      </trkpt>
      <trkpt lat="48.92201" lon="-0.39035">
        <ele>252</ele>
        <time>2019-06-08T15:31:45Z</time>
      </trkpt>
      <trkpt lat="48.92199" lon="-0.39042">
        <ele>252</ele>
        <time>2019-06-08T15:31:47Z</time>
      </trkpt>
      <trkpt lat="48.92197" lon="-0.39049">
        <ele>252</ele>
        <time>2019-06-08T15:31:49Z</time>
      </trkpt>
      <trkpt lat="48.92195" lon="-0.39057">
        <ele>252</ele>
        <time>2019-06-08T15:31:51Z</time>
      </trkpt>
      <trkpt lat="48.92191" lon="-0.39068">
        <ele>253</ele>
        <time>2019-06-08T15:31:55Z</time>
      </trkpt>
      <trkpt lat="48.92188" lon="-0.39074">
        <ele>253</ele>
        <time>2019-06-08T15:31:57Z</time>
      </trkpt>
      <trkpt lat="48.92186" lon="-0.39081">
        <ele>253</ele>
        <time>2019-06-08T15:31:59Z</time>
      </trkpt>
      <trkpt lat="48.92183" lon="-0.3909">
        <ele>255</ele>
        <time>2019-06-08T15:32:03Z</time>
      </trkpt>
      <trkpt lat="48.92181" lon="-0.39096">
        <ele>255</ele>
        <time>2019-06-08T15:32:19Z</time>
      </trkpt>
      <trkpt lat="48.92178" lon="-0.39104">
        <ele>255</ele>
        <time>2019-06-08T15:32:23Z</time>
      </trkpt>
      <trkpt lat="48.92174" lon="-0.39116">
        <ele>255</ele>
        <time>2019-06-08T15:32:27Z</time>
      </trkpt>
      <trkpt lat="48.92173" lon="-0.39122">
        <ele>255</ele>
        <time>2019-06-08T15:32:29Z</time>
      </trkpt>
      <trkpt lat="48.92169" lon="-0.39133">
        <ele>256</ele>
        <time>2019-06-08T15:32:33Z</time>
      </trkpt>
      <trkpt lat="48.92165" lon="-0.39145">
        <ele>261</ele>
        <time>2019-06-08T15:32:37Z</time>
      </trkpt>
      <trkpt lat="48.9216" lon="-0.39156">
        <ele>262</ele>
        <time>2019-06-08T15:32:41Z</time>
      </trkpt>
      <trkpt lat="48.92158" lon="-0.39163">
        <ele>261</ele>
        <time>2019-06-08T15:32:43Z</time>
      </trkpt>
      <trkpt lat="48.92157" lon="-0.39169">
        <ele>262</ele>
        <time>2019-06-08T15:32:45Z</time>
      </trkpt>
      <trkpt lat="48.92152" lon="-0.39183">
        <ele>263</ele>
        <time>2019-06-08T15:32:49Z</time>
      </trkpt>
      <trkpt lat="48.92151" lon="-0.3919">
        <ele>264</ele>
        <time>2019-06-08T15:32:51Z</time>
      </trkpt>
      <trkpt lat="48.92149" lon="-0.39196">
        <ele>264</ele>
        <time>2019-06-08T15:32:53Z</time>
      </trkpt>
      <trkpt lat="48.92147" lon="-0.39202">
        <ele>264</ele>
        <time>2019-06-08T15:32:55Z</time>
      </trkpt>
      <trkpt lat="48.92142" lon="-0.39213">
        <ele>264</ele>
        <time>2019-06-08T15:32:59Z</time>
      </trkpt>
      <trkpt lat="48.9214" lon="-0.39219">
        <ele>265</ele>
        <time>2019-06-08T15:33:01Z</time>
      </trkpt>
      <trkpt lat="48.92137" lon="-0.39225">
        <ele>265</ele>
        <time>2019-06-08T15:33:03Z</time>
      </trkpt>
      <trkpt lat="48.92136" lon="-0.39232">
        <ele>265</ele>
        <time>2019-06-08T15:33:05Z</time>
      </trkpt>
      <trkpt lat="48.92133" lon="-0.39239">
        <ele>265</ele>
        <time>2019-06-08T15:33:07Z</time>
      </trkpt>
      <trkpt lat="48.92131" lon="-0.39245">
        <ele>265</ele>
        <time>2019-06-08T15:33:09Z</time>
      </trkpt>
      <trkpt lat="48.92129" lon="-0.39252">
        <ele>266</ele>
        <time>2019-06-08T15:33:11Z</time>
      </trkpt>
      <trkpt lat="48.92127" lon="-0.39259">
        <ele>266</ele>
        <time>2019-06-08T15:33:13Z</time>
      </trkpt>
      <trkpt lat="48.92125" lon="-0.39266">
        <ele>266</ele>
        <time>2019-06-08T15:33:15Z</time>
      </trkpt>
      <trkpt lat="48.92123" lon="-0.39273">
        <ele>266</ele>
        <time>2019-06-08T15:33:17Z</time>
      </trkpt>
      <trkpt lat="48.92121" lon="-0.3928">
        <ele>266</ele>
        <time>2019-06-08T15:33:19Z</time>
      </trkpt>
      <trkpt lat="48.92119" lon="-0.39287">
        <ele>266</ele>
        <time>2019-06-08T15:33:21Z</time>
      </trkpt>
      <trkpt lat="48.92117" lon="-0.39295">
        <ele>266</ele>
        <time>2019-06-08T15:33:23Z</time>
      </trkpt>
      <trkpt lat="48.92114" lon="-0.39302">
        <ele>267</ele>
        <time>2019-06-08T15:33:25Z</time>
      </trkpt>
      <trkpt lat="48.92112" lon="-0.3931">
        <ele>267</ele>
        <time>2019-06-08T15:33:27Z</time>
      </trkpt>
      <trkpt lat="48.9211" lon="-0.39317">
        <ele>267</ele>
        <time>2019-06-08T15:33:29Z</time>
      </trkpt>
      <trkpt lat="48.92108" lon="-0.39325">
        <ele>267</ele>
        <time>2019-06-08T15:33:31Z</time>
      </trkpt>
      <trkpt lat="48.92105" lon="-0.39331">
        <ele>268</ele>
        <time>2019-06-08T15:33:33Z</time>
      </trkpt>
      <trkpt lat="48.92104" lon="-0.39338">
        <ele>268</ele>
        <time>2019-06-08T15:33:35Z</time>
      </trkpt>
      <trkpt lat="48.92102" lon="-0.39345">
        <ele>268</ele>
        <time>2019-06-08T15:33:37Z</time>
      </trkpt>
      <trkpt lat="48.921" lon="-0.39352">
        <ele>268</ele>
        <time>2019-06-08T15:33:39Z</time>
      </trkpt>
      <trkpt lat="48.92098" lon="-0.39358">
        <ele>268</ele>
        <time>2019-06-08T15:33:41Z</time>
      </trkpt>
      <trkpt lat="48.92096" lon="-0.39366">
        <ele>269</ele>
        <time>2019-06-08T15:33:43Z</time>
      </trkpt>
      <trkpt lat="48.92094" lon="-0.39374">
        <ele>269</ele>
        <time>2019-06-08T15:33:45Z</time>
      </trkpt>
      <trkpt lat="48.92092" lon="-0.39381">
        <ele>269</ele>
        <time>2019-06-08T15:33:47Z</time>
      </trkpt>
      <trkpt lat="48.9209" lon="-0.39389">
        <ele>269</ele>
        <time>2019-06-08T15:33:49Z</time>
      </trkpt>
      <trkpt lat="48.92088" lon="-0.39396">
        <ele>270</ele>
        <time>2019-06-08T15:33:51Z</time>
      </trkpt>
      <trkpt lat="48.92086" lon="-0.39404">
        <ele>271</ele>
        <time>2019-06-08T15:33:53Z</time>
      </trkpt>
      <trkpt lat="48.92084" lon="-0.39412">
        <ele>272</ele>
        <time>2019-06-08T15:33:55Z</time>
      </trkpt>
      <trkpt lat="48.92082" lon="-0.3942">
        <ele>273</ele>
        <time>2019-06-08T15:33:57Z</time>
      </trkpt>
      <trkpt lat="48.9208" lon="-0.39427">
        <ele>274</ele>
        <time>2019-06-08T15:33:59Z</time>
      </trkpt>
      <trkpt lat="48.92078" lon="-0.39435">
        <ele>274</ele>
        <time>2019-06-08T15:34:01Z</time>
      </trkpt>
      <trkpt lat="48.92076" lon="-0.39442">
        <ele>274</ele>
        <time>2019-06-08T15:34:03Z</time>
      </trkpt>
      <trkpt lat="48.92074" lon="-0.3945">
        <ele>274</ele>
        <time>2019-06-08T15:34:05Z</time>
      </trkpt>
      <trkpt lat="48.92072" lon="-0.39457">
        <ele>274</ele>
        <time>2019-06-08T15:34:07Z</time>
      </trkpt>
      <trkpt lat="48.9207" lon="-0.39466">
        <ele>274</ele>
        <time>2019-06-08T15:34:09Z</time>
      </trkpt>
      <trkpt lat="48.92067" lon="-0.39473">
        <ele>275</ele>
        <time>2019-06-08T15:34:11Z</time>
      </trkpt>
      <trkpt lat="48.92065" lon="-0.39481">
        <ele>275</ele>
        <time>2019-06-08T15:34:13Z</time>
      </trkpt>
      <trkpt lat="48.92063" lon="-0.39489">
        <ele>275</ele>
        <time>2019-06-08T15:34:15Z</time>
      </trkpt>
      <trkpt lat="48.92062" lon="-0.39496">
        <ele>275</ele>
        <time>2019-06-08T15:34:17Z</time>
      </trkpt>
      <trkpt lat="48.9206" lon="-0.39504">
        <ele>275</ele>
        <time>2019-06-08T15:34:19Z</time>
      </trkpt>
      <trkpt lat="48.92058" lon="-0.39511">
        <ele>275</ele>
        <time>2019-06-08T15:34:21Z</time>
      </trkpt>
      <trkpt lat="48.92056" lon="-0.39518">
        <ele>275</ele>
        <time>2019-06-08T15:34:23Z</time>
      </trkpt>
      <trkpt lat="48.92054" lon="-0.39526">
        <ele>275</ele>
        <time>2019-06-08T15:34:25Z</time>
      </trkpt>
      <trkpt lat="48.92052" lon="-0.39534">
        <ele>275</ele>
        <time>2019-06-08T15:34:27Z</time>
      </trkpt>
      <trkpt lat="48.92051" lon="-0.39543">
        <ele>275</ele>
        <time>2019-06-08T15:34:29Z</time>
      </trkpt>
      <trkpt lat="48.92049" lon="-0.39552">
        <ele>276</ele>
        <time>2019-06-08T15:34:31Z</time>
      </trkpt>
      <trkpt lat="48.92048" lon="-0.39561">
        <ele>276</ele>
        <time>2019-06-08T15:34:33Z</time>
      </trkpt>
      <trkpt lat="48.92047" lon="-0.3957">
        <ele>276</ele>
        <time>2019-06-08T15:34:35Z</time>
      </trkpt>
      <trkpt lat="48.92046" lon="-0.39578">
        <ele>276</ele>
        <time>2019-06-08T15:34:37Z</time>
      </trkpt>
      <trkpt lat="48.92046" lon="-0.39587">
        <ele>276</ele>
        <time>2019-06-08T15:34:39Z</time>
      </trkpt>
      <trkpt lat="48.92046" lon="-0.39595">
        <ele>276</ele>
        <time>2019-06-08T15:34:41Z</time>
      </trkpt>
      <trkpt lat="48.92046" lon="-0.39603">
        <ele>277</ele>
        <time>2019-06-08T15:34:43Z</time>
      </trkpt>
      <trkpt lat="48.92046" lon="-0.39612">
        <ele>277</ele>
        <time>2019-06-08T15:34:45Z</time>
      </trkpt>
      <trkpt lat="48.92046" lon="-0.39621">
        <ele>277</ele>
        <time>2019-06-08T15:34:47Z</time>
      </trkpt>
      <trkpt lat="48.92046" lon="-0.39631">
        <ele>277</ele>
        <time>2019-06-08T15:34:49Z</time>
      </trkpt>
      <trkpt lat="48.92047" lon="-0.39639">
        <ele>277</ele>
        <time>2019-06-08T15:34:51Z</time>
      </trkpt>
      <trkpt lat="48.92047" lon="-0.39648">
        <ele>277</ele>
        <time>2019-06-08T15:34:53Z</time>
      </trkpt>
      <trkpt lat="48.92047" lon="-0.39656">
        <ele>277</ele>
        <time>2019-06-08T15:34:55Z</time>
      </trkpt>
      <trkpt lat="48.92047" lon="-0.39666">
        <ele>277</ele>
        <time>2019-06-08T15:34:57Z</time>
      </trkpt>
      <trkpt lat="48.92047" lon="-0.39676">
        <ele>279</ele>
        <time>2019-06-08T15:34:59Z</time>
      </trkpt>
      <trkpt lat="48.92046" lon="-0.39685">
        <ele>279</ele>
        <time>2019-06-08T15:35:01Z</time>
      </trkpt>
      <trkpt lat="48.92046" lon="-0.39695">
        <ele>279</ele>
        <time>2019-06-08T15:35:03Z</time>
      </trkpt>
      <trkpt lat="48.92046" lon="-0.39704">
        <ele>279</ele>
        <time>2019-06-08T15:35:05Z</time>
      </trkpt>
      <trkpt lat="48.92047" lon="-0.39713">
        <ele>279</ele>
        <time>2019-06-08T15:35:07Z</time>
      </trkpt>
      <trkpt lat="48.92048" lon="-0.39723">
        <ele>279</ele>
        <time>2019-06-08T15:35:09Z</time>
      </trkpt>
      <trkpt lat="48.92048" lon="-0.39732">
        <ele>280</ele>
        <time>2019-06-08T15:35:11Z</time>
      </trkpt>
      <trkpt lat="48.92048" lon="-0.3974">
        <ele>280</ele>
        <time>2019-06-08T15:35:13Z</time>
      </trkpt>
      <trkpt lat="48.92047" lon="-0.39749">
        <ele>280</ele>
        <time>2019-06-08T15:35:15Z</time>
      </trkpt>
      <trkpt lat="48.92047" lon="-0.39758">
        <ele>281</ele>
        <time>2019-06-08T15:35:17Z</time>
      </trkpt>
      <trkpt lat="48.92047" lon="-0.39767">
        <ele>281</ele>
        <time>2019-06-08T15:35:19Z</time>
      </trkpt>
      <trkpt lat="48.92047" lon="-0.39776">
        <ele>281</ele>
        <time>2019-06-08T15:35:21Z</time>
      </trkpt>
      <trkpt lat="48.92046" lon="-0.39785">
        <ele>282</ele>
        <time>2019-06-08T15:35:23Z</time>
      </trkpt>
      <trkpt lat="48.92046" lon="-0.39795">
        <ele>282</ele>
        <time>2019-06-08T15:35:25Z</time>
      </trkpt>
      <trkpt lat="48.92045" lon="-0.39804">
        <ele>282</ele>
        <time>2019-06-08T15:35:27Z</time>
      </trkpt>
      <trkpt lat="48.92044" lon="-0.39813">
        <ele>282</ele>
        <time>2019-06-08T15:35:29Z</time>
      </trkpt>
      <trkpt lat="48.92043" lon="-0.39822">
        <ele>282</ele>
        <time>2019-06-08T15:35:31Z</time>
      </trkpt>
      <trkpt lat="48.92041" lon="-0.39832">
        <ele>282</ele>
        <time>2019-06-08T15:35:33Z</time>
      </trkpt>
      <trkpt lat="48.9204" lon="-0.39843">
        <ele>283</ele>
        <time>2019-06-08T15:35:35Z</time>
      </trkpt>
      <trkpt lat="48.92038" lon="-0.39855">
        <ele>283</ele>
        <time>2019-06-08T15:35:37Z</time>
      </trkpt>
      <trkpt lat="48.92035" lon="-0.39867">
        <ele>283</ele>
        <time>2019-06-08T15:35:39Z</time>
      </trkpt>
      <trkpt lat="48.92032" lon="-0.3988">
        <ele>283</ele>
        <time>2019-06-08T15:35:41Z</time>
      </trkpt>
      <trkpt lat="48.92031" lon="-0.39892">
        <ele>283</ele>
        <time>2019-06-08T15:35:43Z</time>
      </trkpt>
      <trkpt lat="48.92028" lon="-0.39904">
        <ele>283</ele>
        <time>2019-06-08T15:35:45Z</time>
      </trkpt>
      <trkpt lat="48.92026" lon="-0.39916">
        <ele>283</ele>
        <time>2019-06-08T15:35:47Z</time>
      </trkpt>
      <trkpt lat="48.92024" lon="-0.39927">
        <ele>283</ele>
        <time>2019-06-08T15:35:49Z</time>
      </trkpt>
      <trkpt lat="48.92022" lon="-0.39939">
        <ele>283</ele>
        <time>2019-06-08T15:35:51Z</time>
      </trkpt>
      <trkpt lat="48.9202" lon="-0.39951">
        <ele>283</ele>
        <time>2019-06-08T15:35:53Z</time>
      </trkpt>
      <trkpt lat="48.92018" lon="-0.39962">
        <ele>283</ele>
        <time>2019-06-08T15:35:55Z</time>
      </trkpt>
      <trkpt lat="48.92016" lon="-0.39974">
        <ele>282</ele>
        <time>2019-06-08T15:35:57Z</time>
      </trkpt>
      <trkpt lat="48.92015" lon="-0.39987">
        <ele>282</ele>
        <time>2019-06-08T15:35:59Z</time>
      </trkpt>
      <trkpt lat="48.92014" lon="-0.39999">
        <ele>282</ele>
        <time>2019-06-08T15:36:01Z</time>
      </trkpt>
      <trkpt lat="48.92013" lon="-0.40011">
        <ele>282</ele>
        <time>2019-06-08T15:36:03Z</time>
      </trkpt>
      <trkpt lat="48.92013" lon="-0.40023">
        <ele>283</ele>
        <time>2019-06-08T15:36:05Z</time>
      </trkpt>
      <trkpt lat="48.92013" lon="-0.40033">
        <ele>283</ele>
        <time>2019-06-08T15:36:07Z</time>
      </trkpt>
      <trkpt lat="48.92013" lon="-0.40046">
        <ele>283</ele>
        <time>2019-06-08T15:36:09Z</time>
      </trkpt>
      <trkpt lat="48.92014" lon="-0.40057">
        <ele>283</ele>
        <time>2019-06-08T15:36:11Z</time>
      </trkpt>
      <trkpt lat="48.92014" lon="-0.40068">
        <ele>283</ele>
        <time>2019-06-08T15:36:13Z</time>
      </trkpt>
      <trkpt lat="48.92015" lon="-0.4008">
        <ele>283</ele>
        <time>2019-06-08T15:36:15Z</time>
      </trkpt>
      <trkpt lat="48.92015" lon="-0.40093">
        <ele>284</ele>
        <time>2019-06-08T15:36:17Z</time>
      </trkpt>
      <trkpt lat="48.92016" lon="-0.40106">
        <ele>284</ele>
        <time>2019-06-08T15:36:19Z</time>
      </trkpt>
      <trkpt lat="48.92016" lon="-0.40118">
        <ele>284</ele>
        <time>2019-06-08T15:36:21Z</time>
      </trkpt>
      <trkpt lat="48.92017" lon="-0.40131">
        <ele>284</ele>
        <time>2019-06-08T15:36:23Z</time>
      </trkpt>
      <trkpt lat="48.92018" lon="-0.40144">
        <ele>284</ele>
        <time>2019-06-08T15:36:25Z</time>
      </trkpt>
      <trkpt lat="48.92019" lon="-0.40156">
        <ele>284</ele>
        <time>2019-06-08T15:36:27Z</time>
      </trkpt>
      <trkpt lat="48.9202" lon="-0.40168">
        <ele>284</ele>
        <time>2019-06-08T15:36:29Z</time>
      </trkpt>
      <trkpt lat="48.92021" lon="-0.4018">
        <ele>285</ele>
        <time>2019-06-08T15:36:31Z</time>
      </trkpt>
      <trkpt lat="48.92022" lon="-0.40192">
        <ele>285</ele>
        <time>2019-06-08T15:36:33Z</time>
      </trkpt>
      <trkpt lat="48.92023" lon="-0.40203">
        <ele>285</ele>
        <time>2019-06-08T15:36:35Z</time>
      </trkpt>
      <trkpt lat="48.92025" lon="-0.40215">
        <ele>285</ele>
        <time>2019-06-08T15:36:37Z</time>
      </trkpt>
      <trkpt lat="48.92026" lon="-0.40228">
        <ele>285</ele>
        <time>2019-06-08T15:36:39Z</time>
      </trkpt>
      <trkpt lat="48.92026" lon="-0.40241">
        <ele>285</ele>
        <time>2019-06-08T15:36:41Z</time>
      </trkpt>
      <trkpt lat="48.92029" lon="-0.40253">
        <ele>285</ele>
        <time>2019-06-08T15:36:43Z</time>
      </trkpt>
      <trkpt lat="48.92032" lon="-0.40263">
        <ele>285</ele>
        <time>2019-06-08T15:36:45Z</time>
      </trkpt>
      <trkpt lat="48.92033" lon="-0.40276">
        <ele>286</ele>
        <time>2019-06-08T15:36:47Z</time>
      </trkpt>
      <trkpt lat="48.92035" lon="-0.40287">
        <ele>286</ele>
        <time>2019-06-08T15:36:49Z</time>
      </trkpt>
      <trkpt lat="48.92037" lon="-0.40298">
        <ele>286</ele>
        <time>2019-06-08T15:36:51Z</time>
      </trkpt>
      <trkpt lat="48.92038" lon="-0.40308">
        <ele>286</ele>
        <time>2019-06-08T15:36:53Z</time>
      </trkpt>
      <trkpt lat="48.92039" lon="-0.40318">
        <ele>286</ele>
        <time>2019-06-08T15:36:55Z</time>
      </trkpt>
      <trkpt lat="48.9204" lon="-0.4033">
        <ele>286</ele>
        <time>2019-06-08T15:36:57Z</time>
      </trkpt>
      <trkpt lat="48.9204" lon="-0.40342">
        <ele>287</ele>
        <time>2019-06-08T15:36:59Z</time>
      </trkpt>
      <trkpt lat="48.9204" lon="-0.40351">
        <ele>287</ele>
        <time>2019-06-08T15:37:01Z</time>
      </trkpt>
      <trkpt lat="48.92041" lon="-0.40363">
        <ele>287</ele>
        <time>2019-06-08T15:37:03Z</time>
      </trkpt>
      <trkpt lat="48.92042" lon="-0.40374">
        <ele>287</ele>
        <time>2019-06-08T15:37:05Z</time>
      </trkpt>
      <trkpt lat="48.92043" lon="-0.40385">
        <ele>287</ele>
        <time>2019-06-08T15:37:07Z</time>
      </trkpt>
      <trkpt lat="48.92044" lon="-0.40396">
        <ele>287</ele>
        <time>2019-06-08T15:37:09Z</time>
      </trkpt>
      <trkpt lat="48.92043" lon="-0.40407">
        <ele>287</ele>
        <time>2019-06-08T15:37:11Z</time>
      </trkpt>
      <trkpt lat="48.92044" lon="-0.40419">
        <ele>288</ele>
        <time>2019-06-08T15:37:13Z</time>
      </trkpt>
      <trkpt lat="48.92045" lon="-0.40429">
        <ele>288</ele>
        <time>2019-06-08T15:37:15Z</time>
      </trkpt>
      <trkpt lat="48.92047" lon="-0.40441">
        <ele>288</ele>
        <time>2019-06-08T15:37:17Z</time>
      </trkpt>
      <trkpt lat="48.92047" lon="-0.40452">
        <ele>288</ele>
        <time>2019-06-08T15:37:19Z</time>
      </trkpt>
      <trkpt lat="48.92048" lon="-0.40463">
        <ele>288</ele>
        <time>2019-06-08T15:37:21Z</time>
      </trkpt>
      <trkpt lat="48.92048" lon="-0.40475">
        <ele>288</ele>
        <time>2019-06-08T15:37:23Z</time>
      </trkpt>
      <trkpt lat="48.92049" lon="-0.40486">
        <ele>288</ele>
        <time>2019-06-08T15:37:25Z</time>
      </trkpt>
      <trkpt lat="48.92049" lon="-0.40499">
        <ele>288</ele>
        <time>2019-06-08T15:37:27Z</time>
      </trkpt>
      <trkpt lat="48.9205" lon="-0.40512">
        <ele>288</ele>
        <time>2019-06-08T15:37:29Z</time>
      </trkpt>
      <trkpt lat="48.9205" lon="-0.40523">
        <ele>288</ele>
        <time>2019-06-08T15:37:31Z</time>
      </trkpt>
      <trkpt lat="48.92051" lon="-0.40535">
        <ele>288</ele>
        <time>2019-06-08T15:37:33Z</time>
      </trkpt>
      <trkpt lat="48.92051" lon="-0.40547">
        <ele>288</ele>
        <time>2019-06-08T15:37:35Z</time>
      </trkpt>
      <trkpt lat="48.92051" lon="-0.40559">
        <ele>288</ele>
        <time>2019-06-08T15:37:37Z</time>
      </trkpt>
      <trkpt lat="48.92051" lon="-0.4057">
        <ele>288</ele>
        <time>2019-06-08T15:37:39Z</time>
      </trkpt>
      <trkpt lat="48.9205" lon="-0.40583">
        <ele>288</ele>
        <time>2019-06-08T15:37:41Z</time>
      </trkpt>
      <trkpt lat="48.9205" lon="-0.40594">
        <ele>288</ele>
        <time>2019-06-08T15:37:43Z</time>
      </trkpt>
      <trkpt lat="48.9205" lon="-0.40605">
        <ele>288</ele>
        <time>2019-06-08T15:37:45Z</time>
      </trkpt>
      <trkpt lat="48.92049" lon="-0.40615">
        <ele>288</ele>
        <time>2019-06-08T15:37:47Z</time>
      </trkpt>
      <trkpt lat="48.92048" lon="-0.40625">
        <ele>288</ele>
        <time>2019-06-08T15:37:51Z</time>
      </trkpt>
      <trkpt lat="48.92048" lon="-0.40633">
        <ele>288</ele>
        <time>2019-06-08T15:39:13Z</time>
      </trkpt>
      <trkpt lat="48.9205" lon="-0.40641">
        <ele>288</ele>
        <time>2019-06-08T15:39:17Z</time>
      </trkpt>
      <trkpt lat="48.92052" lon="-0.40649">
        <ele>288</ele>
        <time>2019-06-08T15:39:25Z</time>
      </trkpt>
      <trkpt lat="48.9205" lon="-0.40656">
        <ele>288</ele>
        <time>2019-06-08T15:39:31Z</time>
      </trkpt>
      <trkpt lat="48.92047" lon="-0.40664">
        <ele>288</ele>
        <time>2019-06-08T15:39:37Z</time>
      </trkpt>
      <trkpt lat="48.92047" lon="-0.40672">
        <ele>289</ele>
        <time>2019-06-08T15:39:41Z</time>
      </trkpt>
      <trkpt lat="48.92044" lon="-0.40683">
        <ele>289</ele>
        <time>2019-06-08T15:39:45Z</time>
      </trkpt>
      <trkpt lat="48.92041" lon="-0.40695">
        <ele>289</ele>
        <time>2019-06-08T15:39:49Z</time>
      </trkpt>
      <trkpt lat="48.92039" lon="-0.40702">
        <ele>289</ele>
        <time>2019-06-08T15:39:51Z</time>
      </trkpt>
      <trkpt lat="48.92038" lon="-0.4071">
        <ele>289</ele>
        <time>2019-06-08T15:39:53Z</time>
      </trkpt>
      <trkpt lat="48.92037" lon="-0.40718">
        <ele>290</ele>
        <time>2019-06-08T15:39:55Z</time>
      </trkpt>
      <trkpt lat="48.92036" lon="-0.40726">
        <ele>290</ele>
        <time>2019-06-08T15:39:57Z</time>
      </trkpt>
      <trkpt lat="48.92034" lon="-0.40733">
        <ele>290</ele>
        <time>2019-06-08T15:39:59Z</time>
      </trkpt>
      <trkpt lat="48.92031" lon="-0.40744">
        <ele>290</ele>
        <time>2019-06-08T15:40:03Z</time>
      </trkpt>
      <trkpt lat="48.92031" lon="-0.40751">
        <ele>291</ele>
        <time>2019-06-08T15:40:05Z</time>
      </trkpt>
      <trkpt lat="48.92031" lon="-0.4076">
        <ele>291</ele>
        <time>2019-06-08T15:40:07Z</time>
      </trkpt>
      <trkpt lat="48.92028" lon="-0.40773">
        <ele>291</ele>
        <time>2019-06-08T15:40:11Z</time>
      </trkpt>
      <trkpt lat="48.92027" lon="-0.40785">
        <ele>292</ele>
        <time>2019-06-08T15:40:15Z</time>
      </trkpt>
      <trkpt lat="48.92024" lon="-0.40794">
        <ele>292</ele>
        <time>2019-06-08T15:40:19Z</time>
      </trkpt>
      <trkpt lat="48.9202" lon="-0.40803">
        <ele>292</ele>
        <time>2019-06-08T15:40:23Z</time>
      </trkpt>
      <trkpt lat="48.92019" lon="-0.40814">
        <ele>292</ele>
        <time>2019-06-08T15:40:27Z</time>
      </trkpt>
      <trkpt lat="48.92017" lon="-0.40826">
        <ele>292</ele>
        <time>2019-06-08T15:40:31Z</time>
      </trkpt>
      <trkpt lat="48.92014" lon="-0.40836">
        <ele>292</ele>
        <time>2019-06-08T15:40:35Z</time>
      </trkpt>
      <trkpt lat="48.92012" lon="-0.40848">
        <ele>292</ele>
        <time>2019-06-08T15:40:39Z</time>
      </trkpt>
      <trkpt lat="48.92011" lon="-0.40855">
        <ele>293</ele>
        <time>2019-06-08T15:40:41Z</time>
      </trkpt>
      <trkpt lat="48.92012" lon="-0.40863">
        <ele>293</ele>
        <time>2019-06-08T15:40:43Z</time>
      </trkpt>
      <trkpt lat="48.92012" lon="-0.4087">
        <ele>293</ele>
        <time>2019-06-08T15:40:45Z</time>
      </trkpt>
      <trkpt lat="48.92014" lon="-0.40877">
        <ele>293</ele>
        <time>2019-06-08T15:40:47Z</time>
      </trkpt>
      <trkpt lat="48.92015" lon="-0.40884">
        <ele>293</ele>
        <time>2019-06-08T15:40:49Z</time>
      </trkpt>
      <trkpt lat="48.92016" lon="-0.4089">
        <ele>293</ele>
        <time>2019-06-08T15:40:51Z</time>
      </trkpt>
      <trkpt lat="48.92017" lon="-0.40897">
        <ele>293</ele>
        <time>2019-06-08T15:40:53Z</time>
      </trkpt>
      <trkpt lat="48.92021" lon="-0.40909">
        <ele>293</ele>
        <time>2019-06-08T15:40:57Z</time>
      </trkpt>
      <trkpt lat="48.92023" lon="-0.40915">
        <ele>293</ele>
        <time>2019-06-08T15:40:59Z</time>
      </trkpt>
      <trkpt lat="48.92027" lon="-0.40926">
        <ele>294</ele>
        <time>2019-06-08T15:41:03Z</time>
      </trkpt>
      <trkpt lat="48.9203" lon="-0.40937">
        <ele>294</ele>
        <time>2019-06-08T15:41:07Z</time>
      </trkpt>
      <trkpt lat="48.92033" lon="-0.40948">
        <ele>294</ele>
        <time>2019-06-08T15:41:11Z</time>
      </trkpt>
      <trkpt lat="48.92036" lon="-0.40958">
        <ele>294</ele>
        <time>2019-06-08T15:41:15Z</time>
      </trkpt>
      <trkpt lat="48.92038" lon="-0.40969">
        <ele>294</ele>
        <time>2019-06-08T15:41:19Z</time>
      </trkpt>
      <trkpt lat="48.92041" lon="-0.40981">
        <ele>295</ele>
        <time>2019-06-08T15:41:23Z</time>
      </trkpt>
      <trkpt lat="48.92044" lon="-0.40993">
        <ele>295</ele>
        <time>2019-06-08T15:41:27Z</time>
      </trkpt>
      <trkpt lat="48.92046" lon="-0.41003">
        <ele>295</ele>
        <time>2019-06-08T15:41:31Z</time>
      </trkpt>
      <trkpt lat="48.92049" lon="-0.41014">
        <ele>296</ele>
        <time>2019-06-08T15:41:35Z</time>
      </trkpt>
      <trkpt lat="48.9205" lon="-0.41023">
        <ele>296</ele>
        <time>2019-06-08T15:41:57Z</time>
      </trkpt>
      <trkpt lat="48.92051" lon="-0.41032">
        <ele>296</ele>
        <time>2019-06-08T15:42:01Z</time>
      </trkpt>
      <trkpt lat="48.92048" lon="-0.41038">
        <ele>296</ele>
        <time>2019-06-08T15:42:03Z</time>
      </trkpt>
      <trkpt lat="48.92044" lon="-0.41044">
        <ele>295</ele>
        <time>2019-06-08T15:42:05Z</time>
      </trkpt>
      <trkpt lat="48.92039" lon="-0.4105">
        <ele>295</ele>
        <time>2019-06-08T15:42:07Z</time>
      </trkpt>
      <trkpt lat="48.92033" lon="-0.41058">
        <ele>295</ele>
        <time>2019-06-08T15:42:09Z</time>
      </trkpt>
      <trkpt lat="48.92026" lon="-0.41066">
        <ele>294</ele>
        <time>2019-06-08T15:42:11Z</time>
      </trkpt>
      <trkpt lat="48.92018" lon="-0.41074">
        <ele>294</ele>
        <time>2019-06-08T15:42:13Z</time>
      </trkpt>
      <trkpt lat="48.9201" lon="-0.41083">
        <ele>293</ele>
        <time>2019-06-08T15:42:15Z</time>
      </trkpt>
      <trkpt lat="48.92001" lon="-0.41093">
        <ele>293</ele>
        <time>2019-06-08T15:42:17Z</time>
      </trkpt>
      <trkpt lat="48.91991" lon="-0.41103">
        <ele>291</ele>
        <time>2019-06-08T15:42:19Z</time>
      </trkpt>
      <trkpt lat="48.9198" lon="-0.41112">
        <ele>290</ele>
        <time>2019-06-08T15:42:21Z</time>
      </trkpt>
      <trkpt lat="48.9197" lon="-0.41124">
        <ele>290</ele>
        <time>2019-06-08T15:42:23Z</time>
      </trkpt>
      <trkpt lat="48.91962" lon="-0.41139">
        <ele>290</ele>
        <time>2019-06-08T15:42:25Z</time>
      </trkpt>
      <trkpt lat="48.91954" lon="-0.41152">
        <ele>290</ele>
        <time>2019-06-08T15:42:27Z</time>
      </trkpt>
      <trkpt lat="48.91946" lon="-0.41164">
        <ele>290</ele>
        <time>2019-06-08T15:42:29Z</time>
      </trkpt>
      <trkpt lat="48.91937" lon="-0.41175">
        <ele>291</ele>
        <time>2019-06-08T15:42:31Z</time>
      </trkpt>
      <trkpt lat="48.91929" lon="-0.41187">
        <ele>291</ele>
        <time>2019-06-08T15:42:33Z</time>
      </trkpt>
      <trkpt lat="48.91922" lon="-0.41199">
        <ele>291</ele>
        <time>2019-06-08T15:42:35Z</time>
      </trkpt>
      <trkpt lat="48.91915" lon="-0.41211">
        <ele>290</ele>
        <time>2019-06-08T15:42:37Z</time>
      </trkpt>
      <trkpt lat="48.91908" lon="-0.41224">
        <ele>290</ele>
        <time>2019-06-08T15:42:39Z</time>
      </trkpt>
      <trkpt lat="48.91901" lon="-0.41236">
        <ele>290</ele>
        <time>2019-06-08T15:42:41Z</time>
      </trkpt>
      <trkpt lat="48.91895" lon="-0.41248">
        <ele>290</ele>
        <time>2019-06-08T15:42:43Z</time>
      </trkpt>
      <trkpt lat="48.91889" lon="-0.41261">
        <ele>291</ele>
        <time>2019-06-08T15:42:45Z</time>
      </trkpt>
      <trkpt lat="48.91883" lon="-0.41274">
        <ele>291</ele>
        <time>2019-06-08T15:42:47Z</time>
      </trkpt>
      <trkpt lat="48.91878" lon="-0.41287">
        <ele>291</ele>
        <time>2019-06-08T15:42:49Z</time>
      </trkpt>
      <trkpt lat="48.91873" lon="-0.41301">
        <ele>290</ele>
        <time>2019-06-08T15:42:51Z</time>
      </trkpt>
      <trkpt lat="48.91868" lon="-0.41314">
        <ele>290</ele>
        <time>2019-06-08T15:42:53Z</time>
      </trkpt>
      <trkpt lat="48.91864" lon="-0.41328">
        <ele>290</ele>
        <time>2019-06-08T15:42:55Z</time>
      </trkpt>
      <trkpt lat="48.91858" lon="-0.4134">
        <ele>291</ele>
        <time>2019-06-08T15:42:57Z</time>
      </trkpt>
      <trkpt lat="48.91852" lon="-0.41353">
        <ele>291</ele>
        <time>2019-06-08T15:42:59Z</time>
      </trkpt>
      <trkpt lat="48.91847" lon="-0.41368">
        <ele>291</ele>
        <time>2019-06-08T15:43:01Z</time>
      </trkpt>
      <trkpt lat="48.91842" lon="-0.4138">
        <ele>291</ele>
        <time>2019-06-08T15:43:03Z</time>
      </trkpt>
      <trkpt lat="48.91836" lon="-0.41394">
        <ele>291</ele>
        <time>2019-06-08T15:43:05Z</time>
      </trkpt>
      <trkpt lat="48.91831" lon="-0.41407">
        <ele>291</ele>
        <time>2019-06-08T15:43:07Z</time>
      </trkpt>
      <trkpt lat="48.91825" lon="-0.41423">
        <ele>291</ele>
        <time>2019-06-08T15:43:09Z</time>
      </trkpt>
      <trkpt lat="48.91819" lon="-0.41439">
        <ele>290</ele>
        <time>2019-06-08T15:43:11Z</time>
      </trkpt>
      <trkpt lat="48.91814" lon="-0.41454">
        <ele>290</ele>
        <time>2019-06-08T15:43:13Z</time>
      </trkpt>
      <trkpt lat="48.91808" lon="-0.41469">
        <ele>290</ele>
        <time>2019-06-08T15:43:15Z</time>
      </trkpt>
      <trkpt lat="48.91803" lon="-0.41486">
        <ele>290</ele>
        <time>2019-06-08T15:43:17Z</time>
      </trkpt>
      <trkpt lat="48.91797" lon="-0.41501">
        <ele>291</ele>
        <time>2019-06-08T15:43:19Z</time>
      </trkpt>
      <trkpt lat="48.91791" lon="-0.41515">
        <ele>291</ele>
        <time>2019-06-08T15:43:21Z</time>
      </trkpt>
      <trkpt lat="48.91785" lon="-0.41531">
        <ele>291</ele>
        <time>2019-06-08T15:43:23Z</time>
      </trkpt>
      <trkpt lat="48.91779" lon="-0.41547">
        <ele>291</ele>
        <time>2019-06-08T15:43:25Z</time>
      </trkpt>
      <trkpt lat="48.91772" lon="-0.41562">
        <ele>291</ele>
        <time>2019-06-08T15:43:27Z</time>
      </trkpt>
      <trkpt lat="48.91766" lon="-0.41577">
        <ele>291</ele>
        <time>2019-06-08T15:43:29Z</time>
      </trkpt>
      <trkpt lat="48.9176" lon="-0.41591">
        <ele>291</ele>
        <time>2019-06-08T15:43:31Z</time>
      </trkpt>
      <trkpt lat="48.91754" lon="-0.41605">
        <ele>292</ele>
        <time>2019-06-08T15:43:33Z</time>
      </trkpt>
      <trkpt lat="48.91748" lon="-0.4162">
        <ele>290</ele>
        <time>2019-06-08T15:43:35Z</time>
      </trkpt>
      <trkpt lat="48.91743" lon="-0.41633">
        <ele>290</ele>
        <time>2019-06-08T15:43:37Z</time>
      </trkpt>
      <trkpt lat="48.91739" lon="-0.41639">
        <ele>290</ele>
        <time>2019-06-08T15:43:39Z</time>
      </trkpt>
      <trkpt lat="48.91733" lon="-0.41636">
        <ele>290</ele>
        <time>2019-06-08T15:43:43Z</time>
      </trkpt>
      <trkpt lat="48.91728" lon="-0.41631">
        <ele>290</ele>
        <time>2019-06-08T15:43:49Z</time>
      </trkpt>
      <trkpt lat="48.9173" lon="-0.41639">
        <ele>290</ele>
        <time>2019-06-08T15:44:11Z</time>
      </trkpt>
      <trkpt lat="48.91727" lon="-0.41631">
        <ele>290</ele>
        <time>2019-06-08T15:44:43Z</time>
      </trkpt>
      <trkpt lat="48.91724" lon="-0.41625">
        <ele>290</ele>
        <time>2019-06-08T15:44:45Z</time>
      </trkpt>
      <trkpt lat="48.91719" lon="-0.41618">
        <ele>289</ele>
        <time>2019-06-08T15:44:47Z</time>
      </trkpt>
      <trkpt lat="48.91715" lon="-0.4161">
        <ele>289</ele>
        <time>2019-06-08T15:44:49Z</time>
      </trkpt>
      <trkpt lat="48.9171" lon="-0.41601">
        <ele>289</ele>
        <time>2019-06-08T15:44:51Z</time>
      </trkpt>
      <trkpt lat="48.91705" lon="-0.41592">
        <ele>289</ele>
        <time>2019-06-08T15:44:53Z</time>
      </trkpt>
      <trkpt lat="48.917" lon="-0.4158">
        <ele>288</ele>
        <time>2019-06-08T15:44:55Z</time>
      </trkpt>
      <trkpt lat="48.91695" lon="-0.41568">
        <ele>288</ele>
        <time>2019-06-08T15:44:57Z</time>
      </trkpt>
      <trkpt lat="48.91691" lon="-0.41556">
        <ele>288</ele>
        <time>2019-06-08T15:44:59Z</time>
      </trkpt>
      <trkpt lat="48.91687" lon="-0.41545">
        <ele>287</ele>
        <time>2019-06-08T15:45:01Z</time>
      </trkpt>
      <trkpt lat="48.91683" lon="-0.41535">
        <ele>287</ele>
        <time>2019-06-08T15:45:03Z</time>
      </trkpt>
      <trkpt lat="48.91679" lon="-0.41525">
        <ele>287</ele>
        <time>2019-06-08T15:45:05Z</time>
      </trkpt>
      <trkpt lat="48.91674" lon="-0.4152">
        <ele>286</ele>
        <time>2019-06-08T15:45:07Z</time>
      </trkpt>
      <trkpt lat="48.91668" lon="-0.41521">
        <ele>286</ele>
        <time>2019-06-08T15:45:09Z</time>
      </trkpt>
      <trkpt lat="48.91662" lon="-0.41524">
        <ele>284</ele>
        <time>2019-06-08T15:45:11Z</time>
      </trkpt>
      <trkpt lat="48.91655" lon="-0.41529">
        <ele>285</ele>
        <time>2019-06-08T15:45:13Z</time>
      </trkpt>
      <trkpt lat="48.91648" lon="-0.41534">
        <ele>285</ele>
        <time>2019-06-08T15:45:15Z</time>
      </trkpt>
      <trkpt lat="48.91641" lon="-0.4154">
        <ele>285</ele>
        <time>2019-06-08T15:45:17Z</time>
      </trkpt>
      <trkpt lat="48.91632" lon="-0.41545">
        <ele>285</ele>
        <time>2019-06-08T15:45:19Z</time>
      </trkpt>
      <trkpt lat="48.91624" lon="-0.41549">
        <ele>285</ele>
        <time>2019-06-08T15:45:21Z</time>
      </trkpt>
      <trkpt lat="48.91616" lon="-0.41555">
        <ele>285</ele>
        <time>2019-06-08T15:45:23Z</time>
      </trkpt>
      <trkpt lat="48.91607" lon="-0.41561">
        <ele>285</ele>
        <time>2019-06-08T15:45:25Z</time>
      </trkpt>
      <trkpt lat="48.91598" lon="-0.41569">
        <ele>285</ele>
        <time>2019-06-08T15:45:27Z</time>
      </trkpt>
      <trkpt lat="48.91588" lon="-0.41578">
        <ele>285</ele>
        <time>2019-06-08T15:45:29Z</time>
      </trkpt>
      <trkpt lat="48.91579" lon="-0.41587">
        <ele>285</ele>
        <time>2019-06-08T15:45:31Z</time>
      </trkpt>
      <trkpt lat="48.91569" lon="-0.41598">
        <ele>285</ele>
        <time>2019-06-08T15:45:33Z</time>
      </trkpt>
      <trkpt lat="48.9156" lon="-0.41608">
        <ele>285</ele>
        <time>2019-06-08T15:45:35Z</time>
      </trkpt>
      <trkpt lat="48.91551" lon="-0.41619">
        <ele>285</ele>
        <time>2019-06-08T15:45:37Z</time>
      </trkpt>
      <trkpt lat="48.91541" lon="-0.4163">
        <ele>285</ele>
        <time>2019-06-08T15:45:39Z</time>
      </trkpt>
      <trkpt lat="48.91532" lon="-0.4164">
        <ele>285</ele>
        <time>2019-06-08T15:45:41Z</time>
      </trkpt>
      <trkpt lat="48.91524" lon="-0.4165">
        <ele>285</ele>
        <time>2019-06-08T15:45:43Z</time>
      </trkpt>
      <trkpt lat="48.91517" lon="-0.41658">
        <ele>285</ele>
        <time>2019-06-08T15:45:45Z</time>
      </trkpt>
      <trkpt lat="48.9151" lon="-0.41666">
        <ele>285</ele>
        <time>2019-06-08T15:45:47Z</time>
      </trkpt>
      <trkpt lat="48.91504" lon="-0.41674">
        <ele>285</ele>
        <time>2019-06-08T15:45:49Z</time>
      </trkpt>
      <trkpt lat="48.91497" lon="-0.41683">
        <ele>285</ele>
        <time>2019-06-08T15:45:51Z</time>
      </trkpt>
      <trkpt lat="48.9149" lon="-0.41691">
        <ele>285</ele>
        <time>2019-06-08T15:45:53Z</time>
      </trkpt>
      <trkpt lat="48.91483" lon="-0.41698">
        <ele>285</ele>
        <time>2019-06-08T15:45:55Z</time>
      </trkpt>
      <trkpt lat="48.91475" lon="-0.41705">
        <ele>285</ele>
        <time>2019-06-08T15:45:57Z</time>
      </trkpt>
      <trkpt lat="48.91465" lon="-0.41714">
        <ele>285</ele>
        <time>2019-06-08T15:45:59Z</time>
      </trkpt>
      <trkpt lat="48.91456" lon="-0.41725">
        <ele>285</ele>
        <time>2019-06-08T15:46:01Z</time>
      </trkpt>
      <trkpt lat="48.91446" lon="-0.41735">
        <ele>285</ele>
        <time>2019-06-08T15:46:03Z</time>
      </trkpt>
      <trkpt lat="48.91436" lon="-0.41746">
        <ele>285</ele>
        <time>2019-06-08T15:46:05Z</time>
      </trkpt>
      <trkpt lat="48.91426" lon="-0.41757">
        <ele>285</ele>
        <time>2019-06-08T15:46:07Z</time>
      </trkpt>
      <trkpt lat="48.91417" lon="-0.41767">
        <ele>284</ele>
        <time>2019-06-08T15:46:09Z</time>
      </trkpt>
      <trkpt lat="48.91407" lon="-0.41777">
        <ele>284</ele>
        <time>2019-06-08T15:46:11Z</time>
      </trkpt>
      <trkpt lat="48.91399" lon="-0.41788">
        <ele>284</ele>
        <time>2019-06-08T15:46:13Z</time>
      </trkpt>
      <trkpt lat="48.91389" lon="-0.41798">
        <ele>284</ele>
        <time>2019-06-08T15:46:15Z</time>
      </trkpt>
      <trkpt lat="48.9138" lon="-0.41807">
        <ele>283</ele>
        <time>2019-06-08T15:46:17Z</time>
      </trkpt>
      <trkpt lat="48.91371" lon="-0.41817">
        <ele>283</ele>
        <time>2019-06-08T15:46:19Z</time>
      </trkpt>
      <trkpt lat="48.91361" lon="-0.41827">
        <ele>283</ele>
        <time>2019-06-08T15:46:21Z</time>
      </trkpt>
      <trkpt lat="48.91351" lon="-0.41837">
        <ele>282</ele>
        <time>2019-06-08T15:46:23Z</time>
      </trkpt>
      <trkpt lat="48.91338" lon="-0.41846">
        <ele>282</ele>
        <time>2019-06-08T15:46:25Z</time>
      </trkpt>
      <trkpt lat="48.91325" lon="-0.41855">
        <ele>280</ele>
        <time>2019-06-08T15:46:27Z</time>
      </trkpt>
      <trkpt lat="48.91311" lon="-0.41866">
        <ele>279</ele>
        <time>2019-06-08T15:46:29Z</time>
      </trkpt>
      <trkpt lat="48.91298" lon="-0.41875">
        <ele>278</ele>
        <time>2019-06-08T15:46:31Z</time>
      </trkpt>
      <trkpt lat="48.91285" lon="-0.41886">
        <ele>278</ele>
        <time>2019-06-08T15:46:33Z</time>
      </trkpt>
      <trkpt lat="48.91276" lon="-0.41893">
        <ele>277</ele>
        <time>2019-06-08T15:46:35Z</time>
      </trkpt>
      <trkpt lat="48.91269" lon="-0.419">
        <ele>277</ele>
        <time>2019-06-08T15:46:37Z</time>
      </trkpt>
      <trkpt lat="48.91264" lon="-0.41907">
        <ele>277</ele>
        <time>2019-06-08T15:46:39Z</time>
      </trkpt>
      <trkpt lat="48.91256" lon="-0.41914">
        <ele>276</ele>
        <time>2019-06-08T15:46:41Z</time>
      </trkpt>
      <trkpt lat="48.91247" lon="-0.41922">
        <ele>275</ele>
        <time>2019-06-08T15:46:43Z</time>
      </trkpt>
      <trkpt lat="48.91237" lon="-0.41932">
        <ele>272</ele>
        <time>2019-06-08T15:46:45Z</time>
      </trkpt>
      <trkpt lat="48.91226" lon="-0.41945">
        <ele>271</ele>
        <time>2019-06-08T15:46:47Z</time>
      </trkpt>
      <trkpt lat="48.91216" lon="-0.4196">
        <ele>270</ele>
        <time>2019-06-08T15:46:49Z</time>
      </trkpt>
      <trkpt lat="48.91206" lon="-0.41974">
        <ele>269</ele>
        <time>2019-06-08T15:46:51Z</time>
      </trkpt>
      <trkpt lat="48.91194" lon="-0.41989">
        <ele>267</ele>
        <time>2019-06-08T15:46:53Z</time>
      </trkpt>
      <trkpt lat="48.91182" lon="-0.42005">
        <ele>263</ele>
        <time>2019-06-08T15:46:55Z</time>
      </trkpt>
      <trkpt lat="48.91171" lon="-0.42023">
        <ele>263</ele>
        <time>2019-06-08T15:46:57Z</time>
      </trkpt>
      <trkpt lat="48.91161" lon="-0.42045">
        <ele>254</ele>
        <time>2019-06-08T15:46:59Z</time>
      </trkpt>
      <trkpt lat="48.91152" lon="-0.42069">
        <ele>253</ele>
        <time>2019-06-08T15:47:01Z</time>
      </trkpt>
      <trkpt lat="48.91146" lon="-0.4209">
        <ele>249</ele>
        <time>2019-06-08T15:47:03Z</time>
      </trkpt>
      <trkpt lat="48.91138" lon="-0.42113">
        <ele>246</ele>
        <time>2019-06-08T15:47:05Z</time>
      </trkpt>
      <trkpt lat="48.91131" lon="-0.42133">
        <ele>245</ele>
        <time>2019-06-08T15:47:07Z</time>
      </trkpt>
      <trkpt lat="48.91127" lon="-0.42151">
        <ele>244</ele>
        <time>2019-06-08T15:47:09Z</time>
      </trkpt>
      <trkpt lat="48.91124" lon="-0.42172">
        <ele>239</ele>
        <time>2019-06-08T15:47:11Z</time>
      </trkpt>
      <trkpt lat="48.91119" lon="-0.42199">
        <ele>238</ele>
        <time>2019-06-08T15:47:13Z</time>
      </trkpt>
      <trkpt lat="48.9111" lon="-0.42225">
        <ele>237</ele>
        <time>2019-06-08T15:47:15Z</time>
      </trkpt>
      <trkpt lat="48.91102" lon="-0.42245">
        <ele>234</ele>
        <time>2019-06-08T15:47:17Z</time>
      </trkpt>
      <trkpt lat="48.91095" lon="-0.42264">
        <ele>231</ele>
        <time>2019-06-08T15:47:19Z</time>
      </trkpt>
      <trkpt lat="48.91087" lon="-0.42281">
        <ele>231</ele>
        <time>2019-06-08T15:47:21Z</time>
      </trkpt>
      <trkpt lat="48.91079" lon="-0.42304">
        <ele>220</ele>
        <time>2019-06-08T15:47:23Z</time>
      </trkpt>
      <trkpt lat="48.91074" lon="-0.42331">
        <ele>221</ele>
        <time>2019-06-08T15:47:25Z</time>
      </trkpt>
      <trkpt lat="48.91071" lon="-0.42357">
        <ele>216</ele>
        <time>2019-06-08T15:47:27Z</time>
      </trkpt>
      <trkpt lat="48.91062" lon="-0.42379">
        <ele>214</ele>
        <time>2019-06-08T15:47:29Z</time>
      </trkpt>
      <trkpt lat="48.9105" lon="-0.42402">
        <ele>213</ele>
        <time>2019-06-08T15:47:31Z</time>
      </trkpt>
      <trkpt lat="48.91038" lon="-0.42424">
        <ele>209</ele>
        <time>2019-06-08T15:47:33Z</time>
      </trkpt>
      <trkpt lat="48.91027" lon="-0.42445">
        <ele>208</ele>
        <time>2019-06-08T15:47:35Z</time>
      </trkpt>
      <trkpt lat="48.91014" lon="-0.42463">
        <ele>207</ele>
        <time>2019-06-08T15:47:37Z</time>
      </trkpt>
      <trkpt lat="48.90999" lon="-0.4248">
        <ele>197</ele>
        <time>2019-06-08T15:47:39Z</time>
      </trkpt>
      <trkpt lat="48.90985" lon="-0.42497">
        <ele>197</ele>
        <time>2019-06-08T15:47:41Z</time>
      </trkpt>
      <trkpt lat="48.9097" lon="-0.42509">
        <ele>193</ele>
        <time>2019-06-08T15:47:43Z</time>
      </trkpt>
      <trkpt lat="48.90956" lon="-0.42517">
        <ele>191</ele>
        <time>2019-06-08T15:47:45Z</time>
      </trkpt>
      <trkpt lat="48.90943" lon="-0.42521">
        <ele>189</ele>
        <time>2019-06-08T15:47:47Z</time>
      </trkpt>
      <trkpt lat="48.90936" lon="-0.42525">
        <ele>189</ele>
        <time>2019-06-08T15:47:49Z</time>
      </trkpt>
      <trkpt lat="48.90943" lon="-0.42526">
        <ele>189</ele>
        <time>2019-06-08T15:49:37Z</time>
      </trkpt>
      <trkpt lat="48.9095" lon="-0.42524">
        <ele>190</ele>
        <time>2019-06-08T15:49:41Z</time>
      </trkpt>
      <trkpt lat="48.90958" lon="-0.42526">
        <ele>191</ele>
        <time>2019-06-08T15:49:45Z</time>
      </trkpt>
      <trkpt lat="48.90962" lon="-0.42531">
        <ele>191</ele>
        <time>2019-06-08T15:49:47Z</time>
      </trkpt>
      <trkpt lat="48.90965" lon="-0.42538">
        <ele>192</ele>
        <time>2019-06-08T15:49:49Z</time>
      </trkpt>
      <trkpt lat="48.90968" lon="-0.42547">
        <ele>192</ele>
        <time>2019-06-08T15:49:51Z</time>
      </trkpt>
      <trkpt lat="48.90969" lon="-0.42556">
        <ele>192</ele>
        <time>2019-06-08T15:49:53Z</time>
      </trkpt>
      <trkpt lat="48.90969" lon="-0.42564">
        <ele>192</ele>
        <time>2019-06-08T15:49:55Z</time>
      </trkpt>
      <trkpt lat="48.90969" lon="-0.42572">
        <ele>192</ele>
        <time>2019-06-08T15:49:57Z</time>
      </trkpt>
      <trkpt lat="48.9097" lon="-0.42579">
        <ele>192</ele>
        <time>2019-06-08T15:49:59Z</time>
      </trkpt>
      <trkpt lat="48.90974" lon="-0.42585">
        <ele>193</ele>
        <time>2019-06-08T15:50:01Z</time>
      </trkpt>
      <trkpt lat="48.90978" lon="-0.4259">
        <ele>194</ele>
        <time>2019-06-08T15:50:03Z</time>
      </trkpt>
      <trkpt lat="48.90982" lon="-0.42599">
        <ele>194</ele>
        <time>2019-06-08T15:50:07Z</time>
      </trkpt>
      <trkpt lat="48.90988" lon="-0.42603">
        <ele>194</ele>
        <time>2019-06-08T15:50:11Z</time>
      </trkpt>
      <trkpt lat="48.90993" lon="-0.42607">
        <ele>194</ele>
        <time>2019-06-08T15:50:15Z</time>
      </trkpt>
      <trkpt lat="48.90999" lon="-0.42612">
        <ele>194</ele>
        <time>2019-06-08T15:50:19Z</time>
      </trkpt>
      <trkpt lat="48.91006" lon="-0.42616">
        <ele>203</ele>
        <time>2019-06-08T15:50:23Z</time>
      </trkpt>
      <trkpt lat="48.91013" lon="-0.4262">
        <ele>203</ele>
        <time>2019-06-08T15:50:27Z</time>
      </trkpt>
      <trkpt lat="48.91019" lon="-0.42624">
        <ele>204</ele>
        <time>2019-06-08T15:50:31Z</time>
      </trkpt>
      <trkpt lat="48.91026" lon="-0.42627">
        <ele>204</ele>
        <time>2019-06-08T15:50:35Z</time>
      </trkpt>
      <trkpt lat="48.91031" lon="-0.42632">
        <ele>204</ele>
        <time>2019-06-08T15:50:39Z</time>
      </trkpt>
      <trkpt lat="48.91036" lon="-0.42637">
        <ele>205</ele>
        <time>2019-06-08T15:50:43Z</time>
      </trkpt>
      <trkpt lat="48.91041" lon="-0.42643">
        <ele>205</ele>
        <time>2019-06-08T15:50:47Z</time>
      </trkpt>
      <trkpt lat="48.91047" lon="-0.4265">
        <ele>206</ele>
        <time>2019-06-08T15:50:51Z</time>
      </trkpt>
      <trkpt lat="48.91053" lon="-0.42659">
        <ele>206</ele>
        <time>2019-06-08T15:50:55Z</time>
      </trkpt>
      <trkpt lat="48.91056" lon="-0.42664">
        <ele>207</ele>
        <time>2019-06-08T15:50:57Z</time>
      </trkpt>
      <trkpt lat="48.9106" lon="-0.42669">
        <ele>207</ele>
        <time>2019-06-08T15:50:59Z</time>
      </trkpt>
      <trkpt lat="48.91064" lon="-0.42675">
        <ele>207</ele>
        <time>2019-06-08T15:51:01Z</time>
      </trkpt>
      <trkpt lat="48.91067" lon="-0.4268">
        <ele>207</ele>
        <time>2019-06-08T15:51:03Z</time>
      </trkpt>
      <trkpt lat="48.9107" lon="-0.42685">
        <ele>207</ele>
        <time>2019-06-08T15:51:05Z</time>
      </trkpt>
      <trkpt lat="48.91075" lon="-0.42693">
        <ele>207</ele>
        <time>2019-06-08T15:51:07Z</time>
      </trkpt>
      <trkpt lat="48.91079" lon="-0.427">
        <ele>207</ele>
        <time>2019-06-08T15:51:09Z</time>
      </trkpt>
      <trkpt lat="48.91084" lon="-0.42706">
        <ele>211</ele>
        <time>2019-06-08T15:51:11Z</time>
      </trkpt>
      <trkpt lat="48.91087" lon="-0.42711">
        <ele>211</ele>
        <time>2019-06-08T15:51:13Z</time>
      </trkpt>
      <trkpt lat="48.91093" lon="-0.42722">
        <ele>211</ele>
        <time>2019-06-08T15:51:17Z</time>
      </trkpt>
      <trkpt lat="48.91097" lon="-0.42727">
        <ele>210</ele>
        <time>2019-06-08T15:51:19Z</time>
      </trkpt>
      <trkpt lat="48.91101" lon="-0.42732">
        <ele>210</ele>
        <time>2019-06-08T15:51:21Z</time>
      </trkpt>
      <trkpt lat="48.91105" lon="-0.42737">
        <ele>210</ele>
        <time>2019-06-08T15:51:23Z</time>
      </trkpt>
      <trkpt lat="48.91109" lon="-0.42742">
        <ele>211</ele>
        <time>2019-06-08T15:51:25Z</time>
      </trkpt>
      <trkpt lat="48.91114" lon="-0.42747">
        <ele>211</ele>
        <time>2019-06-08T15:51:27Z</time>
      </trkpt>
      <trkpt lat="48.91119" lon="-0.42754">
        <ele>211</ele>
        <time>2019-06-08T15:51:29Z</time>
      </trkpt>
      <trkpt lat="48.91125" lon="-0.42763">
        <ele>211</ele>
        <time>2019-06-08T15:51:31Z</time>
      </trkpt>
      <trkpt lat="48.9113" lon="-0.42773">
        <ele>212</ele>
        <time>2019-06-08T15:51:33Z</time>
      </trkpt>
      <trkpt lat="48.91135" lon="-0.42786">
        <ele>212</ele>
        <time>2019-06-08T15:51:35Z</time>
      </trkpt>
      <trkpt lat="48.91139" lon="-0.42798">
        <ele>212</ele>
        <time>2019-06-08T15:51:37Z</time>
      </trkpt>
      <trkpt lat="48.9114" lon="-0.42809">
        <ele>213</ele>
        <time>2019-06-08T15:51:39Z</time>
      </trkpt>
      <trkpt lat="48.9114" lon="-0.42819">
        <ele>213</ele>
        <time>2019-06-08T15:51:41Z</time>
      </trkpt>
      <trkpt lat="48.91138" lon="-0.42826">
        <ele>213</ele>
        <time>2019-06-08T15:51:43Z</time>
      </trkpt>
      <trkpt lat="48.91137" lon="-0.42833">
        <ele>216</ele>
        <time>2019-06-08T15:51:45Z</time>
      </trkpt>
      <trkpt lat="48.91135" lon="-0.4284">
        <ele>216</ele>
        <time>2019-06-08T15:51:47Z</time>
      </trkpt>
      <trkpt lat="48.91134" lon="-0.42852">
        <ele>216</ele>
        <time>2019-06-08T15:51:51Z</time>
      </trkpt>
      <trkpt lat="48.91133" lon="-0.42862">
        <ele>216</ele>
        <time>2019-06-08T15:51:55Z</time>
      </trkpt>
      <trkpt lat="48.91133" lon="-0.42873">
        <ele>216</ele>
        <time>2019-06-08T15:51:59Z</time>
      </trkpt>
      <trkpt lat="48.91133" lon="-0.42885">
        <ele>217</ele>
        <time>2019-06-08T15:52:03Z</time>
      </trkpt>
      <trkpt lat="48.91132" lon="-0.42896">
        <ele>217</ele>
        <time>2019-06-08T15:52:07Z</time>
      </trkpt>
      <trkpt lat="48.91132" lon="-0.42907">
        <ele>217</ele>
        <time>2019-06-08T15:52:11Z</time>
      </trkpt>
      <trkpt lat="48.91132" lon="-0.42917">
        <ele>220</ele>
        <time>2019-06-08T15:52:15Z</time>
      </trkpt>
      <trkpt lat="48.91133" lon="-0.42927">
        <ele>220</ele>
        <time>2019-06-08T15:52:19Z</time>
      </trkpt>
      <trkpt lat="48.91134" lon="-0.42936">
        <ele>220</ele>
        <time>2019-06-08T15:52:23Z</time>
      </trkpt>
      <trkpt lat="48.91134" lon="-0.42947">
        <ele>220</ele>
        <time>2019-06-08T15:52:27Z</time>
      </trkpt>
      <trkpt lat="48.91137" lon="-0.42953">
        <ele>220</ele>
        <time>2019-06-08T15:52:31Z</time>
      </trkpt>
      <trkpt lat="48.91141" lon="-0.42957">
        <ele>220</ele>
        <time>2019-06-08T15:52:49Z</time>
      </trkpt>
      <trkpt lat="48.91149" lon="-0.42961">
        <ele>220</ele>
        <time>2019-06-08T15:52:53Z</time>
      </trkpt>
      <trkpt lat="48.91156" lon="-0.42961">
        <ele>221</ele>
        <time>2019-06-08T15:52:57Z</time>
      </trkpt>
      <trkpt lat="48.91163" lon="-0.42961">
        <ele>221</ele>
        <time>2019-06-08T15:53:01Z</time>
      </trkpt>
      <trkpt lat="48.91171" lon="-0.42961">
        <ele>223</ele>
        <time>2019-06-08T15:53:05Z</time>
      </trkpt>
      <trkpt lat="48.91176" lon="-0.4296">
        <ele>223</ele>
        <time>2019-06-08T15:53:07Z</time>
      </trkpt>
      <trkpt lat="48.91185" lon="-0.42961">
        <ele>224</ele>
        <time>2019-06-08T15:53:11Z</time>
      </trkpt>
      <trkpt lat="48.91193" lon="-0.4296">
        <ele>224</ele>
        <time>2019-06-08T15:53:15Z</time>
      </trkpt>
      <trkpt lat="48.91201" lon="-0.4296">
        <ele>224</ele>
        <time>2019-06-08T15:53:19Z</time>
      </trkpt>
      <trkpt lat="48.9121" lon="-0.4296">
        <ele>224</ele>
        <time>2019-06-08T15:53:23Z</time>
      </trkpt>
      <trkpt lat="48.91218" lon="-0.4296">
        <ele>224</ele>
        <time>2019-06-08T15:53:27Z</time>
      </trkpt>
      <trkpt lat="48.91226" lon="-0.4296">
        <ele>224</ele>
        <time>2019-06-08T15:53:31Z</time>
      </trkpt>
      <trkpt lat="48.91231" lon="-0.4296">
        <ele>225</ele>
        <time>2019-06-08T15:53:33Z</time>
      </trkpt>
      <trkpt lat="48.91239" lon="-0.42959">
        <ele>225</ele>
        <time>2019-06-08T15:53:37Z</time>
      </trkpt>
      <trkpt lat="48.91243" lon="-0.42959">
        <ele>225</ele>
        <time>2019-06-08T15:53:39Z</time>
      </trkpt>
      <trkpt lat="48.91252" lon="-0.42958">
        <ele>229</ele>
        <time>2019-06-08T15:53:43Z</time>
      </trkpt>
      <trkpt lat="48.91259" lon="-0.42956">
        <ele>229</ele>
        <time>2019-06-08T15:53:47Z</time>
      </trkpt>
      <trkpt lat="48.91267" lon="-0.42952">
        <ele>229</ele>
        <time>2019-06-08T15:53:51Z</time>
      </trkpt>
      <trkpt lat="48.91275" lon="-0.42949">
        <ele>229</ele>
        <time>2019-06-08T15:53:55Z</time>
      </trkpt>
      <trkpt lat="48.91279" lon="-0.42948">
        <ele>229</ele>
        <time>2019-06-08T15:53:57Z</time>
      </trkpt>
      <trkpt lat="48.91286" lon="-0.42942">
        <ele>230</ele>
        <time>2019-06-08T15:54:01Z</time>
      </trkpt>
      <trkpt lat="48.91293" lon="-0.42938">
        <ele>230</ele>
        <time>2019-06-08T15:54:05Z</time>
      </trkpt>
      <trkpt lat="48.913" lon="-0.42933">
        <ele>231</ele>
        <time>2019-06-08T15:54:09Z</time>
      </trkpt>
      <trkpt lat="48.91307" lon="-0.42928">
        <ele>231</ele>
        <time>2019-06-08T15:54:13Z</time>
      </trkpt>
      <trkpt lat="48.91314" lon="-0.42923">
        <ele>232</ele>
        <time>2019-06-08T15:54:17Z</time>
      </trkpt>
      <trkpt lat="48.9132" lon="-0.42916">
        <ele>232</ele>
        <time>2019-06-08T15:54:21Z</time>
      </trkpt>
      <trkpt lat="48.91326" lon="-0.42911">
        <ele>232</ele>
        <time>2019-06-08T15:54:25Z</time>
      </trkpt>
      <trkpt lat="48.91331" lon="-0.42906">
        <ele>232</ele>
        <time>2019-06-08T15:54:29Z</time>
      </trkpt>
      <trkpt lat="48.91337" lon="-0.42899">
        <ele>236</ele>
        <time>2019-06-08T15:54:33Z</time>
      </trkpt>
      <trkpt lat="48.91344" lon="-0.42893">
        <ele>236</ele>
        <time>2019-06-08T15:54:37Z</time>
      </trkpt>
      <trkpt lat="48.9135" lon="-0.42886">
        <ele>237</ele>
        <time>2019-06-08T15:54:41Z</time>
      </trkpt>
      <trkpt lat="48.91356" lon="-0.42879">
        <ele>237</ele>
        <time>2019-06-08T15:54:45Z</time>
      </trkpt>
      <trkpt lat="48.9136" lon="-0.42873">
        <ele>237</ele>
        <time>2019-06-08T15:54:49Z</time>
      </trkpt>
      <trkpt lat="48.91366" lon="-0.42865">
        <ele>238</ele>
        <time>2019-06-08T15:54:53Z</time>
      </trkpt>
      <trkpt lat="48.91373" lon="-0.42858">
        <ele>238</ele>
        <time>2019-06-08T15:54:57Z</time>
      </trkpt>
      <trkpt lat="48.91377" lon="-0.42855">
        <ele>238</ele>
        <time>2019-06-08T15:54:59Z</time>
      </trkpt>
      <trkpt lat="48.91383" lon="-0.42848">
        <ele>239</ele>
        <time>2019-06-08T15:55:03Z</time>
      </trkpt>
      <trkpt lat="48.9139" lon="-0.4284">
        <ele>239</ele>
        <time>2019-06-08T15:55:07Z</time>
      </trkpt>
      <trkpt lat="48.91398" lon="-0.42832">
        <ele>240</ele>
        <time>2019-06-08T15:55:11Z</time>
      </trkpt>
      <trkpt lat="48.91404" lon="-0.42826">
        <ele>241</ele>
        <time>2019-06-08T15:55:15Z</time>
      </trkpt>
      <trkpt lat="48.9141" lon="-0.42817">
        <ele>241</ele>
        <time>2019-06-08T15:55:19Z</time>
      </trkpt>
      <trkpt lat="48.91417" lon="-0.42809">
        <ele>246</ele>
        <time>2019-06-08T15:55:23Z</time>
      </trkpt>
      <trkpt lat="48.91421" lon="-0.42805">
        <ele>246</ele>
        <time>2019-06-08T15:55:25Z</time>
      </trkpt>
      <trkpt lat="48.91428" lon="-0.42796">
        <ele>247</ele>
        <time>2019-06-08T15:55:29Z</time>
      </trkpt>
      <trkpt lat="48.91433" lon="-0.42786">
        <ele>247</ele>
        <time>2019-06-08T15:55:33Z</time>
      </trkpt>
      <trkpt lat="48.91438" lon="-0.42776">
        <ele>247</ele>
        <time>2019-06-08T15:55:37Z</time>
      </trkpt>
      <trkpt lat="48.91444" lon="-0.42766">
        <ele>247</ele>
        <time>2019-06-08T15:55:41Z</time>
      </trkpt>
      <trkpt lat="48.91448" lon="-0.42757">
        <ele>247</ele>
        <time>2019-06-08T15:55:45Z</time>
      </trkpt>
      <trkpt lat="48.91454" lon="-0.42746">
        <ele>248</ele>
        <time>2019-06-08T15:55:49Z</time>
      </trkpt>
      <trkpt lat="48.91457" lon="-0.4274">
        <ele>248</ele>
        <time>2019-06-08T15:55:51Z</time>
      </trkpt>
      <trkpt lat="48.91462" lon="-0.42729">
        <ele>248</ele>
        <time>2019-06-08T15:55:55Z</time>
      </trkpt>
      <trkpt lat="48.91468" lon="-0.42718">
        <ele>249</ele>
        <time>2019-06-08T15:55:59Z</time>
      </trkpt>
      <trkpt lat="48.91471" lon="-0.42713">
        <ele>249</ele>
        <time>2019-06-08T15:56:01Z</time>
      </trkpt>
      <trkpt lat="48.91474" lon="-0.42701">
        <ele>249</ele>
        <time>2019-06-08T15:56:05Z</time>
      </trkpt>
      <trkpt lat="48.9148" lon="-0.42689">
        <ele>250</ele>
        <time>2019-06-08T15:56:09Z</time>
      </trkpt>
      <trkpt lat="48.91485" lon="-0.42679">
        <ele>251</ele>
        <time>2019-06-08T15:56:13Z</time>
      </trkpt>
      <trkpt lat="48.91489" lon="-0.42668">
        <ele>252</ele>
        <time>2019-06-08T15:56:17Z</time>
      </trkpt>
      <trkpt lat="48.91491" lon="-0.42662">
        <ele>252</ele>
        <time>2019-06-08T15:56:19Z</time>
      </trkpt>
      <trkpt lat="48.91497" lon="-0.42651">
        <ele>252</ele>
        <time>2019-06-08T15:56:23Z</time>
      </trkpt>
      <trkpt lat="48.91501" lon="-0.4264">
        <ele>257</ele>
        <time>2019-06-08T15:56:27Z</time>
      </trkpt>
      <trkpt lat="48.91506" lon="-0.4263">
        <ele>258</ele>
        <time>2019-06-08T15:56:31Z</time>
      </trkpt>
      <trkpt lat="48.91509" lon="-0.42619">
        <ele>258</ele>
        <time>2019-06-08T15:56:35Z</time>
      </trkpt>
      <trkpt lat="48.91514" lon="-0.42609">
        <ele>258</ele>
        <time>2019-06-08T15:56:39Z</time>
      </trkpt>
      <trkpt lat="48.91518" lon="-0.42599">
        <ele>258</ele>
        <time>2019-06-08T15:56:43Z</time>
      </trkpt>
      <trkpt lat="48.91522" lon="-0.42589">
        <ele>258</ele>
        <time>2019-06-08T15:56:47Z</time>
      </trkpt>
      <trkpt lat="48.91526" lon="-0.42579">
        <ele>259</ele>
        <time>2019-06-08T15:56:51Z</time>
      </trkpt>
      <trkpt lat="48.9153" lon="-0.4257">
        <ele>259</ele>
        <time>2019-06-08T15:56:55Z</time>
      </trkpt>
      <trkpt lat="48.91534" lon="-0.4256">
        <ele>260</ele>
        <time>2019-06-08T15:56:59Z</time>
      </trkpt>
      <trkpt lat="48.91536" lon="-0.42553">
        <ele>260</ele>
        <time>2019-06-08T15:57:01Z</time>
      </trkpt>
      <trkpt lat="48.91538" lon="-0.42546">
        <ele>260</ele>
        <time>2019-06-08T15:57:03Z</time>
      </trkpt>
      <trkpt lat="48.91543" lon="-0.42537">
        <ele>260</ele>
        <time>2019-06-08T15:57:07Z</time>
      </trkpt>
      <trkpt lat="48.91548" lon="-0.42526">
        <ele>261</ele>
        <time>2019-06-08T15:57:11Z</time>
      </trkpt>
      <trkpt lat="48.91552" lon="-0.42517">
        <ele>261</ele>
        <time>2019-06-08T15:57:15Z</time>
      </trkpt>
      <trkpt lat="48.91555" lon="-0.42507">
        <ele>261</ele>
        <time>2019-06-08T15:57:19Z</time>
      </trkpt>
      <trkpt lat="48.91559" lon="-0.42497">
        <ele>262</ele>
        <time>2019-06-08T15:57:23Z</time>
      </trkpt>
      <trkpt lat="48.91563" lon="-0.42488">
        <ele>262</ele>
        <time>2019-06-08T15:57:27Z</time>
      </trkpt>
      <trkpt lat="48.91567" lon="-0.42477">
        <ele>262</ele>
        <time>2019-06-08T15:57:31Z</time>
      </trkpt>
      <trkpt lat="48.91571" lon="-0.42468">
        <ele>262</ele>
        <time>2019-06-08T15:57:35Z</time>
      </trkpt>
      <trkpt lat="48.91574" lon="-0.42458">
        <ele>262</ele>
        <time>2019-06-08T15:57:39Z</time>
      </trkpt>
      <trkpt lat="48.91578" lon="-0.42447">
        <ele>262</ele>
        <time>2019-06-08T15:57:43Z</time>
      </trkpt>
      <trkpt lat="48.91582" lon="-0.42436">
        <ele>263</ele>
        <time>2019-06-08T15:57:47Z</time>
      </trkpt>
      <trkpt lat="48.91587" lon="-0.42426">
        <ele>265</ele>
        <time>2019-06-08T15:57:51Z</time>
      </trkpt>
      <trkpt lat="48.9159" lon="-0.42415">
        <ele>265</ele>
        <time>2019-06-08T15:57:55Z</time>
      </trkpt>
      <trkpt lat="48.91593" lon="-0.42404">
        <ele>266</ele>
        <time>2019-06-08T15:57:59Z</time>
      </trkpt>
      <trkpt lat="48.91597" lon="-0.42394">
        <ele>267</ele>
        <time>2019-06-08T15:58:03Z</time>
      </trkpt>
      <trkpt lat="48.91599" lon="-0.42382">
        <ele>268</ele>
        <time>2019-06-08T15:58:07Z</time>
      </trkpt>
      <trkpt lat="48.91602" lon="-0.4237">
        <ele>268</ele>
        <time>2019-06-08T15:58:11Z</time>
      </trkpt>
      <trkpt lat="48.91603" lon="-0.42361">
        <ele>268</ele>
        <time>2019-06-08T15:58:15Z</time>
      </trkpt>
      <trkpt lat="48.91604" lon="-0.42354">
        <ele>268</ele>
        <time>2019-06-08T15:58:19Z</time>
      </trkpt>
      <trkpt lat="48.91609" lon="-0.42356">
        <ele>268</ele>
        <time>2019-06-08T16:00:39Z</time>
      </trkpt>
      <trkpt lat="48.91611" lon="-0.42369">
        <ele>268</ele>
        <time>2019-06-08T16:00:43Z</time>
      </trkpt>
      <trkpt lat="48.91611" lon="-0.42377">
        <ele>268</ele>
        <time>2019-06-08T16:00:45Z</time>
      </trkpt>
      <trkpt lat="48.91612" lon="-0.42385">
        <ele>268</ele>
        <time>2019-06-08T16:00:47Z</time>
      </trkpt>
      <trkpt lat="48.91612" lon="-0.42395">
        <ele>268</ele>
        <time>2019-06-08T16:00:49Z</time>
      </trkpt>
      <trkpt lat="48.91612" lon="-0.42406">
        <ele>267</ele>
        <time>2019-06-08T16:00:51Z</time>
      </trkpt>
      <trkpt lat="48.91613" lon="-0.42417">
        <ele>267</ele>
        <time>2019-06-08T16:00:53Z</time>
      </trkpt>
      <trkpt lat="48.91613" lon="-0.42428">
        <ele>267</ele>
        <time>2019-06-08T16:00:55Z</time>
      </trkpt>
      <trkpt lat="48.91613" lon="-0.4244">
        <ele>267</ele>
        <time>2019-06-08T16:00:57Z</time>
      </trkpt>
      <trkpt lat="48.91613" lon="-0.42451">
        <ele>267</ele>
        <time>2019-06-08T16:00:59Z</time>
      </trkpt>
      <trkpt lat="48.91614" lon="-0.42464">
        <ele>267</ele>
        <time>2019-06-08T16:01:01Z</time>
      </trkpt>
      <trkpt lat="48.91614" lon="-0.42477">
        <ele>267</ele>
        <time>2019-06-08T16:01:03Z</time>
      </trkpt>
      <trkpt lat="48.91614" lon="-0.4249">
        <ele>267</ele>
        <time>2019-06-08T16:01:05Z</time>
      </trkpt>
      <trkpt lat="48.91615" lon="-0.42504">
        <ele>267</ele>
        <time>2019-06-08T16:01:07Z</time>
      </trkpt>
      <trkpt lat="48.91615" lon="-0.42519">
        <ele>267</ele>
        <time>2019-06-08T16:01:09Z</time>
      </trkpt>
      <trkpt lat="48.91616" lon="-0.42533">
        <ele>267</ele>
        <time>2019-06-08T16:01:11Z</time>
      </trkpt>
      <trkpt lat="48.91616" lon="-0.42548">
        <ele>267</ele>
        <time>2019-06-08T16:01:13Z</time>
      </trkpt>
      <trkpt lat="48.91616" lon="-0.42563">
        <ele>267</ele>
        <time>2019-06-08T16:01:15Z</time>
      </trkpt>
      <trkpt lat="48.91616" lon="-0.42579">
        <ele>267</ele>
        <time>2019-06-08T16:01:17Z</time>
      </trkpt>
      <trkpt lat="48.91616" lon="-0.42594">
        <ele>267</ele>
        <time>2019-06-08T16:01:19Z</time>
      </trkpt>
      <trkpt lat="48.91616" lon="-0.4261">
        <ele>267</ele>
        <time>2019-06-08T16:01:21Z</time>
      </trkpt>
      <trkpt lat="48.91615" lon="-0.42625">
        <ele>267</ele>
        <time>2019-06-08T16:01:23Z</time>
      </trkpt>
      <trkpt lat="48.91615" lon="-0.42639">
        <ele>267</ele>
        <time>2019-06-08T16:01:25Z</time>
      </trkpt>
      <trkpt lat="48.91615" lon="-0.42654">
        <ele>267</ele>
        <time>2019-06-08T16:01:27Z</time>
      </trkpt>
      <trkpt lat="48.91614" lon="-0.42667">
        <ele>267</ele>
        <time>2019-06-08T16:01:29Z</time>
      </trkpt>
      <trkpt lat="48.91614" lon="-0.42681">
        <ele>268</ele>
        <time>2019-06-08T16:01:31Z</time>
      </trkpt>
      <trkpt lat="48.91613" lon="-0.42694">
        <ele>268</ele>
        <time>2019-06-08T16:01:33Z</time>
      </trkpt>
      <trkpt lat="48.91613" lon="-0.42708">
        <ele>268</ele>
        <time>2019-06-08T16:01:35Z</time>
      </trkpt>
      <trkpt lat="48.91613" lon="-0.42721">
        <ele>268</ele>
        <time>2019-06-08T16:01:37Z</time>
      </trkpt>
      <trkpt lat="48.91613" lon="-0.42733">
        <ele>268</ele>
        <time>2019-06-08T16:01:39Z</time>
      </trkpt>
      <trkpt lat="48.91614" lon="-0.42745">
        <ele>268</ele>
        <time>2019-06-08T16:01:41Z</time>
      </trkpt>
      <trkpt lat="48.91615" lon="-0.42757">
        <ele>268</ele>
        <time>2019-06-08T16:01:43Z</time>
      </trkpt>
      <trkpt lat="48.91615" lon="-0.42769">
        <ele>269</ele>
        <time>2019-06-08T16:01:45Z</time>
      </trkpt>
      <trkpt lat="48.91616" lon="-0.42781">
        <ele>269</ele>
        <time>2019-06-08T16:01:47Z</time>
      </trkpt>
      <trkpt lat="48.91618" lon="-0.42793">
        <ele>269</ele>
        <time>2019-06-08T16:01:49Z</time>
      </trkpt>
      <trkpt lat="48.91619" lon="-0.42805">
        <ele>269</ele>
        <time>2019-06-08T16:01:51Z</time>
      </trkpt>
      <trkpt lat="48.91621" lon="-0.42817">
        <ele>269</ele>
        <time>2019-06-08T16:01:53Z</time>
      </trkpt>
      <trkpt lat="48.91623" lon="-0.42829">
        <ele>269</ele>
        <time>2019-06-08T16:01:55Z</time>
      </trkpt>
      <trkpt lat="48.91623" lon="-0.42841">
        <ele>269</ele>
        <time>2019-06-08T16:01:57Z</time>
      </trkpt>
      <trkpt lat="48.91624" lon="-0.42853">
        <ele>269</ele>
        <time>2019-06-08T16:01:59Z</time>
      </trkpt>
      <trkpt lat="48.91625" lon="-0.42864">
        <ele>269</ele>
        <time>2019-06-08T16:02:01Z</time>
      </trkpt>
      <trkpt lat="48.91626" lon="-0.42876">
        <ele>269</ele>
        <time>2019-06-08T16:02:03Z</time>
      </trkpt>
      <trkpt lat="48.91626" lon="-0.42888">
        <ele>269</ele>
        <time>2019-06-08T16:02:05Z</time>
      </trkpt>
      <trkpt lat="48.91627" lon="-0.429">
        <ele>269</ele>
        <time>2019-06-08T16:02:07Z</time>
      </trkpt>
      <trkpt lat="48.91628" lon="-0.42911">
        <ele>269</ele>
        <time>2019-06-08T16:02:09Z</time>
      </trkpt>
      <trkpt lat="48.91628" lon="-0.42923">
        <ele>269</ele>
        <time>2019-06-08T16:02:11Z</time>
      </trkpt>
      <trkpt lat="48.91628" lon="-0.42935">
        <ele>269</ele>
        <time>2019-06-08T16:02:13Z</time>
      </trkpt>
      <trkpt lat="48.91629" lon="-0.42947">
        <ele>269</ele>
        <time>2019-06-08T16:02:15Z</time>
      </trkpt>
      <trkpt lat="48.9163" lon="-0.42959">
        <ele>269</ele>
        <time>2019-06-08T16:02:17Z</time>
      </trkpt>
      <trkpt lat="48.9163" lon="-0.42972">
        <ele>269</ele>
        <time>2019-06-08T16:02:19Z</time>
      </trkpt>
      <trkpt lat="48.91631" lon="-0.42984">
        <ele>269</ele>
        <time>2019-06-08T16:02:21Z</time>
      </trkpt>
      <trkpt lat="48.91631" lon="-0.42996">
        <ele>269</ele>
        <time>2019-06-08T16:02:23Z</time>
      </trkpt>
      <trkpt lat="48.91632" lon="-0.43009">
        <ele>270</ele>
        <time>2019-06-08T16:02:25Z</time>
      </trkpt>
      <trkpt lat="48.91633" lon="-0.43022">
        <ele>270</ele>
        <time>2019-06-08T16:02:27Z</time>
      </trkpt>
      <trkpt lat="48.91634" lon="-0.43035">
        <ele>269</ele>
        <time>2019-06-08T16:02:29Z</time>
      </trkpt>
      <trkpt lat="48.91636" lon="-0.4305">
        <ele>269</ele>
        <time>2019-06-08T16:02:31Z</time>
      </trkpt>
      <trkpt lat="48.91637" lon="-0.43066">
        <ele>269</ele>
        <time>2019-06-08T16:02:33Z</time>
      </trkpt>
      <trkpt lat="48.91639" lon="-0.43082">
        <ele>269</ele>
        <time>2019-06-08T16:02:35Z</time>
      </trkpt>
      <trkpt lat="48.91641" lon="-0.43098">
        <ele>269</ele>
        <time>2019-06-08T16:02:37Z</time>
      </trkpt>
      <trkpt lat="48.91643" lon="-0.43113">
        <ele>269</ele>
        <time>2019-06-08T16:02:39Z</time>
      </trkpt>
      <trkpt lat="48.91644" lon="-0.4313">
        <ele>268</ele>
        <time>2019-06-08T16:02:41Z</time>
      </trkpt>
      <trkpt lat="48.91646" lon="-0.43147">
        <ele>268</ele>
        <time>2019-06-08T16:02:43Z</time>
      </trkpt>
      <trkpt lat="48.91648" lon="-0.43165">
        <ele>268</ele>
        <time>2019-06-08T16:02:45Z</time>
      </trkpt>
      <trkpt lat="48.9165" lon="-0.43184">
        <ele>267</ele>
        <time>2019-06-08T16:02:47Z</time>
      </trkpt>
      <trkpt lat="48.91652" lon="-0.43203">
        <ele>267</ele>
        <time>2019-06-08T16:02:49Z</time>
      </trkpt>
      <trkpt lat="48.91654" lon="-0.43222">
        <ele>267</ele>
        <time>2019-06-08T16:02:51Z</time>
      </trkpt>
      <trkpt lat="48.91656" lon="-0.43241">
        <ele>267</ele>
        <time>2019-06-08T16:02:53Z</time>
      </trkpt>
      <trkpt lat="48.91658" lon="-0.43261">
        <ele>266</ele>
        <time>2019-06-08T16:02:55Z</time>
      </trkpt>
      <trkpt lat="48.9166" lon="-0.43279">
        <ele>266</ele>
        <time>2019-06-08T16:02:57Z</time>
      </trkpt>
      <trkpt lat="48.91662" lon="-0.43298">
        <ele>266</ele>
        <time>2019-06-08T16:02:59Z</time>
      </trkpt>
      <trkpt lat="48.91664" lon="-0.43316">
        <ele>265</ele>
        <time>2019-06-08T16:03:01Z</time>
      </trkpt>
      <trkpt lat="48.91667" lon="-0.43336">
        <ele>264</ele>
        <time>2019-06-08T16:03:03Z</time>
      </trkpt>
      <trkpt lat="48.91669" lon="-0.43355">
        <ele>263</ele>
        <time>2019-06-08T16:03:05Z</time>
      </trkpt>
      <trkpt lat="48.91671" lon="-0.43374">
        <ele>262</ele>
        <time>2019-06-08T16:03:07Z</time>
      </trkpt>
      <trkpt lat="48.91673" lon="-0.43394">
        <ele>262</ele>
        <time>2019-06-08T16:03:09Z</time>
      </trkpt>
      <trkpt lat="48.91675" lon="-0.43413">
        <ele>262</ele>
        <time>2019-06-08T16:03:11Z</time>
      </trkpt>
      <trkpt lat="48.91677" lon="-0.43432">
        <ele>260</ele>
        <time>2019-06-08T16:03:13Z</time>
      </trkpt>
      <trkpt lat="48.91679" lon="-0.43451">
        <ele>259</ele>
        <time>2019-06-08T16:03:15Z</time>
      </trkpt>
      <trkpt lat="48.9168" lon="-0.43469">
        <ele>258</ele>
        <time>2019-06-08T16:03:17Z</time>
      </trkpt>
      <trkpt lat="48.91682" lon="-0.43486">
        <ele>257</ele>
        <time>2019-06-08T16:03:19Z</time>
      </trkpt>
      <trkpt lat="48.91683" lon="-0.43503">
        <ele>254</ele>
        <time>2019-06-08T16:03:21Z</time>
      </trkpt>
      <trkpt lat="48.91685" lon="-0.43521">
        <ele>254</ele>
        <time>2019-06-08T16:03:23Z</time>
      </trkpt>
      <trkpt lat="48.91688" lon="-0.43538">
        <ele>253</ele>
        <time>2019-06-08T16:03:25Z</time>
      </trkpt>
      <trkpt lat="48.9169" lon="-0.43555">
        <ele>253</ele>
        <time>2019-06-08T16:03:27Z</time>
      </trkpt>
      <trkpt lat="48.91692" lon="-0.43572">
        <ele>252</ele>
        <time>2019-06-08T16:03:29Z</time>
      </trkpt>
      <trkpt lat="48.91694" lon="-0.43587">
        <ele>249</ele>
        <time>2019-06-08T16:03:31Z</time>
      </trkpt>
      <trkpt lat="48.91696" lon="-0.43603">
        <ele>249</ele>
        <time>2019-06-08T16:03:33Z</time>
      </trkpt>
      <trkpt lat="48.91697" lon="-0.43619">
        <ele>249</ele>
        <time>2019-06-08T16:03:35Z</time>
      </trkpt>
      <trkpt lat="48.917" lon="-0.43635">
        <ele>248</ele>
        <time>2019-06-08T16:03:37Z</time>
      </trkpt>
      <trkpt lat="48.91702" lon="-0.4365">
        <ele>248</ele>
        <time>2019-06-08T16:03:39Z</time>
      </trkpt>
      <trkpt lat="48.91704" lon="-0.43664">
        <ele>248</ele>
        <time>2019-06-08T16:03:41Z</time>
      </trkpt>
      <trkpt lat="48.91705" lon="-0.43675">
        <ele>245</ele>
        <time>2019-06-08T16:03:43Z</time>
      </trkpt>
      <trkpt lat="48.91702" lon="-0.43684">
        <ele>245</ele>
        <time>2019-06-08T16:03:45Z</time>
      </trkpt>
      <trkpt lat="48.91695" lon="-0.43688">
        <ele>245</ele>
        <time>2019-06-08T16:03:47Z</time>
      </trkpt>
      <trkpt lat="48.91688" lon="-0.43694">
        <ele>244</ele>
        <time>2019-06-08T16:03:49Z</time>
      </trkpt>
      <trkpt lat="48.9168" lon="-0.437">
        <ele>244</ele>
        <time>2019-06-08T16:03:51Z</time>
      </trkpt>
      <trkpt lat="48.91673" lon="-0.43707">
        <ele>244</ele>
        <time>2019-06-08T16:03:53Z</time>
      </trkpt>
      <trkpt lat="48.91667" lon="-0.43712">
        <ele>241</ele>
        <time>2019-06-08T16:03:55Z</time>
      </trkpt>
      <trkpt lat="48.9166" lon="-0.43721">
        <ele>240</ele>
        <time>2019-06-08T16:03:57Z</time>
      </trkpt>
      <trkpt lat="48.91654" lon="-0.43729">
        <ele>240</ele>
        <time>2019-06-08T16:03:59Z</time>
      </trkpt>
      <trkpt lat="48.91647" lon="-0.43739">
        <ele>240</ele>
        <time>2019-06-08T16:04:01Z</time>
      </trkpt>
      <trkpt lat="48.91639" lon="-0.43749">
        <ele>240</ele>
        <time>2019-06-08T16:04:03Z</time>
      </trkpt>
      <trkpt lat="48.91629" lon="-0.43764">
        <ele>236</ele>
        <time>2019-06-08T16:04:05Z</time>
      </trkpt>
      <trkpt lat="48.91618" lon="-0.43779">
        <ele>235</ele>
        <time>2019-06-08T16:04:07Z</time>
      </trkpt>
      <trkpt lat="48.91607" lon="-0.43792">
        <ele>234</ele>
        <time>2019-06-08T16:04:09Z</time>
      </trkpt>
      <trkpt lat="48.91597" lon="-0.43804">
        <ele>234</ele>
        <time>2019-06-08T16:04:11Z</time>
      </trkpt>
      <trkpt lat="48.91587" lon="-0.43815">
        <ele>233</ele>
        <time>2019-06-08T16:04:13Z</time>
      </trkpt>
      <trkpt lat="48.91579" lon="-0.43826">
        <ele>230</ele>
        <time>2019-06-08T16:04:15Z</time>
      </trkpt>
      <trkpt lat="48.91574" lon="-0.43837">
        <ele>228</ele>
        <time>2019-06-08T16:04:17Z</time>
      </trkpt>
      <trkpt lat="48.91574" lon="-0.43855">
        <ele>227</ele>
        <time>2019-06-08T16:04:19Z</time>
      </trkpt>
      <trkpt lat="48.91573" lon="-0.43872">
        <ele>226</ele>
        <time>2019-06-08T16:04:21Z</time>
      </trkpt>
      <trkpt lat="48.91571" lon="-0.43886">
        <ele>225</ele>
        <time>2019-06-08T16:04:23Z</time>
      </trkpt>
      <trkpt lat="48.91568" lon="-0.43895">
        <ele>225</ele>
        <time>2019-06-08T16:04:25Z</time>
      </trkpt>
      <trkpt lat="48.91564" lon="-0.43901">
        <ele>225</ele>
        <time>2019-06-08T16:04:29Z</time>
      </trkpt>
      <trkpt lat="48.91563" lon="-0.43909">
        <ele>225</ele>
        <time>2019-06-08T16:06:25Z</time>
      </trkpt>
      <trkpt lat="48.91565" lon="-0.43918">
        <ele>226</ele>
        <time>2019-06-08T16:06:49Z</time>
      </trkpt>
      <trkpt lat="48.91567" lon="-0.43927">
        <ele>226</ele>
        <time>2019-06-08T16:06:53Z</time>
      </trkpt>
      <trkpt lat="48.9157" lon="-0.43933">
        <ele>226</ele>
        <time>2019-06-08T16:06:55Z</time>
      </trkpt>
      <trkpt lat="48.91573" lon="-0.4394">
        <ele>226</ele>
        <time>2019-06-08T16:06:57Z</time>
      </trkpt>
      <trkpt lat="48.91575" lon="-0.43947">
        <ele>227</ele>
        <time>2019-06-08T16:06:59Z</time>
      </trkpt>
      <trkpt lat="48.9158" lon="-0.43959">
        <ele>227</ele>
        <time>2019-06-08T16:07:03Z</time>
      </trkpt>
      <trkpt lat="48.91585" lon="-0.43965">
        <ele>231</ele>
        <time>2019-06-08T16:07:05Z</time>
      </trkpt>
      <trkpt lat="48.91586" lon="-0.43973">
        <ele>231</ele>
        <time>2019-06-08T16:07:07Z</time>
      </trkpt>
      <trkpt lat="48.91588" lon="-0.43982">
        <ele>232</ele>
        <time>2019-06-08T16:07:09Z</time>
      </trkpt>
      <trkpt lat="48.91591" lon="-0.43989">
        <ele>232</ele>
        <time>2019-06-08T16:07:11Z</time>
      </trkpt>
      <trkpt lat="48.91594" lon="-0.43995">
        <ele>232</ele>
        <time>2019-06-08T16:07:13Z</time>
      </trkpt>
      <trkpt lat="48.91597" lon="-0.44001">
        <ele>234</ele>
        <time>2019-06-08T16:07:15Z</time>
      </trkpt>
      <trkpt lat="48.916" lon="-0.44005">
        <ele>234</ele>
        <time>2019-06-08T16:07:17Z</time>
      </trkpt>
      <trkpt lat="48.91605" lon="-0.44007">
        <ele>234</ele>
        <time>2019-06-08T16:07:19Z</time>
      </trkpt>
      <trkpt lat="48.9161" lon="-0.44009">
        <ele>235</ele>
        <time>2019-06-08T16:07:21Z</time>
      </trkpt>
      <trkpt lat="48.91614" lon="-0.44011">
        <ele>235</ele>
        <time>2019-06-08T16:07:23Z</time>
      </trkpt>
      <trkpt lat="48.91619" lon="-0.44012">
        <ele>235</ele>
        <time>2019-06-08T16:07:25Z</time>
      </trkpt>
      <trkpt lat="48.91625" lon="-0.44014">
        <ele>235</ele>
        <time>2019-06-08T16:07:27Z</time>
      </trkpt>
      <trkpt lat="48.9163" lon="-0.44017">
        <ele>235</ele>
        <time>2019-06-08T16:07:29Z</time>
      </trkpt>
      <trkpt lat="48.91634" lon="-0.44019">
        <ele>236</ele>
        <time>2019-06-08T16:07:31Z</time>
      </trkpt>
      <trkpt lat="48.91638" lon="-0.44023">
        <ele>236</ele>
        <time>2019-06-08T16:07:33Z</time>
      </trkpt>
      <trkpt lat="48.91645" lon="-0.44029">
        <ele>236</ele>
        <time>2019-06-08T16:07:37Z</time>
      </trkpt>
      <trkpt lat="48.91652" lon="-0.44037">
        <ele>236</ele>
        <time>2019-06-08T16:07:41Z</time>
      </trkpt>
      <trkpt lat="48.91659" lon="-0.44044">
        <ele>237</ele>
        <time>2019-06-08T16:07:45Z</time>
      </trkpt>
      <trkpt lat="48.91664" lon="-0.44052">
        <ele>237</ele>
        <time>2019-06-08T16:07:49Z</time>
      </trkpt>
      <trkpt lat="48.91669" lon="-0.4406">
        <ele>241</ele>
        <time>2019-06-08T16:07:53Z</time>
      </trkpt>
      <trkpt lat="48.91674" lon="-0.44068">
        <ele>241</ele>
        <time>2019-06-08T16:07:57Z</time>
      </trkpt>
      <trkpt lat="48.91677" lon="-0.44076">
        <ele>241</ele>
        <time>2019-06-08T16:08:01Z</time>
      </trkpt>
      <trkpt lat="48.91675" lon="-0.44084">
        <ele>242</ele>
        <time>2019-06-08T16:08:05Z</time>
      </trkpt>
      <trkpt lat="48.91672" lon="-0.44091">
        <ele>242</ele>
        <time>2019-06-08T16:08:09Z</time>
      </trkpt>
      <trkpt lat="48.91668" lon="-0.44097">
        <ele>243</ele>
        <time>2019-06-08T16:08:13Z</time>
      </trkpt>
      <trkpt lat="48.91665" lon="-0.44104">
        <ele>240</ele>
        <time>2019-06-08T16:08:17Z</time>
      </trkpt>
      <trkpt lat="48.91661" lon="-0.44109">
        <ele>239</ele>
        <time>2019-06-08T16:08:21Z</time>
      </trkpt>
      <trkpt lat="48.91657" lon="-0.44116">
        <ele>239</ele>
        <time>2019-06-08T16:08:25Z</time>
      </trkpt>
      <trkpt lat="48.91651" lon="-0.44123">
        <ele>239</ele>
        <time>2019-06-08T16:08:29Z</time>
      </trkpt>
      <trkpt lat="48.91647" lon="-0.44127">
        <ele>239</ele>
        <time>2019-06-08T16:08:31Z</time>
      </trkpt>
      <trkpt lat="48.91642" lon="-0.44132">
        <ele>239</ele>
        <time>2019-06-08T16:08:35Z</time>
      </trkpt>
      <trkpt lat="48.91637" lon="-0.44137">
        <ele>239</ele>
        <time>2019-06-08T16:08:39Z</time>
      </trkpt>
      <trkpt lat="48.91628" lon="-0.44144">
        <ele>239</ele>
        <time>2019-06-08T16:08:43Z</time>
      </trkpt>
      <trkpt lat="48.91623" lon="-0.44149">
        <ele>239</ele>
        <time>2019-06-08T16:08:45Z</time>
      </trkpt>
      <trkpt lat="48.91617" lon="-0.44154">
        <ele>239</ele>
        <time>2019-06-08T16:08:47Z</time>
      </trkpt>
      <trkpt lat="48.91612" lon="-0.44159">
        <ele>239</ele>
        <time>2019-06-08T16:08:49Z</time>
      </trkpt>
      <trkpt lat="48.91606" lon="-0.44165">
        <ele>238</ele>
        <time>2019-06-08T16:08:51Z</time>
      </trkpt>
      <trkpt lat="48.91599" lon="-0.44173">
        <ele>239</ele>
        <time>2019-06-08T16:08:53Z</time>
      </trkpt>
      <trkpt lat="48.91594" lon="-0.4418">
        <ele>239</ele>
        <time>2019-06-08T16:08:55Z</time>
      </trkpt>
      <trkpt lat="48.91588" lon="-0.44187">
        <ele>239</ele>
        <time>2019-06-08T16:08:57Z</time>
      </trkpt>
      <trkpt lat="48.91583" lon="-0.44195">
        <ele>237</ele>
        <time>2019-06-08T16:08:59Z</time>
      </trkpt>
      <trkpt lat="48.91578" lon="-0.44203">
        <ele>237</ele>
        <time>2019-06-08T16:09:01Z</time>
      </trkpt>
      <trkpt lat="48.91571" lon="-0.44212">
        <ele>237</ele>
        <time>2019-06-08T16:09:03Z</time>
      </trkpt>
      <trkpt lat="48.91565" lon="-0.44224">
        <ele>237</ele>
        <time>2019-06-08T16:09:05Z</time>
      </trkpt>
      <trkpt lat="48.91558" lon="-0.44237">
        <ele>237</ele>
        <time>2019-06-08T16:09:07Z</time>
      </trkpt>
      <trkpt lat="48.91551" lon="-0.44251">
        <ele>236</ele>
        <time>2019-06-08T16:09:09Z</time>
      </trkpt>
      <trkpt lat="48.91544" lon="-0.44265">
        <ele>236</ele>
        <time>2019-06-08T16:09:11Z</time>
      </trkpt>
      <trkpt lat="48.91538" lon="-0.44278">
        <ele>236</ele>
        <time>2019-06-08T16:09:13Z</time>
      </trkpt>
      <trkpt lat="48.91533" lon="-0.44289">
        <ele>235</ele>
        <time>2019-06-08T16:09:15Z</time>
      </trkpt>
      <trkpt lat="48.91528" lon="-0.443">
        <ele>235</ele>
        <time>2019-06-08T16:09:17Z</time>
      </trkpt>
      <trkpt lat="48.91522" lon="-0.44312">
        <ele>235</ele>
        <time>2019-06-08T16:09:19Z</time>
      </trkpt>
      <trkpt lat="48.91517" lon="-0.44324">
        <ele>234</ele>
        <time>2019-06-08T16:09:21Z</time>
      </trkpt>
      <trkpt lat="48.91512" lon="-0.44336">
        <ele>233</ele>
        <time>2019-06-08T16:09:23Z</time>
      </trkpt>
      <trkpt lat="48.91508" lon="-0.44347">
        <ele>233</ele>
        <time>2019-06-08T16:09:25Z</time>
      </trkpt>
      <trkpt lat="48.91503" lon="-0.44355">
        <ele>233</ele>
        <time>2019-06-08T16:09:27Z</time>
      </trkpt>
      <trkpt lat="48.91499" lon="-0.44365">
        <ele>227</ele>
        <time>2019-06-08T16:09:29Z</time>
      </trkpt>
      <trkpt lat="48.91497" lon="-0.44373">
        <ele>227</ele>
        <time>2019-06-08T16:09:31Z</time>
      </trkpt>
      <trkpt lat="48.91494" lon="-0.4438">
        <ele>227</ele>
        <time>2019-06-08T16:09:33Z</time>
      </trkpt>
      <trkpt lat="48.9149" lon="-0.4439">
        <ele>226</ele>
        <time>2019-06-08T16:09:35Z</time>
      </trkpt>
      <trkpt lat="48.91486" lon="-0.44402">
        <ele>226</ele>
        <time>2019-06-08T16:09:37Z</time>
      </trkpt>
      <trkpt lat="48.91482" lon="-0.44419">
        <ele>224</ele>
        <time>2019-06-08T16:09:39Z</time>
      </trkpt>
      <trkpt lat="48.91476" lon="-0.44441">
        <ele>222</ele>
        <time>2019-06-08T16:09:41Z</time>
      </trkpt>
      <trkpt lat="48.9147" lon="-0.44467">
        <ele>221</ele>
        <time>2019-06-08T16:09:43Z</time>
      </trkpt>
      <trkpt lat="48.91467" lon="-0.44496">
        <ele>220</ele>
        <time>2019-06-08T16:09:45Z</time>
      </trkpt>
      <trkpt lat="48.91462" lon="-0.44529">
        <ele>216</ele>
        <time>2019-06-08T16:09:47Z</time>
      </trkpt>
      <trkpt lat="48.91458" lon="-0.44562">
        <ele>214</ele>
        <time>2019-06-08T16:09:49Z</time>
      </trkpt>
      <trkpt lat="48.91454" lon="-0.44595">
        <ele>210</ele>
        <time>2019-06-08T16:09:51Z</time>
      </trkpt>
      <trkpt lat="48.9145" lon="-0.44629">
        <ele>209</ele>
        <time>2019-06-08T16:09:53Z</time>
      </trkpt>
      <trkpt lat="48.91446" lon="-0.44665">
        <ele>207</ele>
        <time>2019-06-08T16:09:55Z</time>
      </trkpt>
      <trkpt lat="48.91442" lon="-0.447">
        <ele>204</ele>
        <time>2019-06-08T16:09:57Z</time>
      </trkpt>
      <trkpt lat="48.91437" lon="-0.44731">
        <ele>202</ele>
        <time>2019-06-08T16:09:59Z</time>
      </trkpt>
      <trkpt lat="48.91431" lon="-0.44757">
        <ele>198</ele>
        <time>2019-06-08T16:10:01Z</time>
      </trkpt>
      <trkpt lat="48.91424" lon="-0.44782">
        <ele>198</ele>
        <time>2019-06-08T16:10:03Z</time>
      </trkpt>
      <trkpt lat="48.91417" lon="-0.44807">
        <ele>196</ele>
        <time>2019-06-08T16:10:05Z</time>
      </trkpt>
      <trkpt lat="48.9141" lon="-0.44836">
        <ele>188</ele>
        <time>2019-06-08T16:10:07Z</time>
      </trkpt>
      <trkpt lat="48.91404" lon="-0.44864">
        <ele>182</ele>
        <time>2019-06-08T16:10:09Z</time>
      </trkpt>
      <trkpt lat="48.914" lon="-0.44893">
        <ele>179</ele>
        <time>2019-06-08T16:10:11Z</time>
      </trkpt>
      <trkpt lat="48.91394" lon="-0.44921">
        <ele>172</ele>
        <time>2019-06-08T16:10:13Z</time>
      </trkpt>
      <trkpt lat="48.91381" lon="-0.44947">
        <ele>170</ele>
        <time>2019-06-08T16:10:15Z</time>
      </trkpt>
      <trkpt lat="48.91365" lon="-0.44966">
        <ele>169</ele>
        <time>2019-06-08T16:10:17Z</time>
      </trkpt>
      <trkpt lat="48.91346" lon="-0.44977">
        <ele>167</ele>
        <time>2019-06-08T16:10:19Z</time>
      </trkpt>
      <trkpt lat="48.91326" lon="-0.44982">
        <ele>164</ele>
        <time>2019-06-08T16:10:21Z</time>
      </trkpt>
      <trkpt lat="48.91309" lon="-0.44988">
        <ele>163</ele>
        <time>2019-06-08T16:10:23Z</time>
      </trkpt>
      <trkpt lat="48.91292" lon="-0.45004">
        <ele>157</ele>
        <time>2019-06-08T16:10:25Z</time>
      </trkpt>
      <trkpt lat="48.91276" lon="-0.45024">
        <ele>156</ele>
        <time>2019-06-08T16:10:27Z</time>
      </trkpt>
      <trkpt lat="48.91262" lon="-0.45048">
        <ele>155</ele>
        <time>2019-06-08T16:10:29Z</time>
      </trkpt>
      <trkpt lat="48.91251" lon="-0.45074">
        <ele>152</ele>
        <time>2019-06-08T16:10:31Z</time>
      </trkpt>
      <trkpt lat="48.91241" lon="-0.45098">
        <ele>145</ele>
        <time>2019-06-08T16:10:33Z</time>
      </trkpt>
      <trkpt lat="48.91237" lon="-0.45122">
        <ele>141</ele>
        <time>2019-06-08T16:10:35Z</time>
      </trkpt>
      <trkpt lat="48.91241" lon="-0.45144">
        <ele>141</ele>
        <time>2019-06-08T16:10:37Z</time>
      </trkpt>
      <trkpt lat="48.91246" lon="-0.45164">
        <ele>143</ele>
        <time>2019-06-08T16:10:39Z</time>
      </trkpt>
      <trkpt lat="48.9125" lon="-0.45184">
        <ele>142</ele>
        <time>2019-06-08T16:10:41Z</time>
      </trkpt>
      <trkpt lat="48.91254" lon="-0.45198">
        <ele>141</ele>
        <time>2019-06-08T16:10:43Z</time>
      </trkpt>
      <trkpt lat="48.91257" lon="-0.45209">
        <ele>140</ele>
        <time>2019-06-08T16:10:45Z</time>
      </trkpt>
      <trkpt lat="48.91259" lon="-0.45216">
        <ele>139</ele>
        <time>2019-06-08T16:10:47Z</time>
      </trkpt>
      <trkpt lat="48.91261" lon="-0.45227">
        <ele>139</ele>
        <time>2019-06-08T16:10:51Z</time>
      </trkpt>
      <trkpt lat="48.91263" lon="-0.45233">
        <ele>138</ele>
        <time>2019-06-08T16:13:13Z</time>
      </trkpt>
      <trkpt lat="48.91269" lon="-0.45245">
        <ele>138</ele>
        <time>2019-06-08T16:13:17Z</time>
      </trkpt>
      <trkpt lat="48.91271" lon="-0.45251">
        <ele>135</ele>
        <time>2019-06-08T16:13:19Z</time>
      </trkpt>
      <trkpt lat="48.91272" lon="-0.4526">
        <ele>134</ele>
        <time>2019-06-08T16:13:21Z</time>
      </trkpt>
      <trkpt lat="48.91276" lon="-0.4527">
        <ele>134</ele>
        <time>2019-06-08T16:13:23Z</time>
      </trkpt>
      <trkpt lat="48.9128" lon="-0.45281">
        <ele>134</ele>
        <time>2019-06-08T16:13:25Z</time>
      </trkpt>
      <trkpt lat="48.91286" lon="-0.45294">
        <ele>133</ele>
        <time>2019-06-08T16:13:27Z</time>
      </trkpt>
      <trkpt lat="48.91292" lon="-0.45308">
        <ele>133</ele>
        <time>2019-06-08T16:13:29Z</time>
      </trkpt>
      <trkpt lat="48.913" lon="-0.45321">
        <ele>133</ele>
        <time>2019-06-08T16:13:31Z</time>
      </trkpt>
      <trkpt lat="48.91307" lon="-0.45334">
        <ele>130</ele>
        <time>2019-06-08T16:13:33Z</time>
      </trkpt>
      <trkpt lat="48.91314" lon="-0.45348">
        <ele>130</ele>
        <time>2019-06-08T16:13:35Z</time>
      </trkpt>
      <trkpt lat="48.91322" lon="-0.45363">
        <ele>130</ele>
        <time>2019-06-08T16:13:37Z</time>
      </trkpt>
      <trkpt lat="48.91329" lon="-0.4538">
        <ele>129</ele>
        <time>2019-06-08T16:13:39Z</time>
      </trkpt>
      <trkpt lat="48.91336" lon="-0.45399">
        <ele>130</ele>
        <time>2019-06-08T16:13:41Z</time>
      </trkpt>
      <trkpt lat="48.91343" lon="-0.45419">
        <ele>128</ele>
        <time>2019-06-08T16:13:43Z</time>
      </trkpt>
      <trkpt lat="48.91349" lon="-0.45438">
        <ele>126</ele>
        <time>2019-06-08T16:13:45Z</time>
      </trkpt>
      <trkpt lat="48.91355" lon="-0.45457">
        <ele>125</ele>
        <time>2019-06-08T16:13:47Z</time>
      </trkpt>
      <trkpt lat="48.91362" lon="-0.45476">
        <ele>124</ele>
        <time>2019-06-08T16:13:49Z</time>
      </trkpt>
      <trkpt lat="48.91368" lon="-0.45495">
        <ele>124</ele>
        <time>2019-06-08T16:13:51Z</time>
      </trkpt>
      <trkpt lat="48.91373" lon="-0.45514">
        <ele>119</ele>
        <time>2019-06-08T16:13:53Z</time>
      </trkpt>
      <trkpt lat="48.91377" lon="-0.45534">
        <ele>119</ele>
        <time>2019-06-08T16:13:55Z</time>
      </trkpt>
      <trkpt lat="48.91381" lon="-0.45555">
        <ele>118</ele>
        <time>2019-06-08T16:13:57Z</time>
      </trkpt>
      <trkpt lat="48.91384" lon="-0.45575">
        <ele>118</ele>
        <time>2019-06-08T16:13:59Z</time>
      </trkpt>
      <trkpt lat="48.91386" lon="-0.45596">
        <ele>114</ele>
        <time>2019-06-08T16:14:01Z</time>
      </trkpt>
      <trkpt lat="48.9139" lon="-0.45616">
        <ele>113</ele>
        <time>2019-06-08T16:14:03Z</time>
      </trkpt>
      <trkpt lat="48.91396" lon="-0.45638">
        <ele>112</ele>
        <time>2019-06-08T16:14:05Z</time>
      </trkpt>
      <trkpt lat="48.91403" lon="-0.45659">
        <ele>112</ele>
        <time>2019-06-08T16:14:07Z</time>
      </trkpt>
      <trkpt lat="48.91408" lon="-0.45678">
        <ele>109</ele>
        <time>2019-06-08T16:14:09Z</time>
      </trkpt>
      <trkpt lat="48.91413" lon="-0.45695">
        <ele>107</ele>
        <time>2019-06-08T16:14:11Z</time>
      </trkpt>
      <trkpt lat="48.9142" lon="-0.45715">
        <ele>110</ele>
        <time>2019-06-08T16:14:13Z</time>
      </trkpt>
      <trkpt lat="48.91425" lon="-0.45734">
        <ele>108</ele>
        <time>2019-06-08T16:14:15Z</time>
      </trkpt>
      <trkpt lat="48.91434" lon="-0.4575">
        <ele>105</ele>
        <time>2019-06-08T16:14:17Z</time>
      </trkpt>
      <trkpt lat="48.91445" lon="-0.45765">
        <ele>105</ele>
        <time>2019-06-08T16:14:19Z</time>
      </trkpt>
      <trkpt lat="48.91456" lon="-0.45783">
        <ele>105</ele>
        <time>2019-06-08T16:14:21Z</time>
      </trkpt>
      <trkpt lat="48.91462" lon="-0.45806">
        <ele>105</ele>
        <time>2019-06-08T16:14:23Z</time>
      </trkpt>
      <trkpt lat="48.91463" lon="-0.45829">
        <ele>104</ele>
        <time>2019-06-08T16:14:25Z</time>
      </trkpt>
      <trkpt lat="48.91464" lon="-0.4585">
        <ele>100</ele>
        <time>2019-06-08T16:14:27Z</time>
      </trkpt>
      <trkpt lat="48.91469" lon="-0.4587">
        <ele>99</ele>
        <time>2019-06-08T16:14:29Z</time>
      </trkpt>
      <trkpt lat="48.91475" lon="-0.4589">
        <ele>99</ele>
        <time>2019-06-08T16:14:31Z</time>
      </trkpt>
      <trkpt lat="48.91483" lon="-0.4591">
        <ele>98</ele>
        <time>2019-06-08T16:14:33Z</time>
      </trkpt>
      <trkpt lat="48.91492" lon="-0.45931">
        <ele>95</ele>
        <time>2019-06-08T16:14:35Z</time>
      </trkpt>
      <trkpt lat="48.91501" lon="-0.45952">
        <ele>98</ele>
        <time>2019-06-08T16:14:37Z</time>
      </trkpt>
      <trkpt lat="48.91511" lon="-0.45972">
        <ele>97</ele>
        <time>2019-06-08T16:14:39Z</time>
      </trkpt>
      <trkpt lat="48.91519" lon="-0.45995">
        <ele>95</ele>
        <time>2019-06-08T16:14:41Z</time>
      </trkpt>
      <trkpt lat="48.91527" lon="-0.46017">
        <ele>92</ele>
        <time>2019-06-08T16:14:43Z</time>
      </trkpt>
      <trkpt lat="48.91533" lon="-0.46039">
        <ele>92</ele>
        <time>2019-06-08T16:14:45Z</time>
      </trkpt>
      <trkpt lat="48.9154" lon="-0.4606">
        <ele>92</ele>
        <time>2019-06-08T16:14:47Z</time>
      </trkpt>
      <trkpt lat="48.91546" lon="-0.4608">
        <ele>92</ele>
        <time>2019-06-08T16:14:49Z</time>
      </trkpt>
      <trkpt lat="48.91551" lon="-0.46099">
        <ele>88</ele>
        <time>2019-06-08T16:14:51Z</time>
      </trkpt>
      <trkpt lat="48.91558" lon="-0.46117">
        <ele>88</ele>
        <time>2019-06-08T16:14:53Z</time>
      </trkpt>
      <trkpt lat="48.91566" lon="-0.46137">
        <ele>88</ele>
        <time>2019-06-08T16:14:55Z</time>
      </trkpt>
      <trkpt lat="48.91569" lon="-0.46159">
        <ele>87</ele>
        <time>2019-06-08T16:14:57Z</time>
      </trkpt>
      <trkpt lat="48.91568" lon="-0.46185">
        <ele>85</ele>
        <time>2019-06-08T16:14:59Z</time>
      </trkpt>
      <trkpt lat="48.91564" lon="-0.46211">
        <ele>83</ele>
        <time>2019-06-08T16:15:01Z</time>
      </trkpt>
      <trkpt lat="48.91559" lon="-0.46239">
        <ele>83</ele>
        <time>2019-06-08T16:15:03Z</time>
      </trkpt>
      <trkpt lat="48.91554" lon="-0.46265">
        <ele>80</ele>
        <time>2019-06-08T16:15:05Z</time>
      </trkpt>
      <trkpt lat="48.9155" lon="-0.46293">
        <ele>80</ele>
        <time>2019-06-08T16:15:07Z</time>
      </trkpt>
      <trkpt lat="48.91545" lon="-0.46318">
        <ele>79</ele>
        <time>2019-06-08T16:15:09Z</time>
      </trkpt>
      <trkpt lat="48.91541" lon="-0.46343">
        <ele>78</ele>
        <time>2019-06-08T16:15:11Z</time>
      </trkpt>
      <trkpt lat="48.91536" lon="-0.46368">
        <ele>78</ele>
        <time>2019-06-08T16:15:13Z</time>
      </trkpt>
      <trkpt lat="48.91532" lon="-0.46393">
        <ele>78</ele>
        <time>2019-06-08T16:15:15Z</time>
      </trkpt>
      <trkpt lat="48.91526" lon="-0.46417">
        <ele>77</ele>
        <time>2019-06-08T16:15:17Z</time>
      </trkpt>
      <trkpt lat="48.9152" lon="-0.46441">
        <ele>77</ele>
        <time>2019-06-08T16:15:19Z</time>
      </trkpt>
      <trkpt lat="48.91516" lon="-0.46466">
        <ele>76</ele>
        <time>2019-06-08T16:15:21Z</time>
      </trkpt>
      <trkpt lat="48.91514" lon="-0.4649">
        <ele>76</ele>
        <time>2019-06-08T16:15:23Z</time>
      </trkpt>
      <trkpt lat="48.91514" lon="-0.46515">
        <ele>75</ele>
        <time>2019-06-08T16:15:25Z</time>
      </trkpt>
      <trkpt lat="48.91514" lon="-0.4654">
        <ele>75</ele>
        <time>2019-06-08T16:15:27Z</time>
      </trkpt>
      <trkpt lat="48.91514" lon="-0.46564">
        <ele>75</ele>
        <time>2019-06-08T16:15:29Z</time>
      </trkpt>
      <trkpt lat="48.91515" lon="-0.46589">
        <ele>75</ele>
        <time>2019-06-08T16:15:31Z</time>
      </trkpt>
      <trkpt lat="48.91518" lon="-0.46614">
        <ele>74</ele>
        <time>2019-06-08T16:15:33Z</time>
      </trkpt>
      <trkpt lat="48.91523" lon="-0.4664">
        <ele>74</ele>
        <time>2019-06-08T16:15:35Z</time>
      </trkpt>
      <trkpt lat="48.91529" lon="-0.46666">
        <ele>74</ele>
        <time>2019-06-08T16:15:37Z</time>
      </trkpt>
      <trkpt lat="48.91536" lon="-0.46694">
        <ele>71</ele>
        <time>2019-06-08T16:15:39Z</time>
      </trkpt>
      <trkpt lat="48.91543" lon="-0.46722">
        <ele>70</ele>
        <time>2019-06-08T16:15:41Z</time>
      </trkpt>
      <trkpt lat="48.91551" lon="-0.46752">
        <ele>66</ele>
        <time>2019-06-08T16:15:43Z</time>
      </trkpt>
      <trkpt lat="48.91559" lon="-0.46779">
        <ele>66</ele>
        <time>2019-06-08T16:15:45Z</time>
      </trkpt>
      <trkpt lat="48.91568" lon="-0.46805">
        <ele>65</ele>
        <time>2019-06-08T16:15:47Z</time>
      </trkpt>
      <trkpt lat="48.91581" lon="-0.4683">
        <ele>63</ele>
        <time>2019-06-08T16:15:49Z</time>
      </trkpt>
      <trkpt lat="48.91593" lon="-0.46854">
        <ele>60</ele>
        <time>2019-06-08T16:15:51Z</time>
      </trkpt>
      <trkpt lat="48.91606" lon="-0.46879">
        <ele>59</ele>
        <time>2019-06-08T16:15:53Z</time>
      </trkpt>
      <trkpt lat="48.91616" lon="-0.46907">
        <ele>59</ele>
        <time>2019-06-08T16:15:55Z</time>
      </trkpt>
      <trkpt lat="48.91625" lon="-0.46932">
        <ele>57</ele>
        <time>2019-06-08T16:15:57Z</time>
      </trkpt>
      <trkpt lat="48.91634" lon="-0.46956">
        <ele>56</ele>
        <time>2019-06-08T16:15:59Z</time>
      </trkpt>
      <trkpt lat="48.91643" lon="-0.46978">
        <ele>56</ele>
        <time>2019-06-08T16:16:01Z</time>
      </trkpt>
      <trkpt lat="48.91654" lon="-0.46994">
        <ele>55</ele>
        <time>2019-06-08T16:16:03Z</time>
      </trkpt>
      <trkpt lat="48.91668" lon="-0.47004">
        <ele>54</ele>
        <time>2019-06-08T16:16:05Z</time>
      </trkpt>
      <trkpt lat="48.91684" lon="-0.47015">
        <ele>53</ele>
        <time>2019-06-08T16:16:07Z</time>
      </trkpt>
      <trkpt lat="48.91699" lon="-0.47027">
        <ele>53</ele>
        <time>2019-06-08T16:16:09Z</time>
      </trkpt>
      <trkpt lat="48.91711" lon="-0.47044">
        <ele>52</ele>
        <time>2019-06-08T16:16:11Z</time>
      </trkpt>
      <trkpt lat="48.91719" lon="-0.47067">
        <ele>52</ele>
        <time>2019-06-08T16:16:13Z</time>
      </trkpt>
      <trkpt lat="48.91725" lon="-0.4709">
        <ele>48</ele>
        <time>2019-06-08T16:16:15Z</time>
      </trkpt>
      <trkpt lat="48.91729" lon="-0.47109">
        <ele>48</ele>
        <time>2019-06-08T16:16:17Z</time>
      </trkpt>
      <trkpt lat="48.91728" lon="-0.47132">
        <ele>47</ele>
        <time>2019-06-08T16:16:19Z</time>
      </trkpt>
      <trkpt lat="48.91721" lon="-0.47154">
        <ele>47</ele>
        <time>2019-06-08T16:16:21Z</time>
      </trkpt>
      <trkpt lat="48.91715" lon="-0.47178">
        <ele>44</ele>
        <time>2019-06-08T16:16:23Z</time>
      </trkpt>
      <trkpt lat="48.91713" lon="-0.47203">
        <ele>44</ele>
        <time>2019-06-08T16:16:25Z</time>
      </trkpt>
      <trkpt lat="48.91714" lon="-0.47223">
        <ele>43</ele>
        <time>2019-06-08T16:16:27Z</time>
      </trkpt>
      <trkpt lat="48.91714" lon="-0.47241">
        <ele>43</ele>
        <time>2019-06-08T16:16:29Z</time>
      </trkpt>
      <trkpt lat="48.9171" lon="-0.47259">
        <ele>41</ele>
        <time>2019-06-08T16:16:31Z</time>
      </trkpt>
      <trkpt lat="48.91703" lon="-0.47275">
        <ele>40</ele>
        <time>2019-06-08T16:16:33Z</time>
      </trkpt>
      <trkpt lat="48.91695" lon="-0.47291">
        <ele>40</ele>
        <time>2019-06-08T16:16:35Z</time>
      </trkpt>
      <trkpt lat="48.9169" lon="-0.47309">
        <ele>40</ele>
        <time>2019-06-08T16:16:37Z</time>
      </trkpt>
      <trkpt lat="48.91686" lon="-0.47327">
        <ele>39</ele>
        <time>2019-06-08T16:16:39Z</time>
      </trkpt>
      <trkpt lat="48.91682" lon="-0.47339">
        <ele>38</ele>
        <time>2019-06-08T16:16:41Z</time>
      </trkpt>
      <trkpt lat="48.91678" lon="-0.47348">
        <ele>38</ele>
        <time>2019-06-08T16:16:43Z</time>
      </trkpt>
      <trkpt lat="48.91672" lon="-0.47352">
        <ele>38</ele>
        <time>2019-06-08T16:16:47Z</time>
      </trkpt>
      <trkpt lat="48.91668" lon="-0.47357">
        <ele>38</ele>
        <time>2019-06-08T16:16:51Z</time>
      </trkpt>
      <trkpt lat="48.9167" lon="-0.47367">
        <ele>38</ele>
        <time>2019-06-08T16:17:35Z</time>
      </trkpt>
      <trkpt lat="48.9167" lon="-0.47374">
        <ele>37</ele>
        <time>2019-06-08T16:17:37Z</time>
      </trkpt>
      <trkpt lat="48.91668" lon="-0.47383">
        <ele>37</ele>
        <time>2019-06-08T16:17:39Z</time>
      </trkpt>
      <trkpt lat="48.91665" lon="-0.47393">
        <ele>38</ele>
        <time>2019-06-08T16:17:41Z</time>
      </trkpt>
      <trkpt lat="48.91662" lon="-0.47403">
        <ele>38</ele>
        <time>2019-06-08T16:17:43Z</time>
      </trkpt>
      <trkpt lat="48.9166" lon="-0.47413">
        <ele>38</ele>
        <time>2019-06-08T16:17:45Z</time>
      </trkpt>
      <trkpt lat="48.91658" lon="-0.47424">
        <ele>37</ele>
        <time>2019-06-08T16:17:47Z</time>
      </trkpt>
      <trkpt lat="48.91657" lon="-0.47435">
        <ele>37</ele>
        <time>2019-06-08T16:17:49Z</time>
      </trkpt>
      <trkpt lat="48.91657" lon="-0.47446">
        <ele>36</ele>
        <time>2019-06-08T16:17:51Z</time>
      </trkpt>
      <trkpt lat="48.91656" lon="-0.47456">
        <ele>36</ele>
        <time>2019-06-08T16:17:53Z</time>
      </trkpt>
      <trkpt lat="48.91655" lon="-0.47467">
        <ele>36</ele>
        <time>2019-06-08T16:17:55Z</time>
      </trkpt>
      <trkpt lat="48.91655" lon="-0.47478">
        <ele>35</ele>
        <time>2019-06-08T16:17:57Z</time>
      </trkpt>
      <trkpt lat="48.91654" lon="-0.4749">
        <ele>35</ele>
        <time>2019-06-08T16:17:59Z</time>
      </trkpt>
      <trkpt lat="48.91653" lon="-0.47502">
        <ele>35</ele>
        <time>2019-06-08T16:18:01Z</time>
      </trkpt>
      <trkpt lat="48.91652" lon="-0.47514">
        <ele>35</ele>
        <time>2019-06-08T16:18:03Z</time>
      </trkpt>
      <trkpt lat="48.91652" lon="-0.47525">
        <ele>35</ele>
        <time>2019-06-08T16:18:05Z</time>
      </trkpt>
      <trkpt lat="48.91651" lon="-0.47537">
        <ele>35</ele>
        <time>2019-06-08T16:18:07Z</time>
      </trkpt>
      <trkpt lat="48.91651" lon="-0.47548">
        <ele>35</ele>
        <time>2019-06-08T16:18:09Z</time>
      </trkpt>
      <trkpt lat="48.91651" lon="-0.4756">
        <ele>35</ele>
        <time>2019-06-08T16:18:11Z</time>
      </trkpt>
      <trkpt lat="48.9165" lon="-0.47572">
        <ele>35</ele>
        <time>2019-06-08T16:18:13Z</time>
      </trkpt>
      <trkpt lat="48.91649" lon="-0.47585">
        <ele>38</ele>
        <time>2019-06-08T16:18:15Z</time>
      </trkpt>
      <trkpt lat="48.91649" lon="-0.47596">
        <ele>39</ele>
        <time>2019-06-08T16:18:17Z</time>
      </trkpt>
      <trkpt lat="48.91648" lon="-0.47609">
        <ele>40</ele>
        <time>2019-06-08T16:18:19Z</time>
      </trkpt>
      <trkpt lat="48.91649" lon="-0.47621">
        <ele>41</ele>
        <time>2019-06-08T16:18:21Z</time>
      </trkpt>
      <trkpt lat="48.91648" lon="-0.47632">
        <ele>42</ele>
        <time>2019-06-08T16:18:23Z</time>
      </trkpt>
      <trkpt lat="48.91647" lon="-0.47642">
        <ele>43</ele>
        <time>2019-06-08T16:18:25Z</time>
      </trkpt>
      <trkpt lat="48.91643" lon="-0.47649">
        <ele>43</ele>
        <time>2019-06-08T16:18:27Z</time>
      </trkpt>
      <trkpt lat="48.91637" lon="-0.47653">
        <ele>43</ele>
        <time>2019-06-08T16:18:29Z</time>
      </trkpt>
      <trkpt lat="48.91629" lon="-0.47654">
        <ele>43</ele>
        <time>2019-06-08T16:18:31Z</time>
      </trkpt>
      <trkpt lat="48.91622" lon="-0.47654">
        <ele>43</ele>
        <time>2019-06-08T16:18:33Z</time>
      </trkpt>
      <trkpt lat="48.91614" lon="-0.47651">
        <ele>43</ele>
        <time>2019-06-08T16:18:35Z</time>
      </trkpt>
      <trkpt lat="48.91606" lon="-0.47648">
        <ele>44</ele>
        <time>2019-06-08T16:18:37Z</time>
      </trkpt>
      <trkpt lat="48.91598" lon="-0.47648">
        <ele>44</ele>
        <time>2019-06-08T16:18:39Z</time>
      </trkpt>
      <trkpt lat="48.9159" lon="-0.47648">
        <ele>44</ele>
        <time>2019-06-08T16:18:41Z</time>
      </trkpt>
      <trkpt lat="48.91581" lon="-0.47646">
        <ele>46</ele>
        <time>2019-06-08T16:18:43Z</time>
      </trkpt>
      <trkpt lat="48.91573" lon="-0.47644">
        <ele>46</ele>
        <time>2019-06-08T16:18:45Z</time>
      </trkpt>
      <trkpt lat="48.91564" lon="-0.47639">
        <ele>45</ele>
        <time>2019-06-08T16:18:47Z</time>
      </trkpt>
      <trkpt lat="48.91555" lon="-0.47636">
        <ele>45</ele>
        <time>2019-06-08T16:18:49Z</time>
      </trkpt>
      <trkpt lat="48.91546" lon="-0.47634">
        <ele>45</ele>
        <time>2019-06-08T16:18:51Z</time>
      </trkpt>
      <trkpt lat="48.91535" lon="-0.47631">
        <ele>45</ele>
        <time>2019-06-08T16:18:53Z</time>
      </trkpt>
      <trkpt lat="48.91522" lon="-0.47627">
        <ele>45</ele>
        <time>2019-06-08T16:18:55Z</time>
      </trkpt>
      <trkpt lat="48.91509" lon="-0.47624">
        <ele>45</ele>
        <time>2019-06-08T16:18:57Z</time>
      </trkpt>
      <trkpt lat="48.91496" lon="-0.47622">
        <ele>47</ele>
        <time>2019-06-08T16:18:59Z</time>
      </trkpt>
      <trkpt lat="48.91482" lon="-0.47619">
        <ele>47</ele>
        <time>2019-06-08T16:19:01Z</time>
      </trkpt>
      <trkpt lat="48.9147" lon="-0.47617">
        <ele>47</ele>
        <time>2019-06-08T16:19:03Z</time>
      </trkpt>
      <trkpt lat="48.91458" lon="-0.47614">
        <ele>47</ele>
        <time>2019-06-08T16:19:05Z</time>
      </trkpt>
      <trkpt lat="48.91446" lon="-0.47613">
        <ele>47</ele>
        <time>2019-06-08T16:19:07Z</time>
      </trkpt>
      <trkpt lat="48.91436" lon="-0.47613">
        <ele>47</ele>
        <time>2019-06-08T16:19:09Z</time>
      </trkpt>
      <trkpt lat="48.91427" lon="-0.47613">
        <ele>47</ele>
        <time>2019-06-08T16:19:11Z</time>
      </trkpt>
      <trkpt lat="48.91418" lon="-0.47615">
        <ele>47</ele>
        <time>2019-06-08T16:19:13Z</time>
      </trkpt>
      <trkpt lat="48.91408" lon="-0.47616">
        <ele>48</ele>
        <time>2019-06-08T16:19:15Z</time>
      </trkpt>
      <trkpt lat="48.91399" lon="-0.47617">
        <ele>48</ele>
        <time>2019-06-08T16:19:17Z</time>
      </trkpt>
      <trkpt lat="48.91389" lon="-0.47617">
        <ele>48</ele>
        <time>2019-06-08T16:19:19Z</time>
      </trkpt>
      <trkpt lat="48.91379" lon="-0.47619">
        <ele>48</ele>
        <time>2019-06-08T16:19:21Z</time>
      </trkpt>
      <trkpt lat="48.9137" lon="-0.47619">
        <ele>48</ele>
        <time>2019-06-08T16:19:23Z</time>
      </trkpt>
      <trkpt lat="48.91361" lon="-0.4762">
        <ele>48</ele>
        <time>2019-06-08T16:19:25Z</time>
      </trkpt>
      <trkpt lat="48.91352" lon="-0.47619">
        <ele>48</ele>
        <time>2019-06-08T16:19:27Z</time>
      </trkpt>
      <trkpt lat="48.91344" lon="-0.47616">
        <ele>47</ele>
        <time>2019-06-08T16:19:29Z</time>
      </trkpt>
      <trkpt lat="48.91336" lon="-0.47613">
        <ele>47</ele>
        <time>2019-06-08T16:19:31Z</time>
      </trkpt>
      <trkpt lat="48.91327" lon="-0.4761">
        <ele>48</ele>
        <time>2019-06-08T16:19:33Z</time>
      </trkpt>
      <trkpt lat="48.91318" lon="-0.47607">
        <ele>48</ele>
        <time>2019-06-08T16:19:35Z</time>
      </trkpt>
      <trkpt lat="48.91308" lon="-0.47606">
        <ele>49</ele>
        <time>2019-06-08T16:19:37Z</time>
      </trkpt>
      <trkpt lat="48.91296" lon="-0.47605">
        <ele>50</ele>
        <time>2019-06-08T16:19:39Z</time>
      </trkpt>
      <trkpt lat="48.91285" lon="-0.47605">
        <ele>50</ele>
        <time>2019-06-08T16:19:41Z</time>
      </trkpt>
      <trkpt lat="48.91274" lon="-0.47606">
        <ele>50</ele>
        <time>2019-06-08T16:19:43Z</time>
      </trkpt>
      <trkpt lat="48.91264" lon="-0.47606">
        <ele>50</ele>
        <time>2019-06-08T16:19:45Z</time>
      </trkpt>
      <trkpt lat="48.91255" lon="-0.47607">
        <ele>50</ele>
        <time>2019-06-08T16:19:47Z</time>
      </trkpt>
      <trkpt lat="48.91245" lon="-0.47607">
        <ele>53</ele>
        <time>2019-06-08T16:19:49Z</time>
      </trkpt>
      <trkpt lat="48.91235" lon="-0.47607">
        <ele>53</ele>
        <time>2019-06-08T16:19:51Z</time>
      </trkpt>
      <trkpt lat="48.91226" lon="-0.47609">
        <ele>54</ele>
        <time>2019-06-08T16:19:53Z</time>
      </trkpt>
      <trkpt lat="48.91218" lon="-0.47612">
        <ele>55</ele>
        <time>2019-06-08T16:19:55Z</time>
      </trkpt>
      <trkpt lat="48.91211" lon="-0.47612">
        <ele>55</ele>
        <time>2019-06-08T16:19:57Z</time>
      </trkpt>
      <trkpt lat="48.91206" lon="-0.47613">
        <ele>56</ele>
        <time>2019-06-08T16:19:59Z</time>
      </trkpt>
      <trkpt lat="48.91202" lon="-0.47608">
        <ele>55</ele>
        <time>2019-06-08T16:20:01Z</time>
      </trkpt>
      <trkpt lat="48.91197" lon="-0.47605">
        <ele>54</ele>
        <time>2019-06-08T16:20:03Z</time>
      </trkpt>
      <trkpt lat="48.91191" lon="-0.47607">
        <ele>54</ele>
        <time>2019-06-08T16:20:05Z</time>
      </trkpt>
      <trkpt lat="48.91183" lon="-0.47608">
        <ele>54</ele>
        <time>2019-06-08T16:20:07Z</time>
      </trkpt>
      <trkpt lat="48.91176" lon="-0.4761">
        <ele>54</ele>
        <time>2019-06-08T16:20:09Z</time>
      </trkpt>
      <trkpt lat="48.91169" lon="-0.47611">
        <ele>54</ele>
        <time>2019-06-08T16:20:11Z</time>
      </trkpt>
      <trkpt lat="48.9116" lon="-0.47613">
        <ele>55</ele>
        <time>2019-06-08T16:20:13Z</time>
      </trkpt>
      <trkpt lat="48.91153" lon="-0.47614">
        <ele>55</ele>
        <time>2019-06-08T16:20:15Z</time>
      </trkpt>
      <trkpt lat="48.91146" lon="-0.47613">
        <ele>55</ele>
        <time>2019-06-08T16:20:17Z</time>
      </trkpt>
      <trkpt lat="48.91137" lon="-0.47613">
        <ele>55</ele>
        <time>2019-06-08T16:20:19Z</time>
      </trkpt>
      <trkpt lat="48.9113" lon="-0.47613">
        <ele>56</ele>
        <time>2019-06-08T16:20:21Z</time>
      </trkpt>
      <trkpt lat="48.91123" lon="-0.47613">
        <ele>55</ele>
        <time>2019-06-08T16:20:23Z</time>
      </trkpt>
      <trkpt lat="48.91117" lon="-0.47614">
        <ele>56</ele>
        <time>2019-06-08T16:20:25Z</time>
      </trkpt>
      <trkpt lat="48.91111" lon="-0.47615">
        <ele>55</ele>
        <time>2019-06-08T16:20:27Z</time>
      </trkpt>
      <trkpt lat="48.91105" lon="-0.47616">
        <ele>55</ele>
        <time>2019-06-08T16:20:29Z</time>
      </trkpt>
      <trkpt lat="48.91099" lon="-0.47617">
        <ele>55</ele>
        <time>2019-06-08T16:20:31Z</time>
      </trkpt>
      <trkpt lat="48.91095" lon="-0.47618">
        <ele>56</ele>
        <time>2019-06-08T16:20:33Z</time>
      </trkpt>
      <trkpt lat="48.91089" lon="-0.4762">
        <ele>56</ele>
        <time>2019-06-08T16:20:35Z</time>
      </trkpt>
      <trkpt lat="48.91082" lon="-0.47622">
        <ele>54</ele>
        <time>2019-06-08T16:20:37Z</time>
      </trkpt>
      <trkpt lat="48.91076" lon="-0.47621">
        <ele>54</ele>
        <time>2019-06-08T16:20:39Z</time>
      </trkpt>
      <trkpt lat="48.91068" lon="-0.47622">
        <ele>54</ele>
        <time>2019-06-08T16:20:41Z</time>
      </trkpt>
      <trkpt lat="48.9106" lon="-0.4762">
        <ele>54</ele>
        <time>2019-06-08T16:20:43Z</time>
      </trkpt>
      <trkpt lat="48.91052" lon="-0.47619">
        <ele>54</ele>
        <time>2019-06-08T16:20:45Z</time>
      </trkpt>
      <trkpt lat="48.91044" lon="-0.47619">
        <ele>54</ele>
        <time>2019-06-08T16:20:47Z</time>
      </trkpt>
      <trkpt lat="48.91035" lon="-0.4762">
        <ele>54</ele>
        <time>2019-06-08T16:20:49Z</time>
      </trkpt>
      <trkpt lat="48.91028" lon="-0.47622">
        <ele>54</ele>
        <time>2019-06-08T16:20:51Z</time>
      </trkpt>
      <trkpt lat="48.91019" lon="-0.47623">
        <ele>54</ele>
        <time>2019-06-08T16:20:53Z</time>
      </trkpt>
      <trkpt lat="48.91011" lon="-0.47625">
        <ele>54</ele>
        <time>2019-06-08T16:20:55Z</time>
      </trkpt>
      <trkpt lat="48.91003" lon="-0.47625">
        <ele>54</ele>
        <time>2019-06-08T16:20:57Z</time>
      </trkpt>
      <trkpt lat="48.90994" lon="-0.47626">
        <ele>58</ele>
        <time>2019-06-08T16:20:59Z</time>
      </trkpt>
      <trkpt lat="48.90987" lon="-0.47626">
        <ele>58</ele>
        <time>2019-06-08T16:21:01Z</time>
      </trkpt>
      <trkpt lat="48.9098" lon="-0.47625">
        <ele>58</ele>
        <time>2019-06-08T16:21:03Z</time>
      </trkpt>
      <trkpt lat="48.90973" lon="-0.47622">
        <ele>58</ele>
        <time>2019-06-08T16:21:05Z</time>
      </trkpt>
      <trkpt lat="48.90966" lon="-0.47619">
        <ele>58</ele>
        <time>2019-06-08T16:21:07Z</time>
      </trkpt>
      <trkpt lat="48.90959" lon="-0.47612">
        <ele>58</ele>
        <time>2019-06-08T16:21:09Z</time>
      </trkpt>
      <trkpt lat="48.90952" lon="-0.47606">
        <ele>58</ele>
        <time>2019-06-08T16:21:11Z</time>
      </trkpt>
      <trkpt lat="48.90944" lon="-0.47599">
        <ele>58</ele>
        <time>2019-06-08T16:21:13Z</time>
      </trkpt>
      <trkpt lat="48.90937" lon="-0.47591">
        <ele>58</ele>
        <time>2019-06-08T16:21:15Z</time>
      </trkpt>
      <trkpt lat="48.9093" lon="-0.47585">
        <ele>57</ele>
        <time>2019-06-08T16:21:17Z</time>
      </trkpt>
      <trkpt lat="48.90924" lon="-0.47578">
        <ele>52</ele>
        <time>2019-06-08T16:21:19Z</time>
      </trkpt>
      <trkpt lat="48.9092" lon="-0.4757">
        <ele>51</ele>
        <time>2019-06-08T16:21:21Z</time>
      </trkpt>
      <trkpt lat="48.90916" lon="-0.47558">
        <ele>58</ele>
        <time>2019-06-08T16:21:23Z</time>
      </trkpt>
      <trkpt lat="48.90913" lon="-0.47547">
        <ele>57</ele>
        <time>2019-06-08T16:21:25Z</time>
      </trkpt>
      <trkpt lat="48.9091" lon="-0.47535">
        <ele>56</ele>
        <time>2019-06-08T16:21:27Z</time>
      </trkpt>
      <trkpt lat="48.90908" lon="-0.47525">
        <ele>54</ele>
        <time>2019-06-08T16:21:29Z</time>
      </trkpt>
      <trkpt lat="48.90905" lon="-0.47515">
        <ele>53</ele>
        <time>2019-06-08T16:21:31Z</time>
      </trkpt>
      <trkpt lat="48.90903" lon="-0.47504">
        <ele>51</ele>
        <time>2019-06-08T16:21:33Z</time>
      </trkpt>
      <trkpt lat="48.90902" lon="-0.47493">
        <ele>48</ele>
        <time>2019-06-08T16:21:35Z</time>
      </trkpt>
      <trkpt lat="48.909" lon="-0.47483">
        <ele>49</ele>
        <time>2019-06-08T16:21:37Z</time>
      </trkpt>
      <trkpt lat="48.90899" lon="-0.47474">
        <ele>49</ele>
        <time>2019-06-08T16:21:39Z</time>
      </trkpt>
      <trkpt lat="48.90898" lon="-0.47464">
        <ele>49</ele>
        <time>2019-06-08T16:21:41Z</time>
      </trkpt>
      <trkpt lat="48.90897" lon="-0.47454">
        <ele>49</ele>
        <time>2019-06-08T16:21:43Z</time>
      </trkpt>
      <trkpt lat="48.90896" lon="-0.47444">
        <ele>48</ele>
        <time>2019-06-08T16:21:45Z</time>
      </trkpt>
      <trkpt lat="48.90897" lon="-0.47434">
        <ele>48</ele>
        <time>2019-06-08T16:21:47Z</time>
      </trkpt>
      <trkpt lat="48.90897" lon="-0.47425">
        <ele>47</ele>
        <time>2019-06-08T16:21:49Z</time>
      </trkpt>
      <trkpt lat="48.90896" lon="-0.47416">
        <ele>44</ele>
        <time>2019-06-08T16:21:51Z</time>
      </trkpt>
      <trkpt lat="48.90896" lon="-0.47408">
        <ele>44</ele>
        <time>2019-06-08T16:21:53Z</time>
      </trkpt>
      <trkpt lat="48.90896" lon="-0.47399">
        <ele>45</ele>
        <time>2019-06-08T16:21:55Z</time>
      </trkpt>
      <trkpt lat="48.90897" lon="-0.4739">
        <ele>45</ele>
        <time>2019-06-08T16:21:57Z</time>
      </trkpt>
      <trkpt lat="48.90898" lon="-0.4738">
        <ele>45</ele>
        <time>2019-06-08T16:21:59Z</time>
      </trkpt>
      <trkpt lat="48.90898" lon="-0.47369">
        <ele>44</ele>
        <time>2019-06-08T16:22:01Z</time>
      </trkpt>
      <trkpt lat="48.90899" lon="-0.47359">
        <ele>44</ele>
        <time>2019-06-08T16:22:03Z</time>
      </trkpt>
      <trkpt lat="48.90899" lon="-0.47348">
        <ele>43</ele>
        <time>2019-06-08T16:22:05Z</time>
      </trkpt>
      <trkpt lat="48.909" lon="-0.47338">
        <ele>42</ele>
        <time>2019-06-08T16:22:07Z</time>
      </trkpt>
      <trkpt lat="48.90901" lon="-0.47327">
        <ele>41</ele>
        <time>2019-06-08T16:22:09Z</time>
      </trkpt>
      <trkpt lat="48.90902" lon="-0.47317">
        <ele>42</ele>
        <time>2019-06-08T16:22:11Z</time>
      </trkpt>
      <trkpt lat="48.90901" lon="-0.47307">
        <ele>42</ele>
        <time>2019-06-08T16:22:13Z</time>
      </trkpt>
      <trkpt lat="48.90902" lon="-0.47295">
        <ele>42</ele>
        <time>2019-06-08T16:22:15Z</time>
      </trkpt>
      <trkpt lat="48.90902" lon="-0.47283">
        <ele>42</ele>
        <time>2019-06-08T16:22:17Z</time>
      </trkpt>
      <trkpt lat="48.90902" lon="-0.47271">
        <ele>42</ele>
        <time>2019-06-08T16:22:19Z</time>
      </trkpt>
      <trkpt lat="48.90903" lon="-0.4726">
        <ele>41</ele>
        <time>2019-06-08T16:22:21Z</time>
      </trkpt>
      <trkpt lat="48.90903" lon="-0.47248">
        <ele>41</ele>
        <time>2019-06-08T16:22:23Z</time>
      </trkpt>
      <trkpt lat="48.90903" lon="-0.47236">
        <ele>41</ele>
        <time>2019-06-08T16:22:25Z</time>
      </trkpt>
      <trkpt lat="48.90903" lon="-0.47224">
        <ele>42</ele>
        <time>2019-06-08T16:22:27Z</time>
      </trkpt>
      <trkpt lat="48.90903" lon="-0.47213">
        <ele>42</ele>
        <time>2019-06-08T16:22:29Z</time>
      </trkpt>
      <trkpt lat="48.90901" lon="-0.47201">
        <ele>43</ele>
        <time>2019-06-08T16:22:31Z</time>
      </trkpt>
      <trkpt lat="48.90898" lon="-0.47189">
        <ele>43</ele>
        <time>2019-06-08T16:22:33Z</time>
      </trkpt>
      <trkpt lat="48.90897" lon="-0.47179">
        <ele>43</ele>
        <time>2019-06-08T16:22:35Z</time>
      </trkpt>
      <trkpt lat="48.90896" lon="-0.47169">
        <ele>43</ele>
        <time>2019-06-08T16:22:39Z</time>
      </trkpt>
      <trkpt lat="48.90901" lon="-0.47157">
        <ele>44</ele>
        <time>2019-06-08T16:22:43Z</time>
      </trkpt>
      <trkpt lat="48.90904" lon="-0.4715">
        <ele>44</ele>
        <time>2019-06-08T16:22:45Z</time>
      </trkpt>
      <trkpt lat="48.90906" lon="-0.4714">
        <ele>45</ele>
        <time>2019-06-08T16:22:47Z</time>
      </trkpt>
      <trkpt lat="48.90909" lon="-0.47129">
        <ele>45</ele>
        <time>2019-06-08T16:22:49Z</time>
      </trkpt>
      <trkpt lat="48.90911" lon="-0.47119">
        <ele>45</ele>
        <time>2019-06-08T16:22:51Z</time>
      </trkpt>
      <trkpt lat="48.90913" lon="-0.47109">
        <ele>45</ele>
        <time>2019-06-08T16:22:53Z</time>
      </trkpt>
      <trkpt lat="48.90913" lon="-0.47098">
        <ele>45</ele>
        <time>2019-06-08T16:22:55Z</time>
      </trkpt>
      <trkpt lat="48.90913" lon="-0.47086">
        <ele>44</ele>
        <time>2019-06-08T16:22:57Z</time>
      </trkpt>
      <trkpt lat="48.90914" lon="-0.47075">
        <ele>45</ele>
        <time>2019-06-08T16:22:59Z</time>
      </trkpt>
      <trkpt lat="48.90915" lon="-0.47065">
        <ele>46</ele>
        <time>2019-06-08T16:23:01Z</time>
      </trkpt>
      <trkpt lat="48.90916" lon="-0.47056">
        <ele>46</ele>
        <time>2019-06-08T16:23:03Z</time>
      </trkpt>
      <trkpt lat="48.90917" lon="-0.47046">
        <ele>44</ele>
        <time>2019-06-08T16:23:05Z</time>
      </trkpt>
      <trkpt lat="48.90917" lon="-0.47036">
        <ele>43</ele>
        <time>2019-06-08T16:23:07Z</time>
      </trkpt>
      <trkpt lat="48.90915" lon="-0.47025">
        <ele>45</ele>
        <time>2019-06-08T16:23:11Z</time>
      </trkpt>
      <trkpt lat="48.90917" lon="-0.47015">
        <ele>42</ele>
        <time>2019-06-08T16:23:15Z</time>
      </trkpt>
      <trkpt lat="48.90921" lon="-0.47004">
        <ele>42</ele>
        <time>2019-06-08T16:23:19Z</time>
      </trkpt>
      <trkpt lat="48.90922" lon="-0.46991">
        <ele>42</ele>
        <time>2019-06-08T16:23:23Z</time>
      </trkpt>
      <trkpt lat="48.90926" lon="-0.46988">
        <ele>42</ele>
        <time>2019-06-08T16:23:47Z</time>
      </trkpt>
    </trkseg>
  </trk>
</gpx>